<?xml version="1.0" encoding="UTF-8" standalone="no" ?>
<gpx xmlns="http://www.topografix.com/GPX/1/1" xmlns:xsi="http://www.w3.org/2001/XMLSchema-instance" xsi:schemaLocation="http://www.topografix.com/GPX/1/1 http://www.topografix.com/GPX/1/1/gpx.xsd" version="1.1" creator="VisuGPX - https://www.visugpx.com">
  <metadata>
    <name>Burlats Lacrouzette</name>
    <desc><![CDATA[Rando Burlats Lacrouzette descente vers Roquecourbe puis remonté vers Lacrouzette.
Retour Burlats par le saut de la Truite.]]></desc>
  </metadata>
  <trk>
    <name><![CDATA[2018-06-09-13-35-50 on GPSies.com]]></name>
    <trkseg>
      <trkpt lat="43.62978" lon="2.27852">
        <ele>179</ele>
        <time>2018-06-09T13:35:50Z</time>
      </trkpt>
      <trkpt lat="43.62977" lon="2.27848">
        <ele>179</ele>
        <time>2018-06-09T13:35:51Z</time>
      </trkpt>
      <trkpt lat="43.62974" lon="2.27832">
        <ele>179</ele>
        <time>2018-06-09T13:35:54Z</time>
      </trkpt>
      <trkpt lat="43.62973" lon="2.2783">
        <ele>179</ele>
        <time>2018-06-09T13:35:55Z</time>
      </trkpt>
      <trkpt lat="43.62972" lon="2.27826">
        <ele>179</ele>
        <time>2018-06-09T13:35:56Z</time>
      </trkpt>
      <trkpt lat="43.62972" lon="2.27822">
        <ele>179</ele>
        <time>2018-06-09T13:35:57Z</time>
      </trkpt>
      <trkpt lat="43.62972" lon="2.27814">
        <ele>178</ele>
        <time>2018-06-09T13:35:59Z</time>
      </trkpt>
      <trkpt lat="43.62972" lon="2.27812">
        <ele>178</ele>
        <time>2018-06-09T13:36:00Z</time>
      </trkpt>
      <trkpt lat="43.62972" lon="2.27808">
        <ele>178</ele>
        <time>2018-06-09T13:36:01Z</time>
      </trkpt>
      <trkpt lat="43.62969" lon="2.27804">
        <ele>178</ele>
        <time>2018-06-09T13:36:02Z</time>
      </trkpt>
      <trkpt lat="43.62966" lon="2.27801">
        <ele>178</ele>
        <time>2018-06-09T13:36:03Z</time>
      </trkpt>
      <trkpt lat="43.62962" lon="2.27798">
        <ele>178</ele>
        <time>2018-06-09T13:36:04Z</time>
      </trkpt>
      <trkpt lat="43.62958" lon="2.27796">
        <ele>178</ele>
        <time>2018-06-09T13:36:05Z</time>
      </trkpt>
      <trkpt lat="43.62953" lon="2.27794">
        <ele>178</ele>
        <time>2018-06-09T13:36:07Z</time>
      </trkpt>
      <trkpt lat="43.62952" lon="2.27794">
        <ele>178</ele>
        <time>2018-06-09T13:36:08Z</time>
      </trkpt>
      <trkpt lat="43.6295" lon="2.27793">
        <ele>179</ele>
        <time>2018-06-09T13:36:09Z</time>
      </trkpt>
      <trkpt lat="43.62943" lon="2.27788">
        <ele>179</ele>
        <time>2018-06-09T13:36:13Z</time>
      </trkpt>
      <trkpt lat="43.62941" lon="2.27787">
        <ele>180</ele>
        <time>2018-06-09T13:36:14Z</time>
      </trkpt>
      <trkpt lat="43.62936" lon="2.27785">
        <ele>180</ele>
        <time>2018-06-09T13:36:17Z</time>
      </trkpt>
      <trkpt lat="43.62933" lon="2.27783">
        <ele>181</ele>
        <time>2018-06-09T13:36:19Z</time>
      </trkpt>
      <trkpt lat="43.62931" lon="2.27782">
        <ele>181</ele>
        <time>2018-06-09T13:36:20Z</time>
      </trkpt>
      <trkpt lat="43.62926" lon="2.27779">
        <ele>182</ele>
        <time>2018-06-09T13:36:23Z</time>
      </trkpt>
      <trkpt lat="43.62923" lon="2.27779">
        <ele>182</ele>
        <time>2018-06-09T13:36:25Z</time>
      </trkpt>
      <trkpt lat="43.62921" lon="2.27778">
        <ele>183</ele>
        <time>2018-06-09T13:36:27Z</time>
      </trkpt>
      <trkpt lat="43.62916" lon="2.27777">
        <ele>184</ele>
        <time>2018-06-09T13:36:30Z</time>
      </trkpt>
      <trkpt lat="43.62915" lon="2.27776">
        <ele>184</ele>
        <time>2018-06-09T13:36:31Z</time>
      </trkpt>
      <trkpt lat="43.62914" lon="2.27775">
        <ele>185</ele>
        <time>2018-06-09T13:36:32Z</time>
      </trkpt>
      <trkpt lat="43.62911" lon="2.27775">
        <ele>185</ele>
        <time>2018-06-09T13:36:36Z</time>
      </trkpt>
      <trkpt lat="43.6291" lon="2.27774">
        <ele>186</ele>
        <time>2018-06-09T13:36:37Z</time>
      </trkpt>
      <trkpt lat="43.62907" lon="2.27773">
        <ele>186</ele>
        <time>2018-06-09T13:36:40Z</time>
      </trkpt>
      <trkpt lat="43.62905" lon="2.27772">
        <ele>187</ele>
        <time>2018-06-09T13:36:41Z</time>
      </trkpt>
      <trkpt lat="43.62904" lon="2.27771">
        <ele>187</ele>
        <time>2018-06-09T13:36:43Z</time>
      </trkpt>
      <trkpt lat="43.62899" lon="2.27768">
        <ele>188</ele>
        <time>2018-06-09T13:36:47Z</time>
      </trkpt>
      <trkpt lat="43.62898" lon="2.27767">
        <ele>188</ele>
        <time>2018-06-09T13:36:48Z</time>
      </trkpt>
      <trkpt lat="43.62896" lon="2.27768">
        <ele>189</ele>
        <time>2018-06-09T13:36:50Z</time>
      </trkpt>
      <trkpt lat="43.62895" lon="2.27767">
        <ele>189</ele>
        <time>2018-06-09T13:36:51Z</time>
      </trkpt>
      <trkpt lat="43.62893" lon="2.27766">
        <ele>189</ele>
        <time>2018-06-09T13:36:53Z</time>
      </trkpt>
      <trkpt lat="43.6289" lon="2.27761">
        <ele>190</ele>
        <time>2018-06-09T13:36:57Z</time>
      </trkpt>
      <trkpt lat="43.6289" lon="2.2776">
        <ele>190</ele>
        <time>2018-06-09T13:36:58Z</time>
      </trkpt>
      <trkpt lat="43.62884" lon="2.27746">
        <ele>191</ele>
        <time>2018-06-09T13:37:06Z</time>
      </trkpt>
      <trkpt lat="43.62882" lon="2.27743">
        <ele>192</ele>
        <time>2018-06-09T13:37:07Z</time>
      </trkpt>
      <trkpt lat="43.62873" lon="2.27735">
        <ele>193</ele>
        <time>2018-06-09T13:37:13Z</time>
      </trkpt>
      <trkpt lat="43.62866" lon="2.27725">
        <ele>193</ele>
        <time>2018-06-09T13:37:18Z</time>
      </trkpt>
      <trkpt lat="43.62864" lon="2.27724">
        <ele>193</ele>
        <time>2018-06-09T13:37:19Z</time>
      </trkpt>
      <trkpt lat="43.62862" lon="2.2772">
        <ele>194</ele>
        <time>2018-06-09T13:37:21Z</time>
      </trkpt>
      <trkpt lat="43.62852" lon="2.27709">
        <ele>194</ele>
        <time>2018-06-09T13:37:26Z</time>
      </trkpt>
      <trkpt lat="43.6284" lon="2.27693">
        <ele>193</ele>
        <time>2018-06-09T13:37:31Z</time>
      </trkpt>
      <trkpt lat="43.62826" lon="2.27676">
        <ele>192</ele>
        <time>2018-06-09T13:37:36Z</time>
      </trkpt>
      <trkpt lat="43.62815" lon="2.27664">
        <ele>193</ele>
        <time>2018-06-09T13:37:41Z</time>
      </trkpt>
      <trkpt lat="43.62809" lon="2.27658">
        <ele>194</ele>
        <time>2018-06-09T13:37:44Z</time>
      </trkpt>
      <trkpt lat="43.628" lon="2.27646">
        <ele>195</ele>
        <time>2018-06-09T13:37:49Z</time>
      </trkpt>
      <trkpt lat="43.62799" lon="2.27644">
        <ele>196</ele>
        <time>2018-06-09T13:37:50Z</time>
      </trkpt>
      <trkpt lat="43.62792" lon="2.27637">
        <ele>196</ele>
        <time>2018-06-09T13:37:53Z</time>
      </trkpt>
      <trkpt lat="43.62783" lon="2.27632">
        <ele>198</ele>
        <time>2018-06-09T13:37:57Z</time>
      </trkpt>
      <trkpt lat="43.62778" lon="2.27628">
        <ele>199</ele>
        <time>2018-06-09T13:38:01Z</time>
      </trkpt>
      <trkpt lat="43.62775" lon="2.27627">
        <ele>199</ele>
        <time>2018-06-09T13:38:03Z</time>
      </trkpt>
      <trkpt lat="43.62772" lon="2.27627">
        <ele>200</ele>
        <time>2018-06-09T13:38:05Z</time>
      </trkpt>
      <trkpt lat="43.62767" lon="2.27625">
        <ele>201</ele>
        <time>2018-06-09T13:38:08Z</time>
      </trkpt>
      <trkpt lat="43.62766" lon="2.27625">
        <ele>201</ele>
        <time>2018-06-09T13:38:09Z</time>
      </trkpt>
      <trkpt lat="43.62765" lon="2.27627">
        <ele>201</ele>
        <time>2018-06-09T13:38:10Z</time>
      </trkpt>
      <trkpt lat="43.6276" lon="2.27628">
        <ele>202</ele>
        <time>2018-06-09T13:38:14Z</time>
      </trkpt>
      <trkpt lat="43.62756" lon="2.27632">
        <ele>203</ele>
        <time>2018-06-09T13:38:18Z</time>
      </trkpt>
      <trkpt lat="43.62754" lon="2.27635">
        <ele>203</ele>
        <time>2018-06-09T13:38:20Z</time>
      </trkpt>
      <trkpt lat="43.62751" lon="2.27637">
        <ele>204</ele>
        <time>2018-06-09T13:38:22Z</time>
      </trkpt>
      <trkpt lat="43.62747" lon="2.27643">
        <ele>205</ele>
        <time>2018-06-09T13:38:26Z</time>
      </trkpt>
      <trkpt lat="43.62745" lon="2.27644">
        <ele>205</ele>
        <time>2018-06-09T13:38:27Z</time>
      </trkpt>
      <trkpt lat="43.62744" lon="2.27647">
        <ele>206</ele>
        <time>2018-06-09T13:38:29Z</time>
      </trkpt>
      <trkpt lat="43.62742" lon="2.27647">
        <ele>206</ele>
        <time>2018-06-09T13:38:30Z</time>
      </trkpt>
      <trkpt lat="43.6274" lon="2.27649">
        <ele>206</ele>
        <time>2018-06-09T13:38:31Z</time>
      </trkpt>
      <trkpt lat="43.62737" lon="2.27655">
        <ele>207</ele>
        <time>2018-06-09T13:38:34Z</time>
      </trkpt>
      <trkpt lat="43.62735" lon="2.27657">
        <ele>207</ele>
        <time>2018-06-09T13:38:36Z</time>
      </trkpt>
      <trkpt lat="43.62733" lon="2.27659">
        <ele>208</ele>
        <time>2018-06-09T13:38:38Z</time>
      </trkpt>
      <trkpt lat="43.62729" lon="2.27665">
        <ele>209</ele>
        <time>2018-06-09T13:38:42Z</time>
      </trkpt>
      <trkpt lat="43.62727" lon="2.27668">
        <ele>210</ele>
        <time>2018-06-09T13:38:45Z</time>
      </trkpt>
      <trkpt lat="43.62723" lon="2.27674">
        <ele>211</ele>
        <time>2018-06-09T13:38:49Z</time>
      </trkpt>
      <trkpt lat="43.62723" lon="2.27675">
        <ele>211</ele>
        <time>2018-06-09T13:38:50Z</time>
      </trkpt>
      <trkpt lat="43.62721" lon="2.27684">
        <ele>212</ele>
        <time>2018-06-09T13:38:55Z</time>
      </trkpt>
      <trkpt lat="43.6272" lon="2.27688">
        <ele>213</ele>
        <time>2018-06-09T13:38:57Z</time>
      </trkpt>
      <trkpt lat="43.62719" lon="2.2769">
        <ele>213</ele>
        <time>2018-06-09T13:38:58Z</time>
      </trkpt>
      <trkpt lat="43.62719" lon="2.27699">
        <ele>214</ele>
        <time>2018-06-09T13:39:03Z</time>
      </trkpt>
      <trkpt lat="43.62719" lon="2.27701">
        <ele>215</ele>
        <time>2018-06-09T13:39:04Z</time>
      </trkpt>
      <trkpt lat="43.62719" lon="2.27706">
        <ele>215</ele>
        <time>2018-06-09T13:39:07Z</time>
      </trkpt>
      <trkpt lat="43.62719" lon="2.27707">
        <ele>216</ele>
        <time>2018-06-09T13:39:08Z</time>
      </trkpt>
      <trkpt lat="43.62721" lon="2.27709">
        <ele>216</ele>
        <time>2018-06-09T13:39:10Z</time>
      </trkpt>
      <trkpt lat="43.62723" lon="2.27712">
        <ele>217</ele>
        <time>2018-06-09T13:39:12Z</time>
      </trkpt>
      <trkpt lat="43.62724" lon="2.27714">
        <ele>217</ele>
        <time>2018-06-09T13:39:14Z</time>
      </trkpt>
      <trkpt lat="43.62726" lon="2.27718">
        <ele>218</ele>
        <time>2018-06-09T13:39:16Z</time>
      </trkpt>
      <trkpt lat="43.62726" lon="2.27726">
        <ele>218</ele>
        <time>2018-06-09T13:39:21Z</time>
      </trkpt>
      <trkpt lat="43.62727" lon="2.27728">
        <ele>219</ele>
        <time>2018-06-09T13:39:22Z</time>
      </trkpt>
      <trkpt lat="43.62727" lon="2.27729">
        <ele>219</ele>
        <time>2018-06-09T13:39:23Z</time>
      </trkpt>
      <trkpt lat="43.62727" lon="2.27733">
        <ele>220</ele>
        <time>2018-06-09T13:39:26Z</time>
      </trkpt>
      <trkpt lat="43.62726" lon="2.27735">
        <ele>220</ele>
        <time>2018-06-09T13:39:28Z</time>
      </trkpt>
      <trkpt lat="43.62725" lon="2.27739">
        <ele>221</ele>
        <time>2018-06-09T13:39:31Z</time>
      </trkpt>
      <trkpt lat="43.62725" lon="2.27739">
        <ele>221</ele>
        <time>2018-06-09T13:39:32Z</time>
      </trkpt>
      <trkpt lat="43.62724" lon="2.27741">
        <ele>221</ele>
        <time>2018-06-09T13:39:33Z</time>
      </trkpt>
      <trkpt lat="43.62723" lon="2.27746">
        <ele>222</ele>
        <time>2018-06-09T13:39:36Z</time>
      </trkpt>
      <trkpt lat="43.62722" lon="2.27752">
        <ele>223</ele>
        <time>2018-06-09T13:39:39Z</time>
      </trkpt>
      <trkpt lat="43.62721" lon="2.27754">
        <ele>223</ele>
        <time>2018-06-09T13:39:40Z</time>
      </trkpt>
      <trkpt lat="43.62719" lon="2.2776">
        <ele>224</ele>
        <time>2018-06-09T13:39:44Z</time>
      </trkpt>
      <trkpt lat="43.62719" lon="2.2777">
        <ele>226</ele>
        <time>2018-06-09T13:39:49Z</time>
      </trkpt>
      <trkpt lat="43.62718" lon="2.27772">
        <ele>226</ele>
        <time>2018-06-09T13:39:50Z</time>
      </trkpt>
      <trkpt lat="43.62718" lon="2.27773">
        <ele>226</ele>
        <time>2018-06-09T13:39:51Z</time>
      </trkpt>
      <trkpt lat="43.62717" lon="2.27777">
        <ele>227</ele>
        <time>2018-06-09T13:39:54Z</time>
      </trkpt>
      <trkpt lat="43.62717" lon="2.27778">
        <ele>227</ele>
        <time>2018-06-09T13:39:55Z</time>
      </trkpt>
      <trkpt lat="43.62716" lon="2.2778">
        <ele>227</ele>
        <time>2018-06-09T13:39:57Z</time>
      </trkpt>
      <trkpt lat="43.62715" lon="2.27786">
        <ele>228</ele>
        <time>2018-06-09T13:40:01Z</time>
      </trkpt>
      <trkpt lat="43.62715" lon="2.27789">
        <ele>228</ele>
        <time>2018-06-09T13:40:03Z</time>
      </trkpt>
      <trkpt lat="43.62714" lon="2.27792">
        <ele>228</ele>
        <time>2018-06-09T13:40:04Z</time>
      </trkpt>
      <trkpt lat="43.62714" lon="2.27794">
        <ele>229</ele>
        <time>2018-06-09T13:40:05Z</time>
      </trkpt>
      <trkpt lat="43.62714" lon="2.27805">
        <ele>229</ele>
        <time>2018-06-09T13:40:11Z</time>
      </trkpt>
      <trkpt lat="43.62713" lon="2.27811">
        <ele>230</ele>
        <time>2018-06-09T13:40:14Z</time>
      </trkpt>
      <trkpt lat="43.62713" lon="2.27813">
        <ele>231</ele>
        <time>2018-06-09T13:40:16Z</time>
      </trkpt>
      <trkpt lat="43.62713" lon="2.2782">
        <ele>231</ele>
        <time>2018-06-09T13:40:19Z</time>
      </trkpt>
      <trkpt lat="43.62713" lon="2.27825">
        <ele>231</ele>
        <time>2018-06-09T13:40:21Z</time>
      </trkpt>
      <trkpt lat="43.62713" lon="2.27832">
        <ele>232</ele>
        <time>2018-06-09T13:40:24Z</time>
      </trkpt>
      <trkpt lat="43.62711" lon="2.27843">
        <ele>233</ele>
        <time>2018-06-09T13:40:29Z</time>
      </trkpt>
      <trkpt lat="43.6271" lon="2.27846">
        <ele>233</ele>
        <time>2018-06-09T13:40:31Z</time>
      </trkpt>
      <trkpt lat="43.6271" lon="2.27858">
        <ele>233</ele>
        <time>2018-06-09T13:40:34Z</time>
      </trkpt>
      <trkpt lat="43.62701" lon="2.27877">
        <ele>234</ele>
        <time>2018-06-09T13:40:42Z</time>
      </trkpt>
      <trkpt lat="43.62698" lon="2.27886">
        <ele>234</ele>
        <time>2018-06-09T13:40:46Z</time>
      </trkpt>
      <trkpt lat="43.62696" lon="2.27893">
        <ele>234</ele>
        <time>2018-06-09T13:40:49Z</time>
      </trkpt>
      <trkpt lat="43.62693" lon="2.27907">
        <ele>235</ele>
        <time>2018-06-09T13:40:55Z</time>
      </trkpt>
      <trkpt lat="43.62692" lon="2.2791">
        <ele>235</ele>
        <time>2018-06-09T13:40:56Z</time>
      </trkpt>
      <trkpt lat="43.62686" lon="2.27934">
        <ele>236</ele>
        <time>2018-06-09T13:41:04Z</time>
      </trkpt>
      <trkpt lat="43.62684" lon="2.27945">
        <ele>236</ele>
        <time>2018-06-09T13:41:08Z</time>
      </trkpt>
      <trkpt lat="43.62681" lon="2.27957">
        <ele>236</ele>
        <time>2018-06-09T13:41:12Z</time>
      </trkpt>
      <trkpt lat="43.62677" lon="2.27974">
        <ele>236</ele>
        <time>2018-06-09T13:41:18Z</time>
      </trkpt>
      <trkpt lat="43.62674" lon="2.27993">
        <ele>235</ele>
        <time>2018-06-09T13:41:24Z</time>
      </trkpt>
      <trkpt lat="43.62668" lon="2.28015">
        <ele>235</ele>
        <time>2018-06-09T13:41:30Z</time>
      </trkpt>
      <trkpt lat="43.62663" lon="2.28038">
        <ele>236</ele>
        <time>2018-06-09T13:41:36Z</time>
      </trkpt>
      <trkpt lat="43.62662" lon="2.28042">
        <ele>236</ele>
        <time>2018-06-09T13:41:37Z</time>
      </trkpt>
      <trkpt lat="43.62657" lon="2.28069">
        <ele>236</ele>
        <time>2018-06-09T13:41:43Z</time>
      </trkpt>
      <trkpt lat="43.62655" lon="2.28088">
        <ele>236</ele>
        <time>2018-06-09T13:41:47Z</time>
      </trkpt>
      <trkpt lat="43.62654" lon="2.28102">
        <ele>237</ele>
        <time>2018-06-09T13:41:50Z</time>
      </trkpt>
      <trkpt lat="43.62646" lon="2.28128">
        <ele>237</ele>
        <time>2018-06-09T13:41:56Z</time>
      </trkpt>
      <trkpt lat="43.62639" lon="2.28146">
        <ele>237</ele>
        <time>2018-06-09T13:42:01Z</time>
      </trkpt>
      <trkpt lat="43.62632" lon="2.28166">
        <ele>238</ele>
        <time>2018-06-09T13:42:07Z</time>
      </trkpt>
      <trkpt lat="43.6262" lon="2.2819">
        <ele>236</ele>
        <time>2018-06-09T13:42:12Z</time>
      </trkpt>
      <trkpt lat="43.62618" lon="2.28193">
        <ele>235</ele>
        <time>2018-06-09T13:42:13Z</time>
      </trkpt>
      <trkpt lat="43.62608" lon="2.28203">
        <ele>234</ele>
        <time>2018-06-09T13:42:16Z</time>
      </trkpt>
      <trkpt lat="43.62604" lon="2.28207">
        <ele>234</ele>
        <time>2018-06-09T13:42:17Z</time>
      </trkpt>
      <trkpt lat="43.62596" lon="2.28215">
        <ele>233</ele>
        <time>2018-06-09T13:42:19Z</time>
      </trkpt>
      <trkpt lat="43.62593" lon="2.28218">
        <ele>233</ele>
        <time>2018-06-09T13:42:20Z</time>
      </trkpt>
      <trkpt lat="43.62589" lon="2.28223">
        <ele>232</ele>
        <time>2018-06-09T13:42:21Z</time>
      </trkpt>
      <trkpt lat="43.62585" lon="2.28227">
        <ele>232</ele>
        <time>2018-06-09T13:42:22Z</time>
      </trkpt>
      <trkpt lat="43.62577" lon="2.28242">
        <ele>230</ele>
        <time>2018-06-09T13:42:25Z</time>
      </trkpt>
      <trkpt lat="43.62571" lon="2.28249">
        <ele>228</ele>
        <time>2018-06-09T13:42:27Z</time>
      </trkpt>
      <trkpt lat="43.62563" lon="2.28254">
        <ele>227</ele>
        <time>2018-06-09T13:42:29Z</time>
      </trkpt>
      <trkpt lat="43.62559" lon="2.28253">
        <ele>227</ele>
        <time>2018-06-09T13:42:30Z</time>
      </trkpt>
      <trkpt lat="43.62554" lon="2.2825">
        <ele>227</ele>
        <time>2018-06-09T13:42:31Z</time>
      </trkpt>
      <trkpt lat="43.62549" lon="2.28249">
        <ele>226</ele>
        <time>2018-06-09T13:42:32Z</time>
      </trkpt>
      <trkpt lat="43.62543" lon="2.28246">
        <ele>224</ele>
        <time>2018-06-09T13:42:33Z</time>
      </trkpt>
      <trkpt lat="43.62537" lon="2.28244">
        <ele>221</ele>
        <time>2018-06-09T13:42:34Z</time>
      </trkpt>
      <trkpt lat="43.6253" lon="2.28241">
        <ele>220</ele>
        <time>2018-06-09T13:42:35Z</time>
      </trkpt>
      <trkpt lat="43.62523" lon="2.28238">
        <ele>219</ele>
        <time>2018-06-09T13:42:36Z</time>
      </trkpt>
      <trkpt lat="43.62516" lon="2.28237">
        <ele>217</ele>
        <time>2018-06-09T13:42:37Z</time>
      </trkpt>
      <trkpt lat="43.62507" lon="2.28245">
        <ele>215</ele>
        <time>2018-06-09T13:42:39Z</time>
      </trkpt>
      <trkpt lat="43.62503" lon="2.2825">
        <ele>215</ele>
        <time>2018-06-09T13:42:40Z</time>
      </trkpt>
      <trkpt lat="43.62496" lon="2.28262">
        <ele>213</ele>
        <time>2018-06-09T13:42:42Z</time>
      </trkpt>
      <trkpt lat="43.6249" lon="2.28269">
        <ele>212</ele>
        <time>2018-06-09T13:42:43Z</time>
      </trkpt>
      <trkpt lat="43.62484" lon="2.28277">
        <ele>212</ele>
        <time>2018-06-09T13:42:44Z</time>
      </trkpt>
      <trkpt lat="43.62479" lon="2.28284">
        <ele>211</ele>
        <time>2018-06-09T13:42:45Z</time>
      </trkpt>
      <trkpt lat="43.62476" lon="2.28291">
        <ele>212</ele>
        <time>2018-06-09T13:42:46Z</time>
      </trkpt>
      <trkpt lat="43.62475" lon="2.28305">
        <ele>213</ele>
        <time>2018-06-09T13:42:48Z</time>
      </trkpt>
      <trkpt lat="43.62473" lon="2.28311">
        <ele>214</ele>
        <time>2018-06-09T13:42:49Z</time>
      </trkpt>
      <trkpt lat="43.62473" lon="2.28316">
        <ele>214</ele>
        <time>2018-06-09T13:42:50Z</time>
      </trkpt>
      <trkpt lat="43.62476" lon="2.2833">
        <ele>215</ele>
        <time>2018-06-09T13:42:54Z</time>
      </trkpt>
      <trkpt lat="43.62473" lon="2.28349">
        <ele>215</ele>
        <time>2018-06-09T13:42:58Z</time>
      </trkpt>
      <trkpt lat="43.62473" lon="2.28358">
        <ele>215</ele>
        <time>2018-06-09T13:43:00Z</time>
      </trkpt>
      <trkpt lat="43.62472" lon="2.28369">
        <ele>216</ele>
        <time>2018-06-09T13:43:03Z</time>
      </trkpt>
      <trkpt lat="43.62475" lon="2.28379">
        <ele>217</ele>
        <time>2018-06-09T13:43:06Z</time>
      </trkpt>
      <trkpt lat="43.62476" lon="2.28394">
        <ele>217</ele>
        <time>2018-06-09T13:43:11Z</time>
      </trkpt>
      <trkpt lat="43.62477" lon="2.28397">
        <ele>218</ele>
        <time>2018-06-09T13:43:12Z</time>
      </trkpt>
      <trkpt lat="43.62475" lon="2.28406">
        <ele>218</ele>
        <time>2018-06-09T13:43:15Z</time>
      </trkpt>
      <trkpt lat="43.62475" lon="2.2841">
        <ele>219</ele>
        <time>2018-06-09T13:43:16Z</time>
      </trkpt>
      <trkpt lat="43.62476" lon="2.2842">
        <ele>219</ele>
        <time>2018-06-09T13:43:19Z</time>
      </trkpt>
      <trkpt lat="43.62475" lon="2.28423">
        <ele>220</ele>
        <time>2018-06-09T13:43:20Z</time>
      </trkpt>
      <trkpt lat="43.62476" lon="2.28425">
        <ele>220</ele>
        <time>2018-06-09T13:43:21Z</time>
      </trkpt>
      <trkpt lat="43.62479" lon="2.28439">
        <ele>221</ele>
        <time>2018-06-09T13:43:26Z</time>
      </trkpt>
      <trkpt lat="43.62479" lon="2.28443">
        <ele>221</ele>
        <time>2018-06-09T13:43:27Z</time>
      </trkpt>
      <trkpt lat="43.62478" lon="2.28447">
        <ele>222</ele>
        <time>2018-06-09T13:43:30Z</time>
      </trkpt>
      <trkpt lat="43.62477" lon="2.28449">
        <ele>222</ele>
        <time>2018-06-09T13:43:31Z</time>
      </trkpt>
      <trkpt lat="43.62477" lon="2.28451">
        <ele>223</ele>
        <time>2018-06-09T13:43:32Z</time>
      </trkpt>
      <trkpt lat="43.62477" lon="2.28461">
        <ele>223</ele>
        <time>2018-06-09T13:43:36Z</time>
      </trkpt>
      <trkpt lat="43.62477" lon="2.28463">
        <ele>223</ele>
        <time>2018-06-09T13:43:37Z</time>
      </trkpt>
      <trkpt lat="43.62477" lon="2.28467">
        <ele>224</ele>
        <time>2018-06-09T13:43:38Z</time>
      </trkpt>
      <trkpt lat="43.62477" lon="2.28475">
        <ele>224</ele>
        <time>2018-06-09T13:43:41Z</time>
      </trkpt>
      <trkpt lat="43.62477" lon="2.28479">
        <ele>224</ele>
        <time>2018-06-09T13:43:42Z</time>
      </trkpt>
      <trkpt lat="43.62476" lon="2.28492">
        <ele>225</ele>
        <time>2018-06-09T13:43:46Z</time>
      </trkpt>
      <trkpt lat="43.62474" lon="2.285">
        <ele>226</ele>
        <time>2018-06-09T13:43:49Z</time>
      </trkpt>
      <trkpt lat="43.62472" lon="2.2851">
        <ele>226</ele>
        <time>2018-06-09T13:43:52Z</time>
      </trkpt>
      <trkpt lat="43.62472" lon="2.28514">
        <ele>226</ele>
        <time>2018-06-09T13:43:53Z</time>
      </trkpt>
      <trkpt lat="43.62469" lon="2.28519">
        <ele>227</ele>
        <time>2018-06-09T13:43:55Z</time>
      </trkpt>
      <trkpt lat="43.62468" lon="2.28529">
        <ele>227</ele>
        <time>2018-06-09T13:43:58Z</time>
      </trkpt>
      <trkpt lat="43.62467" lon="2.28532">
        <ele>227</ele>
        <time>2018-06-09T13:43:59Z</time>
      </trkpt>
      <trkpt lat="43.62467" lon="2.28535">
        <ele>227</ele>
        <time>2018-06-09T13:44:00Z</time>
      </trkpt>
      <trkpt lat="43.62465" lon="2.28546">
        <ele>228</ele>
        <time>2018-06-09T13:44:04Z</time>
      </trkpt>
      <trkpt lat="43.6246" lon="2.28568">
        <ele>229</ele>
        <time>2018-06-09T13:44:11Z</time>
      </trkpt>
      <trkpt lat="43.62458" lon="2.28581">
        <ele>230</ele>
        <time>2018-06-09T13:44:15Z</time>
      </trkpt>
      <trkpt lat="43.62456" lon="2.28589">
        <ele>230</ele>
        <time>2018-06-09T13:44:17Z</time>
      </trkpt>
      <trkpt lat="43.62455" lon="2.28601">
        <ele>232</ele>
        <time>2018-06-09T13:44:21Z</time>
      </trkpt>
      <trkpt lat="43.62455" lon="2.28604">
        <ele>232</ele>
        <time>2018-06-09T13:44:22Z</time>
      </trkpt>
      <trkpt lat="43.62454" lon="2.28614">
        <ele>233</ele>
        <time>2018-06-09T13:44:25Z</time>
      </trkpt>
      <trkpt lat="43.62453" lon="2.2862">
        <ele>233</ele>
        <time>2018-06-09T13:44:27Z</time>
      </trkpt>
      <trkpt lat="43.6245" lon="2.28637">
        <ele>233</ele>
        <time>2018-06-09T13:44:33Z</time>
      </trkpt>
      <trkpt lat="43.62447" lon="2.28655">
        <ele>234</ele>
        <time>2018-06-09T13:44:38Z</time>
      </trkpt>
      <trkpt lat="43.62444" lon="2.28673">
        <ele>234</ele>
        <time>2018-06-09T13:44:42Z</time>
      </trkpt>
      <trkpt lat="43.62439" lon="2.28699">
        <ele>234</ele>
        <time>2018-06-09T13:44:48Z</time>
      </trkpt>
      <trkpt lat="43.62434" lon="2.28719">
        <ele>234</ele>
        <time>2018-06-09T13:44:53Z</time>
      </trkpt>
      <trkpt lat="43.6243" lon="2.28742">
        <ele>234</ele>
        <time>2018-06-09T13:44:58Z</time>
      </trkpt>
      <trkpt lat="43.62427" lon="2.28761">
        <ele>235</ele>
        <time>2018-06-09T13:45:02Z</time>
      </trkpt>
      <trkpt lat="43.62426" lon="2.28771">
        <ele>235</ele>
        <time>2018-06-09T13:45:04Z</time>
      </trkpt>
      <trkpt lat="43.62423" lon="2.28788">
        <ele>234</ele>
        <time>2018-06-09T13:45:08Z</time>
      </trkpt>
      <trkpt lat="43.6242" lon="2.28815">
        <ele>235</ele>
        <time>2018-06-09T13:45:13Z</time>
      </trkpt>
      <trkpt lat="43.62418" lon="2.28831">
        <ele>235</ele>
        <time>2018-06-09T13:45:16Z</time>
      </trkpt>
      <trkpt lat="43.62416" lon="2.28844">
        <ele>236</ele>
        <time>2018-06-09T13:45:19Z</time>
      </trkpt>
      <trkpt lat="43.62415" lon="2.28866">
        <ele>236</ele>
        <time>2018-06-09T13:45:24Z</time>
      </trkpt>
      <trkpt lat="43.62415" lon="2.28871">
        <ele>237</ele>
        <time>2018-06-09T13:45:25Z</time>
      </trkpt>
      <trkpt lat="43.62411" lon="2.28904">
        <ele>237</ele>
        <time>2018-06-09T13:45:32Z</time>
      </trkpt>
      <trkpt lat="43.62411" lon="2.28909">
        <ele>237</ele>
        <time>2018-06-09T13:45:33Z</time>
      </trkpt>
      <trkpt lat="43.62409" lon="2.28931">
        <ele>238</ele>
        <time>2018-06-09T13:45:38Z</time>
      </trkpt>
      <trkpt lat="43.62408" lon="2.28944">
        <ele>238</ele>
        <time>2018-06-09T13:45:41Z</time>
      </trkpt>
      <trkpt lat="43.6241" lon="2.28963">
        <ele>239</ele>
        <time>2018-06-09T13:45:46Z</time>
      </trkpt>
      <trkpt lat="43.62413" lon="2.28975">
        <ele>239</ele>
        <time>2018-06-09T13:45:49Z</time>
      </trkpt>
      <trkpt lat="43.62414" lon="2.28986">
        <ele>240</ele>
        <time>2018-06-09T13:45:52Z</time>
      </trkpt>
      <trkpt lat="43.62416" lon="2.28994">
        <ele>240</ele>
        <time>2018-06-09T13:45:54Z</time>
      </trkpt>
      <trkpt lat="43.62417" lon="2.29007">
        <ele>241</ele>
        <time>2018-06-09T13:45:57Z</time>
      </trkpt>
      <trkpt lat="43.6242" lon="2.29027">
        <ele>241</ele>
        <time>2018-06-09T13:46:02Z</time>
      </trkpt>
      <trkpt lat="43.62421" lon="2.29031">
        <ele>242</ele>
        <time>2018-06-09T13:46:03Z</time>
      </trkpt>
      <trkpt lat="43.62425" lon="2.29045">
        <ele>242</ele>
        <time>2018-06-09T13:46:07Z</time>
      </trkpt>
      <trkpt lat="43.62426" lon="2.29055">
        <ele>243</ele>
        <time>2018-06-09T13:46:10Z</time>
      </trkpt>
      <trkpt lat="43.62427" lon="2.29058">
        <ele>243</ele>
        <time>2018-06-09T13:46:11Z</time>
      </trkpt>
      <trkpt lat="43.6243" lon="2.29073">
        <ele>245</ele>
        <time>2018-06-09T13:46:16Z</time>
      </trkpt>
      <trkpt lat="43.62432" lon="2.29088">
        <ele>246</ele>
        <time>2018-06-09T13:46:21Z</time>
      </trkpt>
      <trkpt lat="43.62432" lon="2.29091">
        <ele>246</ele>
        <time>2018-06-09T13:46:22Z</time>
      </trkpt>
      <trkpt lat="43.62433" lon="2.29104">
        <ele>247</ele>
        <time>2018-06-09T13:46:26Z</time>
      </trkpt>
      <trkpt lat="43.62436" lon="2.29125">
        <ele>248</ele>
        <time>2018-06-09T13:46:32Z</time>
      </trkpt>
      <trkpt lat="43.62437" lon="2.29144">
        <ele>248</ele>
        <time>2018-06-09T13:46:37Z</time>
      </trkpt>
      <trkpt lat="43.62438" lon="2.29151">
        <ele>248</ele>
        <time>2018-06-09T13:46:39Z</time>
      </trkpt>
      <trkpt lat="43.62439" lon="2.29177">
        <ele>249</ele>
        <time>2018-06-09T13:46:45Z</time>
      </trkpt>
      <trkpt lat="43.62442" lon="2.29203">
        <ele>249</ele>
        <time>2018-06-09T13:46:51Z</time>
      </trkpt>
      <trkpt lat="43.62443" lon="2.29207">
        <ele>249</ele>
        <time>2018-06-09T13:46:52Z</time>
      </trkpt>
      <trkpt lat="43.62446" lon="2.29239">
        <ele>250</ele>
        <time>2018-06-09T13:46:59Z</time>
      </trkpt>
      <trkpt lat="43.62446" lon="2.29263">
        <ele>250</ele>
        <time>2018-06-09T13:47:04Z</time>
      </trkpt>
      <trkpt lat="43.62448" lon="2.29289">
        <ele>250</ele>
        <time>2018-06-09T13:47:09Z</time>
      </trkpt>
      <trkpt lat="43.62448" lon="2.29299">
        <ele>251</ele>
        <time>2018-06-09T13:47:11Z</time>
      </trkpt>
      <trkpt lat="43.62448" lon="2.29333">
        <ele>251</ele>
        <time>2018-06-09T13:47:18Z</time>
      </trkpt>
      <trkpt lat="43.62447" lon="2.29338">
        <ele>251</ele>
        <time>2018-06-09T13:47:19Z</time>
      </trkpt>
      <trkpt lat="43.62445" lon="2.29366">
        <ele>252</ele>
        <time>2018-06-09T13:47:25Z</time>
      </trkpt>
      <trkpt lat="43.62445" lon="2.29374">
        <ele>252</ele>
        <time>2018-06-09T13:47:27Z</time>
      </trkpt>
      <trkpt lat="43.62443" lon="2.2939">
        <ele>253</ele>
        <time>2018-06-09T13:47:31Z</time>
      </trkpt>
      <trkpt lat="43.62443" lon="2.29394">
        <ele>253</ele>
        <time>2018-06-09T13:47:32Z</time>
      </trkpt>
      <trkpt lat="43.6244" lon="2.2942">
        <ele>254</ele>
        <time>2018-06-09T13:47:38Z</time>
      </trkpt>
      <trkpt lat="43.62439" lon="2.29455">
        <ele>254</ele>
        <time>2018-06-09T13:47:45Z</time>
      </trkpt>
      <trkpt lat="43.62439" lon="2.29461">
        <ele>254</ele>
        <time>2018-06-09T13:47:46Z</time>
      </trkpt>
      <trkpt lat="43.62436" lon="2.29496">
        <ele>254</ele>
        <time>2018-06-09T13:47:53Z</time>
      </trkpt>
      <trkpt lat="43.62432" lon="2.29543">
        <ele>255</ele>
        <time>2018-06-09T13:48:02Z</time>
      </trkpt>
      <trkpt lat="43.62431" lon="2.29554">
        <ele>255</ele>
        <time>2018-06-09T13:48:04Z</time>
      </trkpt>
      <trkpt lat="43.62426" lon="2.29603">
        <ele>256</ele>
        <time>2018-06-09T13:48:13Z</time>
      </trkpt>
      <trkpt lat="43.62425" lon="2.29608">
        <ele>256</ele>
        <time>2018-06-09T13:48:14Z</time>
      </trkpt>
      <trkpt lat="43.62422" lon="2.29646">
        <ele>256</ele>
        <time>2018-06-09T13:48:21Z</time>
      </trkpt>
      <trkpt lat="43.6242" lon="2.29667">
        <ele>257</ele>
        <time>2018-06-09T13:48:25Z</time>
      </trkpt>
      <trkpt lat="43.62416" lon="2.29685">
        <ele>258</ele>
        <time>2018-06-09T13:48:29Z</time>
      </trkpt>
      <trkpt lat="43.62411" lon="2.29717">
        <ele>258</ele>
        <time>2018-06-09T13:48:36Z</time>
      </trkpt>
      <trkpt lat="43.6241" lon="2.29722">
        <ele>258</ele>
        <time>2018-06-09T13:48:37Z</time>
      </trkpt>
      <trkpt lat="43.62408" lon="2.29752">
        <ele>258</ele>
        <time>2018-06-09T13:48:44Z</time>
      </trkpt>
      <trkpt lat="43.62407" lon="2.2976">
        <ele>259</ele>
        <time>2018-06-09T13:48:46Z</time>
      </trkpt>
      <trkpt lat="43.62411" lon="2.2977">
        <ele>259</ele>
        <time>2018-06-09T13:48:50Z</time>
      </trkpt>
      <trkpt lat="43.6242" lon="2.29776">
        <ele>259</ele>
        <time>2018-06-09T13:48:54Z</time>
      </trkpt>
      <trkpt lat="43.62423" lon="2.29778">
        <ele>259</ele>
        <time>2018-06-09T13:48:55Z</time>
      </trkpt>
      <trkpt lat="43.62439" lon="2.29791">
        <ele>259</ele>
        <time>2018-06-09T13:49:01Z</time>
      </trkpt>
      <trkpt lat="43.62458" lon="2.2981">
        <ele>259</ele>
        <time>2018-06-09T13:49:08Z</time>
      </trkpt>
      <trkpt lat="43.6247" lon="2.29822">
        <ele>258</ele>
        <time>2018-06-09T13:49:12Z</time>
      </trkpt>
      <trkpt lat="43.62477" lon="2.29832">
        <ele>258</ele>
        <time>2018-06-09T13:49:15Z</time>
      </trkpt>
      <trkpt lat="43.62482" lon="2.29836">
        <ele>257</ele>
        <time>2018-06-09T13:49:16Z</time>
      </trkpt>
      <trkpt lat="43.62488" lon="2.29841">
        <ele>256</ele>
        <time>2018-06-09T13:49:17Z</time>
      </trkpt>
      <trkpt lat="43.62492" lon="2.29846">
        <ele>255</ele>
        <time>2018-06-09T13:49:18Z</time>
      </trkpt>
      <trkpt lat="43.62495" lon="2.29852">
        <ele>253</ele>
        <time>2018-06-09T13:49:19Z</time>
      </trkpt>
      <trkpt lat="43.62499" lon="2.29858">
        <ele>252</ele>
        <time>2018-06-09T13:49:20Z</time>
      </trkpt>
      <trkpt lat="43.625" lon="2.29864">
        <ele>252</ele>
        <time>2018-06-09T13:49:21Z</time>
      </trkpt>
      <trkpt lat="43.62506" lon="2.29872">
        <ele>251</ele>
        <time>2018-06-09T13:49:22Z</time>
      </trkpt>
      <trkpt lat="43.62511" lon="2.29879">
        <ele>250</ele>
        <time>2018-06-09T13:49:23Z</time>
      </trkpt>
      <trkpt lat="43.62516" lon="2.29883">
        <ele>250</ele>
        <time>2018-06-09T13:49:24Z</time>
      </trkpt>
      <trkpt lat="43.62521" lon="2.29887">
        <ele>250</ele>
        <time>2018-06-09T13:49:25Z</time>
      </trkpt>
      <trkpt lat="43.62526" lon="2.29889">
        <ele>248</ele>
        <time>2018-06-09T13:49:26Z</time>
      </trkpt>
      <trkpt lat="43.62539" lon="2.2989">
        <ele>249</ele>
        <time>2018-06-09T13:49:29Z</time>
      </trkpt>
      <trkpt lat="43.62544" lon="2.29891">
        <ele>249</ele>
        <time>2018-06-09T13:49:30Z</time>
      </trkpt>
      <trkpt lat="43.62555" lon="2.29894">
        <ele>251</ele>
        <time>2018-06-09T13:49:33Z</time>
      </trkpt>
      <trkpt lat="43.62559" lon="2.29896">
        <ele>252</ele>
        <time>2018-06-09T13:49:35Z</time>
      </trkpt>
      <trkpt lat="43.62564" lon="2.29899">
        <ele>252</ele>
        <time>2018-06-09T13:49:37Z</time>
      </trkpt>
      <trkpt lat="43.62575" lon="2.29905">
        <ele>252</ele>
        <time>2018-06-09T13:49:41Z</time>
      </trkpt>
      <trkpt lat="43.62584" lon="2.29912">
        <ele>252</ele>
        <time>2018-06-09T13:49:44Z</time>
      </trkpt>
      <trkpt lat="43.6259" lon="2.29917">
        <ele>252</ele>
        <time>2018-06-09T13:49:46Z</time>
      </trkpt>
      <trkpt lat="43.62604" lon="2.29927">
        <ele>252</ele>
        <time>2018-06-09T13:49:51Z</time>
      </trkpt>
      <trkpt lat="43.62615" lon="2.29943">
        <ele>251</ele>
        <time>2018-06-09T13:49:56Z</time>
      </trkpt>
      <trkpt lat="43.62619" lon="2.29951">
        <ele>251</ele>
        <time>2018-06-09T13:49:58Z</time>
      </trkpt>
      <trkpt lat="43.62627" lon="2.29962">
        <ele>251</ele>
        <time>2018-06-09T13:50:00Z</time>
      </trkpt>
      <trkpt lat="43.62633" lon="2.29977">
        <ele>251</ele>
        <time>2018-06-09T13:50:02Z</time>
      </trkpt>
      <trkpt lat="43.62634" lon="2.29984">
        <ele>250</ele>
        <time>2018-06-09T13:50:03Z</time>
      </trkpt>
      <trkpt lat="43.62636" lon="2.29993">
        <ele>249</ele>
        <time>2018-06-09T13:50:04Z</time>
      </trkpt>
      <trkpt lat="43.62636" lon="2.30002">
        <ele>248</ele>
        <time>2018-06-09T13:50:05Z</time>
      </trkpt>
      <trkpt lat="43.62637" lon="2.3001">
        <ele>248</ele>
        <time>2018-06-09T13:50:06Z</time>
      </trkpt>
      <trkpt lat="43.62635" lon="2.3003">
        <ele>245</ele>
        <time>2018-06-09T13:50:08Z</time>
      </trkpt>
      <trkpt lat="43.62634" lon="2.3004">
        <ele>244</ele>
        <time>2018-06-09T13:50:09Z</time>
      </trkpt>
      <trkpt lat="43.62633" lon="2.30073">
        <ele>243</ele>
        <time>2018-06-09T13:50:12Z</time>
      </trkpt>
      <trkpt lat="43.62634" lon="2.30093">
        <ele>242</ele>
        <time>2018-06-09T13:50:14Z</time>
      </trkpt>
      <trkpt lat="43.6264" lon="2.30118">
        <ele>242</ele>
        <time>2018-06-09T13:50:17Z</time>
      </trkpt>
      <trkpt lat="43.62642" lon="2.30127">
        <ele>240</ele>
        <time>2018-06-09T13:50:18Z</time>
      </trkpt>
      <trkpt lat="43.62644" lon="2.30135">
        <ele>240</ele>
        <time>2018-06-09T13:50:19Z</time>
      </trkpt>
      <trkpt lat="43.62653" lon="2.30162">
        <ele>239</ele>
        <time>2018-06-09T13:50:22Z</time>
      </trkpt>
      <trkpt lat="43.62656" lon="2.3017">
        <ele>237</ele>
        <time>2018-06-09T13:50:23Z</time>
      </trkpt>
      <trkpt lat="43.6266" lon="2.30178">
        <ele>235</ele>
        <time>2018-06-09T13:50:24Z</time>
      </trkpt>
      <trkpt lat="43.62663" lon="2.30186">
        <ele>234</ele>
        <time>2018-06-09T13:50:25Z</time>
      </trkpt>
      <trkpt lat="43.62665" lon="2.30195">
        <ele>233</ele>
        <time>2018-06-09T13:50:26Z</time>
      </trkpt>
      <trkpt lat="43.62666" lon="2.30202">
        <ele>233</ele>
        <time>2018-06-09T13:50:27Z</time>
      </trkpt>
      <trkpt lat="43.62667" lon="2.30208">
        <ele>232</ele>
        <time>2018-06-09T13:50:28Z</time>
      </trkpt>
      <trkpt lat="43.62667" lon="2.3022">
        <ele>231</ele>
        <time>2018-06-09T13:50:30Z</time>
      </trkpt>
      <trkpt lat="43.62668" lon="2.30227">
        <ele>231</ele>
        <time>2018-06-09T13:50:32Z</time>
      </trkpt>
      <trkpt lat="43.62672" lon="2.30229">
        <ele>230</ele>
        <time>2018-06-09T13:50:34Z</time>
      </trkpt>
      <trkpt lat="43.62678" lon="2.30239">
        <ele>230</ele>
        <time>2018-06-09T13:50:38Z</time>
      </trkpt>
      <trkpt lat="43.6268" lon="2.30241">
        <ele>230</ele>
        <time>2018-06-09T13:50:40Z</time>
      </trkpt>
      <trkpt lat="43.62686" lon="2.30252">
        <ele>231</ele>
        <time>2018-06-09T13:50:44Z</time>
      </trkpt>
      <trkpt lat="43.62687" lon="2.30255">
        <ele>231</ele>
        <time>2018-06-09T13:50:45Z</time>
      </trkpt>
      <trkpt lat="43.62691" lon="2.30261">
        <ele>231</ele>
        <time>2018-06-09T13:50:48Z</time>
      </trkpt>
      <trkpt lat="43.62695" lon="2.30264">
        <ele>232</ele>
        <time>2018-06-09T13:50:50Z</time>
      </trkpt>
      <trkpt lat="43.62696" lon="2.30266">
        <ele>232</ele>
        <time>2018-06-09T13:50:51Z</time>
      </trkpt>
      <trkpt lat="43.627" lon="2.30268">
        <ele>233</ele>
        <time>2018-06-09T13:50:53Z</time>
      </trkpt>
      <trkpt lat="43.62701" lon="2.3027">
        <ele>234</ele>
        <time>2018-06-09T13:50:56Z</time>
      </trkpt>
      <trkpt lat="43.62702" lon="2.3027">
        <ele>234</ele>
        <time>2018-06-09T13:51:00Z</time>
      </trkpt>
      <trkpt lat="43.62702" lon="2.30272">
        <ele>234</ele>
        <time>2018-06-09T13:51:03Z</time>
      </trkpt>
      <trkpt lat="43.62704" lon="2.30275">
        <ele>235</ele>
        <time>2018-06-09T13:51:07Z</time>
      </trkpt>
      <trkpt lat="43.62708" lon="2.30278">
        <ele>235</ele>
        <time>2018-06-09T13:51:10Z</time>
      </trkpt>
      <trkpt lat="43.62712" lon="2.30279">
        <ele>236</ele>
        <time>2018-06-09T13:51:16Z</time>
      </trkpt>
      <trkpt lat="43.62715" lon="2.30277">
        <ele>236</ele>
        <time>2018-06-09T13:51:20Z</time>
      </trkpt>
      <trkpt lat="43.62717" lon="2.30275">
        <ele>236</ele>
        <time>2018-06-09T13:51:22Z</time>
      </trkpt>
      <trkpt lat="43.62718" lon="2.30274">
        <ele>236</ele>
        <time>2018-06-09T13:51:23Z</time>
      </trkpt>
      <trkpt lat="43.62722" lon="2.30271">
        <ele>237</ele>
        <time>2018-06-09T13:51:26Z</time>
      </trkpt>
      <trkpt lat="43.62726" lon="2.30269">
        <ele>238</ele>
        <time>2018-06-09T13:51:29Z</time>
      </trkpt>
      <trkpt lat="43.62728" lon="2.30271">
        <ele>238</ele>
        <time>2018-06-09T13:51:31Z</time>
      </trkpt>
      <trkpt lat="43.62729" lon="2.30273">
        <ele>238</ele>
        <time>2018-06-09T13:51:32Z</time>
      </trkpt>
      <trkpt lat="43.62731" lon="2.30277">
        <ele>239</ele>
        <time>2018-06-09T13:51:34Z</time>
      </trkpt>
      <trkpt lat="43.62732" lon="2.30278">
        <ele>239</ele>
        <time>2018-06-09T13:51:35Z</time>
      </trkpt>
      <trkpt lat="43.62736" lon="2.30285">
        <ele>240</ele>
        <time>2018-06-09T13:51:40Z</time>
      </trkpt>
      <trkpt lat="43.62738" lon="2.30289">
        <ele>241</ele>
        <time>2018-06-09T13:51:42Z</time>
      </trkpt>
      <trkpt lat="43.62743" lon="2.30292">
        <ele>242</ele>
        <time>2018-06-09T13:51:44Z</time>
      </trkpt>
      <trkpt lat="43.62745" lon="2.30294">
        <ele>243</ele>
        <time>2018-06-09T13:51:46Z</time>
      </trkpt>
      <trkpt lat="43.62749" lon="2.30297">
        <ele>244</ele>
        <time>2018-06-09T13:51:49Z</time>
      </trkpt>
      <trkpt lat="43.62754" lon="2.30303">
        <ele>245</ele>
        <time>2018-06-09T13:51:53Z</time>
      </trkpt>
      <trkpt lat="43.62761" lon="2.30308">
        <ele>246</ele>
        <time>2018-06-09T13:51:56Z</time>
      </trkpt>
      <trkpt lat="43.62763" lon="2.30309">
        <ele>246</ele>
        <time>2018-06-09T13:51:57Z</time>
      </trkpt>
      <trkpt lat="43.62768" lon="2.30313">
        <ele>247</ele>
        <time>2018-06-09T13:52:00Z</time>
      </trkpt>
      <trkpt lat="43.62769" lon="2.30314">
        <ele>248</ele>
        <time>2018-06-09T13:52:01Z</time>
      </trkpt>
      <trkpt lat="43.62771" lon="2.30315">
        <ele>248</ele>
        <time>2018-06-09T13:52:02Z</time>
      </trkpt>
      <trkpt lat="43.62774" lon="2.30318">
        <ele>248</ele>
        <time>2018-06-09T13:52:04Z</time>
      </trkpt>
      <trkpt lat="43.62775" lon="2.30319">
        <ele>249</ele>
        <time>2018-06-09T13:52:05Z</time>
      </trkpt>
      <trkpt lat="43.62776" lon="2.3032">
        <ele>249</ele>
        <time>2018-06-09T13:52:06Z</time>
      </trkpt>
      <trkpt lat="43.62777" lon="2.30321">
        <ele>249</ele>
        <time>2018-06-09T13:52:07Z</time>
      </trkpt>
      <trkpt lat="43.62779" lon="2.30324">
        <ele>250</ele>
        <time>2018-06-09T13:52:09Z</time>
      </trkpt>
      <trkpt lat="43.62784" lon="2.30328">
        <ele>251</ele>
        <time>2018-06-09T13:52:12Z</time>
      </trkpt>
      <trkpt lat="43.62785" lon="2.3033">
        <ele>252</ele>
        <time>2018-06-09T13:52:14Z</time>
      </trkpt>
      <trkpt lat="43.62789" lon="2.30335">
        <ele>252</ele>
        <time>2018-06-09T13:52:18Z</time>
      </trkpt>
      <trkpt lat="43.62792" lon="2.30338">
        <ele>253</ele>
        <time>2018-06-09T13:52:21Z</time>
      </trkpt>
      <trkpt lat="43.62794" lon="2.30339">
        <ele>254</ele>
        <time>2018-06-09T13:52:22Z</time>
      </trkpt>
      <trkpt lat="43.62798" lon="2.30346">
        <ele>255</ele>
        <time>2018-06-09T13:52:26Z</time>
      </trkpt>
      <trkpt lat="43.628" lon="2.30349">
        <ele>255</ele>
        <time>2018-06-09T13:52:28Z</time>
      </trkpt>
      <trkpt lat="43.62801" lon="2.30352">
        <ele>255</ele>
        <time>2018-06-09T13:52:30Z</time>
      </trkpt>
      <trkpt lat="43.62803" lon="2.30354">
        <ele>256</ele>
        <time>2018-06-09T13:52:32Z</time>
      </trkpt>
      <trkpt lat="43.62806" lon="2.30356">
        <ele>257</ele>
        <time>2018-06-09T13:52:34Z</time>
      </trkpt>
      <trkpt lat="43.62808" lon="2.30358">
        <ele>257</ele>
        <time>2018-06-09T13:52:35Z</time>
      </trkpt>
      <trkpt lat="43.62808" lon="2.30359">
        <ele>257</ele>
        <time>2018-06-09T13:52:36Z</time>
      </trkpt>
      <trkpt lat="43.62808" lon="2.3036">
        <ele>258</ele>
        <time>2018-06-09T13:52:37Z</time>
      </trkpt>
      <trkpt lat="43.62811" lon="2.30368">
        <ele>259</ele>
        <time>2018-06-09T13:52:42Z</time>
      </trkpt>
      <trkpt lat="43.62812" lon="2.30372">
        <ele>259</ele>
        <time>2018-06-09T13:52:44Z</time>
      </trkpt>
      <trkpt lat="43.62813" lon="2.30376">
        <ele>260</ele>
        <time>2018-06-09T13:52:46Z</time>
      </trkpt>
      <trkpt lat="43.62815" lon="2.30384">
        <ele>261</ele>
        <time>2018-06-09T13:52:51Z</time>
      </trkpt>
      <trkpt lat="43.62815" lon="2.30392">
        <ele>262</ele>
        <time>2018-06-09T13:52:54Z</time>
      </trkpt>
      <trkpt lat="43.62816" lon="2.30394">
        <ele>262</ele>
        <time>2018-06-09T13:52:55Z</time>
      </trkpt>
      <trkpt lat="43.62817" lon="2.30398">
        <ele>263</ele>
        <time>2018-06-09T13:52:57Z</time>
      </trkpt>
      <trkpt lat="43.62818" lon="2.30402">
        <ele>263</ele>
        <time>2018-06-09T13:52:59Z</time>
      </trkpt>
      <trkpt lat="43.62819" lon="2.30409">
        <ele>264</ele>
        <time>2018-06-09T13:53:03Z</time>
      </trkpt>
      <trkpt lat="43.6282" lon="2.30411">
        <ele>265</ele>
        <time>2018-06-09T13:53:04Z</time>
      </trkpt>
      <trkpt lat="43.6282" lon="2.30415">
        <ele>265</ele>
        <time>2018-06-09T13:53:06Z</time>
      </trkpt>
      <trkpt lat="43.62821" lon="2.30416">
        <ele>266</ele>
        <time>2018-06-09T13:53:07Z</time>
      </trkpt>
      <trkpt lat="43.62822" lon="2.30419">
        <ele>266</ele>
        <time>2018-06-09T13:53:09Z</time>
      </trkpt>
      <trkpt lat="43.62822" lon="2.30421">
        <ele>266</ele>
        <time>2018-06-09T13:53:10Z</time>
      </trkpt>
      <trkpt lat="43.62823" lon="2.30424">
        <ele>267</ele>
        <time>2018-06-09T13:53:12Z</time>
      </trkpt>
      <trkpt lat="43.62823" lon="2.30425">
        <ele>267</ele>
        <time>2018-06-09T13:53:13Z</time>
      </trkpt>
      <trkpt lat="43.62824" lon="2.30428">
        <ele>267</ele>
        <time>2018-06-09T13:53:14Z</time>
      </trkpt>
      <trkpt lat="43.62824" lon="2.3043">
        <ele>267</ele>
        <time>2018-06-09T13:53:15Z</time>
      </trkpt>
      <trkpt lat="43.62827" lon="2.3044">
        <ele>268</ele>
        <time>2018-06-09T13:53:20Z</time>
      </trkpt>
      <trkpt lat="43.62827" lon="2.30446">
        <ele>268</ele>
        <time>2018-06-09T13:53:23Z</time>
      </trkpt>
      <trkpt lat="43.62828" lon="2.3045">
        <ele>269</ele>
        <time>2018-06-09T13:53:25Z</time>
      </trkpt>
      <trkpt lat="43.62826" lon="2.30463">
        <ele>270</ele>
        <time>2018-06-09T13:53:31Z</time>
      </trkpt>
      <trkpt lat="43.62826" lon="2.30465">
        <ele>270</ele>
        <time>2018-06-09T13:53:32Z</time>
      </trkpt>
      <trkpt lat="43.62825" lon="2.30474">
        <ele>271</ele>
        <time>2018-06-09T13:53:36Z</time>
      </trkpt>
      <trkpt lat="43.62826" lon="2.30476">
        <ele>271</ele>
        <time>2018-06-09T13:53:37Z</time>
      </trkpt>
      <trkpt lat="43.62826" lon="2.30485">
        <ele>272</ele>
        <time>2018-06-09T13:53:41Z</time>
      </trkpt>
      <trkpt lat="43.62827" lon="2.30488">
        <ele>273</ele>
        <time>2018-06-09T13:53:43Z</time>
      </trkpt>
      <trkpt lat="43.62828" lon="2.30489">
        <ele>273</ele>
        <time>2018-06-09T13:53:44Z</time>
      </trkpt>
      <trkpt lat="43.62829" lon="2.30493">
        <ele>273</ele>
        <time>2018-06-09T13:53:46Z</time>
      </trkpt>
      <trkpt lat="43.62829" lon="2.30497">
        <ele>274</ele>
        <time>2018-06-09T13:53:48Z</time>
      </trkpt>
      <trkpt lat="43.6283" lon="2.305">
        <ele>274</ele>
        <time>2018-06-09T13:53:50Z</time>
      </trkpt>
      <trkpt lat="43.62833" lon="2.30501">
        <ele>274</ele>
        <time>2018-06-09T13:53:52Z</time>
      </trkpt>
      <trkpt lat="43.62835" lon="2.30501">
        <ele>274</ele>
        <time>2018-06-09T13:53:54Z</time>
      </trkpt>
      <trkpt lat="43.62846" lon="2.305">
        <ele>274</ele>
        <time>2018-06-09T13:54:01Z</time>
      </trkpt>
      <trkpt lat="43.62859" lon="2.30506">
        <ele>273</ele>
        <time>2018-06-09T13:54:07Z</time>
      </trkpt>
      <trkpt lat="43.62867" lon="2.30514">
        <ele>273</ele>
        <time>2018-06-09T13:54:11Z</time>
      </trkpt>
      <trkpt lat="43.62869" lon="2.30517">
        <ele>273</ele>
        <time>2018-06-09T13:54:12Z</time>
      </trkpt>
      <trkpt lat="43.62878" lon="2.30533">
        <ele>272</ele>
        <time>2018-06-09T13:54:17Z</time>
      </trkpt>
      <trkpt lat="43.62879" lon="2.30536">
        <ele>272</ele>
        <time>2018-06-09T13:54:18Z</time>
      </trkpt>
      <trkpt lat="43.62882" lon="2.30551">
        <ele>272</ele>
        <time>2018-06-09T13:54:22Z</time>
      </trkpt>
      <trkpt lat="43.62889" lon="2.30573">
        <ele>271</ele>
        <time>2018-06-09T13:54:27Z</time>
      </trkpt>
      <trkpt lat="43.62899" lon="2.3059">
        <ele>271</ele>
        <time>2018-06-09T13:54:31Z</time>
      </trkpt>
      <trkpt lat="43.62914" lon="2.30602">
        <ele>271</ele>
        <time>2018-06-09T13:54:35Z</time>
      </trkpt>
      <trkpt lat="43.62919" lon="2.30605">
        <ele>271</ele>
        <time>2018-06-09T13:54:36Z</time>
      </trkpt>
      <trkpt lat="43.62928" lon="2.30607">
        <ele>270</ele>
        <time>2018-06-09T13:54:38Z</time>
      </trkpt>
      <trkpt lat="43.62938" lon="2.30609">
        <ele>270</ele>
        <time>2018-06-09T13:54:40Z</time>
      </trkpt>
      <trkpt lat="43.62941" lon="2.30609">
        <ele>270</ele>
        <time>2018-06-09T13:54:41Z</time>
      </trkpt>
      <trkpt lat="43.62948" lon="2.3061">
        <ele>268</ele>
        <time>2018-06-09T13:54:43Z</time>
      </trkpt>
      <trkpt lat="43.62954" lon="2.30608">
        <ele>267</ele>
        <time>2018-06-09T13:54:44Z</time>
      </trkpt>
      <trkpt lat="43.62964" lon="2.30605">
        <ele>268</ele>
        <time>2018-06-09T13:54:46Z</time>
      </trkpt>
      <trkpt lat="43.62978" lon="2.306">
        <ele>266</ele>
        <time>2018-06-09T13:54:49Z</time>
      </trkpt>
      <trkpt lat="43.6299" lon="2.30598">
        <ele>265</ele>
        <time>2018-06-09T13:54:51Z</time>
      </trkpt>
      <trkpt lat="43.62996" lon="2.306">
        <ele>265</ele>
        <time>2018-06-09T13:54:52Z</time>
      </trkpt>
      <trkpt lat="43.63" lon="2.30603">
        <ele>264</ele>
        <time>2018-06-09T13:54:53Z</time>
      </trkpt>
      <trkpt lat="43.63004" lon="2.30606">
        <ele>264</ele>
        <time>2018-06-09T13:54:54Z</time>
      </trkpt>
      <trkpt lat="43.63012" lon="2.30613">
        <ele>264</ele>
        <time>2018-06-09T13:54:56Z</time>
      </trkpt>
      <trkpt lat="43.63015" lon="2.30616">
        <ele>263</ele>
        <time>2018-06-09T13:54:57Z</time>
      </trkpt>
      <trkpt lat="43.63025" lon="2.30623">
        <ele>262</ele>
        <time>2018-06-09T13:54:59Z</time>
      </trkpt>
      <trkpt lat="43.6303" lon="2.30627">
        <ele>261</ele>
        <time>2018-06-09T13:55:00Z</time>
      </trkpt>
      <trkpt lat="43.63035" lon="2.3063">
        <ele>259</ele>
        <time>2018-06-09T13:55:01Z</time>
      </trkpt>
      <trkpt lat="43.63041" lon="2.30632">
        <ele>258</ele>
        <time>2018-06-09T13:55:02Z</time>
      </trkpt>
      <trkpt lat="43.63046" lon="2.30635">
        <ele>257</ele>
        <time>2018-06-09T13:55:03Z</time>
      </trkpt>
      <trkpt lat="43.63055" lon="2.30638">
        <ele>257</ele>
        <time>2018-06-09T13:55:06Z</time>
      </trkpt>
      <trkpt lat="43.63056" lon="2.30638">
        <ele>257</ele>
        <time>2018-06-09T13:55:07Z</time>
      </trkpt>
      <trkpt lat="43.63065" lon="2.3064">
        <ele>257</ele>
        <time>2018-06-09T13:55:13Z</time>
      </trkpt>
      <trkpt lat="43.63072" lon="2.30642">
        <ele>257</ele>
        <time>2018-06-09T13:55:17Z</time>
      </trkpt>
      <trkpt lat="43.63072" lon="2.30643">
        <ele>256</ele>
        <time>2018-06-09T13:55:19Z</time>
      </trkpt>
      <trkpt lat="43.63075" lon="2.30647">
        <ele>256</ele>
        <time>2018-06-09T13:55:26Z</time>
      </trkpt>
      <trkpt lat="43.63081" lon="2.30653">
        <ele>256</ele>
        <time>2018-06-09T13:55:34Z</time>
      </trkpt>
      <trkpt lat="43.63082" lon="2.30654">
        <ele>256</ele>
        <time>2018-06-09T13:55:35Z</time>
      </trkpt>
      <trkpt lat="43.63089" lon="2.30663">
        <ele>255</ele>
        <time>2018-06-09T13:55:38Z</time>
      </trkpt>
      <trkpt lat="43.63092" lon="2.30667">
        <ele>254</ele>
        <time>2018-06-09T13:55:39Z</time>
      </trkpt>
      <trkpt lat="43.63095" lon="2.30673">
        <ele>253</ele>
        <time>2018-06-09T13:55:40Z</time>
      </trkpt>
      <trkpt lat="43.63097" lon="2.30679">
        <ele>251</ele>
        <time>2018-06-09T13:55:41Z</time>
      </trkpt>
      <trkpt lat="43.63097" lon="2.30686">
        <ele>249</ele>
        <time>2018-06-09T13:55:42Z</time>
      </trkpt>
      <trkpt lat="43.63098" lon="2.30701">
        <ele>247</ele>
        <time>2018-06-09T13:55:44Z</time>
      </trkpt>
      <trkpt lat="43.63096" lon="2.30717">
        <ele>246</ele>
        <time>2018-06-09T13:55:46Z</time>
      </trkpt>
      <trkpt lat="43.63095" lon="2.30725">
        <ele>246</ele>
        <time>2018-06-09T13:55:47Z</time>
      </trkpt>
      <trkpt lat="43.63097" lon="2.30735">
        <ele>244</ele>
        <time>2018-06-09T13:55:48Z</time>
      </trkpt>
      <trkpt lat="43.63097" lon="2.30744">
        <ele>243</ele>
        <time>2018-06-09T13:55:49Z</time>
      </trkpt>
      <trkpt lat="43.63102" lon="2.30754">
        <ele>243</ele>
        <time>2018-06-09T13:55:50Z</time>
      </trkpt>
      <trkpt lat="43.63104" lon="2.30763">
        <ele>241</ele>
        <time>2018-06-09T13:55:51Z</time>
      </trkpt>
      <trkpt lat="43.63104" lon="2.30773">
        <ele>240</ele>
        <time>2018-06-09T13:55:52Z</time>
      </trkpt>
      <trkpt lat="43.63108" lon="2.3079">
        <ele>238</ele>
        <time>2018-06-09T13:55:54Z</time>
      </trkpt>
      <trkpt lat="43.63109" lon="2.30797">
        <ele>237</ele>
        <time>2018-06-09T13:55:55Z</time>
      </trkpt>
      <trkpt lat="43.63112" lon="2.30807">
        <ele>237</ele>
        <time>2018-06-09T13:55:56Z</time>
      </trkpt>
      <trkpt lat="43.63114" lon="2.30815">
        <ele>234</ele>
        <time>2018-06-09T13:55:57Z</time>
      </trkpt>
      <trkpt lat="43.63118" lon="2.30823">
        <ele>231</ele>
        <time>2018-06-09T13:55:58Z</time>
      </trkpt>
      <trkpt lat="43.63122" lon="2.30833">
        <ele>229</ele>
        <time>2018-06-09T13:55:59Z</time>
      </trkpt>
      <trkpt lat="43.63125" lon="2.30843">
        <ele>227</ele>
        <time>2018-06-09T13:56:00Z</time>
      </trkpt>
      <trkpt lat="43.63127" lon="2.30853">
        <ele>226</ele>
        <time>2018-06-09T13:56:01Z</time>
      </trkpt>
      <trkpt lat="43.63129" lon="2.30864">
        <ele>225</ele>
        <time>2018-06-09T13:56:02Z</time>
      </trkpt>
      <trkpt lat="43.63133" lon="2.30882">
        <ele>224</ele>
        <time>2018-06-09T13:56:04Z</time>
      </trkpt>
      <trkpt lat="43.63134" lon="2.30887">
        <ele>223</ele>
        <time>2018-06-09T13:56:05Z</time>
      </trkpt>
      <trkpt lat="43.63135" lon="2.30898">
        <ele>222</ele>
        <time>2018-06-09T13:56:07Z</time>
      </trkpt>
      <trkpt lat="43.63139" lon="2.30909">
        <ele>220</ele>
        <time>2018-06-09T13:56:08Z</time>
      </trkpt>
      <trkpt lat="43.63141" lon="2.30917">
        <ele>217</ele>
        <time>2018-06-09T13:56:09Z</time>
      </trkpt>
      <trkpt lat="43.63139" lon="2.30928">
        <ele>215</ele>
        <time>2018-06-09T13:56:10Z</time>
      </trkpt>
      <trkpt lat="43.63141" lon="2.3095">
        <ele>213</ele>
        <time>2018-06-09T13:56:12Z</time>
      </trkpt>
      <trkpt lat="43.63142" lon="2.3096">
        <ele>212</ele>
        <time>2018-06-09T13:56:13Z</time>
      </trkpt>
      <trkpt lat="43.63141" lon="2.30977">
        <ele>211</ele>
        <time>2018-06-09T13:56:15Z</time>
      </trkpt>
      <trkpt lat="43.6314" lon="2.30987">
        <ele>210</ele>
        <time>2018-06-09T13:56:16Z</time>
      </trkpt>
      <trkpt lat="43.63136" lon="2.31">
        <ele>211</ele>
        <time>2018-06-09T13:56:18Z</time>
      </trkpt>
      <trkpt lat="43.63134" lon="2.31013">
        <ele>208</ele>
        <time>2018-06-09T13:56:20Z</time>
      </trkpt>
      <trkpt lat="43.63132" lon="2.31019">
        <ele>207</ele>
        <time>2018-06-09T13:56:21Z</time>
      </trkpt>
      <trkpt lat="43.63128" lon="2.31027">
        <ele>207</ele>
        <time>2018-06-09T13:56:23Z</time>
      </trkpt>
      <trkpt lat="43.63126" lon="2.31035">
        <ele>206</ele>
        <time>2018-06-09T13:56:26Z</time>
      </trkpt>
      <trkpt lat="43.63126" lon="2.31038">
        <ele>206</ele>
        <time>2018-06-09T13:56:27Z</time>
      </trkpt>
      <trkpt lat="43.63125" lon="2.3104">
        <ele>205</ele>
        <time>2018-06-09T13:56:28Z</time>
      </trkpt>
      <trkpt lat="43.63122" lon="2.31047">
        <ele>204</ele>
        <time>2018-06-09T13:56:30Z</time>
      </trkpt>
      <trkpt lat="43.6312" lon="2.31049">
        <ele>204</ele>
        <time>2018-06-09T13:56:31Z</time>
      </trkpt>
      <trkpt lat="43.63117" lon="2.31056">
        <ele>203</ele>
        <time>2018-06-09T13:56:33Z</time>
      </trkpt>
      <trkpt lat="43.63116" lon="2.31061">
        <ele>202</ele>
        <time>2018-06-09T13:56:34Z</time>
      </trkpt>
      <trkpt lat="43.63115" lon="2.31065">
        <ele>201</ele>
        <time>2018-06-09T13:56:35Z</time>
      </trkpt>
      <trkpt lat="43.63118" lon="2.31072">
        <ele>200</ele>
        <time>2018-06-09T13:56:37Z</time>
      </trkpt>
      <trkpt lat="43.63119" lon="2.31078">
        <ele>199</ele>
        <time>2018-06-09T13:56:38Z</time>
      </trkpt>
      <trkpt lat="43.6312" lon="2.31079">
        <ele>198</ele>
        <time>2018-06-09T13:56:39Z</time>
      </trkpt>
      <trkpt lat="43.63121" lon="2.31086">
        <ele>197</ele>
        <time>2018-06-09T13:56:41Z</time>
      </trkpt>
      <trkpt lat="43.6312" lon="2.31089">
        <ele>196</ele>
        <time>2018-06-09T13:56:42Z</time>
      </trkpt>
      <trkpt lat="43.6312" lon="2.31094">
        <ele>194</ele>
        <time>2018-06-09T13:56:44Z</time>
      </trkpt>
      <trkpt lat="43.63118" lon="2.311">
        <ele>193</ele>
        <time>2018-06-09T13:56:46Z</time>
      </trkpt>
      <trkpt lat="43.63118" lon="2.31107">
        <ele>192</ele>
        <time>2018-06-09T13:56:48Z</time>
      </trkpt>
      <trkpt lat="43.63117" lon="2.31109">
        <ele>192</ele>
        <time>2018-06-09T13:56:49Z</time>
      </trkpt>
      <trkpt lat="43.63114" lon="2.31119">
        <ele>190</ele>
        <time>2018-06-09T13:56:52Z</time>
      </trkpt>
      <trkpt lat="43.63114" lon="2.31121">
        <ele>189</ele>
        <time>2018-06-09T13:56:53Z</time>
      </trkpt>
      <trkpt lat="43.63114" lon="2.31127">
        <ele>189</ele>
        <time>2018-06-09T13:56:55Z</time>
      </trkpt>
      <trkpt lat="43.63114" lon="2.31131">
        <ele>189</ele>
        <time>2018-06-09T13:56:56Z</time>
      </trkpt>
      <trkpt lat="43.63116" lon="2.31138">
        <ele>188</ele>
        <time>2018-06-09T13:56:58Z</time>
      </trkpt>
      <trkpt lat="43.63118" lon="2.3114">
        <ele>188</ele>
        <time>2018-06-09T13:57:00Z</time>
      </trkpt>
      <trkpt lat="43.6313" lon="2.31145">
        <ele>189</ele>
        <time>2018-06-09T13:57:06Z</time>
      </trkpt>
      <trkpt lat="43.63144" lon="2.31149">
        <ele>190</ele>
        <time>2018-06-09T13:57:11Z</time>
      </trkpt>
      <trkpt lat="43.63147" lon="2.3115">
        <ele>190</ele>
        <time>2018-06-09T13:57:15Z</time>
      </trkpt>
      <trkpt lat="43.63153" lon="2.31157">
        <ele>190</ele>
        <time>2018-06-09T13:57:20Z</time>
      </trkpt>
      <trkpt lat="43.63154" lon="2.31158">
        <ele>189</ele>
        <time>2018-06-09T13:57:22Z</time>
      </trkpt>
      <trkpt lat="43.63154" lon="2.31159">
        <ele>189</ele>
        <time>2018-06-09T13:57:23Z</time>
      </trkpt>
      <trkpt lat="43.63156" lon="2.31162">
        <ele>189</ele>
        <time>2018-06-09T13:57:28Z</time>
      </trkpt>
      <trkpt lat="43.63161" lon="2.31167">
        <ele>188</ele>
        <time>2018-06-09T13:57:31Z</time>
      </trkpt>
      <trkpt lat="43.63164" lon="2.31169">
        <ele>188</ele>
        <time>2018-06-09T13:57:32Z</time>
      </trkpt>
      <trkpt lat="43.63169" lon="2.31174">
        <ele>187</ele>
        <time>2018-06-09T13:57:34Z</time>
      </trkpt>
      <trkpt lat="43.63173" lon="2.31181">
        <ele>186</ele>
        <time>2018-06-09T13:57:36Z</time>
      </trkpt>
      <trkpt lat="43.63178" lon="2.31199">
        <ele>186</ele>
        <time>2018-06-09T13:57:42Z</time>
      </trkpt>
      <trkpt lat="43.63181" lon="2.31201">
        <ele>186</ele>
        <time>2018-06-09T13:57:43Z</time>
      </trkpt>
      <trkpt lat="43.63184" lon="2.31205">
        <ele>185</ele>
        <time>2018-06-09T13:57:44Z</time>
      </trkpt>
      <trkpt lat="43.63187" lon="2.31209">
        <ele>185</ele>
        <time>2018-06-09T13:57:45Z</time>
      </trkpt>
      <trkpt lat="43.63193" lon="2.31218">
        <ele>185</ele>
        <time>2018-06-09T13:57:47Z</time>
      </trkpt>
      <trkpt lat="43.63198" lon="2.31223">
        <ele>182</ele>
        <time>2018-06-09T13:57:48Z</time>
      </trkpt>
      <trkpt lat="43.63202" lon="2.31228">
        <ele>181</ele>
        <time>2018-06-09T13:57:49Z</time>
      </trkpt>
      <trkpt lat="43.63206" lon="2.31234">
        <ele>181</ele>
        <time>2018-06-09T13:57:50Z</time>
      </trkpt>
      <trkpt lat="43.63216" lon="2.31253">
        <ele>180</ele>
        <time>2018-06-09T13:57:53Z</time>
      </trkpt>
      <trkpt lat="43.63222" lon="2.31276">
        <ele>180</ele>
        <time>2018-06-09T13:57:56Z</time>
      </trkpt>
      <trkpt lat="43.63226" lon="2.31283">
        <ele>180</ele>
        <time>2018-06-09T13:57:57Z</time>
      </trkpt>
      <trkpt lat="43.63231" lon="2.31291">
        <ele>180</ele>
        <time>2018-06-09T13:57:58Z</time>
      </trkpt>
      <trkpt lat="43.63237" lon="2.31305">
        <ele>180</ele>
        <time>2018-06-09T13:58:00Z</time>
      </trkpt>
      <trkpt lat="43.6324" lon="2.31312">
        <ele>180</ele>
        <time>2018-06-09T13:58:01Z</time>
      </trkpt>
      <trkpt lat="43.63241" lon="2.31322">
        <ele>180</ele>
        <time>2018-06-09T13:58:02Z</time>
      </trkpt>
      <trkpt lat="43.63245" lon="2.31343">
        <ele>180</ele>
        <time>2018-06-09T13:58:05Z</time>
      </trkpt>
      <trkpt lat="43.63245" lon="2.31349">
        <ele>180</ele>
        <time>2018-06-09T13:58:06Z</time>
      </trkpt>
      <trkpt lat="43.63247" lon="2.31357">
        <ele>180</ele>
        <time>2018-06-09T13:58:07Z</time>
      </trkpt>
      <trkpt lat="43.63251" lon="2.31382">
        <ele>180</ele>
        <time>2018-06-09T13:58:10Z</time>
      </trkpt>
      <trkpt lat="43.63255" lon="2.31404">
        <ele>180</ele>
        <time>2018-06-09T13:58:13Z</time>
      </trkpt>
      <trkpt lat="43.6326" lon="2.31427">
        <ele>180</ele>
        <time>2018-06-09T13:58:16Z</time>
      </trkpt>
      <trkpt lat="43.63266" lon="2.31442">
        <ele>180</ele>
        <time>2018-06-09T13:58:18Z</time>
      </trkpt>
      <trkpt lat="43.6327" lon="2.31457">
        <ele>180</ele>
        <time>2018-06-09T13:58:20Z</time>
      </trkpt>
      <trkpt lat="43.63276" lon="2.31479">
        <ele>180</ele>
        <time>2018-06-09T13:58:23Z</time>
      </trkpt>
      <trkpt lat="43.63282" lon="2.31505">
        <ele>181</ele>
        <time>2018-06-09T13:58:27Z</time>
      </trkpt>
      <trkpt lat="43.63288" lon="2.31537">
        <ele>181</ele>
        <time>2018-06-09T13:58:32Z</time>
      </trkpt>
      <trkpt lat="43.63291" lon="2.31549">
        <ele>181</ele>
        <time>2018-06-09T13:58:34Z</time>
      </trkpt>
      <trkpt lat="43.63291" lon="2.31559">
        <ele>181</ele>
        <time>2018-06-09T13:58:36Z</time>
      </trkpt>
      <trkpt lat="43.63293" lon="2.31573">
        <ele>181</ele>
        <time>2018-06-09T13:58:39Z</time>
      </trkpt>
      <trkpt lat="43.63293" lon="2.31578">
        <ele>181</ele>
        <time>2018-06-09T13:58:40Z</time>
      </trkpt>
      <trkpt lat="43.63295" lon="2.31597">
        <ele>182</ele>
        <time>2018-06-09T13:58:44Z</time>
      </trkpt>
      <trkpt lat="43.63295" lon="2.31601">
        <ele>182</ele>
        <time>2018-06-09T13:58:45Z</time>
      </trkpt>
      <trkpt lat="43.63298" lon="2.31614">
        <ele>182</ele>
        <time>2018-06-09T13:58:48Z</time>
      </trkpt>
      <trkpt lat="43.63303" lon="2.3163">
        <ele>182</ele>
        <time>2018-06-09T13:58:51Z</time>
      </trkpt>
      <trkpt lat="43.63308" lon="2.31642">
        <ele>181</ele>
        <time>2018-06-09T13:58:53Z</time>
      </trkpt>
      <trkpt lat="43.63315" lon="2.31659">
        <ele>181</ele>
        <time>2018-06-09T13:58:56Z</time>
      </trkpt>
      <trkpt lat="43.63322" lon="2.31682">
        <ele>182</ele>
        <time>2018-06-09T13:59:00Z</time>
      </trkpt>
      <trkpt lat="43.63326" lon="2.31689">
        <ele>182</ele>
        <time>2018-06-09T13:59:01Z</time>
      </trkpt>
      <trkpt lat="43.63328" lon="2.31695">
        <ele>182</ele>
        <time>2018-06-09T13:59:02Z</time>
      </trkpt>
      <trkpt lat="43.63333" lon="2.31707">
        <ele>182</ele>
        <time>2018-06-09T13:59:04Z</time>
      </trkpt>
      <trkpt lat="43.63337" lon="2.31717">
        <ele>182</ele>
        <time>2018-06-09T13:59:06Z</time>
      </trkpt>
      <trkpt lat="43.63352" lon="2.3175">
        <ele>182</ele>
        <time>2018-06-09T13:59:13Z</time>
      </trkpt>
      <trkpt lat="43.63361" lon="2.31774">
        <ele>183</ele>
        <time>2018-06-09T13:59:19Z</time>
      </trkpt>
      <trkpt lat="43.63363" lon="2.31776">
        <ele>183</ele>
        <time>2018-06-09T13:59:20Z</time>
      </trkpt>
      <trkpt lat="43.63373" lon="2.31788">
        <ele>182</ele>
        <time>2018-06-09T13:59:24Z</time>
      </trkpt>
      <trkpt lat="43.63384" lon="2.31795">
        <ele>181</ele>
        <time>2018-06-09T13:59:26Z</time>
      </trkpt>
      <trkpt lat="43.63396" lon="2.31803">
        <ele>180</ele>
        <time>2018-06-09T13:59:28Z</time>
      </trkpt>
      <trkpt lat="43.63401" lon="2.31807">
        <ele>180</ele>
        <time>2018-06-09T13:59:29Z</time>
      </trkpt>
      <trkpt lat="43.63407" lon="2.31811">
        <ele>179</ele>
        <time>2018-06-09T13:59:30Z</time>
      </trkpt>
      <trkpt lat="43.63425" lon="2.31824">
        <ele>179</ele>
        <time>2018-06-09T13:59:33Z</time>
      </trkpt>
      <trkpt lat="43.63455" lon="2.31847">
        <ele>178</ele>
        <time>2018-06-09T13:59:38Z</time>
      </trkpt>
      <trkpt lat="43.63471" lon="2.31859">
        <ele>178</ele>
        <time>2018-06-09T13:59:41Z</time>
      </trkpt>
      <trkpt lat="43.63475" lon="2.31864">
        <ele>178</ele>
        <time>2018-06-09T13:59:42Z</time>
      </trkpt>
      <trkpt lat="43.63479" lon="2.31869">
        <ele>178</ele>
        <time>2018-06-09T13:59:43Z</time>
      </trkpt>
      <trkpt lat="43.63489" lon="2.31883">
        <ele>179</ele>
        <time>2018-06-09T13:59:46Z</time>
      </trkpt>
      <trkpt lat="43.63494" lon="2.3189">
        <ele>180</ele>
        <time>2018-06-09T13:59:48Z</time>
      </trkpt>
      <trkpt lat="43.63497" lon="2.31893">
        <ele>180</ele>
        <time>2018-06-09T13:59:49Z</time>
      </trkpt>
      <trkpt lat="43.63507" lon="2.31903">
        <ele>181</ele>
        <time>2018-06-09T13:59:52Z</time>
      </trkpt>
      <trkpt lat="43.63518" lon="2.3191">
        <ele>182</ele>
        <time>2018-06-09T13:59:55Z</time>
      </trkpt>
      <trkpt lat="43.63531" lon="2.31918">
        <ele>182</ele>
        <time>2018-06-09T13:59:59Z</time>
      </trkpt>
      <trkpt lat="43.63542" lon="2.31926">
        <ele>182</ele>
        <time>2018-06-09T14:00:02Z</time>
      </trkpt>
      <trkpt lat="43.63572" lon="2.31944">
        <ele>182</ele>
        <time>2018-06-09T14:00:08Z</time>
      </trkpt>
      <trkpt lat="43.6359" lon="2.31957">
        <ele>181</ele>
        <time>2018-06-09T14:00:12Z</time>
      </trkpt>
      <trkpt lat="43.63605" lon="2.31967">
        <ele>181</ele>
        <time>2018-06-09T14:00:15Z</time>
      </trkpt>
      <trkpt lat="43.63637" lon="2.31986">
        <ele>180</ele>
        <time>2018-06-09T14:00:21Z</time>
      </trkpt>
      <trkpt lat="43.63646" lon="2.31992">
        <ele>180</ele>
        <time>2018-06-09T14:00:23Z</time>
      </trkpt>
      <trkpt lat="43.63655" lon="2.31996">
        <ele>180</ele>
        <time>2018-06-09T14:00:25Z</time>
      </trkpt>
      <trkpt lat="43.63677" lon="2.32001">
        <ele>181</ele>
        <time>2018-06-09T14:00:29Z</time>
      </trkpt>
      <trkpt lat="43.63697" lon="2.32005">
        <ele>180</ele>
        <time>2018-06-09T14:00:33Z</time>
      </trkpt>
      <trkpt lat="43.63734" lon="2.3201">
        <ele>180</ele>
        <time>2018-06-09T14:00:40Z</time>
      </trkpt>
      <trkpt lat="43.63763" lon="2.32016">
        <ele>181</ele>
        <time>2018-06-09T14:00:46Z</time>
      </trkpt>
      <trkpt lat="43.63788" lon="2.32018">
        <ele>181</ele>
        <time>2018-06-09T14:00:51Z</time>
      </trkpt>
      <trkpt lat="43.63793" lon="2.32018">
        <ele>181</ele>
        <time>2018-06-09T14:00:52Z</time>
      </trkpt>
      <trkpt lat="43.63818" lon="2.32013">
        <ele>182</ele>
        <time>2018-06-09T14:00:57Z</time>
      </trkpt>
      <trkpt lat="43.63823" lon="2.32011">
        <ele>182</ele>
        <time>2018-06-09T14:00:58Z</time>
      </trkpt>
      <trkpt lat="43.63838" lon="2.32">
        <ele>181</ele>
        <time>2018-06-09T14:01:01Z</time>
      </trkpt>
      <trkpt lat="43.63843" lon="2.31994">
        <ele>181</ele>
        <time>2018-06-09T14:01:02Z</time>
      </trkpt>
      <trkpt lat="43.63869" lon="2.3197">
        <ele>180</ele>
        <time>2018-06-09T14:01:07Z</time>
      </trkpt>
      <trkpt lat="43.63905" lon="2.31939">
        <ele>181</ele>
        <time>2018-06-09T14:01:14Z</time>
      </trkpt>
      <trkpt lat="43.63936" lon="2.31909">
        <ele>180</ele>
        <time>2018-06-09T14:01:21Z</time>
      </trkpt>
      <trkpt lat="43.63958" lon="2.31892">
        <ele>180</ele>
        <time>2018-06-09T14:01:26Z</time>
      </trkpt>
      <trkpt lat="43.63962" lon="2.31889">
        <ele>180</ele>
        <time>2018-06-09T14:01:27Z</time>
      </trkpt>
      <trkpt lat="43.63991" lon="2.31866">
        <ele>180</ele>
        <time>2018-06-09T14:01:34Z</time>
      </trkpt>
      <trkpt lat="43.63996" lon="2.31864">
        <ele>180</ele>
        <time>2018-06-09T14:01:35Z</time>
      </trkpt>
      <trkpt lat="43.64015" lon="2.31862">
        <ele>180</ele>
        <time>2018-06-09T14:01:39Z</time>
      </trkpt>
      <trkpt lat="43.64044" lon="2.31865">
        <ele>181</ele>
        <time>2018-06-09T14:01:45Z</time>
      </trkpt>
      <trkpt lat="43.64074" lon="2.31867">
        <ele>181</ele>
        <time>2018-06-09T14:01:51Z</time>
      </trkpt>
      <trkpt lat="43.64083" lon="2.31867">
        <ele>181</ele>
        <time>2018-06-09T14:01:53Z</time>
      </trkpt>
      <trkpt lat="43.64088" lon="2.31868">
        <ele>181</ele>
        <time>2018-06-09T14:01:54Z</time>
      </trkpt>
      <trkpt lat="43.64098" lon="2.31869">
        <ele>181</ele>
        <time>2018-06-09T14:01:56Z</time>
      </trkpt>
      <trkpt lat="43.64107" lon="2.3187">
        <ele>181</ele>
        <time>2018-06-09T14:01:58Z</time>
      </trkpt>
      <trkpt lat="43.64121" lon="2.31873">
        <ele>181</ele>
        <time>2018-06-09T14:02:01Z</time>
      </trkpt>
      <trkpt lat="43.64137" lon="2.31878">
        <ele>182</ele>
        <time>2018-06-09T14:02:04Z</time>
      </trkpt>
      <trkpt lat="43.64151" lon="2.31883">
        <ele>182</ele>
        <time>2018-06-09T14:02:07Z</time>
      </trkpt>
      <trkpt lat="43.64178" lon="2.31897">
        <ele>182</ele>
        <time>2018-06-09T14:02:13Z</time>
      </trkpt>
      <trkpt lat="43.64192" lon="2.31904">
        <ele>182</ele>
        <time>2018-06-09T14:02:16Z</time>
      </trkpt>
      <trkpt lat="43.64201" lon="2.3191">
        <ele>183</ele>
        <time>2018-06-09T14:02:18Z</time>
      </trkpt>
      <trkpt lat="43.64227" lon="2.3193">
        <ele>183</ele>
        <time>2018-06-09T14:02:24Z</time>
      </trkpt>
      <trkpt lat="43.64239" lon="2.31937">
        <ele>183</ele>
        <time>2018-06-09T14:02:27Z</time>
      </trkpt>
      <trkpt lat="43.64247" lon="2.3194">
        <ele>183</ele>
        <time>2018-06-09T14:02:29Z</time>
      </trkpt>
      <trkpt lat="43.64261" lon="2.31941">
        <ele>185</ele>
        <time>2018-06-09T14:02:33Z</time>
      </trkpt>
      <trkpt lat="43.64264" lon="2.31941">
        <ele>185</ele>
        <time>2018-06-09T14:02:34Z</time>
      </trkpt>
      <trkpt lat="43.64282" lon="2.31945">
        <ele>185</ele>
        <time>2018-06-09T14:02:40Z</time>
      </trkpt>
      <trkpt lat="43.643" lon="2.31953">
        <ele>186</ele>
        <time>2018-06-09T14:02:46Z</time>
      </trkpt>
      <trkpt lat="43.64317" lon="2.31963">
        <ele>188</ele>
        <time>2018-06-09T14:02:52Z</time>
      </trkpt>
      <trkpt lat="43.64323" lon="2.31967">
        <ele>188</ele>
        <time>2018-06-09T14:02:54Z</time>
      </trkpt>
      <trkpt lat="43.64335" lon="2.31972">
        <ele>189</ele>
        <time>2018-06-09T14:02:58Z</time>
      </trkpt>
      <trkpt lat="43.64341" lon="2.31976">
        <ele>190</ele>
        <time>2018-06-09T14:03:00Z</time>
      </trkpt>
      <trkpt lat="43.64346" lon="2.31979">
        <ele>190</ele>
        <time>2018-06-09T14:03:02Z</time>
      </trkpt>
      <trkpt lat="43.64357" lon="2.31986">
        <ele>191</ele>
        <time>2018-06-09T14:03:06Z</time>
      </trkpt>
      <trkpt lat="43.64359" lon="2.31988">
        <ele>191</ele>
        <time>2018-06-09T14:03:07Z</time>
      </trkpt>
      <trkpt lat="43.64368" lon="2.31996">
        <ele>192</ele>
        <time>2018-06-09T14:03:11Z</time>
      </trkpt>
      <trkpt lat="43.64371" lon="2.31997">
        <ele>192</ele>
        <time>2018-06-09T14:03:12Z</time>
      </trkpt>
      <trkpt lat="43.64383" lon="2.32007">
        <ele>193</ele>
        <time>2018-06-09T14:03:17Z</time>
      </trkpt>
      <trkpt lat="43.64386" lon="2.32009">
        <ele>194</ele>
        <time>2018-06-09T14:03:18Z</time>
      </trkpt>
      <trkpt lat="43.64401" lon="2.32018">
        <ele>194</ele>
        <time>2018-06-09T14:03:23Z</time>
      </trkpt>
      <trkpt lat="43.64409" lon="2.32024">
        <ele>194</ele>
        <time>2018-06-09T14:03:26Z</time>
      </trkpt>
      <trkpt lat="43.64425" lon="2.32032">
        <ele>195</ele>
        <time>2018-06-09T14:03:31Z</time>
      </trkpt>
      <trkpt lat="43.64427" lon="2.32034">
        <ele>196</ele>
        <time>2018-06-09T14:03:32Z</time>
      </trkpt>
      <trkpt lat="43.64445" lon="2.32043">
        <ele>197</ele>
        <time>2018-06-09T14:03:38Z</time>
      </trkpt>
      <trkpt lat="43.64448" lon="2.32044">
        <ele>197</ele>
        <time>2018-06-09T14:03:39Z</time>
      </trkpt>
      <trkpt lat="43.64459" lon="2.32051">
        <ele>198</ele>
        <time>2018-06-09T14:03:43Z</time>
      </trkpt>
      <trkpt lat="43.64465" lon="2.32054">
        <ele>198</ele>
        <time>2018-06-09T14:03:45Z</time>
      </trkpt>
      <trkpt lat="43.64479" lon="2.32062">
        <ele>199</ele>
        <time>2018-06-09T14:03:50Z</time>
      </trkpt>
      <trkpt lat="43.64484" lon="2.32066">
        <ele>199</ele>
        <time>2018-06-09T14:03:52Z</time>
      </trkpt>
      <trkpt lat="43.64498" lon="2.32075">
        <ele>200</ele>
        <time>2018-06-09T14:03:57Z</time>
      </trkpt>
      <trkpt lat="43.64504" lon="2.32078">
        <ele>201</ele>
        <time>2018-06-09T14:03:59Z</time>
      </trkpt>
      <trkpt lat="43.64511" lon="2.32083">
        <ele>201</ele>
        <time>2018-06-09T14:04:02Z</time>
      </trkpt>
      <trkpt lat="43.64518" lon="2.32087">
        <ele>202</ele>
        <time>2018-06-09T14:04:05Z</time>
      </trkpt>
      <trkpt lat="43.64526" lon="2.32094">
        <ele>202</ele>
        <time>2018-06-09T14:04:09Z</time>
      </trkpt>
      <trkpt lat="43.64529" lon="2.32096">
        <ele>202</ele>
        <time>2018-06-09T14:04:10Z</time>
      </trkpt>
      <trkpt lat="43.64543" lon="2.32107">
        <ele>203</ele>
        <time>2018-06-09T14:04:16Z</time>
      </trkpt>
      <trkpt lat="43.64545" lon="2.32108">
        <ele>203</ele>
        <time>2018-06-09T14:04:17Z</time>
      </trkpt>
      <trkpt lat="43.64554" lon="2.32112">
        <ele>204</ele>
        <time>2018-06-09T14:04:21Z</time>
      </trkpt>
      <trkpt lat="43.64559" lon="2.32113">
        <ele>204</ele>
        <time>2018-06-09T14:04:23Z</time>
      </trkpt>
      <trkpt lat="43.64571" lon="2.32117">
        <ele>205</ele>
        <time>2018-06-09T14:04:28Z</time>
      </trkpt>
      <trkpt lat="43.64576" lon="2.3212">
        <ele>205</ele>
        <time>2018-06-09T14:04:30Z</time>
      </trkpt>
      <trkpt lat="43.64584" lon="2.32124">
        <ele>206</ele>
        <time>2018-06-09T14:04:33Z</time>
      </trkpt>
      <trkpt lat="43.64588" lon="2.32128">
        <ele>207</ele>
        <time>2018-06-09T14:04:35Z</time>
      </trkpt>
      <trkpt lat="43.64597" lon="2.32136">
        <ele>207</ele>
        <time>2018-06-09T14:04:39Z</time>
      </trkpt>
      <trkpt lat="43.64599" lon="2.32139">
        <ele>208</ele>
        <time>2018-06-09T14:04:40Z</time>
      </trkpt>
      <trkpt lat="43.64604" lon="2.32147">
        <ele>209</ele>
        <time>2018-06-09T14:04:43Z</time>
      </trkpt>
      <trkpt lat="43.64609" lon="2.3216">
        <ele>209</ele>
        <time>2018-06-09T14:04:47Z</time>
      </trkpt>
      <trkpt lat="43.64613" lon="2.3217">
        <ele>210</ele>
        <time>2018-06-09T14:04:50Z</time>
      </trkpt>
      <trkpt lat="43.64617" lon="2.32182">
        <ele>211</ele>
        <time>2018-06-09T14:04:54Z</time>
      </trkpt>
      <trkpt lat="43.64618" lon="2.32185">
        <ele>211</ele>
        <time>2018-06-09T14:04:55Z</time>
      </trkpt>
      <trkpt lat="43.64621" lon="2.32202">
        <ele>212</ele>
        <time>2018-06-09T14:05:00Z</time>
      </trkpt>
      <trkpt lat="43.64622" lon="2.32206">
        <ele>212</ele>
        <time>2018-06-09T14:05:01Z</time>
      </trkpt>
      <trkpt lat="43.64625" lon="2.32222">
        <ele>213</ele>
        <time>2018-06-09T14:05:05Z</time>
      </trkpt>
      <trkpt lat="43.64627" lon="2.3223">
        <ele>213</ele>
        <time>2018-06-09T14:05:07Z</time>
      </trkpt>
      <trkpt lat="43.64634" lon="2.3226">
        <ele>214</ele>
        <time>2018-06-09T14:05:14Z</time>
      </trkpt>
      <trkpt lat="43.64637" lon="2.32268">
        <ele>214</ele>
        <time>2018-06-09T14:05:16Z</time>
      </trkpt>
      <trkpt lat="43.64639" lon="2.32278">
        <ele>214</ele>
        <time>2018-06-09T14:05:18Z</time>
      </trkpt>
      <trkpt lat="43.64639" lon="2.32302">
        <ele>215</ele>
        <time>2018-06-09T14:05:23Z</time>
      </trkpt>
      <trkpt lat="43.64641" lon="2.32332">
        <ele>215</ele>
        <time>2018-06-09T14:05:29Z</time>
      </trkpt>
      <trkpt lat="43.6464" lon="2.32342">
        <ele>216</ele>
        <time>2018-06-09T14:05:31Z</time>
      </trkpt>
      <trkpt lat="43.64639" lon="2.32365">
        <ele>216</ele>
        <time>2018-06-09T14:05:36Z</time>
      </trkpt>
      <trkpt lat="43.64639" lon="2.32384">
        <ele>217</ele>
        <time>2018-06-09T14:05:40Z</time>
      </trkpt>
      <trkpt lat="43.64638" lon="2.32389">
        <ele>217</ele>
        <time>2018-06-09T14:05:41Z</time>
      </trkpt>
      <trkpt lat="43.64638" lon="2.32415">
        <ele>218</ele>
        <time>2018-06-09T14:05:47Z</time>
      </trkpt>
      <trkpt lat="43.64639" lon="2.3242">
        <ele>218</ele>
        <time>2018-06-09T14:05:48Z</time>
      </trkpt>
      <trkpt lat="43.6464" lon="2.32433">
        <ele>219</ele>
        <time>2018-06-09T14:05:51Z</time>
      </trkpt>
      <trkpt lat="43.6465" lon="2.32461">
        <ele>220</ele>
        <time>2018-06-09T14:05:58Z</time>
      </trkpt>
      <trkpt lat="43.64658" lon="2.32486">
        <ele>221</ele>
        <time>2018-06-09T14:06:04Z</time>
      </trkpt>
      <trkpt lat="43.6466" lon="2.32494">
        <ele>221</ele>
        <time>2018-06-09T14:06:06Z</time>
      </trkpt>
      <trkpt lat="43.64664" lon="2.32505">
        <ele>222</ele>
        <time>2018-06-09T14:06:09Z</time>
      </trkpt>
      <trkpt lat="43.64668" lon="2.32517">
        <ele>222</ele>
        <time>2018-06-09T14:06:12Z</time>
      </trkpt>
      <trkpt lat="43.64671" lon="2.32534">
        <ele>223</ele>
        <time>2018-06-09T14:06:16Z</time>
      </trkpt>
      <trkpt lat="43.64675" lon="2.32545">
        <ele>223</ele>
        <time>2018-06-09T14:06:19Z</time>
      </trkpt>
      <trkpt lat="43.64677" lon="2.32553">
        <ele>224</ele>
        <time>2018-06-09T14:06:21Z</time>
      </trkpt>
      <trkpt lat="43.64682" lon="2.32569">
        <ele>224</ele>
        <time>2018-06-09T14:06:25Z</time>
      </trkpt>
      <trkpt lat="43.64684" lon="2.32573">
        <ele>225</ele>
        <time>2018-06-09T14:06:26Z</time>
      </trkpt>
      <trkpt lat="43.64698" lon="2.32594">
        <ele>226</ele>
        <time>2018-06-09T14:06:32Z</time>
      </trkpt>
      <trkpt lat="43.64711" lon="2.32612">
        <ele>226</ele>
        <time>2018-06-09T14:06:37Z</time>
      </trkpt>
      <trkpt lat="43.64717" lon="2.32623">
        <ele>226</ele>
        <time>2018-06-09T14:06:40Z</time>
      </trkpt>
      <trkpt lat="43.6472" lon="2.32631">
        <ele>227</ele>
        <time>2018-06-09T14:06:42Z</time>
      </trkpt>
      <trkpt lat="43.64722" lon="2.32645">
        <ele>227</ele>
        <time>2018-06-09T14:06:45Z</time>
      </trkpt>
      <trkpt lat="43.64727" lon="2.32657">
        <ele>228</ele>
        <time>2018-06-09T14:06:48Z</time>
      </trkpt>
      <trkpt lat="43.6473" lon="2.32664">
        <ele>228</ele>
        <time>2018-06-09T14:06:50Z</time>
      </trkpt>
      <trkpt lat="43.64733" lon="2.32677">
        <ele>229</ele>
        <time>2018-06-09T14:06:53Z</time>
      </trkpt>
      <trkpt lat="43.64735" lon="2.3268">
        <ele>229</ele>
        <time>2018-06-09T14:06:54Z</time>
      </trkpt>
      <trkpt lat="43.64741" lon="2.32694">
        <ele>230</ele>
        <time>2018-06-09T14:06:58Z</time>
      </trkpt>
      <trkpt lat="43.64744" lon="2.32703">
        <ele>231</ele>
        <time>2018-06-09T14:07:00Z</time>
      </trkpt>
      <trkpt lat="43.64748" lon="2.32715">
        <ele>231</ele>
        <time>2018-06-09T14:07:03Z</time>
      </trkpt>
      <trkpt lat="43.64755" lon="2.32735">
        <ele>232</ele>
        <time>2018-06-09T14:07:08Z</time>
      </trkpt>
      <trkpt lat="43.64764" lon="2.3275">
        <ele>233</ele>
        <time>2018-06-09T14:07:12Z</time>
      </trkpt>
      <trkpt lat="43.64766" lon="2.32753">
        <ele>233</ele>
        <time>2018-06-09T14:07:13Z</time>
      </trkpt>
      <trkpt lat="43.64777" lon="2.32762">
        <ele>234</ele>
        <time>2018-06-09T14:07:17Z</time>
      </trkpt>
      <trkpt lat="43.64784" lon="2.32765">
        <ele>234</ele>
        <time>2018-06-09T14:07:19Z</time>
      </trkpt>
      <trkpt lat="43.64791" lon="2.32768">
        <ele>235</ele>
        <time>2018-06-09T14:07:21Z</time>
      </trkpt>
      <trkpt lat="43.648" lon="2.32773">
        <ele>235</ele>
        <time>2018-06-09T14:07:24Z</time>
      </trkpt>
      <trkpt lat="43.64806" lon="2.32777">
        <ele>236</ele>
        <time>2018-06-09T14:07:26Z</time>
      </trkpt>
      <trkpt lat="43.64818" lon="2.32784">
        <ele>236</ele>
        <time>2018-06-09T14:07:30Z</time>
      </trkpt>
      <trkpt lat="43.64822" lon="2.32788">
        <ele>237</ele>
        <time>2018-06-09T14:07:32Z</time>
      </trkpt>
      <trkpt lat="43.6483" lon="2.32793">
        <ele>238</ele>
        <time>2018-06-09T14:07:35Z</time>
      </trkpt>
      <trkpt lat="43.64846" lon="2.328">
        <ele>239</ele>
        <time>2018-06-09T14:07:42Z</time>
      </trkpt>
      <trkpt lat="43.64859" lon="2.32803">
        <ele>240</ele>
        <time>2018-06-09T14:07:46Z</time>
      </trkpt>
      <trkpt lat="43.64867" lon="2.32807">
        <ele>240</ele>
        <time>2018-06-09T14:07:49Z</time>
      </trkpt>
      <trkpt lat="43.64873" lon="2.3281">
        <ele>241</ele>
        <time>2018-06-09T14:07:51Z</time>
      </trkpt>
      <trkpt lat="43.64884" lon="2.3282">
        <ele>241</ele>
        <time>2018-06-09T14:07:55Z</time>
      </trkpt>
      <trkpt lat="43.64889" lon="2.32826">
        <ele>242</ele>
        <time>2018-06-09T14:07:57Z</time>
      </trkpt>
      <trkpt lat="43.64897" lon="2.32842">
        <ele>243</ele>
        <time>2018-06-09T14:08:01Z</time>
      </trkpt>
      <trkpt lat="43.649" lon="2.32865">
        <ele>244</ele>
        <time>2018-06-09T14:08:06Z</time>
      </trkpt>
      <trkpt lat="43.64902" lon="2.32878">
        <ele>244</ele>
        <time>2018-06-09T14:08:09Z</time>
      </trkpt>
      <trkpt lat="43.64904" lon="2.3289">
        <ele>245</ele>
        <time>2018-06-09T14:08:12Z</time>
      </trkpt>
      <trkpt lat="43.64906" lon="2.32898">
        <ele>246</ele>
        <time>2018-06-09T14:08:14Z</time>
      </trkpt>
      <trkpt lat="43.64906" lon="2.32903">
        <ele>246</ele>
        <time>2018-06-09T14:08:15Z</time>
      </trkpt>
      <trkpt lat="43.64906" lon="2.32925">
        <ele>246</ele>
        <time>2018-06-09T14:08:20Z</time>
      </trkpt>
      <trkpt lat="43.64907" lon="2.32929">
        <ele>247</ele>
        <time>2018-06-09T14:08:21Z</time>
      </trkpt>
      <trkpt lat="43.64907" lon="2.32933">
        <ele>247</ele>
        <time>2018-06-09T14:08:22Z</time>
      </trkpt>
      <trkpt lat="43.64909" lon="2.32945">
        <ele>248</ele>
        <time>2018-06-09T14:08:25Z</time>
      </trkpt>
      <trkpt lat="43.64912" lon="2.32967">
        <ele>249</ele>
        <time>2018-06-09T14:08:30Z</time>
      </trkpt>
      <trkpt lat="43.64913" lon="2.32971">
        <ele>250</ele>
        <time>2018-06-09T14:08:31Z</time>
      </trkpt>
      <trkpt lat="43.64914" lon="2.32988">
        <ele>250</ele>
        <time>2018-06-09T14:08:35Z</time>
      </trkpt>
      <trkpt lat="43.64915" lon="2.32993">
        <ele>250</ele>
        <time>2018-06-09T14:08:36Z</time>
      </trkpt>
      <trkpt lat="43.64914" lon="2.32997">
        <ele>251</ele>
        <time>2018-06-09T14:08:37Z</time>
      </trkpt>
      <trkpt lat="43.64917" lon="2.33007">
        <ele>251</ele>
        <time>2018-06-09T14:08:39Z</time>
      </trkpt>
      <trkpt lat="43.64922" lon="2.33016">
        <ele>252</ele>
        <time>2018-06-09T14:08:41Z</time>
      </trkpt>
      <trkpt lat="43.64927" lon="2.33023">
        <ele>252</ele>
        <time>2018-06-09T14:08:43Z</time>
      </trkpt>
      <trkpt lat="43.64933" lon="2.33031">
        <ele>252</ele>
        <time>2018-06-09T14:08:45Z</time>
      </trkpt>
      <trkpt lat="43.64942" lon="2.33046">
        <ele>253</ele>
        <time>2018-06-09T14:08:49Z</time>
      </trkpt>
      <trkpt lat="43.64944" lon="2.3305">
        <ele>253</ele>
        <time>2018-06-09T14:08:50Z</time>
      </trkpt>
      <trkpt lat="43.6495" lon="2.33061">
        <ele>254</ele>
        <time>2018-06-09T14:08:53Z</time>
      </trkpt>
      <trkpt lat="43.64956" lon="2.33071">
        <ele>255</ele>
        <time>2018-06-09T14:08:56Z</time>
      </trkpt>
      <trkpt lat="43.64958" lon="2.33075">
        <ele>255</ele>
        <time>2018-06-09T14:08:57Z</time>
      </trkpt>
      <trkpt lat="43.64972" lon="2.3309">
        <ele>256</ele>
        <time>2018-06-09T14:09:02Z</time>
      </trkpt>
      <trkpt lat="43.64975" lon="2.33093">
        <ele>256</ele>
        <time>2018-06-09T14:09:03Z</time>
      </trkpt>
      <trkpt lat="43.64986" lon="2.33103">
        <ele>257</ele>
        <time>2018-06-09T14:09:07Z</time>
      </trkpt>
      <trkpt lat="43.64991" lon="2.33107">
        <ele>258</ele>
        <time>2018-06-09T14:09:09Z</time>
      </trkpt>
      <trkpt lat="43.65003" lon="2.33115">
        <ele>258</ele>
        <time>2018-06-09T14:09:13Z</time>
      </trkpt>
      <trkpt lat="43.65006" lon="2.33116">
        <ele>259</ele>
        <time>2018-06-09T14:09:14Z</time>
      </trkpt>
      <trkpt lat="43.6502" lon="2.3312">
        <ele>260</ele>
        <time>2018-06-09T14:09:18Z</time>
      </trkpt>
      <trkpt lat="43.65023" lon="2.33121">
        <ele>260</ele>
        <time>2018-06-09T14:09:19Z</time>
      </trkpt>
      <trkpt lat="43.65035" lon="2.33125">
        <ele>261</ele>
        <time>2018-06-09T14:09:23Z</time>
      </trkpt>
      <trkpt lat="43.65045" lon="2.33129">
        <ele>262</ele>
        <time>2018-06-09T14:09:26Z</time>
      </trkpt>
      <trkpt lat="43.65055" lon="2.33132">
        <ele>262</ele>
        <time>2018-06-09T14:09:29Z</time>
      </trkpt>
      <trkpt lat="43.65061" lon="2.33136">
        <ele>262</ele>
        <time>2018-06-09T14:09:31Z</time>
      </trkpt>
      <trkpt lat="43.65069" lon="2.33142">
        <ele>263</ele>
        <time>2018-06-09T14:09:34Z</time>
      </trkpt>
      <trkpt lat="43.65076" lon="2.33146">
        <ele>263</ele>
        <time>2018-06-09T14:09:37Z</time>
      </trkpt>
      <trkpt lat="43.65081" lon="2.3315">
        <ele>264</ele>
        <time>2018-06-09T14:09:40Z</time>
      </trkpt>
      <trkpt lat="43.65084" lon="2.3315">
        <ele>264</ele>
        <time>2018-06-09T14:09:42Z</time>
      </trkpt>
      <trkpt lat="43.65085" lon="2.3315">
        <ele>264</ele>
        <time>2018-06-09T14:09:43Z</time>
      </trkpt>
      <trkpt lat="43.6509" lon="2.33152">
        <ele>264</ele>
        <time>2018-06-09T14:09:46Z</time>
      </trkpt>
      <trkpt lat="43.65096" lon="2.33156">
        <ele>264</ele>
        <time>2018-06-09T14:09:50Z</time>
      </trkpt>
      <trkpt lat="43.65098" lon="2.33157">
        <ele>265</ele>
        <time>2018-06-09T14:09:51Z</time>
      </trkpt>
      <trkpt lat="43.65104" lon="2.33165">
        <ele>266</ele>
        <time>2018-06-09T14:09:56Z</time>
      </trkpt>
      <trkpt lat="43.65113" lon="2.33177">
        <ele>267</ele>
        <time>2018-06-09T14:10:01Z</time>
      </trkpt>
      <trkpt lat="43.65122" lon="2.33191">
        <ele>268</ele>
        <time>2018-06-09T14:10:06Z</time>
      </trkpt>
      <trkpt lat="43.65128" lon="2.33198">
        <ele>268</ele>
        <time>2018-06-09T14:10:09Z</time>
      </trkpt>
      <trkpt lat="43.65137" lon="2.33205">
        <ele>269</ele>
        <time>2018-06-09T14:10:13Z</time>
      </trkpt>
      <trkpt lat="43.65143" lon="2.33211">
        <ele>269</ele>
        <time>2018-06-09T14:10:16Z</time>
      </trkpt>
      <trkpt lat="43.65147" lon="2.33215">
        <ele>270</ele>
        <time>2018-06-09T14:10:18Z</time>
      </trkpt>
      <trkpt lat="43.65157" lon="2.33226">
        <ele>271</ele>
        <time>2018-06-09T14:10:23Z</time>
      </trkpt>
      <trkpt lat="43.65158" lon="2.33229">
        <ele>271</ele>
        <time>2018-06-09T14:10:24Z</time>
      </trkpt>
      <trkpt lat="43.65164" lon="2.33238">
        <ele>271</ele>
        <time>2018-06-09T14:10:27Z</time>
      </trkpt>
      <trkpt lat="43.65169" lon="2.33248">
        <ele>272</ele>
        <time>2018-06-09T14:10:30Z</time>
      </trkpt>
      <trkpt lat="43.65173" lon="2.33257">
        <ele>272</ele>
        <time>2018-06-09T14:10:33Z</time>
      </trkpt>
      <trkpt lat="43.65185" lon="2.33275">
        <ele>273</ele>
        <time>2018-06-09T14:10:39Z</time>
      </trkpt>
      <trkpt lat="43.65196" lon="2.33289">
        <ele>274</ele>
        <time>2018-06-09T14:10:44Z</time>
      </trkpt>
      <trkpt lat="43.65198" lon="2.33292">
        <ele>274</ele>
        <time>2018-06-09T14:10:45Z</time>
      </trkpt>
      <trkpt lat="43.65212" lon="2.33308">
        <ele>275</ele>
        <time>2018-06-09T14:10:51Z</time>
      </trkpt>
      <trkpt lat="43.65217" lon="2.33314">
        <ele>276</ele>
        <time>2018-06-09T14:10:53Z</time>
      </trkpt>
      <trkpt lat="43.65223" lon="2.33321">
        <ele>277</ele>
        <time>2018-06-09T14:10:56Z</time>
      </trkpt>
      <trkpt lat="43.65225" lon="2.33323">
        <ele>277</ele>
        <time>2018-06-09T14:10:57Z</time>
      </trkpt>
      <trkpt lat="43.6523" lon="2.33325">
        <ele>277</ele>
        <time>2018-06-09T14:10:59Z</time>
      </trkpt>
      <trkpt lat="43.65233" lon="2.33325">
        <ele>277</ele>
        <time>2018-06-09T14:11:00Z</time>
      </trkpt>
      <trkpt lat="43.65239" lon="2.33315">
        <ele>277</ele>
        <time>2018-06-09T14:11:03Z</time>
      </trkpt>
      <trkpt lat="43.6524" lon="2.33311">
        <ele>278</ele>
        <time>2018-06-09T14:11:04Z</time>
      </trkpt>
      <trkpt lat="43.65239" lon="2.33307">
        <ele>278</ele>
        <time>2018-06-09T14:11:05Z</time>
      </trkpt>
      <trkpt lat="43.65237" lon="2.333">
        <ele>278</ele>
        <time>2018-06-09T14:11:07Z</time>
      </trkpt>
      <trkpt lat="43.65227" lon="2.33282">
        <ele>279</ele>
        <time>2018-06-09T14:11:13Z</time>
      </trkpt>
      <trkpt lat="43.65225" lon="2.33279">
        <ele>279</ele>
        <time>2018-06-09T14:11:14Z</time>
      </trkpt>
      <trkpt lat="43.65219" lon="2.33266">
        <ele>279</ele>
        <time>2018-06-09T14:11:18Z</time>
      </trkpt>
      <trkpt lat="43.65212" lon="2.33248">
        <ele>280</ele>
        <time>2018-06-09T14:11:24Z</time>
      </trkpt>
      <trkpt lat="43.65212" lon="2.33245">
        <ele>280</ele>
        <time>2018-06-09T14:11:25Z</time>
      </trkpt>
      <trkpt lat="43.6521" lon="2.3323">
        <ele>280</ele>
        <time>2018-06-09T14:11:29Z</time>
      </trkpt>
      <trkpt lat="43.65208" lon="2.33223">
        <ele>281</ele>
        <time>2018-06-09T14:11:31Z</time>
      </trkpt>
      <trkpt lat="43.65208" lon="2.33219">
        <ele>281</ele>
        <time>2018-06-09T14:11:32Z</time>
      </trkpt>
      <trkpt lat="43.65207" lon="2.33211">
        <ele>282</ele>
        <time>2018-06-09T14:11:34Z</time>
      </trkpt>
      <trkpt lat="43.65207" lon="2.33201">
        <ele>282</ele>
        <time>2018-06-09T14:11:37Z</time>
      </trkpt>
      <trkpt lat="43.65206" lon="2.33193">
        <ele>283</ele>
        <time>2018-06-09T14:11:39Z</time>
      </trkpt>
      <trkpt lat="43.65207" lon="2.33183">
        <ele>283</ele>
        <time>2018-06-09T14:11:42Z</time>
      </trkpt>
      <trkpt lat="43.65209" lon="2.33178">
        <ele>283</ele>
        <time>2018-06-09T14:11:44Z</time>
      </trkpt>
      <trkpt lat="43.65211" lon="2.33177">
        <ele>283</ele>
        <time>2018-06-09T14:11:45Z</time>
      </trkpt>
      <trkpt lat="43.65217" lon="2.33176">
        <ele>283</ele>
        <time>2018-06-09T14:11:48Z</time>
      </trkpt>
      <trkpt lat="43.65218" lon="2.33175">
        <ele>283</ele>
        <time>2018-06-09T14:11:49Z</time>
      </trkpt>
      <trkpt lat="43.65224" lon="2.33174">
        <ele>284</ele>
        <time>2018-06-09T14:11:52Z</time>
      </trkpt>
      <trkpt lat="43.65227" lon="2.33174">
        <ele>285</ele>
        <time>2018-06-09T14:11:54Z</time>
      </trkpt>
      <trkpt lat="43.65232" lon="2.33173">
        <ele>285</ele>
        <time>2018-06-09T14:11:57Z</time>
      </trkpt>
      <trkpt lat="43.65239" lon="2.33171">
        <ele>286</ele>
        <time>2018-06-09T14:12:01Z</time>
      </trkpt>
      <trkpt lat="43.65248" lon="2.33167">
        <ele>287</ele>
        <time>2018-06-09T14:12:06Z</time>
      </trkpt>
      <trkpt lat="43.65258" lon="2.33163">
        <ele>289</ele>
        <time>2018-06-09T14:12:11Z</time>
      </trkpt>
      <trkpt lat="43.6526" lon="2.33162">
        <ele>289</ele>
        <time>2018-06-09T14:12:12Z</time>
      </trkpt>
      <trkpt lat="43.65268" lon="2.33163">
        <ele>289</ele>
        <time>2018-06-09T14:12:17Z</time>
      </trkpt>
      <trkpt lat="43.65282" lon="2.33163">
        <ele>289</ele>
        <time>2018-06-09T14:12:22Z</time>
      </trkpt>
      <trkpt lat="43.65294" lon="2.33164">
        <ele>288</ele>
        <time>2018-06-09T14:12:26Z</time>
      </trkpt>
      <trkpt lat="43.65301" lon="2.33162">
        <ele>289</ele>
        <time>2018-06-09T14:12:30Z</time>
      </trkpt>
      <trkpt lat="43.65304" lon="2.33161">
        <ele>289</ele>
        <time>2018-06-09T14:12:31Z</time>
      </trkpt>
      <trkpt lat="43.65314" lon="2.3316">
        <ele>288</ele>
        <time>2018-06-09T14:12:34Z</time>
      </trkpt>
      <trkpt lat="43.65329" lon="2.3316">
        <ele>289</ele>
        <time>2018-06-09T14:12:39Z</time>
      </trkpt>
      <trkpt lat="43.65334" lon="2.33162">
        <ele>289</ele>
        <time>2018-06-09T14:12:41Z</time>
      </trkpt>
      <trkpt lat="43.65343" lon="2.33165">
        <ele>290</ele>
        <time>2018-06-09T14:12:44Z</time>
      </trkpt>
      <trkpt lat="43.65345" lon="2.33165">
        <ele>290</ele>
        <time>2018-06-09T14:12:45Z</time>
      </trkpt>
      <trkpt lat="43.65353" lon="2.33167">
        <ele>290</ele>
        <time>2018-06-09T14:12:48Z</time>
      </trkpt>
      <trkpt lat="43.65361" lon="2.33171">
        <ele>291</ele>
        <time>2018-06-09T14:12:51Z</time>
      </trkpt>
      <trkpt lat="43.65371" lon="2.33176">
        <ele>291</ele>
        <time>2018-06-09T14:12:55Z</time>
      </trkpt>
      <trkpt lat="43.65374" lon="2.33177">
        <ele>292</ele>
        <time>2018-06-09T14:12:56Z</time>
      </trkpt>
      <trkpt lat="43.65385" lon="2.33184">
        <ele>293</ele>
        <time>2018-06-09T14:13:01Z</time>
      </trkpt>
      <trkpt lat="43.65392" lon="2.33188">
        <ele>294</ele>
        <time>2018-06-09T14:13:04Z</time>
      </trkpt>
      <trkpt lat="43.65399" lon="2.33187">
        <ele>295</ele>
        <time>2018-06-09T14:13:07Z</time>
      </trkpt>
      <trkpt lat="43.65401" lon="2.33186">
        <ele>295</ele>
        <time>2018-06-09T14:13:08Z</time>
      </trkpt>
      <trkpt lat="43.65403" lon="2.33186">
        <ele>295</ele>
        <time>2018-06-09T14:13:09Z</time>
      </trkpt>
      <trkpt lat="43.65408" lon="2.33186">
        <ele>296</ele>
        <time>2018-06-09T14:13:12Z</time>
      </trkpt>
      <trkpt lat="43.65413" lon="2.33185">
        <ele>296</ele>
        <time>2018-06-09T14:13:14Z</time>
      </trkpt>
      <trkpt lat="43.65416" lon="2.33183">
        <ele>297</ele>
        <time>2018-06-09T14:13:16Z</time>
      </trkpt>
      <trkpt lat="43.65418" lon="2.33183">
        <ele>297</ele>
        <time>2018-06-09T14:13:17Z</time>
      </trkpt>
      <trkpt lat="43.65431" lon="2.33183">
        <ele>298</ele>
        <time>2018-06-09T14:13:22Z</time>
      </trkpt>
      <trkpt lat="43.65443" lon="2.3318">
        <ele>298</ele>
        <time>2018-06-09T14:13:27Z</time>
      </trkpt>
      <trkpt lat="43.65451" lon="2.33177">
        <ele>298</ele>
        <time>2018-06-09T14:13:31Z</time>
      </trkpt>
      <trkpt lat="43.65454" lon="2.33177">
        <ele>299</ele>
        <time>2018-06-09T14:13:32Z</time>
      </trkpt>
      <trkpt lat="43.65461" lon="2.33173">
        <ele>300</ele>
        <time>2018-06-09T14:13:35Z</time>
      </trkpt>
      <trkpt lat="43.65465" lon="2.33172">
        <ele>300</ele>
        <time>2018-06-09T14:13:37Z</time>
      </trkpt>
      <trkpt lat="43.65475" lon="2.33168">
        <ele>300</ele>
        <time>2018-06-09T14:13:41Z</time>
      </trkpt>
      <trkpt lat="43.65485" lon="2.33169">
        <ele>301</ele>
        <time>2018-06-09T14:13:46Z</time>
      </trkpt>
      <trkpt lat="43.65489" lon="2.3317">
        <ele>301</ele>
        <time>2018-06-09T14:13:48Z</time>
      </trkpt>
      <trkpt lat="43.65497" lon="2.3317">
        <ele>301</ele>
        <time>2018-06-09T14:13:51Z</time>
      </trkpt>
      <trkpt lat="43.65509" lon="2.3317">
        <ele>301</ele>
        <time>2018-06-09T14:13:55Z</time>
      </trkpt>
      <trkpt lat="43.65522" lon="2.33168">
        <ele>301</ele>
        <time>2018-06-09T14:13:59Z</time>
      </trkpt>
      <trkpt lat="43.6554" lon="2.33164">
        <ele>301</ele>
        <time>2018-06-09T14:14:04Z</time>
      </trkpt>
      <trkpt lat="43.65555" lon="2.33157">
        <ele>302</ele>
        <time>2018-06-09T14:14:10Z</time>
      </trkpt>
      <trkpt lat="43.6556" lon="2.33155">
        <ele>302</ele>
        <time>2018-06-09T14:14:12Z</time>
      </trkpt>
      <trkpt lat="43.65569" lon="2.3315">
        <ele>302</ele>
        <time>2018-06-09T14:14:16Z</time>
      </trkpt>
      <trkpt lat="43.65574" lon="2.33146">
        <ele>303</ele>
        <time>2018-06-09T14:14:18Z</time>
      </trkpt>
      <trkpt lat="43.6558" lon="2.33144">
        <ele>304</ele>
        <time>2018-06-09T14:14:21Z</time>
      </trkpt>
      <trkpt lat="43.65581" lon="2.33143">
        <ele>304</ele>
        <time>2018-06-09T14:14:22Z</time>
      </trkpt>
      <trkpt lat="43.65586" lon="2.3314">
        <ele>305</ele>
        <time>2018-06-09T14:14:25Z</time>
      </trkpt>
      <trkpt lat="43.65591" lon="2.33138">
        <ele>306</ele>
        <time>2018-06-09T14:14:28Z</time>
      </trkpt>
      <trkpt lat="43.65595" lon="2.33137">
        <ele>306</ele>
        <time>2018-06-09T14:14:30Z</time>
      </trkpt>
      <trkpt lat="43.656" lon="2.33137">
        <ele>308</ele>
        <time>2018-06-09T14:14:33Z</time>
      </trkpt>
      <trkpt lat="43.65611" lon="2.3314">
        <ele>309</ele>
        <time>2018-06-09T14:14:39Z</time>
      </trkpt>
      <trkpt lat="43.65615" lon="2.3314">
        <ele>309</ele>
        <time>2018-06-09T14:14:41Z</time>
      </trkpt>
      <trkpt lat="43.65622" lon="2.33135">
        <ele>309</ele>
        <time>2018-06-09T14:14:44Z</time>
      </trkpt>
      <trkpt lat="43.65624" lon="2.33134">
        <ele>310</ele>
        <time>2018-06-09T14:14:45Z</time>
      </trkpt>
      <trkpt lat="43.65632" lon="2.33129">
        <ele>310</ele>
        <time>2018-06-09T14:14:49Z</time>
      </trkpt>
      <trkpt lat="43.65641" lon="2.3312">
        <ele>311</ele>
        <time>2018-06-09T14:14:54Z</time>
      </trkpt>
      <trkpt lat="43.65645" lon="2.33117">
        <ele>312</ele>
        <time>2018-06-09T14:14:56Z</time>
      </trkpt>
      <trkpt lat="43.65651" lon="2.3311">
        <ele>312</ele>
        <time>2018-06-09T14:15:00Z</time>
      </trkpt>
      <trkpt lat="43.65656" lon="2.33106">
        <ele>313</ele>
        <time>2018-06-09T14:15:03Z</time>
      </trkpt>
      <trkpt lat="43.65662" lon="2.33103">
        <ele>313</ele>
        <time>2018-06-09T14:15:07Z</time>
      </trkpt>
      <trkpt lat="43.65663" lon="2.33102">
        <ele>314</ele>
        <time>2018-06-09T14:15:08Z</time>
      </trkpt>
      <trkpt lat="43.65668" lon="2.33099">
        <ele>315</ele>
        <time>2018-06-09T14:15:11Z</time>
      </trkpt>
      <trkpt lat="43.65673" lon="2.33096">
        <ele>316</ele>
        <time>2018-06-09T14:15:14Z</time>
      </trkpt>
      <trkpt lat="43.65675" lon="2.33096">
        <ele>316</ele>
        <time>2018-06-09T14:15:15Z</time>
      </trkpt>
      <trkpt lat="43.65676" lon="2.33095">
        <ele>316</ele>
        <time>2018-06-09T14:15:16Z</time>
      </trkpt>
      <trkpt lat="43.65679" lon="2.33092">
        <ele>317</ele>
        <time>2018-06-09T14:15:18Z</time>
      </trkpt>
      <trkpt lat="43.6568" lon="2.3309">
        <ele>317</ele>
        <time>2018-06-09T14:15:19Z</time>
      </trkpt>
      <trkpt lat="43.65686" lon="2.33086">
        <ele>318</ele>
        <time>2018-06-09T14:15:23Z</time>
      </trkpt>
      <trkpt lat="43.6569" lon="2.33083">
        <ele>319</ele>
        <time>2018-06-09T14:15:26Z</time>
      </trkpt>
      <trkpt lat="43.65694" lon="2.33078">
        <ele>320</ele>
        <time>2018-06-09T14:15:29Z</time>
      </trkpt>
      <trkpt lat="43.65699" lon="2.33075">
        <ele>320</ele>
        <time>2018-06-09T14:15:32Z</time>
      </trkpt>
      <trkpt lat="43.65706" lon="2.33069">
        <ele>321</ele>
        <time>2018-06-09T14:15:37Z</time>
      </trkpt>
      <trkpt lat="43.65708" lon="2.33068">
        <ele>322</ele>
        <time>2018-06-09T14:15:38Z</time>
      </trkpt>
      <trkpt lat="43.65716" lon="2.33063">
        <ele>322</ele>
        <time>2018-06-09T14:15:43Z</time>
      </trkpt>
      <trkpt lat="43.65721" lon="2.33058">
        <ele>324</ele>
        <time>2018-06-09T14:15:46Z</time>
      </trkpt>
      <trkpt lat="43.65725" lon="2.33053">
        <ele>324</ele>
        <time>2018-06-09T14:15:49Z</time>
      </trkpt>
      <trkpt lat="43.65731" lon="2.33046">
        <ele>325</ele>
        <time>2018-06-09T14:15:53Z</time>
      </trkpt>
      <trkpt lat="43.65734" lon="2.33043">
        <ele>325</ele>
        <time>2018-06-09T14:15:55Z</time>
      </trkpt>
      <trkpt lat="43.65739" lon="2.33035">
        <ele>326</ele>
        <time>2018-06-09T14:15:59Z</time>
      </trkpt>
      <trkpt lat="43.65741" lon="2.33033">
        <ele>326</ele>
        <time>2018-06-09T14:16:00Z</time>
      </trkpt>
      <trkpt lat="43.65747" lon="2.33023">
        <ele>326</ele>
        <time>2018-06-09T14:16:05Z</time>
      </trkpt>
      <trkpt lat="43.65748" lon="2.33022">
        <ele>327</ele>
        <time>2018-06-09T14:16:06Z</time>
      </trkpt>
      <trkpt lat="43.65755" lon="2.33014">
        <ele>328</ele>
        <time>2018-06-09T14:16:11Z</time>
      </trkpt>
      <trkpt lat="43.65756" lon="2.33012">
        <ele>328</ele>
        <time>2018-06-09T14:16:12Z</time>
      </trkpt>
      <trkpt lat="43.65761" lon="2.33008">
        <ele>329</ele>
        <time>2018-06-09T14:16:15Z</time>
      </trkpt>
      <trkpt lat="43.65763" lon="2.33005">
        <ele>330</ele>
        <time>2018-06-09T14:16:17Z</time>
      </trkpt>
      <trkpt lat="43.65771" lon="2.32996">
        <ele>330</ele>
        <time>2018-06-09T14:16:22Z</time>
      </trkpt>
      <trkpt lat="43.65772" lon="2.32994">
        <ele>331</ele>
        <time>2018-06-09T14:16:23Z</time>
      </trkpt>
      <trkpt lat="43.65779" lon="2.32986">
        <ele>332</ele>
        <time>2018-06-09T14:16:28Z</time>
      </trkpt>
      <trkpt lat="43.65781" lon="2.32984">
        <ele>332</ele>
        <time>2018-06-09T14:16:29Z</time>
      </trkpt>
      <trkpt lat="43.65786" lon="2.32978">
        <ele>333</ele>
        <time>2018-06-09T14:16:32Z</time>
      </trkpt>
      <trkpt lat="43.65792" lon="2.32973">
        <ele>333</ele>
        <time>2018-06-09T14:16:35Z</time>
      </trkpt>
      <trkpt lat="43.65795" lon="2.3297">
        <ele>334</ele>
        <time>2018-06-09T14:16:37Z</time>
      </trkpt>
      <trkpt lat="43.65796" lon="2.32969">
        <ele>334</ele>
        <time>2018-06-09T14:16:38Z</time>
      </trkpt>
      <trkpt lat="43.65801" lon="2.32965">
        <ele>334</ele>
        <time>2018-06-09T14:16:41Z</time>
      </trkpt>
      <trkpt lat="43.65811" lon="2.32961">
        <ele>334</ele>
        <time>2018-06-09T14:16:46Z</time>
      </trkpt>
      <trkpt lat="43.65815" lon="2.32958">
        <ele>335</ele>
        <time>2018-06-09T14:16:49Z</time>
      </trkpt>
      <trkpt lat="43.65818" lon="2.32957">
        <ele>336</ele>
        <time>2018-06-09T14:16:51Z</time>
      </trkpt>
      <trkpt lat="43.65819" lon="2.32956">
        <ele>336</ele>
        <time>2018-06-09T14:16:52Z</time>
      </trkpt>
      <trkpt lat="43.65822" lon="2.32954">
        <ele>336</ele>
        <time>2018-06-09T14:16:54Z</time>
      </trkpt>
      <trkpt lat="43.65826" lon="2.32952">
        <ele>337</ele>
        <time>2018-06-09T14:16:57Z</time>
      </trkpt>
      <trkpt lat="43.65832" lon="2.32947">
        <ele>337</ele>
        <time>2018-06-09T14:17:01Z</time>
      </trkpt>
      <trkpt lat="43.65836" lon="2.32945">
        <ele>338</ele>
        <time>2018-06-09T14:17:03Z</time>
      </trkpt>
      <trkpt lat="43.65839" lon="2.32944">
        <ele>338</ele>
        <time>2018-06-09T14:17:05Z</time>
      </trkpt>
      <trkpt lat="43.65841" lon="2.32943">
        <ele>338</ele>
        <time>2018-06-09T14:17:07Z</time>
      </trkpt>
      <trkpt lat="43.65844" lon="2.32942">
        <ele>339</ele>
        <time>2018-06-09T14:17:09Z</time>
      </trkpt>
      <trkpt lat="43.6585" lon="2.3294">
        <ele>339</ele>
        <time>2018-06-09T14:17:12Z</time>
      </trkpt>
      <trkpt lat="43.65855" lon="2.32937">
        <ele>339</ele>
        <time>2018-06-09T14:17:15Z</time>
      </trkpt>
      <trkpt lat="43.65863" lon="2.32933">
        <ele>340</ele>
        <time>2018-06-09T14:17:20Z</time>
      </trkpt>
      <trkpt lat="43.65865" lon="2.32933">
        <ele>341</ele>
        <time>2018-06-09T14:17:21Z</time>
      </trkpt>
      <trkpt lat="43.65874" lon="2.3293">
        <ele>341</ele>
        <time>2018-06-09T14:17:25Z</time>
      </trkpt>
      <trkpt lat="43.65878" lon="2.32928">
        <ele>341</ele>
        <time>2018-06-09T14:17:27Z</time>
      </trkpt>
      <trkpt lat="43.65884" lon="2.32925">
        <ele>342</ele>
        <time>2018-06-09T14:17:30Z</time>
      </trkpt>
      <trkpt lat="43.6589" lon="2.32919">
        <ele>342</ele>
        <time>2018-06-09T14:17:34Z</time>
      </trkpt>
      <trkpt lat="43.65892" lon="2.32919">
        <ele>343</ele>
        <time>2018-06-09T14:17:35Z</time>
      </trkpt>
      <trkpt lat="43.65901" lon="2.32922">
        <ele>343</ele>
        <time>2018-06-09T14:17:41Z</time>
      </trkpt>
      <trkpt lat="43.65906" lon="2.32922">
        <ele>344</ele>
        <time>2018-06-09T14:17:43Z</time>
      </trkpt>
      <trkpt lat="43.65915" lon="2.32921">
        <ele>344</ele>
        <time>2018-06-09T14:17:46Z</time>
      </trkpt>
      <trkpt lat="43.65921" lon="2.32919">
        <ele>344</ele>
        <time>2018-06-09T14:17:50Z</time>
      </trkpt>
      <trkpt lat="43.65922" lon="2.32919">
        <ele>345</ele>
        <time>2018-06-09T14:17:51Z</time>
      </trkpt>
      <trkpt lat="43.65929" lon="2.32919">
        <ele>345</ele>
        <time>2018-06-09T14:17:54Z</time>
      </trkpt>
      <trkpt lat="43.65937" lon="2.3292">
        <ele>346</ele>
        <time>2018-06-09T14:17:59Z</time>
      </trkpt>
      <trkpt lat="43.65947" lon="2.32921">
        <ele>347</ele>
        <time>2018-06-09T14:18:04Z</time>
      </trkpt>
      <trkpt lat="43.65949" lon="2.32921">
        <ele>347</ele>
        <time>2018-06-09T14:18:05Z</time>
      </trkpt>
      <trkpt lat="43.65957" lon="2.32921">
        <ele>348</ele>
        <time>2018-06-09T14:18:09Z</time>
      </trkpt>
      <trkpt lat="43.65964" lon="2.32922">
        <ele>348</ele>
        <time>2018-06-09T14:18:12Z</time>
      </trkpt>
      <trkpt lat="43.65976" lon="2.32922">
        <ele>349</ele>
        <time>2018-06-09T14:18:17Z</time>
      </trkpt>
      <trkpt lat="43.6598" lon="2.32922">
        <ele>349</ele>
        <time>2018-06-09T14:18:19Z</time>
      </trkpt>
      <trkpt lat="43.65984" lon="2.32922">
        <ele>350</ele>
        <time>2018-06-09T14:18:21Z</time>
      </trkpt>
      <trkpt lat="43.65988" lon="2.32922">
        <ele>350</ele>
        <time>2018-06-09T14:18:23Z</time>
      </trkpt>
      <trkpt lat="43.65995" lon="2.32925">
        <ele>351</ele>
        <time>2018-06-09T14:18:26Z</time>
      </trkpt>
      <trkpt lat="43.66002" lon="2.32926">
        <ele>351</ele>
        <time>2018-06-09T14:18:29Z</time>
      </trkpt>
      <trkpt lat="43.66006" lon="2.32926">
        <ele>352</ele>
        <time>2018-06-09T14:18:31Z</time>
      </trkpt>
      <trkpt lat="43.66017" lon="2.32931">
        <ele>353</ele>
        <time>2018-06-09T14:18:36Z</time>
      </trkpt>
      <trkpt lat="43.66018" lon="2.32932">
        <ele>353</ele>
        <time>2018-06-09T14:18:37Z</time>
      </trkpt>
      <trkpt lat="43.66028" lon="2.32939">
        <ele>354</ele>
        <time>2018-06-09T14:18:41Z</time>
      </trkpt>
      <trkpt lat="43.66039" lon="2.32945">
        <ele>355</ele>
        <time>2018-06-09T14:18:46Z</time>
      </trkpt>
      <trkpt lat="43.66042" lon="2.32948">
        <ele>355</ele>
        <time>2018-06-09T14:18:47Z</time>
      </trkpt>
      <trkpt lat="43.66051" lon="2.32953">
        <ele>355</ele>
        <time>2018-06-09T14:18:50Z</time>
      </trkpt>
      <trkpt lat="43.66059" lon="2.32959">
        <ele>356</ele>
        <time>2018-06-09T14:18:54Z</time>
      </trkpt>
      <trkpt lat="43.6606" lon="2.32962">
        <ele>356</ele>
        <time>2018-06-09T14:18:55Z</time>
      </trkpt>
      <trkpt lat="43.66064" lon="2.32967">
        <ele>356</ele>
        <time>2018-06-09T14:18:57Z</time>
      </trkpt>
      <trkpt lat="43.66068" lon="2.32973">
        <ele>356</ele>
        <time>2018-06-09T14:18:59Z</time>
      </trkpt>
      <trkpt lat="43.66077" lon="2.32983">
        <ele>357</ele>
        <time>2018-06-09T14:19:04Z</time>
      </trkpt>
      <trkpt lat="43.66085" lon="2.32984">
        <ele>357</ele>
        <time>2018-06-09T14:19:08Z</time>
      </trkpt>
      <trkpt lat="43.66087" lon="2.32981">
        <ele>357</ele>
        <time>2018-06-09T14:19:09Z</time>
      </trkpt>
      <trkpt lat="43.66092" lon="2.32972">
        <ele>357</ele>
        <time>2018-06-09T14:19:12Z</time>
      </trkpt>
      <trkpt lat="43.66092" lon="2.32969">
        <ele>357</ele>
        <time>2018-06-09T14:19:13Z</time>
      </trkpt>
      <trkpt lat="43.66094" lon="2.32956">
        <ele>357</ele>
        <time>2018-06-09T14:19:17Z</time>
      </trkpt>
      <trkpt lat="43.66096" lon="2.32945">
        <ele>358</ele>
        <time>2018-06-09T14:19:21Z</time>
      </trkpt>
      <trkpt lat="43.66096" lon="2.32927">
        <ele>358</ele>
        <time>2018-06-09T14:19:27Z</time>
      </trkpt>
      <trkpt lat="43.66095" lon="2.3292">
        <ele>358</ele>
        <time>2018-06-09T14:19:30Z</time>
      </trkpt>
      <trkpt lat="43.66095" lon="2.32918">
        <ele>359</ele>
        <time>2018-06-09T14:19:31Z</time>
      </trkpt>
      <trkpt lat="43.66095" lon="2.32905">
        <ele>359</ele>
        <time>2018-06-09T14:19:35Z</time>
      </trkpt>
      <trkpt lat="43.66095" lon="2.32903">
        <ele>360</ele>
        <time>2018-06-09T14:19:36Z</time>
      </trkpt>
      <trkpt lat="43.66095" lon="2.32898">
        <ele>360</ele>
        <time>2018-06-09T14:19:38Z</time>
      </trkpt>
      <trkpt lat="43.66094" lon="2.32895">
        <ele>360</ele>
        <time>2018-06-09T14:19:39Z</time>
      </trkpt>
      <trkpt lat="43.66095" lon="2.32889">
        <ele>361</ele>
        <time>2018-06-09T14:19:41Z</time>
      </trkpt>
      <trkpt lat="43.66094" lon="2.32886">
        <ele>362</ele>
        <time>2018-06-09T14:19:42Z</time>
      </trkpt>
      <trkpt lat="43.66094" lon="2.32873">
        <ele>362</ele>
        <time>2018-06-09T14:19:47Z</time>
      </trkpt>
      <trkpt lat="43.66094" lon="2.3287">
        <ele>363</ele>
        <time>2018-06-09T14:19:48Z</time>
      </trkpt>
      <trkpt lat="43.66094" lon="2.32864">
        <ele>363</ele>
        <time>2018-06-09T14:19:50Z</time>
      </trkpt>
      <trkpt lat="43.66094" lon="2.32855">
        <ele>364</ele>
        <time>2018-06-09T14:19:53Z</time>
      </trkpt>
      <trkpt lat="43.66094" lon="2.32848">
        <ele>365</ele>
        <time>2018-06-09T14:19:56Z</time>
      </trkpt>
      <trkpt lat="43.66093" lon="2.32843">
        <ele>365</ele>
        <time>2018-06-09T14:19:58Z</time>
      </trkpt>
      <trkpt lat="43.66093" lon="2.32838">
        <ele>365</ele>
        <time>2018-06-09T14:20:00Z</time>
      </trkpt>
      <trkpt lat="43.66094" lon="2.32829">
        <ele>366</ele>
        <time>2018-06-09T14:20:03Z</time>
      </trkpt>
      <trkpt lat="43.66094" lon="2.32826">
        <ele>366</ele>
        <time>2018-06-09T14:20:04Z</time>
      </trkpt>
      <trkpt lat="43.66095" lon="2.32808">
        <ele>367</ele>
        <time>2018-06-09T14:20:10Z</time>
      </trkpt>
      <trkpt lat="43.661" lon="2.32794">
        <ele>368</ele>
        <time>2018-06-09T14:20:15Z</time>
      </trkpt>
      <trkpt lat="43.66101" lon="2.32792">
        <ele>368</ele>
        <time>2018-06-09T14:20:16Z</time>
      </trkpt>
      <trkpt lat="43.66109" lon="2.32784">
        <ele>370</ele>
        <time>2018-06-09T14:20:21Z</time>
      </trkpt>
      <trkpt lat="43.66113" lon="2.32783">
        <ele>370</ele>
        <time>2018-06-09T14:20:23Z</time>
      </trkpt>
      <trkpt lat="43.66117" lon="2.32782">
        <ele>371</ele>
        <time>2018-06-09T14:20:25Z</time>
      </trkpt>
      <trkpt lat="43.66124" lon="2.32781">
        <ele>371</ele>
        <time>2018-06-09T14:20:29Z</time>
      </trkpt>
      <trkpt lat="43.66126" lon="2.32781">
        <ele>371</ele>
        <time>2018-06-09T14:20:30Z</time>
      </trkpt>
      <trkpt lat="43.66136" lon="2.32779">
        <ele>372</ele>
        <time>2018-06-09T14:20:35Z</time>
      </trkpt>
      <trkpt lat="43.66142" lon="2.32779">
        <ele>372</ele>
        <time>2018-06-09T14:20:38Z</time>
      </trkpt>
      <trkpt lat="43.6615" lon="2.32778">
        <ele>373</ele>
        <time>2018-06-09T14:20:42Z</time>
      </trkpt>
      <trkpt lat="43.66154" lon="2.32777">
        <ele>374</ele>
        <time>2018-06-09T14:20:44Z</time>
      </trkpt>
      <trkpt lat="43.66162" lon="2.32777">
        <ele>374</ele>
        <time>2018-06-09T14:20:48Z</time>
      </trkpt>
      <trkpt lat="43.66164" lon="2.32777">
        <ele>375</ele>
        <time>2018-06-09T14:20:49Z</time>
      </trkpt>
      <trkpt lat="43.66174" lon="2.32776">
        <ele>375</ele>
        <time>2018-06-09T14:20:54Z</time>
      </trkpt>
      <trkpt lat="43.66179" lon="2.32775">
        <ele>375</ele>
        <time>2018-06-09T14:20:56Z</time>
      </trkpt>
      <trkpt lat="43.66182" lon="2.32776">
        <ele>376</ele>
        <time>2018-06-09T14:20:58Z</time>
      </trkpt>
      <trkpt lat="43.66192" lon="2.32776">
        <ele>376</ele>
        <time>2018-06-09T14:21:03Z</time>
      </trkpt>
      <trkpt lat="43.66196" lon="2.32777">
        <ele>377</ele>
        <time>2018-06-09T14:21:05Z</time>
      </trkpt>
      <trkpt lat="43.66201" lon="2.32777">
        <ele>377</ele>
        <time>2018-06-09T14:21:07Z</time>
      </trkpt>
      <trkpt lat="43.66208" lon="2.32776">
        <ele>378</ele>
        <time>2018-06-09T14:21:10Z</time>
      </trkpt>
      <trkpt lat="43.66212" lon="2.32775">
        <ele>378</ele>
        <time>2018-06-09T14:21:12Z</time>
      </trkpt>
      <trkpt lat="43.66219" lon="2.32774">
        <ele>379</ele>
        <time>2018-06-09T14:21:16Z</time>
      </trkpt>
      <trkpt lat="43.6623" lon="2.32774">
        <ele>380</ele>
        <time>2018-06-09T14:21:21Z</time>
      </trkpt>
      <trkpt lat="43.66242" lon="2.32772">
        <ele>380</ele>
        <time>2018-06-09T14:21:26Z</time>
      </trkpt>
      <trkpt lat="43.66246" lon="2.32772">
        <ele>381</ele>
        <time>2018-06-09T14:21:28Z</time>
      </trkpt>
      <trkpt lat="43.66254" lon="2.32771">
        <ele>381</ele>
        <time>2018-06-09T14:21:32Z</time>
      </trkpt>
      <trkpt lat="43.66259" lon="2.32771">
        <ele>382</ele>
        <time>2018-06-09T14:21:35Z</time>
      </trkpt>
      <trkpt lat="43.66265" lon="2.32771">
        <ele>382</ele>
        <time>2018-06-09T14:21:38Z</time>
      </trkpt>
      <trkpt lat="43.66271" lon="2.32771">
        <ele>382</ele>
        <time>2018-06-09T14:21:42Z</time>
      </trkpt>
      <trkpt lat="43.66279" lon="2.32771">
        <ele>383</ele>
        <time>2018-06-09T14:21:51Z</time>
      </trkpt>
      <trkpt lat="43.66288" lon="2.32773">
        <ele>384</ele>
        <time>2018-06-09T14:22:01Z</time>
      </trkpt>
      <trkpt lat="43.66289" lon="2.32773">
        <ele>384</ele>
        <time>2018-06-09T14:22:02Z</time>
      </trkpt>
      <trkpt lat="43.66296" lon="2.32772">
        <ele>384</ele>
        <time>2018-06-09T14:22:10Z</time>
      </trkpt>
      <trkpt lat="43.66298" lon="2.32773">
        <ele>384</ele>
        <time>2018-06-09T14:22:18Z</time>
      </trkpt>
      <trkpt lat="43.66299" lon="2.32773">
        <ele>384</ele>
        <time>2018-06-09T14:22:19Z</time>
      </trkpt>
      <trkpt lat="43.66301" lon="2.32773">
        <ele>385</ele>
        <time>2018-06-09T14:22:26Z</time>
      </trkpt>
      <trkpt lat="43.66305" lon="2.32774">
        <ele>385</ele>
        <time>2018-06-09T14:22:32Z</time>
      </trkpt>
      <trkpt lat="43.66306" lon="2.32774">
        <ele>385</ele>
        <time>2018-06-09T14:22:35Z</time>
      </trkpt>
      <trkpt lat="43.66311" lon="2.32775">
        <ele>385</ele>
        <time>2018-06-09T14:22:40Z</time>
      </trkpt>
      <trkpt lat="43.66314" lon="2.32775">
        <ele>386</ele>
        <time>2018-06-09T14:22:44Z</time>
      </trkpt>
      <trkpt lat="43.66314" lon="2.32774">
        <ele>386</ele>
        <time>2018-06-09T14:22:45Z</time>
      </trkpt>
      <trkpt lat="43.66321" lon="2.32771">
        <ele>386</ele>
        <time>2018-06-09T14:22:53Z</time>
      </trkpt>
      <trkpt lat="43.66325" lon="2.32773">
        <ele>387</ele>
        <time>2018-06-09T14:23:00Z</time>
      </trkpt>
      <trkpt lat="43.66326" lon="2.32773">
        <ele>387</ele>
        <time>2018-06-09T14:23:01Z</time>
      </trkpt>
      <trkpt lat="43.66334" lon="2.32772">
        <ele>387</ele>
        <time>2018-06-09T14:23:07Z</time>
      </trkpt>
      <trkpt lat="43.6634" lon="2.32774">
        <ele>388</ele>
        <time>2018-06-09T14:23:11Z</time>
      </trkpt>
      <trkpt lat="43.66341" lon="2.32777">
        <ele>389</ele>
        <time>2018-06-09T14:23:12Z</time>
      </trkpt>
      <trkpt lat="43.66342" lon="2.3278">
        <ele>389</ele>
        <time>2018-06-09T14:23:14Z</time>
      </trkpt>
      <trkpt lat="43.66346" lon="2.32781">
        <ele>390</ele>
        <time>2018-06-09T14:23:17Z</time>
      </trkpt>
      <trkpt lat="43.66354" lon="2.32778">
        <ele>390</ele>
        <time>2018-06-09T14:23:22Z</time>
      </trkpt>
      <trkpt lat="43.66361" lon="2.32779">
        <ele>389</ele>
        <time>2018-06-09T14:23:26Z</time>
      </trkpt>
      <trkpt lat="43.66365" lon="2.32784">
        <ele>390</ele>
        <time>2018-06-09T14:23:30Z</time>
      </trkpt>
      <trkpt lat="43.66366" lon="2.32785">
        <ele>390</ele>
        <time>2018-06-09T14:23:31Z</time>
      </trkpt>
      <trkpt lat="43.66366" lon="2.32787">
        <ele>391</ele>
        <time>2018-06-09T14:23:32Z</time>
      </trkpt>
      <trkpt lat="43.6637" lon="2.32798">
        <ele>391</ele>
        <time>2018-06-09T14:23:38Z</time>
      </trkpt>
      <trkpt lat="43.66373" lon="2.32805">
        <ele>391</ele>
        <time>2018-06-09T14:23:42Z</time>
      </trkpt>
      <trkpt lat="43.66373" lon="2.32807">
        <ele>391</ele>
        <time>2018-06-09T14:23:43Z</time>
      </trkpt>
      <trkpt lat="43.66373" lon="2.32808">
        <ele>392</ele>
        <time>2018-06-09T14:23:44Z</time>
      </trkpt>
      <trkpt lat="43.66374" lon="2.32815">
        <ele>392</ele>
        <time>2018-06-09T14:23:48Z</time>
      </trkpt>
      <trkpt lat="43.66373" lon="2.32819">
        <ele>392</ele>
        <time>2018-06-09T14:23:50Z</time>
      </trkpt>
      <trkpt lat="43.66372" lon="2.32824">
        <ele>393</ele>
        <time>2018-06-09T14:23:54Z</time>
      </trkpt>
      <trkpt lat="43.66371" lon="2.32825">
        <ele>394</ele>
        <time>2018-06-09T14:23:55Z</time>
      </trkpt>
      <trkpt lat="43.66367" lon="2.32832">
        <ele>394</ele>
        <time>2018-06-09T14:24:00Z</time>
      </trkpt>
      <trkpt lat="43.66366" lon="2.32832">
        <ele>395</ele>
        <time>2018-06-09T14:24:01Z</time>
      </trkpt>
      <trkpt lat="43.66364" lon="2.32834">
        <ele>395</ele>
        <time>2018-06-09T14:24:03Z</time>
      </trkpt>
      <trkpt lat="43.6636" lon="2.32837">
        <ele>396</ele>
        <time>2018-06-09T14:24:06Z</time>
      </trkpt>
      <trkpt lat="43.66359" lon="2.32839">
        <ele>396</ele>
        <time>2018-06-09T14:24:07Z</time>
      </trkpt>
      <trkpt lat="43.66356" lon="2.32841">
        <ele>397</ele>
        <time>2018-06-09T14:24:09Z</time>
      </trkpt>
      <trkpt lat="43.66352" lon="2.32847">
        <ele>398</ele>
        <time>2018-06-09T14:24:13Z</time>
      </trkpt>
      <trkpt lat="43.6635" lon="2.32848">
        <ele>398</ele>
        <time>2018-06-09T14:24:14Z</time>
      </trkpt>
      <trkpt lat="43.66341" lon="2.32858">
        <ele>399</ele>
        <time>2018-06-09T14:24:20Z</time>
      </trkpt>
      <trkpt lat="43.66333" lon="2.32868">
        <ele>400</ele>
        <time>2018-06-09T14:24:26Z</time>
      </trkpt>
      <trkpt lat="43.66329" lon="2.32873">
        <ele>400</ele>
        <time>2018-06-09T14:24:29Z</time>
      </trkpt>
      <trkpt lat="43.66324" lon="2.3288">
        <ele>401</ele>
        <time>2018-06-09T14:24:33Z</time>
      </trkpt>
      <trkpt lat="43.66313" lon="2.32894">
        <ele>402</ele>
        <time>2018-06-09T14:24:41Z</time>
      </trkpt>
      <trkpt lat="43.66305" lon="2.32904">
        <ele>403</ele>
        <time>2018-06-09T14:24:47Z</time>
      </trkpt>
      <trkpt lat="43.66301" lon="2.32909">
        <ele>404</ele>
        <time>2018-06-09T14:24:50Z</time>
      </trkpt>
      <trkpt lat="43.66297" lon="2.32916">
        <ele>404</ele>
        <time>2018-06-09T14:24:54Z</time>
      </trkpt>
      <trkpt lat="43.66296" lon="2.32921">
        <ele>405</ele>
        <time>2018-06-09T14:24:56Z</time>
      </trkpt>
      <trkpt lat="43.66295" lon="2.32923">
        <ele>405</ele>
        <time>2018-06-09T14:24:57Z</time>
      </trkpt>
      <trkpt lat="43.66299" lon="2.32933">
        <ele>406</ele>
        <time>2018-06-09T14:25:01Z</time>
      </trkpt>
      <trkpt lat="43.663" lon="2.32936">
        <ele>406</ele>
        <time>2018-06-09T14:25:02Z</time>
      </trkpt>
      <trkpt lat="43.66304" lon="2.32943">
        <ele>407</ele>
        <time>2018-06-09T14:25:05Z</time>
      </trkpt>
      <trkpt lat="43.66308" lon="2.32952">
        <ele>408</ele>
        <time>2018-06-09T14:25:09Z</time>
      </trkpt>
      <trkpt lat="43.66312" lon="2.32968">
        <ele>408</ele>
        <time>2018-06-09T14:25:15Z</time>
      </trkpt>
      <trkpt lat="43.66313" lon="2.32976">
        <ele>409</ele>
        <time>2018-06-09T14:25:18Z</time>
      </trkpt>
      <trkpt lat="43.66312" lon="2.32987">
        <ele>409</ele>
        <time>2018-06-09T14:25:22Z</time>
      </trkpt>
      <trkpt lat="43.66313" lon="2.32998">
        <ele>410</ele>
        <time>2018-06-09T14:25:26Z</time>
      </trkpt>
      <trkpt lat="43.66312" lon="2.33009">
        <ele>410</ele>
        <time>2018-06-09T14:25:30Z</time>
      </trkpt>
      <trkpt lat="43.66313" lon="2.33022">
        <ele>411</ele>
        <time>2018-06-09T14:25:35Z</time>
      </trkpt>
      <trkpt lat="43.66313" lon="2.33025">
        <ele>411</ele>
        <time>2018-06-09T14:25:36Z</time>
      </trkpt>
      <trkpt lat="43.66315" lon="2.33039">
        <ele>411</ele>
        <time>2018-06-09T14:25:41Z</time>
      </trkpt>
      <trkpt lat="43.66315" lon="2.33049">
        <ele>412</ele>
        <time>2018-06-09T14:25:45Z</time>
      </trkpt>
      <trkpt lat="43.66313" lon="2.3306">
        <ele>413</ele>
        <time>2018-06-09T14:25:49Z</time>
      </trkpt>
      <trkpt lat="43.66313" lon="2.33063">
        <ele>414</ele>
        <time>2018-06-09T14:25:50Z</time>
      </trkpt>
      <trkpt lat="43.66311" lon="2.33082">
        <ele>415</ele>
        <time>2018-06-09T14:25:57Z</time>
      </trkpt>
      <trkpt lat="43.6631" lon="2.33098">
        <ele>416</ele>
        <time>2018-06-09T14:26:03Z</time>
      </trkpt>
      <trkpt lat="43.6631" lon="2.33108">
        <ele>417</ele>
        <time>2018-06-09T14:26:07Z</time>
      </trkpt>
      <trkpt lat="43.66309" lon="2.33115">
        <ele>417</ele>
        <time>2018-06-09T14:26:10Z</time>
      </trkpt>
      <trkpt lat="43.66307" lon="2.33128">
        <ele>418</ele>
        <time>2018-06-09T14:26:15Z</time>
      </trkpt>
      <trkpt lat="43.66304" lon="2.33153">
        <ele>420</ele>
        <time>2018-06-09T14:26:24Z</time>
      </trkpt>
      <trkpt lat="43.663" lon="2.33171">
        <ele>421</ele>
        <time>2018-06-09T14:26:31Z</time>
      </trkpt>
      <trkpt lat="43.663" lon="2.33174">
        <ele>421</ele>
        <time>2018-06-09T14:26:32Z</time>
      </trkpt>
      <trkpt lat="43.66297" lon="2.3319">
        <ele>422</ele>
        <time>2018-06-09T14:26:38Z</time>
      </trkpt>
      <trkpt lat="43.66296" lon="2.33192">
        <ele>423</ele>
        <time>2018-06-09T14:26:39Z</time>
      </trkpt>
      <trkpt lat="43.66294" lon="2.33214">
        <ele>424</ele>
        <time>2018-06-09T14:26:47Z</time>
      </trkpt>
      <trkpt lat="43.66292" lon="2.33228">
        <ele>424</ele>
        <time>2018-06-09T14:26:52Z</time>
      </trkpt>
      <trkpt lat="43.66292" lon="2.33231">
        <ele>424</ele>
        <time>2018-06-09T14:26:53Z</time>
      </trkpt>
      <trkpt lat="43.66291" lon="2.3324">
        <ele>425</ele>
        <time>2018-06-09T14:26:56Z</time>
      </trkpt>
      <trkpt lat="43.66289" lon="2.33253">
        <ele>426</ele>
        <time>2018-06-09T14:27:01Z</time>
      </trkpt>
      <trkpt lat="43.66289" lon="2.33256">
        <ele>426</ele>
        <time>2018-06-09T14:27:02Z</time>
      </trkpt>
      <trkpt lat="43.66288" lon="2.33269">
        <ele>427</ele>
        <time>2018-06-09T14:27:07Z</time>
      </trkpt>
      <trkpt lat="43.66288" lon="2.33272">
        <ele>427</ele>
        <time>2018-06-09T14:27:08Z</time>
      </trkpt>
      <trkpt lat="43.66286" lon="2.33282">
        <ele>428</ele>
        <time>2018-06-09T14:27:12Z</time>
      </trkpt>
      <trkpt lat="43.66286" lon="2.33285">
        <ele>428</ele>
        <time>2018-06-09T14:27:13Z</time>
      </trkpt>
      <trkpt lat="43.66287" lon="2.333">
        <ele>429</ele>
        <time>2018-06-09T14:27:19Z</time>
      </trkpt>
      <trkpt lat="43.66288" lon="2.33303">
        <ele>430</ele>
        <time>2018-06-09T14:27:20Z</time>
      </trkpt>
      <trkpt lat="43.66288" lon="2.33308">
        <ele>430</ele>
        <time>2018-06-09T14:27:23Z</time>
      </trkpt>
      <trkpt lat="43.6629" lon="2.33313">
        <ele>430</ele>
        <time>2018-06-09T14:27:26Z</time>
      </trkpt>
      <trkpt lat="43.6629" lon="2.3332">
        <ele>431</ele>
        <time>2018-06-09T14:27:30Z</time>
      </trkpt>
      <trkpt lat="43.6629" lon="2.33322">
        <ele>431</ele>
        <time>2018-06-09T14:27:31Z</time>
      </trkpt>
      <trkpt lat="43.6629" lon="2.33323">
        <ele>431</ele>
        <time>2018-06-09T14:27:32Z</time>
      </trkpt>
      <trkpt lat="43.6629" lon="2.33328">
        <ele>432</ele>
        <time>2018-06-09T14:27:35Z</time>
      </trkpt>
      <trkpt lat="43.66289" lon="2.33331">
        <ele>432</ele>
        <time>2018-06-09T14:27:36Z</time>
      </trkpt>
      <trkpt lat="43.66289" lon="2.33333">
        <ele>432</ele>
        <time>2018-06-09T14:27:37Z</time>
      </trkpt>
      <trkpt lat="43.66288" lon="2.33339">
        <ele>433</ele>
        <time>2018-06-09T14:27:39Z</time>
      </trkpt>
      <trkpt lat="43.66289" lon="2.33348">
        <ele>434</ele>
        <time>2018-06-09T14:27:43Z</time>
      </trkpt>
      <trkpt lat="43.6629" lon="2.33352">
        <ele>434</ele>
        <time>2018-06-09T14:27:45Z</time>
      </trkpt>
      <trkpt lat="43.6629" lon="2.33355">
        <ele>434</ele>
        <time>2018-06-09T14:27:46Z</time>
      </trkpt>
      <trkpt lat="43.66291" lon="2.33359">
        <ele>435</ele>
        <time>2018-06-09T14:27:48Z</time>
      </trkpt>
      <trkpt lat="43.66291" lon="2.33364">
        <ele>435</ele>
        <time>2018-06-09T14:27:50Z</time>
      </trkpt>
      <trkpt lat="43.66291" lon="2.33366">
        <ele>435</ele>
        <time>2018-06-09T14:27:51Z</time>
      </trkpt>
      <trkpt lat="43.66291" lon="2.33377">
        <ele>436</ele>
        <time>2018-06-09T14:27:56Z</time>
      </trkpt>
      <trkpt lat="43.66291" lon="2.33383">
        <ele>437</ele>
        <time>2018-06-09T14:27:59Z</time>
      </trkpt>
      <trkpt lat="43.66291" lon="2.33389">
        <ele>437</ele>
        <time>2018-06-09T14:28:02Z</time>
      </trkpt>
      <trkpt lat="43.66291" lon="2.33394">
        <ele>438</ele>
        <time>2018-06-09T14:28:04Z</time>
      </trkpt>
      <trkpt lat="43.66292" lon="2.33404">
        <ele>438</ele>
        <time>2018-06-09T14:28:09Z</time>
      </trkpt>
      <trkpt lat="43.66292" lon="2.33408">
        <ele>439</ele>
        <time>2018-06-09T14:28:11Z</time>
      </trkpt>
      <trkpt lat="43.66293" lon="2.33415">
        <ele>439</ele>
        <time>2018-06-09T14:28:15Z</time>
      </trkpt>
      <trkpt lat="43.66293" lon="2.33419">
        <ele>440</ele>
        <time>2018-06-09T14:28:17Z</time>
      </trkpt>
      <trkpt lat="43.66293" lon="2.33426">
        <ele>441</ele>
        <time>2018-06-09T14:28:20Z</time>
      </trkpt>
      <trkpt lat="43.66293" lon="2.33428">
        <ele>441</ele>
        <time>2018-06-09T14:28:21Z</time>
      </trkpt>
      <trkpt lat="43.66292" lon="2.33443">
        <ele>442</ele>
        <time>2018-06-09T14:28:27Z</time>
      </trkpt>
      <trkpt lat="43.66292" lon="2.33455">
        <ele>443</ele>
        <time>2018-06-09T14:28:32Z</time>
      </trkpt>
      <trkpt lat="43.66293" lon="2.33457">
        <ele>444</ele>
        <time>2018-06-09T14:28:33Z</time>
      </trkpt>
      <trkpt lat="43.66293" lon="2.33464">
        <ele>445</ele>
        <time>2018-06-09T14:28:36Z</time>
      </trkpt>
      <trkpt lat="43.66294" lon="2.33469">
        <ele>445</ele>
        <time>2018-06-09T14:28:39Z</time>
      </trkpt>
      <trkpt lat="43.66294" lon="2.33471">
        <ele>445</ele>
        <time>2018-06-09T14:28:40Z</time>
      </trkpt>
      <trkpt lat="43.66293" lon="2.33477">
        <ele>446</ele>
        <time>2018-06-09T14:28:42Z</time>
      </trkpt>
      <trkpt lat="43.66294" lon="2.3348">
        <ele>446</ele>
        <time>2018-06-09T14:28:44Z</time>
      </trkpt>
      <trkpt lat="43.66293" lon="2.33487">
        <ele>447</ele>
        <time>2018-06-09T14:28:47Z</time>
      </trkpt>
      <trkpt lat="43.66294" lon="2.33491">
        <ele>447</ele>
        <time>2018-06-09T14:28:49Z</time>
      </trkpt>
      <trkpt lat="43.66293" lon="2.33498">
        <ele>448</ele>
        <time>2018-06-09T14:28:53Z</time>
      </trkpt>
      <trkpt lat="43.66294" lon="2.335">
        <ele>448</ele>
        <time>2018-06-09T14:28:54Z</time>
      </trkpt>
      <trkpt lat="43.66296" lon="2.33514">
        <ele>449</ele>
        <time>2018-06-09T14:29:00Z</time>
      </trkpt>
      <trkpt lat="43.66297" lon="2.33517">
        <ele>449</ele>
        <time>2018-06-09T14:29:01Z</time>
      </trkpt>
      <trkpt lat="43.66298" lon="2.33532">
        <ele>450</ele>
        <time>2018-06-09T14:29:06Z</time>
      </trkpt>
      <trkpt lat="43.66299" lon="2.33535">
        <ele>450</ele>
        <time>2018-06-09T14:29:07Z</time>
      </trkpt>
      <trkpt lat="43.66301" lon="2.33539">
        <ele>450</ele>
        <time>2018-06-09T14:29:09Z</time>
      </trkpt>
      <trkpt lat="43.66302" lon="2.33553">
        <ele>451</ele>
        <time>2018-06-09T14:29:15Z</time>
      </trkpt>
      <trkpt lat="43.66303" lon="2.33558">
        <ele>452</ele>
        <time>2018-06-09T14:29:17Z</time>
      </trkpt>
      <trkpt lat="43.66306" lon="2.33573">
        <ele>453</ele>
        <time>2018-06-09T14:29:24Z</time>
      </trkpt>
      <trkpt lat="43.6631" lon="2.3359">
        <ele>454</ele>
        <time>2018-06-09T14:29:31Z</time>
      </trkpt>
      <trkpt lat="43.66312" lon="2.33596">
        <ele>454</ele>
        <time>2018-06-09T14:29:34Z</time>
      </trkpt>
      <trkpt lat="43.66313" lon="2.33601">
        <ele>454</ele>
        <time>2018-06-09T14:29:36Z</time>
      </trkpt>
      <trkpt lat="43.66314" lon="2.33612">
        <ele>455</ele>
        <time>2018-06-09T14:29:40Z</time>
      </trkpt>
      <trkpt lat="43.66315" lon="2.33617">
        <ele>455</ele>
        <time>2018-06-09T14:29:42Z</time>
      </trkpt>
      <trkpt lat="43.66316" lon="2.3362">
        <ele>455</ele>
        <time>2018-06-09T14:29:43Z</time>
      </trkpt>
      <trkpt lat="43.66319" lon="2.33633">
        <ele>456</ele>
        <time>2018-06-09T14:29:48Z</time>
      </trkpt>
      <trkpt lat="43.66319" lon="2.33635">
        <ele>456</ele>
        <time>2018-06-09T14:29:49Z</time>
      </trkpt>
      <trkpt lat="43.66324" lon="2.33657">
        <ele>457</ele>
        <time>2018-06-09T14:29:57Z</time>
      </trkpt>
      <trkpt lat="43.66324" lon="2.33666">
        <ele>457</ele>
        <time>2018-06-09T14:30:00Z</time>
      </trkpt>
      <trkpt lat="43.66326" lon="2.33675">
        <ele>457</ele>
        <time>2018-06-09T14:30:03Z</time>
      </trkpt>
      <trkpt lat="43.66327" lon="2.33693">
        <ele>457</ele>
        <time>2018-06-09T14:30:08Z</time>
      </trkpt>
      <trkpt lat="43.66328" lon="2.3371">
        <ele>457</ele>
        <time>2018-06-09T14:30:12Z</time>
      </trkpt>
      <trkpt lat="43.66329" lon="2.33715">
        <ele>457</ele>
        <time>2018-06-09T14:30:13Z</time>
      </trkpt>
      <trkpt lat="43.66338" lon="2.33753">
        <ele>456</ele>
        <time>2018-06-09T14:30:20Z</time>
      </trkpt>
      <trkpt lat="43.66347" lon="2.33785">
        <ele>456</ele>
        <time>2018-06-09T14:30:25Z</time>
      </trkpt>
      <trkpt lat="43.6635" lon="2.33792">
        <ele>455</ele>
        <time>2018-06-09T14:30:26Z</time>
      </trkpt>
      <trkpt lat="43.66362" lon="2.33829">
        <ele>454</ele>
        <time>2018-06-09T14:30:31Z</time>
      </trkpt>
      <trkpt lat="43.66365" lon="2.33836">
        <ele>454</ele>
        <time>2018-06-09T14:30:32Z</time>
      </trkpt>
      <trkpt lat="43.66377" lon="2.33863">
        <ele>454</ele>
        <time>2018-06-09T14:30:36Z</time>
      </trkpt>
      <trkpt lat="43.66386" lon="2.33883">
        <ele>454</ele>
        <time>2018-06-09T14:30:39Z</time>
      </trkpt>
      <trkpt lat="43.664" lon="2.33913">
        <ele>454</ele>
        <time>2018-06-09T14:30:44Z</time>
      </trkpt>
      <trkpt lat="43.66408" lon="2.33929">
        <ele>455</ele>
        <time>2018-06-09T14:30:47Z</time>
      </trkpt>
      <trkpt lat="43.66414" lon="2.33939">
        <ele>455</ele>
        <time>2018-06-09T14:30:49Z</time>
      </trkpt>
      <trkpt lat="43.66433" lon="2.33974">
        <ele>456</ele>
        <time>2018-06-09T14:30:56Z</time>
      </trkpt>
      <trkpt lat="43.66441" lon="2.33988">
        <ele>457</ele>
        <time>2018-06-09T14:30:59Z</time>
      </trkpt>
      <trkpt lat="43.66451" lon="2.34009">
        <ele>457</ele>
        <time>2018-06-09T14:31:03Z</time>
      </trkpt>
      <trkpt lat="43.66453" lon="2.34014">
        <ele>457</ele>
        <time>2018-06-09T14:31:04Z</time>
      </trkpt>
      <trkpt lat="43.66463" lon="2.34044">
        <ele>457</ele>
        <time>2018-06-09T14:31:09Z</time>
      </trkpt>
      <trkpt lat="43.66473" lon="2.34087">
        <ele>458</ele>
        <time>2018-06-09T14:31:16Z</time>
      </trkpt>
      <trkpt lat="43.66474" lon="2.34094">
        <ele>458</ele>
        <time>2018-06-09T14:31:17Z</time>
      </trkpt>
      <trkpt lat="43.66479" lon="2.34122">
        <ele>457</ele>
        <time>2018-06-09T14:31:21Z</time>
      </trkpt>
      <trkpt lat="43.6648" lon="2.34129">
        <ele>457</ele>
        <time>2018-06-09T14:31:22Z</time>
      </trkpt>
      <trkpt lat="43.66483" lon="2.34143">
        <ele>456</ele>
        <time>2018-06-09T14:31:24Z</time>
      </trkpt>
      <trkpt lat="43.66486" lon="2.34165">
        <ele>456</ele>
        <time>2018-06-09T14:31:27Z</time>
      </trkpt>
      <trkpt lat="43.66491" lon="2.34205">
        <ele>457</ele>
        <time>2018-06-09T14:31:33Z</time>
      </trkpt>
      <trkpt lat="43.66493" lon="2.34224">
        <ele>457</ele>
        <time>2018-06-09T14:31:36Z</time>
      </trkpt>
      <trkpt lat="43.66496" lon="2.34254">
        <ele>458</ele>
        <time>2018-06-09T14:31:41Z</time>
      </trkpt>
      <trkpt lat="43.66497" lon="2.34265">
        <ele>458</ele>
        <time>2018-06-09T14:31:43Z</time>
      </trkpt>
      <trkpt lat="43.66496" lon="2.34277">
        <ele>458</ele>
        <time>2018-06-09T14:31:45Z</time>
      </trkpt>
      <trkpt lat="43.66495" lon="2.34288">
        <ele>459</ele>
        <time>2018-06-09T14:31:47Z</time>
      </trkpt>
      <trkpt lat="43.66489" lon="2.3432">
        <ele>459</ele>
        <time>2018-06-09T14:31:53Z</time>
      </trkpt>
      <trkpt lat="43.66487" lon="2.3433">
        <ele>460</ele>
        <time>2018-06-09T14:31:55Z</time>
      </trkpt>
      <trkpt lat="43.66482" lon="2.34349">
        <ele>460</ele>
        <time>2018-06-09T14:31:59Z</time>
      </trkpt>
      <trkpt lat="43.66479" lon="2.34363">
        <ele>462</ele>
        <time>2018-06-09T14:32:02Z</time>
      </trkpt>
      <trkpt lat="43.66476" lon="2.34372">
        <ele>462</ele>
        <time>2018-06-09T14:32:04Z</time>
      </trkpt>
      <trkpt lat="43.66472" lon="2.3439">
        <ele>463</ele>
        <time>2018-06-09T14:32:08Z</time>
      </trkpt>
      <trkpt lat="43.66468" lon="2.34404">
        <ele>464</ele>
        <time>2018-06-09T14:32:11Z</time>
      </trkpt>
      <trkpt lat="43.66462" lon="2.34427">
        <ele>465</ele>
        <time>2018-06-09T14:32:16Z</time>
      </trkpt>
      <trkpt lat="43.66456" lon="2.3445">
        <ele>466</ele>
        <time>2018-06-09T14:32:21Z</time>
      </trkpt>
      <trkpt lat="43.66449" lon="2.34475">
        <ele>467</ele>
        <time>2018-06-09T14:32:27Z</time>
      </trkpt>
      <trkpt lat="43.66446" lon="2.34484">
        <ele>467</ele>
        <time>2018-06-09T14:32:29Z</time>
      </trkpt>
      <trkpt lat="43.66441" lon="2.34502">
        <ele>468</ele>
        <time>2018-06-09T14:32:33Z</time>
      </trkpt>
      <trkpt lat="43.6644" lon="2.34506">
        <ele>468</ele>
        <time>2018-06-09T14:32:34Z</time>
      </trkpt>
      <trkpt lat="43.6643" lon="2.3454">
        <ele>468</ele>
        <time>2018-06-09T14:32:42Z</time>
      </trkpt>
      <trkpt lat="43.66422" lon="2.34568">
        <ele>469</ele>
        <time>2018-06-09T14:32:49Z</time>
      </trkpt>
      <trkpt lat="43.6642" lon="2.34577">
        <ele>469</ele>
        <time>2018-06-09T14:32:51Z</time>
      </trkpt>
      <trkpt lat="43.66412" lon="2.34605">
        <ele>468</ele>
        <time>2018-06-09T14:32:57Z</time>
      </trkpt>
      <trkpt lat="43.66408" lon="2.34615">
        <ele>469</ele>
        <time>2018-06-09T14:32:59Z</time>
      </trkpt>
      <trkpt lat="43.66403" lon="2.34636">
        <ele>468</ele>
        <time>2018-06-09T14:33:03Z</time>
      </trkpt>
      <trkpt lat="43.66399" lon="2.34663">
        <ele>468</ele>
        <time>2018-06-09T14:33:08Z</time>
      </trkpt>
      <trkpt lat="43.66396" lon="2.34688">
        <ele>468</ele>
        <time>2018-06-09T14:33:13Z</time>
      </trkpt>
      <trkpt lat="43.66393" lon="2.34702">
        <ele>469</ele>
        <time>2018-06-09T14:33:16Z</time>
      </trkpt>
      <trkpt lat="43.66389" lon="2.34713">
        <ele>468</ele>
        <time>2018-06-09T14:33:20Z</time>
      </trkpt>
      <trkpt lat="43.66388" lon="2.34715">
        <ele>468</ele>
        <time>2018-06-09T14:33:23Z</time>
      </trkpt>
      <trkpt lat="43.66388" lon="2.34716">
        <ele>468</ele>
        <time>2018-06-09T14:33:25Z</time>
      </trkpt>
      <trkpt lat="43.66389" lon="2.34716">
        <ele>468</ele>
        <time>2018-06-09T14:33:38Z</time>
      </trkpt>
      <trkpt lat="43.66389" lon="2.34719">
        <ele>468</ele>
        <time>2018-06-09T14:33:44Z</time>
      </trkpt>
      <trkpt lat="43.66392" lon="2.34723">
        <ele>468</ele>
        <time>2018-06-09T14:33:46Z</time>
      </trkpt>
      <trkpt lat="43.664" lon="2.3472">
        <ele>467</ele>
        <time>2018-06-09T14:33:49Z</time>
      </trkpt>
      <trkpt lat="43.66406" lon="2.34712">
        <ele>467</ele>
        <time>2018-06-09T14:33:51Z</time>
      </trkpt>
      <trkpt lat="43.66412" lon="2.34706">
        <ele>466</ele>
        <time>2018-06-09T14:33:53Z</time>
      </trkpt>
      <trkpt lat="43.66416" lon="2.34712">
        <ele>466</ele>
        <time>2018-06-09T14:33:55Z</time>
      </trkpt>
      <trkpt lat="43.66415" lon="2.34718">
        <ele>465</ele>
        <time>2018-06-09T14:33:56Z</time>
      </trkpt>
      <trkpt lat="43.66413" lon="2.34733">
        <ele>464</ele>
        <time>2018-06-09T14:33:58Z</time>
      </trkpt>
      <trkpt lat="43.66411" lon="2.3474">
        <ele>464</ele>
        <time>2018-06-09T14:33:59Z</time>
      </trkpt>
      <trkpt lat="43.66409" lon="2.34745">
        <ele>464</ele>
        <time>2018-06-09T14:34:00Z</time>
      </trkpt>
      <trkpt lat="43.66408" lon="2.34749">
        <ele>464</ele>
        <time>2018-06-09T14:34:01Z</time>
      </trkpt>
      <trkpt lat="43.66406" lon="2.34759">
        <ele>464</ele>
        <time>2018-06-09T14:34:05Z</time>
      </trkpt>
      <trkpt lat="43.66407" lon="2.34761">
        <ele>464</ele>
        <time>2018-06-09T14:34:07Z</time>
      </trkpt>
      <trkpt lat="43.66411" lon="2.34763">
        <ele>464</ele>
        <time>2018-06-09T14:34:09Z</time>
      </trkpt>
      <trkpt lat="43.66414" lon="2.34765">
        <ele>463</ele>
        <time>2018-06-09T14:34:11Z</time>
      </trkpt>
      <trkpt lat="43.6642" lon="2.34769">
        <ele>461</ele>
        <time>2018-06-09T14:34:14Z</time>
      </trkpt>
      <trkpt lat="43.66422" lon="2.3477">
        <ele>460</ele>
        <time>2018-06-09T14:34:15Z</time>
      </trkpt>
      <trkpt lat="43.66424" lon="2.34771">
        <ele>460</ele>
        <time>2018-06-09T14:34:16Z</time>
      </trkpt>
      <trkpt lat="43.66428" lon="2.34773">
        <ele>458</ele>
        <time>2018-06-09T14:34:18Z</time>
      </trkpt>
      <trkpt lat="43.66432" lon="2.34776">
        <ele>457</ele>
        <time>2018-06-09T14:34:20Z</time>
      </trkpt>
      <trkpt lat="43.66434" lon="2.34777">
        <ele>456</ele>
        <time>2018-06-09T14:34:21Z</time>
      </trkpt>
      <trkpt lat="43.66437" lon="2.34778">
        <ele>456</ele>
        <time>2018-06-09T14:34:22Z</time>
      </trkpt>
      <trkpt lat="43.66442" lon="2.3478">
        <ele>455</ele>
        <time>2018-06-09T14:34:24Z</time>
      </trkpt>
      <trkpt lat="43.66446" lon="2.34781">
        <ele>453</ele>
        <time>2018-06-09T14:34:26Z</time>
      </trkpt>
      <trkpt lat="43.6645" lon="2.34783">
        <ele>452</ele>
        <time>2018-06-09T14:34:28Z</time>
      </trkpt>
      <trkpt lat="43.66457" lon="2.34785">
        <ele>451</ele>
        <time>2018-06-09T14:34:31Z</time>
      </trkpt>
      <trkpt lat="43.66461" lon="2.34786">
        <ele>449</ele>
        <time>2018-06-09T14:34:33Z</time>
      </trkpt>
      <trkpt lat="43.66462" lon="2.34786">
        <ele>449</ele>
        <time>2018-06-09T14:34:34Z</time>
      </trkpt>
      <trkpt lat="43.66463" lon="2.34787">
        <ele>448</ele>
        <time>2018-06-09T14:34:35Z</time>
      </trkpt>
      <trkpt lat="43.66464" lon="2.34787">
        <ele>448</ele>
        <time>2018-06-09T14:34:36Z</time>
      </trkpt>
      <trkpt lat="43.66465" lon="2.34788">
        <ele>447</ele>
        <time>2018-06-09T14:34:37Z</time>
      </trkpt>
      <trkpt lat="43.66467" lon="2.34789">
        <ele>446</ele>
        <time>2018-06-09T14:34:38Z</time>
      </trkpt>
      <trkpt lat="43.6647" lon="2.34791">
        <ele>445</ele>
        <time>2018-06-09T14:34:39Z</time>
      </trkpt>
      <trkpt lat="43.66473" lon="2.34793">
        <ele>444</ele>
        <time>2018-06-09T14:34:40Z</time>
      </trkpt>
      <trkpt lat="43.66477" lon="2.34793">
        <ele>442</ele>
        <time>2018-06-09T14:34:41Z</time>
      </trkpt>
      <trkpt lat="43.6648" lon="2.34795">
        <ele>441</ele>
        <time>2018-06-09T14:34:42Z</time>
      </trkpt>
      <trkpt lat="43.66487" lon="2.34799">
        <ele>440</ele>
        <time>2018-06-09T14:34:44Z</time>
      </trkpt>
      <trkpt lat="43.66491" lon="2.34802">
        <ele>439</ele>
        <time>2018-06-09T14:34:45Z</time>
      </trkpt>
      <trkpt lat="43.66502" lon="2.34818">
        <ele>439</ele>
        <time>2018-06-09T14:34:48Z</time>
      </trkpt>
      <trkpt lat="43.66511" lon="2.34827">
        <ele>438</ele>
        <time>2018-06-09T14:34:51Z</time>
      </trkpt>
      <trkpt lat="43.66516" lon="2.34833">
        <ele>437</ele>
        <time>2018-06-09T14:34:53Z</time>
      </trkpt>
      <trkpt lat="43.66519" lon="2.34834">
        <ele>437</ele>
        <time>2018-06-09T14:34:54Z</time>
      </trkpt>
      <trkpt lat="43.66526" lon="2.34842">
        <ele>435</ele>
        <time>2018-06-09T14:34:57Z</time>
      </trkpt>
      <trkpt lat="43.66529" lon="2.34847">
        <ele>434</ele>
        <time>2018-06-09T14:34:58Z</time>
      </trkpt>
      <trkpt lat="43.66533" lon="2.34851">
        <ele>433</ele>
        <time>2018-06-09T14:34:59Z</time>
      </trkpt>
      <trkpt lat="43.6654" lon="2.34857">
        <ele>431</ele>
        <time>2018-06-09T14:35:01Z</time>
      </trkpt>
      <trkpt lat="43.66555" lon="2.34865">
        <ele>430</ele>
        <time>2018-06-09T14:35:04Z</time>
      </trkpt>
      <trkpt lat="43.66559" lon="2.34867">
        <ele>427</ele>
        <time>2018-06-09T14:35:05Z</time>
      </trkpt>
      <trkpt lat="43.66562" lon="2.34869">
        <ele>426</ele>
        <time>2018-06-09T14:35:06Z</time>
      </trkpt>
      <trkpt lat="43.66566" lon="2.34872">
        <ele>424</ele>
        <time>2018-06-09T14:35:07Z</time>
      </trkpt>
      <trkpt lat="43.6657" lon="2.34874">
        <ele>423</ele>
        <time>2018-06-09T14:35:08Z</time>
      </trkpt>
      <trkpt lat="43.66574" lon="2.34875">
        <ele>423</ele>
        <time>2018-06-09T14:35:09Z</time>
      </trkpt>
      <trkpt lat="43.66583" lon="2.34877">
        <ele>421</ele>
        <time>2018-06-09T14:35:11Z</time>
      </trkpt>
      <trkpt lat="43.66594" lon="2.34879">
        <ele>419</ele>
        <time>2018-06-09T14:35:13Z</time>
      </trkpt>
      <trkpt lat="43.66604" lon="2.3488">
        <ele>418</ele>
        <time>2018-06-09T14:35:15Z</time>
      </trkpt>
      <trkpt lat="43.66611" lon="2.34881">
        <ele>417</ele>
        <time>2018-06-09T14:35:16Z</time>
      </trkpt>
      <trkpt lat="43.66618" lon="2.34881">
        <ele>415</ele>
        <time>2018-06-09T14:35:17Z</time>
      </trkpt>
      <trkpt lat="43.66624" lon="2.34883">
        <ele>414</ele>
        <time>2018-06-09T14:35:18Z</time>
      </trkpt>
      <trkpt lat="43.66628" lon="2.34885">
        <ele>414</ele>
        <time>2018-06-09T14:35:19Z</time>
      </trkpt>
      <trkpt lat="43.66646" lon="2.34891">
        <ele>413</ele>
        <time>2018-06-09T14:35:23Z</time>
      </trkpt>
      <trkpt lat="43.66651" lon="2.34893">
        <ele>411</ele>
        <time>2018-06-09T14:35:24Z</time>
      </trkpt>
      <trkpt lat="43.66663" lon="2.34896">
        <ele>411</ele>
        <time>2018-06-09T14:35:26Z</time>
      </trkpt>
      <trkpt lat="43.66674" lon="2.34896">
        <ele>410</ele>
        <time>2018-06-09T14:35:28Z</time>
      </trkpt>
      <trkpt lat="43.66685" lon="2.34897">
        <ele>409</ele>
        <time>2018-06-09T14:35:31Z</time>
      </trkpt>
      <trkpt lat="43.66689" lon="2.34898">
        <ele>408</ele>
        <time>2018-06-09T14:35:32Z</time>
      </trkpt>
      <trkpt lat="43.66694" lon="2.349">
        <ele>407</ele>
        <time>2018-06-09T14:35:33Z</time>
      </trkpt>
      <trkpt lat="43.66702" lon="2.34904">
        <ele>408</ele>
        <time>2018-06-09T14:35:36Z</time>
      </trkpt>
      <trkpt lat="43.66706" lon="2.34905">
        <ele>407</ele>
        <time>2018-06-09T14:35:37Z</time>
      </trkpt>
      <trkpt lat="43.66709" lon="2.34905">
        <ele>407</ele>
        <time>2018-06-09T14:35:38Z</time>
      </trkpt>
      <trkpt lat="43.66715" lon="2.34909">
        <ele>406</ele>
        <time>2018-06-09T14:35:40Z</time>
      </trkpt>
      <trkpt lat="43.66719" lon="2.34912">
        <ele>405</ele>
        <time>2018-06-09T14:35:41Z</time>
      </trkpt>
      <trkpt lat="43.66727" lon="2.34915">
        <ele>404</ele>
        <time>2018-06-09T14:35:43Z</time>
      </trkpt>
      <trkpt lat="43.66732" lon="2.34918">
        <ele>403</ele>
        <time>2018-06-09T14:35:44Z</time>
      </trkpt>
      <trkpt lat="43.66735" lon="2.3492">
        <ele>402</ele>
        <time>2018-06-09T14:35:45Z</time>
      </trkpt>
      <trkpt lat="43.66737" lon="2.34924">
        <ele>401</ele>
        <time>2018-06-09T14:35:46Z</time>
      </trkpt>
      <trkpt lat="43.66746" lon="2.34931">
        <ele>398</ele>
        <time>2018-06-09T14:35:48Z</time>
      </trkpt>
      <trkpt lat="43.66749" lon="2.34932">
        <ele>397</ele>
        <time>2018-06-09T14:35:49Z</time>
      </trkpt>
      <trkpt lat="43.66759" lon="2.34935">
        <ele>396</ele>
        <time>2018-06-09T14:35:53Z</time>
      </trkpt>
      <trkpt lat="43.6677" lon="2.34938">
        <ele>395</ele>
        <time>2018-06-09T14:35:57Z</time>
      </trkpt>
      <trkpt lat="43.66776" lon="2.34942">
        <ele>394</ele>
        <time>2018-06-09T14:36:00Z</time>
      </trkpt>
      <trkpt lat="43.66777" lon="2.34944">
        <ele>394</ele>
        <time>2018-06-09T14:36:02Z</time>
      </trkpt>
      <trkpt lat="43.66777" lon="2.34947">
        <ele>393</ele>
        <time>2018-06-09T14:36:04Z</time>
      </trkpt>
      <trkpt lat="43.66776" lon="2.34949">
        <ele>392</ele>
        <time>2018-06-09T14:36:05Z</time>
      </trkpt>
      <trkpt lat="43.66775" lon="2.3495">
        <ele>391</ele>
        <time>2018-06-09T14:36:06Z</time>
      </trkpt>
      <trkpt lat="43.66774" lon="2.34952">
        <ele>391</ele>
        <time>2018-06-09T14:36:09Z</time>
      </trkpt>
      <trkpt lat="43.66772" lon="2.34953">
        <ele>390</ele>
        <time>2018-06-09T14:36:10Z</time>
      </trkpt>
      <trkpt lat="43.66771" lon="2.34953">
        <ele>389</ele>
        <time>2018-06-09T14:36:11Z</time>
      </trkpt>
      <trkpt lat="43.66769" lon="2.34954">
        <ele>388</ele>
        <time>2018-06-09T14:36:13Z</time>
      </trkpt>
      <trkpt lat="43.66769" lon="2.34953">
        <ele>388</ele>
        <time>2018-06-09T14:36:14Z</time>
      </trkpt>
      <trkpt lat="43.66769" lon="2.34953">
        <ele>388</ele>
        <time>2018-06-09T14:36:15Z</time>
      </trkpt>
      <trkpt lat="43.66771" lon="2.34959">
        <ele>387</ele>
        <time>2018-06-09T14:36:22Z</time>
      </trkpt>
      <trkpt lat="43.66771" lon="2.3496">
        <ele>387</ele>
        <time>2018-06-09T14:36:24Z</time>
      </trkpt>
      <trkpt lat="43.66773" lon="2.34962">
        <ele>386</ele>
        <time>2018-06-09T14:36:28Z</time>
      </trkpt>
      <trkpt lat="43.66776" lon="2.34965">
        <ele>385</ele>
        <time>2018-06-09T14:36:31Z</time>
      </trkpt>
      <trkpt lat="43.66776" lon="2.34967">
        <ele>384</ele>
        <time>2018-06-09T14:36:35Z</time>
      </trkpt>
      <trkpt lat="43.66777" lon="2.34967">
        <ele>383</ele>
        <time>2018-06-09T14:36:37Z</time>
      </trkpt>
      <trkpt lat="43.66782" lon="2.34971">
        <ele>382</ele>
        <time>2018-06-09T14:36:41Z</time>
      </trkpt>
      <trkpt lat="43.66783" lon="2.34972">
        <ele>381</ele>
        <time>2018-06-09T14:36:42Z</time>
      </trkpt>
      <trkpt lat="43.66784" lon="2.34973">
        <ele>381</ele>
        <time>2018-06-09T14:36:43Z</time>
      </trkpt>
      <trkpt lat="43.66787" lon="2.34974">
        <ele>380</ele>
        <time>2018-06-09T14:36:49Z</time>
      </trkpt>
      <trkpt lat="43.66788" lon="2.34977">
        <ele>379</ele>
        <time>2018-06-09T14:36:55Z</time>
      </trkpt>
      <trkpt lat="43.66788" lon="2.34978">
        <ele>379</ele>
        <time>2018-06-09T14:36:58Z</time>
      </trkpt>
      <trkpt lat="43.66793" lon="2.3498">
        <ele>378</ele>
        <time>2018-06-09T14:37:02Z</time>
      </trkpt>
      <trkpt lat="43.66795" lon="2.34982">
        <ele>378</ele>
        <time>2018-06-09T14:37:05Z</time>
      </trkpt>
      <trkpt lat="43.66796" lon="2.34982">
        <ele>377</ele>
        <time>2018-06-09T14:37:07Z</time>
      </trkpt>
      <trkpt lat="43.66801" lon="2.34981">
        <ele>377</ele>
        <time>2018-06-09T14:37:12Z</time>
      </trkpt>
      <trkpt lat="43.66801" lon="2.34981">
        <ele>376</ele>
        <time>2018-06-09T14:37:13Z</time>
      </trkpt>
      <trkpt lat="43.66803" lon="2.3498">
        <ele>376</ele>
        <time>2018-06-09T14:37:17Z</time>
      </trkpt>
      <trkpt lat="43.66805" lon="2.3498">
        <ele>376</ele>
        <time>2018-06-09T14:37:19Z</time>
      </trkpt>
      <trkpt lat="43.66807" lon="2.34979">
        <ele>376</ele>
        <time>2018-06-09T14:37:21Z</time>
      </trkpt>
      <trkpt lat="43.66813" lon="2.34979">
        <ele>376</ele>
        <time>2018-06-09T14:37:25Z</time>
      </trkpt>
      <trkpt lat="43.6682" lon="2.34976">
        <ele>375</ele>
        <time>2018-06-09T14:37:28Z</time>
      </trkpt>
      <trkpt lat="43.66821" lon="2.34976">
        <ele>375</ele>
        <time>2018-06-09T14:37:29Z</time>
      </trkpt>
      <trkpt lat="43.66824" lon="2.34974">
        <ele>375</ele>
        <time>2018-06-09T14:37:34Z</time>
      </trkpt>
      <trkpt lat="43.66828" lon="2.3497">
        <ele>374</ele>
        <time>2018-06-09T14:37:42Z</time>
      </trkpt>
      <trkpt lat="43.66834" lon="2.34966">
        <ele>372</ele>
        <time>2018-06-09T14:37:51Z</time>
      </trkpt>
      <trkpt lat="43.66836" lon="2.34964">
        <ele>372</ele>
        <time>2018-06-09T14:37:56Z</time>
      </trkpt>
      <trkpt lat="43.66836" lon="2.34964">
        <ele>372</ele>
        <time>2018-06-09T14:38:00Z</time>
      </trkpt>
      <trkpt lat="43.66836" lon="2.34963">
        <ele>372</ele>
        <time>2018-06-09T14:38:13Z</time>
      </trkpt>
      <trkpt lat="43.66836" lon="2.34963">
        <ele>372</ele>
        <time>2018-06-09T14:38:21Z</time>
      </trkpt>
      <trkpt lat="43.66836" lon="2.34964">
        <ele>372</ele>
        <time>2018-06-09T14:38:26Z</time>
      </trkpt>
      <trkpt lat="43.66837" lon="2.34963">
        <ele>371</ele>
        <time>2018-06-09T14:38:32Z</time>
      </trkpt>
      <trkpt lat="43.66841" lon="2.34962">
        <ele>371</ele>
        <time>2018-06-09T14:38:35Z</time>
      </trkpt>
      <trkpt lat="43.66842" lon="2.34961">
        <ele>371</ele>
        <time>2018-06-09T14:38:36Z</time>
      </trkpt>
      <trkpt lat="43.66843" lon="2.34961">
        <ele>370</ele>
        <time>2018-06-09T14:38:37Z</time>
      </trkpt>
      <trkpt lat="43.66845" lon="2.34961">
        <ele>369</ele>
        <time>2018-06-09T14:38:39Z</time>
      </trkpt>
      <trkpt lat="43.66849" lon="2.34961">
        <ele>368</ele>
        <time>2018-06-09T14:38:41Z</time>
      </trkpt>
      <trkpt lat="43.66855" lon="2.3496">
        <ele>367</ele>
        <time>2018-06-09T14:38:44Z</time>
      </trkpt>
      <trkpt lat="43.66856" lon="2.3496">
        <ele>366</ele>
        <time>2018-06-09T14:38:45Z</time>
      </trkpt>
      <trkpt lat="43.66858" lon="2.34961">
        <ele>366</ele>
        <time>2018-06-09T14:38:46Z</time>
      </trkpt>
      <trkpt lat="43.6686" lon="2.34962">
        <ele>365</ele>
        <time>2018-06-09T14:38:47Z</time>
      </trkpt>
      <trkpt lat="43.66863" lon="2.34964">
        <ele>365</ele>
        <time>2018-06-09T14:38:48Z</time>
      </trkpt>
      <trkpt lat="43.66865" lon="2.34967">
        <ele>364</ele>
        <time>2018-06-09T14:38:49Z</time>
      </trkpt>
      <trkpt lat="43.66875" lon="2.34974">
        <ele>363</ele>
        <time>2018-06-09T14:38:52Z</time>
      </trkpt>
      <trkpt lat="43.66878" lon="2.34975">
        <ele>363</ele>
        <time>2018-06-09T14:38:53Z</time>
      </trkpt>
      <trkpt lat="43.6689" lon="2.34979">
        <ele>363</ele>
        <time>2018-06-09T14:38:57Z</time>
      </trkpt>
      <trkpt lat="43.66893" lon="2.34981">
        <ele>363</ele>
        <time>2018-06-09T14:38:58Z</time>
      </trkpt>
      <trkpt lat="43.66899" lon="2.34987">
        <ele>361</ele>
        <time>2018-06-09T14:39:00Z</time>
      </trkpt>
      <trkpt lat="43.66903" lon="2.34991">
        <ele>360</ele>
        <time>2018-06-09T14:39:01Z</time>
      </trkpt>
      <trkpt lat="43.6691" lon="2.34996">
        <ele>359</ele>
        <time>2018-06-09T14:39:03Z</time>
      </trkpt>
      <trkpt lat="43.66914" lon="2.34997">
        <ele>359</ele>
        <time>2018-06-09T14:39:04Z</time>
      </trkpt>
      <trkpt lat="43.66917" lon="2.34997">
        <ele>359</ele>
        <time>2018-06-09T14:39:05Z</time>
      </trkpt>
      <trkpt lat="43.66923" lon="2.35002">
        <ele>357</ele>
        <time>2018-06-09T14:39:07Z</time>
      </trkpt>
      <trkpt lat="43.66933" lon="2.3501">
        <ele>355</ele>
        <time>2018-06-09T14:39:10Z</time>
      </trkpt>
      <trkpt lat="43.66937" lon="2.35011">
        <ele>354</ele>
        <time>2018-06-09T14:39:11Z</time>
      </trkpt>
      <trkpt lat="43.66948" lon="2.35015">
        <ele>352</ele>
        <time>2018-06-09T14:39:14Z</time>
      </trkpt>
      <trkpt lat="43.66957" lon="2.35023">
        <ele>352</ele>
        <time>2018-06-09T14:39:16Z</time>
      </trkpt>
      <trkpt lat="43.66964" lon="2.35027">
        <ele>351</ele>
        <time>2018-06-09T14:39:18Z</time>
      </trkpt>
      <trkpt lat="43.66967" lon="2.35027">
        <ele>351</ele>
        <time>2018-06-09T14:39:19Z</time>
      </trkpt>
      <trkpt lat="43.6698" lon="2.35032">
        <ele>351</ele>
        <time>2018-06-09T14:39:23Z</time>
      </trkpt>
      <trkpt lat="43.66983" lon="2.35034">
        <ele>350</ele>
        <time>2018-06-09T14:39:24Z</time>
      </trkpt>
      <trkpt lat="43.66998" lon="2.35037">
        <ele>350</ele>
        <time>2018-06-09T14:39:28Z</time>
      </trkpt>
      <trkpt lat="43.67006" lon="2.35042">
        <ele>349</ele>
        <time>2018-06-09T14:39:30Z</time>
      </trkpt>
      <trkpt lat="43.6701" lon="2.35045">
        <ele>348</ele>
        <time>2018-06-09T14:39:31Z</time>
      </trkpt>
      <trkpt lat="43.67015" lon="2.35048">
        <ele>348</ele>
        <time>2018-06-09T14:39:32Z</time>
      </trkpt>
      <trkpt lat="43.67022" lon="2.3505">
        <ele>347</ele>
        <time>2018-06-09T14:39:33Z</time>
      </trkpt>
      <trkpt lat="43.67034" lon="2.35056">
        <ele>345</ele>
        <time>2018-06-09T14:39:35Z</time>
      </trkpt>
      <trkpt lat="43.6705" lon="2.35071">
        <ele>345</ele>
        <time>2018-06-09T14:39:39Z</time>
      </trkpt>
      <trkpt lat="43.67059" lon="2.35078">
        <ele>344</ele>
        <time>2018-06-09T14:39:41Z</time>
      </trkpt>
      <trkpt lat="43.67066" lon="2.35082">
        <ele>343</ele>
        <time>2018-06-09T14:39:43Z</time>
      </trkpt>
      <trkpt lat="43.67075" lon="2.35086">
        <ele>342</ele>
        <time>2018-06-09T14:39:45Z</time>
      </trkpt>
      <trkpt lat="43.67079" lon="2.35087">
        <ele>341</ele>
        <time>2018-06-09T14:39:46Z</time>
      </trkpt>
      <trkpt lat="43.67082" lon="2.35088">
        <ele>340</ele>
        <time>2018-06-09T14:39:47Z</time>
      </trkpt>
      <trkpt lat="43.67087" lon="2.3509">
        <ele>339</ele>
        <time>2018-06-09T14:39:49Z</time>
      </trkpt>
      <trkpt lat="43.67098" lon="2.35097">
        <ele>337</ele>
        <time>2018-06-09T14:39:52Z</time>
      </trkpt>
      <trkpt lat="43.67101" lon="2.35099">
        <ele>336</ele>
        <time>2018-06-09T14:39:53Z</time>
      </trkpt>
      <trkpt lat="43.67111" lon="2.35101">
        <ele>335</ele>
        <time>2018-06-09T14:39:55Z</time>
      </trkpt>
      <trkpt lat="43.67115" lon="2.35101">
        <ele>334</ele>
        <time>2018-06-09T14:39:56Z</time>
      </trkpt>
      <trkpt lat="43.67117" lon="2.35101">
        <ele>333</ele>
        <time>2018-06-09T14:39:57Z</time>
      </trkpt>
      <trkpt lat="43.67123" lon="2.35103">
        <ele>332</ele>
        <time>2018-06-09T14:39:59Z</time>
      </trkpt>
      <trkpt lat="43.67126" lon="2.35105">
        <ele>332</ele>
        <time>2018-06-09T14:40:00Z</time>
      </trkpt>
      <trkpt lat="43.67128" lon="2.35106">
        <ele>330</ele>
        <time>2018-06-09T14:40:01Z</time>
      </trkpt>
      <trkpt lat="43.67131" lon="2.35108">
        <ele>329</ele>
        <time>2018-06-09T14:40:02Z</time>
      </trkpt>
      <trkpt lat="43.67134" lon="2.35109">
        <ele>328</ele>
        <time>2018-06-09T14:40:03Z</time>
      </trkpt>
      <trkpt lat="43.67137" lon="2.35109">
        <ele>327</ele>
        <time>2018-06-09T14:40:04Z</time>
      </trkpt>
      <trkpt lat="43.67142" lon="2.3511">
        <ele>326</ele>
        <time>2018-06-09T14:40:05Z</time>
      </trkpt>
      <trkpt lat="43.67145" lon="2.3511">
        <ele>326</ele>
        <time>2018-06-09T14:40:06Z</time>
      </trkpt>
      <trkpt lat="43.67149" lon="2.35111">
        <ele>325</ele>
        <time>2018-06-09T14:40:07Z</time>
      </trkpt>
      <trkpt lat="43.67158" lon="2.35113">
        <ele>324</ele>
        <time>2018-06-09T14:40:09Z</time>
      </trkpt>
      <trkpt lat="43.67163" lon="2.35114">
        <ele>322</ele>
        <time>2018-06-09T14:40:10Z</time>
      </trkpt>
      <trkpt lat="43.67167" lon="2.35114">
        <ele>321</ele>
        <time>2018-06-09T14:40:11Z</time>
      </trkpt>
      <trkpt lat="43.67177" lon="2.35115">
        <ele>320</ele>
        <time>2018-06-09T14:40:13Z</time>
      </trkpt>
      <trkpt lat="43.67193" lon="2.35119">
        <ele>319</ele>
        <time>2018-06-09T14:40:16Z</time>
      </trkpt>
      <trkpt lat="43.67197" lon="2.35121">
        <ele>318</ele>
        <time>2018-06-09T14:40:17Z</time>
      </trkpt>
      <trkpt lat="43.67203" lon="2.35122">
        <ele>316</ele>
        <time>2018-06-09T14:40:18Z</time>
      </trkpt>
      <trkpt lat="43.67208" lon="2.35123">
        <ele>315</ele>
        <time>2018-06-09T14:40:19Z</time>
      </trkpt>
      <trkpt lat="43.67213" lon="2.35124">
        <ele>314</ele>
        <time>2018-06-09T14:40:20Z</time>
      </trkpt>
      <trkpt lat="43.67225" lon="2.35127">
        <ele>315</ele>
        <time>2018-06-09T14:40:24Z</time>
      </trkpt>
      <trkpt lat="43.67232" lon="2.35129">
        <ele>315</ele>
        <time>2018-06-09T14:40:35Z</time>
      </trkpt>
      <trkpt lat="43.67231" lon="2.35129">
        <ele>315</ele>
        <time>2018-06-09T14:40:42Z</time>
      </trkpt>
      <trkpt lat="43.67232" lon="2.3513">
        <ele>315</ele>
        <time>2018-06-09T14:40:51Z</time>
      </trkpt>
      <trkpt lat="43.67232" lon="2.35133">
        <ele>315</ele>
        <time>2018-06-09T14:41:07Z</time>
      </trkpt>
      <trkpt lat="43.67235" lon="2.35131">
        <ele>314</ele>
        <time>2018-06-09T14:41:11Z</time>
      </trkpt>
      <trkpt lat="43.67238" lon="2.3513">
        <ele>314</ele>
        <time>2018-06-09T14:41:13Z</time>
      </trkpt>
      <trkpt lat="43.67241" lon="2.35132">
        <ele>313</ele>
        <time>2018-06-09T14:41:15Z</time>
      </trkpt>
      <trkpt lat="43.67244" lon="2.35135">
        <ele>313</ele>
        <time>2018-06-09T14:41:17Z</time>
      </trkpt>
      <trkpt lat="43.67246" lon="2.35136">
        <ele>312</ele>
        <time>2018-06-09T14:41:18Z</time>
      </trkpt>
      <trkpt lat="43.67249" lon="2.35136">
        <ele>311</ele>
        <time>2018-06-09T14:41:19Z</time>
      </trkpt>
      <trkpt lat="43.67253" lon="2.35139">
        <ele>310</ele>
        <time>2018-06-09T14:41:21Z</time>
      </trkpt>
      <trkpt lat="43.67256" lon="2.3514">
        <ele>310</ele>
        <time>2018-06-09T14:41:22Z</time>
      </trkpt>
      <trkpt lat="43.6726" lon="2.35142">
        <ele>307</ele>
        <time>2018-06-09T14:41:24Z</time>
      </trkpt>
      <trkpt lat="43.67261" lon="2.35144">
        <ele>306</ele>
        <time>2018-06-09T14:41:25Z</time>
      </trkpt>
      <trkpt lat="43.67264" lon="2.35146">
        <ele>305</ele>
        <time>2018-06-09T14:41:26Z</time>
      </trkpt>
      <trkpt lat="43.67267" lon="2.35146">
        <ele>304</ele>
        <time>2018-06-09T14:41:27Z</time>
      </trkpt>
      <trkpt lat="43.6727" lon="2.35146">
        <ele>303</ele>
        <time>2018-06-09T14:41:28Z</time>
      </trkpt>
      <trkpt lat="43.67273" lon="2.35146">
        <ele>302</ele>
        <time>2018-06-09T14:41:29Z</time>
      </trkpt>
      <trkpt lat="43.67276" lon="2.35148">
        <ele>301</ele>
        <time>2018-06-09T14:41:31Z</time>
      </trkpt>
      <trkpt lat="43.67283" lon="2.35152">
        <ele>299</ele>
        <time>2018-06-09T14:41:33Z</time>
      </trkpt>
      <trkpt lat="43.67287" lon="2.35153">
        <ele>298</ele>
        <time>2018-06-09T14:41:34Z</time>
      </trkpt>
      <trkpt lat="43.6729" lon="2.35154">
        <ele>297</ele>
        <time>2018-06-09T14:41:35Z</time>
      </trkpt>
      <trkpt lat="43.67296" lon="2.3516">
        <ele>296</ele>
        <time>2018-06-09T14:41:37Z</time>
      </trkpt>
      <trkpt lat="43.67301" lon="2.35165">
        <ele>294</ele>
        <time>2018-06-09T14:41:39Z</time>
      </trkpt>
      <trkpt lat="43.67306" lon="2.35171">
        <ele>293</ele>
        <time>2018-06-09T14:41:42Z</time>
      </trkpt>
      <trkpt lat="43.67308" lon="2.35173">
        <ele>292</ele>
        <time>2018-06-09T14:41:43Z</time>
      </trkpt>
      <trkpt lat="43.67309" lon="2.35175">
        <ele>291</ele>
        <time>2018-06-09T14:41:44Z</time>
      </trkpt>
      <trkpt lat="43.67314" lon="2.35178">
        <ele>290</ele>
        <time>2018-06-09T14:41:47Z</time>
      </trkpt>
      <trkpt lat="43.67319" lon="2.35182">
        <ele>289</ele>
        <time>2018-06-09T14:41:50Z</time>
      </trkpt>
      <trkpt lat="43.67321" lon="2.35183">
        <ele>289</ele>
        <time>2018-06-09T14:41:51Z</time>
      </trkpt>
      <trkpt lat="43.67322" lon="2.35183">
        <ele>288</ele>
        <time>2018-06-09T14:41:52Z</time>
      </trkpt>
      <trkpt lat="43.67323" lon="2.35184">
        <ele>288</ele>
        <time>2018-06-09T14:41:53Z</time>
      </trkpt>
      <trkpt lat="43.67327" lon="2.35186">
        <ele>287</ele>
        <time>2018-06-09T14:41:56Z</time>
      </trkpt>
      <trkpt lat="43.67329" lon="2.35188">
        <ele>285</ele>
        <time>2018-06-09T14:41:57Z</time>
      </trkpt>
      <trkpt lat="43.67332" lon="2.35189">
        <ele>284</ele>
        <time>2018-06-09T14:41:58Z</time>
      </trkpt>
      <trkpt lat="43.67338" lon="2.35193">
        <ele>283</ele>
        <time>2018-06-09T14:42:00Z</time>
      </trkpt>
      <trkpt lat="43.6734" lon="2.35195">
        <ele>282</ele>
        <time>2018-06-09T14:42:01Z</time>
      </trkpt>
      <trkpt lat="43.67341" lon="2.35199">
        <ele>281</ele>
        <time>2018-06-09T14:42:02Z</time>
      </trkpt>
      <trkpt lat="43.67346" lon="2.35207">
        <ele>279</ele>
        <time>2018-06-09T14:42:04Z</time>
      </trkpt>
      <trkpt lat="43.67348" lon="2.35212">
        <ele>277</ele>
        <time>2018-06-09T14:42:05Z</time>
      </trkpt>
      <trkpt lat="43.67348" lon="2.35217">
        <ele>276</ele>
        <time>2018-06-09T14:42:06Z</time>
      </trkpt>
      <trkpt lat="43.67354" lon="2.35228">
        <ele>275</ele>
        <time>2018-06-09T14:42:08Z</time>
      </trkpt>
      <trkpt lat="43.67358" lon="2.35235">
        <ele>275</ele>
        <time>2018-06-09T14:42:09Z</time>
      </trkpt>
      <trkpt lat="43.67362" lon="2.35242">
        <ele>274</ele>
        <time>2018-06-09T14:42:10Z</time>
      </trkpt>
      <trkpt lat="43.67364" lon="2.35247">
        <ele>273</ele>
        <time>2018-06-09T14:42:11Z</time>
      </trkpt>
      <trkpt lat="43.67365" lon="2.35251">
        <ele>271</ele>
        <time>2018-06-09T14:42:12Z</time>
      </trkpt>
      <trkpt lat="43.67366" lon="2.35255">
        <ele>270</ele>
        <time>2018-06-09T14:42:13Z</time>
      </trkpt>
      <trkpt lat="43.67371" lon="2.35259">
        <ele>270</ele>
        <time>2018-06-09T14:42:14Z</time>
      </trkpt>
      <trkpt lat="43.67376" lon="2.35263">
        <ele>269</ele>
        <time>2018-06-09T14:42:15Z</time>
      </trkpt>
      <trkpt lat="43.67381" lon="2.35268">
        <ele>268</ele>
        <time>2018-06-09T14:42:16Z</time>
      </trkpt>
      <trkpt lat="43.67386" lon="2.35272">
        <ele>267</ele>
        <time>2018-06-09T14:42:17Z</time>
      </trkpt>
      <trkpt lat="43.6739" lon="2.35276">
        <ele>267</ele>
        <time>2018-06-09T14:42:18Z</time>
      </trkpt>
      <trkpt lat="43.67395" lon="2.35281">
        <ele>265</ele>
        <time>2018-06-09T14:42:19Z</time>
      </trkpt>
      <trkpt lat="43.674" lon="2.35287">
        <ele>264</ele>
        <time>2018-06-09T14:42:20Z</time>
      </trkpt>
      <trkpt lat="43.67403" lon="2.35291">
        <ele>264</ele>
        <time>2018-06-09T14:42:21Z</time>
      </trkpt>
      <trkpt lat="43.6741" lon="2.35298">
        <ele>262</ele>
        <time>2018-06-09T14:42:23Z</time>
      </trkpt>
      <trkpt lat="43.67414" lon="2.35301">
        <ele>260</ele>
        <time>2018-06-09T14:42:24Z</time>
      </trkpt>
      <trkpt lat="43.67419" lon="2.35304">
        <ele>259</ele>
        <time>2018-06-09T14:42:26Z</time>
      </trkpt>
      <trkpt lat="43.67424" lon="2.35307">
        <ele>257</ele>
        <time>2018-06-09T14:42:28Z</time>
      </trkpt>
      <trkpt lat="43.67429" lon="2.35311">
        <ele>256</ele>
        <time>2018-06-09T14:42:30Z</time>
      </trkpt>
      <trkpt lat="43.67434" lon="2.35316">
        <ele>255</ele>
        <time>2018-06-09T14:42:32Z</time>
      </trkpt>
      <trkpt lat="43.67439" lon="2.3532">
        <ele>254</ele>
        <time>2018-06-09T14:42:34Z</time>
      </trkpt>
      <trkpt lat="43.67446" lon="2.35318">
        <ele>253</ele>
        <time>2018-06-09T14:42:36Z</time>
      </trkpt>
      <trkpt lat="43.67448" lon="2.35314">
        <ele>253</ele>
        <time>2018-06-09T14:42:40Z</time>
      </trkpt>
      <trkpt lat="43.67451" lon="2.35315">
        <ele>253</ele>
        <time>2018-06-09T14:42:50Z</time>
      </trkpt>
      <trkpt lat="43.67451" lon="2.35315">
        <ele>253</ele>
        <time>2018-06-09T14:42:56Z</time>
      </trkpt>
      <trkpt lat="43.67451" lon="2.35315">
        <ele>253</ele>
        <time>2018-06-09T14:42:59Z</time>
      </trkpt>
      <trkpt lat="43.67451" lon="2.35315">
        <ele>253</ele>
        <time>2018-06-09T14:43:07Z</time>
      </trkpt>
      <trkpt lat="43.67449" lon="2.35313">
        <ele>253</ele>
        <time>2018-06-09T14:43:19Z</time>
      </trkpt>
      <trkpt lat="43.67448" lon="2.35311">
        <ele>253</ele>
        <time>2018-06-09T14:43:20Z</time>
      </trkpt>
      <trkpt lat="43.67446" lon="2.3531">
        <ele>253</ele>
        <time>2018-06-09T14:43:21Z</time>
      </trkpt>
      <trkpt lat="43.67445" lon="2.35308">
        <ele>253</ele>
        <time>2018-06-09T14:43:22Z</time>
      </trkpt>
      <trkpt lat="43.67443" lon="2.35304">
        <ele>253</ele>
        <time>2018-06-09T14:43:24Z</time>
      </trkpt>
      <trkpt lat="43.67441" lon="2.35302">
        <ele>253</ele>
        <time>2018-06-09T14:43:25Z</time>
      </trkpt>
      <trkpt lat="43.67434" lon="2.35292">
        <ele>252</ele>
        <time>2018-06-09T14:43:30Z</time>
      </trkpt>
      <trkpt lat="43.67433" lon="2.3529">
        <ele>252</ele>
        <time>2018-06-09T14:43:31Z</time>
      </trkpt>
      <trkpt lat="43.67427" lon="2.35281">
        <ele>252</ele>
        <time>2018-06-09T14:43:34Z</time>
      </trkpt>
      <trkpt lat="43.67424" lon="2.35275">
        <ele>252</ele>
        <time>2018-06-09T14:43:36Z</time>
      </trkpt>
      <trkpt lat="43.67415" lon="2.35262">
        <ele>252</ele>
        <time>2018-06-09T14:43:40Z</time>
      </trkpt>
      <trkpt lat="43.67413" lon="2.35258">
        <ele>251</ele>
        <time>2018-06-09T14:43:41Z</time>
      </trkpt>
      <trkpt lat="43.67407" lon="2.35246">
        <ele>252</ele>
        <time>2018-06-09T14:43:44Z</time>
      </trkpt>
      <trkpt lat="43.67403" lon="2.35236">
        <ele>252</ele>
        <time>2018-06-09T14:43:47Z</time>
      </trkpt>
      <trkpt lat="43.67395" lon="2.3522">
        <ele>251</ele>
        <time>2018-06-09T14:43:51Z</time>
      </trkpt>
      <trkpt lat="43.67389" lon="2.35203">
        <ele>251</ele>
        <time>2018-06-09T14:43:55Z</time>
      </trkpt>
      <trkpt lat="43.67383" lon="2.35183">
        <ele>252</ele>
        <time>2018-06-09T14:44:00Z</time>
      </trkpt>
      <trkpt lat="43.67378" lon="2.35163">
        <ele>252</ele>
        <time>2018-06-09T14:44:04Z</time>
      </trkpt>
      <trkpt lat="43.67372" lon="2.35142">
        <ele>251</ele>
        <time>2018-06-09T14:44:08Z</time>
      </trkpt>
      <trkpt lat="43.67368" lon="2.35131">
        <ele>251</ele>
        <time>2018-06-09T14:44:11Z</time>
      </trkpt>
      <trkpt lat="43.67366" lon="2.35123">
        <ele>250</ele>
        <time>2018-06-09T14:44:13Z</time>
      </trkpt>
      <trkpt lat="43.67366" lon="2.3512">
        <ele>250</ele>
        <time>2018-06-09T14:44:14Z</time>
      </trkpt>
      <trkpt lat="43.67365" lon="2.35108">
        <ele>250</ele>
        <time>2018-06-09T14:44:16Z</time>
      </trkpt>
      <trkpt lat="43.67363" lon="2.35094">
        <ele>250</ele>
        <time>2018-06-09T14:44:19Z</time>
      </trkpt>
      <trkpt lat="43.67363" lon="2.35078">
        <ele>250</ele>
        <time>2018-06-09T14:44:23Z</time>
      </trkpt>
      <trkpt lat="43.67363" lon="2.35074">
        <ele>251</ele>
        <time>2018-06-09T14:44:24Z</time>
      </trkpt>
      <trkpt lat="43.67362" lon="2.35066">
        <ele>250</ele>
        <time>2018-06-09T14:44:26Z</time>
      </trkpt>
      <trkpt lat="43.67362" lon="2.35057">
        <ele>250</ele>
        <time>2018-06-09T14:44:28Z</time>
      </trkpt>
      <trkpt lat="43.67363" lon="2.35048">
        <ele>250</ele>
        <time>2018-06-09T14:44:30Z</time>
      </trkpt>
      <trkpt lat="43.67362" lon="2.35031">
        <ele>249</ele>
        <time>2018-06-09T14:44:33Z</time>
      </trkpt>
      <trkpt lat="43.67361" lon="2.35025">
        <ele>249</ele>
        <time>2018-06-09T14:44:34Z</time>
      </trkpt>
      <trkpt lat="43.67361" lon="2.35018">
        <ele>249</ele>
        <time>2018-06-09T14:44:35Z</time>
      </trkpt>
      <trkpt lat="43.67362" lon="2.35007">
        <ele>249</ele>
        <time>2018-06-09T14:44:37Z</time>
      </trkpt>
      <trkpt lat="43.67363" lon="2.34985">
        <ele>249</ele>
        <time>2018-06-09T14:44:41Z</time>
      </trkpt>
      <trkpt lat="43.67363" lon="2.34979">
        <ele>248</ele>
        <time>2018-06-09T14:44:42Z</time>
      </trkpt>
      <trkpt lat="43.67363" lon="2.34973">
        <ele>247</ele>
        <time>2018-06-09T14:44:43Z</time>
      </trkpt>
      <trkpt lat="43.67364" lon="2.34967">
        <ele>247</ele>
        <time>2018-06-09T14:44:44Z</time>
      </trkpt>
      <trkpt lat="43.67368" lon="2.34947">
        <ele>246</ele>
        <time>2018-06-09T14:44:47Z</time>
      </trkpt>
      <trkpt lat="43.6737" lon="2.34941">
        <ele>246</ele>
        <time>2018-06-09T14:44:48Z</time>
      </trkpt>
      <trkpt lat="43.67373" lon="2.34913">
        <ele>247</ele>
        <time>2018-06-09T14:44:52Z</time>
      </trkpt>
      <trkpt lat="43.67376" lon="2.3489">
        <ele>246</ele>
        <time>2018-06-09T14:44:55Z</time>
      </trkpt>
      <trkpt lat="43.67379" lon="2.34876">
        <ele>245</ele>
        <time>2018-06-09T14:44:57Z</time>
      </trkpt>
      <trkpt lat="43.67382" lon="2.34861">
        <ele>245</ele>
        <time>2018-06-09T14:44:59Z</time>
      </trkpt>
      <trkpt lat="43.67386" lon="2.34845">
        <ele>245</ele>
        <time>2018-06-09T14:45:01Z</time>
      </trkpt>
      <trkpt lat="43.67388" lon="2.34829">
        <ele>245</ele>
        <time>2018-06-09T14:45:03Z</time>
      </trkpt>
      <trkpt lat="43.67389" lon="2.34821">
        <ele>245</ele>
        <time>2018-06-09T14:45:04Z</time>
      </trkpt>
      <trkpt lat="43.67391" lon="2.34812">
        <ele>244</ele>
        <time>2018-06-09T14:45:05Z</time>
      </trkpt>
      <trkpt lat="43.67393" lon="2.34805">
        <ele>244</ele>
        <time>2018-06-09T14:45:06Z</time>
      </trkpt>
      <trkpt lat="43.67396" lon="2.3479">
        <ele>244</ele>
        <time>2018-06-09T14:45:08Z</time>
      </trkpt>
      <trkpt lat="43.67398" lon="2.34784">
        <ele>244</ele>
        <time>2018-06-09T14:45:09Z</time>
      </trkpt>
      <trkpt lat="43.67409" lon="2.34743">
        <ele>243</ele>
        <time>2018-06-09T14:45:15Z</time>
      </trkpt>
      <trkpt lat="43.67411" lon="2.34737">
        <ele>243</ele>
        <time>2018-06-09T14:45:16Z</time>
      </trkpt>
      <trkpt lat="43.67416" lon="2.34719">
        <ele>242</ele>
        <time>2018-06-09T14:45:19Z</time>
      </trkpt>
      <trkpt lat="43.67418" lon="2.34713">
        <ele>241</ele>
        <time>2018-06-09T14:45:20Z</time>
      </trkpt>
      <trkpt lat="43.67419" lon="2.34706">
        <ele>241</ele>
        <time>2018-06-09T14:45:21Z</time>
      </trkpt>
      <trkpt lat="43.67425" lon="2.34685">
        <ele>242</ele>
        <time>2018-06-09T14:45:24Z</time>
      </trkpt>
      <trkpt lat="43.67432" lon="2.34664">
        <ele>241</ele>
        <time>2018-06-09T14:45:27Z</time>
      </trkpt>
      <trkpt lat="43.67434" lon="2.34657">
        <ele>241</ele>
        <time>2018-06-09T14:45:28Z</time>
      </trkpt>
      <trkpt lat="43.67439" lon="2.34644">
        <ele>240</ele>
        <time>2018-06-09T14:45:30Z</time>
      </trkpt>
      <trkpt lat="43.67445" lon="2.34632">
        <ele>240</ele>
        <time>2018-06-09T14:45:32Z</time>
      </trkpt>
      <trkpt lat="43.67448" lon="2.34626">
        <ele>241</ele>
        <time>2018-06-09T14:45:33Z</time>
      </trkpt>
      <trkpt lat="43.67458" lon="2.34609">
        <ele>240</ele>
        <time>2018-06-09T14:45:36Z</time>
      </trkpt>
      <trkpt lat="43.67468" lon="2.34592">
        <ele>240</ele>
        <time>2018-06-09T14:45:39Z</time>
      </trkpt>
      <trkpt lat="43.67472" lon="2.34586">
        <ele>239</ele>
        <time>2018-06-09T14:45:40Z</time>
      </trkpt>
      <trkpt lat="43.67475" lon="2.34582">
        <ele>239</ele>
        <time>2018-06-09T14:45:41Z</time>
      </trkpt>
      <trkpt lat="43.67488" lon="2.34564">
        <ele>239</ele>
        <time>2018-06-09T14:45:45Z</time>
      </trkpt>
      <trkpt lat="43.67492" lon="2.34559">
        <ele>239</ele>
        <time>2018-06-09T14:45:46Z</time>
      </trkpt>
      <trkpt lat="43.67499" lon="2.34551">
        <ele>239</ele>
        <time>2018-06-09T14:45:48Z</time>
      </trkpt>
      <trkpt lat="43.67506" lon="2.34544">
        <ele>238</ele>
        <time>2018-06-09T14:45:50Z</time>
      </trkpt>
      <trkpt lat="43.6751" lon="2.34541">
        <ele>238</ele>
        <time>2018-06-09T14:45:51Z</time>
      </trkpt>
      <trkpt lat="43.67519" lon="2.34533">
        <ele>237</ele>
        <time>2018-06-09T14:45:53Z</time>
      </trkpt>
      <trkpt lat="43.67523" lon="2.34529">
        <ele>237</ele>
        <time>2018-06-09T14:45:54Z</time>
      </trkpt>
      <trkpt lat="43.67537" lon="2.34518">
        <ele>237</ele>
        <time>2018-06-09T14:45:57Z</time>
      </trkpt>
      <trkpt lat="43.67541" lon="2.34515">
        <ele>236</ele>
        <time>2018-06-09T14:45:58Z</time>
      </trkpt>
      <trkpt lat="43.67546" lon="2.34511">
        <ele>236</ele>
        <time>2018-06-09T14:45:59Z</time>
      </trkpt>
      <trkpt lat="43.67561" lon="2.34501">
        <ele>236</ele>
        <time>2018-06-09T14:46:02Z</time>
      </trkpt>
      <trkpt lat="43.67566" lon="2.34497">
        <ele>235</ele>
        <time>2018-06-09T14:46:03Z</time>
      </trkpt>
      <trkpt lat="43.67571" lon="2.34493">
        <ele>236</ele>
        <time>2018-06-09T14:46:04Z</time>
      </trkpt>
      <trkpt lat="43.67581" lon="2.34486">
        <ele>236</ele>
        <time>2018-06-09T14:46:06Z</time>
      </trkpt>
      <trkpt lat="43.6759" lon="2.3448">
        <ele>235</ele>
        <time>2018-06-09T14:46:08Z</time>
      </trkpt>
      <trkpt lat="43.676" lon="2.34474">
        <ele>235</ele>
        <time>2018-06-09T14:46:10Z</time>
      </trkpt>
      <trkpt lat="43.67604" lon="2.3447">
        <ele>235</ele>
        <time>2018-06-09T14:46:11Z</time>
      </trkpt>
      <trkpt lat="43.67618" lon="2.34462">
        <ele>234</ele>
        <time>2018-06-09T14:46:14Z</time>
      </trkpt>
      <trkpt lat="43.67623" lon="2.34459">
        <ele>234</ele>
        <time>2018-06-09T14:46:15Z</time>
      </trkpt>
      <trkpt lat="43.67633" lon="2.34452">
        <ele>234</ele>
        <time>2018-06-09T14:46:17Z</time>
      </trkpt>
      <trkpt lat="43.67653" lon="2.34439">
        <ele>234</ele>
        <time>2018-06-09T14:46:21Z</time>
      </trkpt>
      <trkpt lat="43.67659" lon="2.34435">
        <ele>234</ele>
        <time>2018-06-09T14:46:22Z</time>
      </trkpt>
      <trkpt lat="43.67678" lon="2.34421">
        <ele>234</ele>
        <time>2018-06-09T14:46:26Z</time>
      </trkpt>
      <trkpt lat="43.67682" lon="2.34418">
        <ele>234</ele>
        <time>2018-06-09T14:46:27Z</time>
      </trkpt>
      <trkpt lat="43.67697" lon="2.34408">
        <ele>233</ele>
        <time>2018-06-09T14:46:30Z</time>
      </trkpt>
      <trkpt lat="43.67701" lon="2.34405">
        <ele>232</ele>
        <time>2018-06-09T14:46:31Z</time>
      </trkpt>
      <trkpt lat="43.67705" lon="2.34403">
        <ele>232</ele>
        <time>2018-06-09T14:46:32Z</time>
      </trkpt>
      <trkpt lat="43.67722" lon="2.34389">
        <ele>232</ele>
        <time>2018-06-09T14:46:36Z</time>
      </trkpt>
      <trkpt lat="43.67739" lon="2.34375">
        <ele>232</ele>
        <time>2018-06-09T14:46:40Z</time>
      </trkpt>
      <trkpt lat="43.67752" lon="2.34365">
        <ele>231</ele>
        <time>2018-06-09T14:46:43Z</time>
      </trkpt>
      <trkpt lat="43.67757" lon="2.3436">
        <ele>230</ele>
        <time>2018-06-09T14:46:44Z</time>
      </trkpt>
      <trkpt lat="43.67765" lon="2.34352">
        <ele>230</ele>
        <time>2018-06-09T14:46:46Z</time>
      </trkpt>
      <trkpt lat="43.67782" lon="2.34336">
        <ele>231</ele>
        <time>2018-06-09T14:46:50Z</time>
      </trkpt>
      <trkpt lat="43.67796" lon="2.34322">
        <ele>231</ele>
        <time>2018-06-09T14:46:54Z</time>
      </trkpt>
      <trkpt lat="43.67813" lon="2.34305">
        <ele>231</ele>
        <time>2018-06-09T14:46:58Z</time>
      </trkpt>
      <trkpt lat="43.67817" lon="2.343">
        <ele>230</ele>
        <time>2018-06-09T14:46:59Z</time>
      </trkpt>
      <trkpt lat="43.67828" lon="2.34283">
        <ele>230</ele>
        <time>2018-06-09T14:47:02Z</time>
      </trkpt>
      <trkpt lat="43.67836" lon="2.34273">
        <ele>230</ele>
        <time>2018-06-09T14:47:04Z</time>
      </trkpt>
      <trkpt lat="43.67842" lon="2.34261">
        <ele>229</ele>
        <time>2018-06-09T14:47:06Z</time>
      </trkpt>
      <trkpt lat="43.67845" lon="2.34256">
        <ele>229</ele>
        <time>2018-06-09T14:47:07Z</time>
      </trkpt>
      <trkpt lat="43.67854" lon="2.34239">
        <ele>229</ele>
        <time>2018-06-09T14:47:10Z</time>
      </trkpt>
      <trkpt lat="43.6786" lon="2.34229">
        <ele>230</ele>
        <time>2018-06-09T14:47:12Z</time>
      </trkpt>
      <trkpt lat="43.67863" lon="2.34225">
        <ele>230</ele>
        <time>2018-06-09T14:47:13Z</time>
      </trkpt>
      <trkpt lat="43.67865" lon="2.3422">
        <ele>230</ele>
        <time>2018-06-09T14:47:14Z</time>
      </trkpt>
      <trkpt lat="43.67868" lon="2.34214">
        <ele>229</ele>
        <time>2018-06-09T14:47:15Z</time>
      </trkpt>
      <trkpt lat="43.67872" lon="2.34203">
        <ele>228</ele>
        <time>2018-06-09T14:47:17Z</time>
      </trkpt>
      <trkpt lat="43.67875" lon="2.34191">
        <ele>228</ele>
        <time>2018-06-09T14:47:19Z</time>
      </trkpt>
      <trkpt lat="43.67876" lon="2.3418">
        <ele>228</ele>
        <time>2018-06-09T14:47:21Z</time>
      </trkpt>
      <trkpt lat="43.67877" lon="2.34174">
        <ele>228</ele>
        <time>2018-06-09T14:47:22Z</time>
      </trkpt>
      <trkpt lat="43.67876" lon="2.34162">
        <ele>228</ele>
        <time>2018-06-09T14:47:25Z</time>
      </trkpt>
      <trkpt lat="43.67876" lon="2.34153">
        <ele>228</ele>
        <time>2018-06-09T14:47:27Z</time>
      </trkpt>
      <trkpt lat="43.67874" lon="2.3413">
        <ele>227</ele>
        <time>2018-06-09T14:47:32Z</time>
      </trkpt>
      <trkpt lat="43.67863" lon="2.34104">
        <ele>227</ele>
        <time>2018-06-09T14:47:36Z</time>
      </trkpt>
      <trkpt lat="43.67857" lon="2.3409">
        <ele>227</ele>
        <time>2018-06-09T14:47:38Z</time>
      </trkpt>
      <trkpt lat="43.67851" lon="2.34078">
        <ele>227</ele>
        <time>2018-06-09T14:47:40Z</time>
      </trkpt>
      <trkpt lat="43.67848" lon="2.34073">
        <ele>226</ele>
        <time>2018-06-09T14:47:41Z</time>
      </trkpt>
      <trkpt lat="43.67838" lon="2.34056">
        <ele>227</ele>
        <time>2018-06-09T14:47:44Z</time>
      </trkpt>
      <trkpt lat="43.67822" lon="2.34036">
        <ele>226</ele>
        <time>2018-06-09T14:47:48Z</time>
      </trkpt>
      <trkpt lat="43.67814" lon="2.34026">
        <ele>226</ele>
        <time>2018-06-09T14:47:50Z</time>
      </trkpt>
      <trkpt lat="43.6781" lon="2.34024">
        <ele>226</ele>
        <time>2018-06-09T14:47:51Z</time>
      </trkpt>
      <trkpt lat="43.67798" lon="2.34016">
        <ele>226</ele>
        <time>2018-06-09T14:47:54Z</time>
      </trkpt>
      <trkpt lat="43.67794" lon="2.34013">
        <ele>226</ele>
        <time>2018-06-09T14:47:55Z</time>
      </trkpt>
      <trkpt lat="43.67779" lon="2.33999">
        <ele>225</ele>
        <time>2018-06-09T14:47:59Z</time>
      </trkpt>
      <trkpt lat="43.67764" lon="2.33981">
        <ele>225</ele>
        <time>2018-06-09T14:48:03Z</time>
      </trkpt>
      <trkpt lat="43.67739" lon="2.33946">
        <ele>227</ele>
        <time>2018-06-09T14:48:09Z</time>
      </trkpt>
      <trkpt lat="43.6772" lon="2.33919">
        <ele>226</ele>
        <time>2018-06-09T14:48:15Z</time>
      </trkpt>
      <trkpt lat="43.67708" lon="2.33902">
        <ele>225</ele>
        <time>2018-06-09T14:48:20Z</time>
      </trkpt>
      <trkpt lat="43.67704" lon="2.33894">
        <ele>225</ele>
        <time>2018-06-09T14:48:22Z</time>
      </trkpt>
      <trkpt lat="43.67702" lon="2.33891">
        <ele>225</ele>
        <time>2018-06-09T14:48:23Z</time>
      </trkpt>
      <trkpt lat="43.67692" lon="2.33877">
        <ele>226</ele>
        <time>2018-06-09T14:48:28Z</time>
      </trkpt>
      <trkpt lat="43.67691" lon="2.33876">
        <ele>227</ele>
        <time>2018-06-09T14:48:29Z</time>
      </trkpt>
      <trkpt lat="43.6769" lon="2.33874">
        <ele>227</ele>
        <time>2018-06-09T14:48:30Z</time>
      </trkpt>
      <trkpt lat="43.67687" lon="2.33868">
        <ele>226</ele>
        <time>2018-06-09T14:48:32Z</time>
      </trkpt>
      <trkpt lat="43.67682" lon="2.33858">
        <ele>226</ele>
        <time>2018-06-09T14:48:35Z</time>
      </trkpt>
      <trkpt lat="43.67679" lon="2.33853">
        <ele>226</ele>
        <time>2018-06-09T14:48:36Z</time>
      </trkpt>
      <trkpt lat="43.67671" lon="2.33838">
        <ele>227</ele>
        <time>2018-06-09T14:48:40Z</time>
      </trkpt>
      <trkpt lat="43.67665" lon="2.33827">
        <ele>226</ele>
        <time>2018-06-09T14:48:43Z</time>
      </trkpt>
      <trkpt lat="43.67663" lon="2.33824">
        <ele>226</ele>
        <time>2018-06-09T14:48:44Z</time>
      </trkpt>
      <trkpt lat="43.67657" lon="2.33814">
        <ele>226</ele>
        <time>2018-06-09T14:48:47Z</time>
      </trkpt>
      <trkpt lat="43.6765" lon="2.33798">
        <ele>225</ele>
        <time>2018-06-09T14:48:50Z</time>
      </trkpt>
      <trkpt lat="43.67642" lon="2.33779">
        <ele>226</ele>
        <time>2018-06-09T14:48:54Z</time>
      </trkpt>
      <trkpt lat="43.67636" lon="2.33762">
        <ele>227</ele>
        <time>2018-06-09T14:48:57Z</time>
      </trkpt>
      <trkpt lat="43.67631" lon="2.33754">
        <ele>226</ele>
        <time>2018-06-09T14:48:59Z</time>
      </trkpt>
      <trkpt lat="43.67622" lon="2.33736">
        <ele>226</ele>
        <time>2018-06-09T14:49:02Z</time>
      </trkpt>
      <trkpt lat="43.67614" lon="2.3372">
        <ele>225</ele>
        <time>2018-06-09T14:49:05Z</time>
      </trkpt>
      <trkpt lat="43.67611" lon="2.33716">
        <ele>225</ele>
        <time>2018-06-09T14:49:06Z</time>
      </trkpt>
      <trkpt lat="43.67605" lon="2.33701">
        <ele>226</ele>
        <time>2018-06-09T14:49:09Z</time>
      </trkpt>
      <trkpt lat="43.67597" lon="2.33676">
        <ele>226</ele>
        <time>2018-06-09T14:49:13Z</time>
      </trkpt>
      <trkpt lat="43.67586" lon="2.3365">
        <ele>226</ele>
        <time>2018-06-09T14:49:18Z</time>
      </trkpt>
      <trkpt lat="43.67585" lon="2.33644">
        <ele>226</ele>
        <time>2018-06-09T14:49:19Z</time>
      </trkpt>
      <trkpt lat="43.67579" lon="2.33633">
        <ele>226</ele>
        <time>2018-06-09T14:49:21Z</time>
      </trkpt>
      <trkpt lat="43.67572" lon="2.33613">
        <ele>225</ele>
        <time>2018-06-09T14:49:25Z</time>
      </trkpt>
      <trkpt lat="43.6757" lon="2.33607">
        <ele>225</ele>
        <time>2018-06-09T14:49:26Z</time>
      </trkpt>
      <trkpt lat="43.67566" lon="2.33593">
        <ele>226</ele>
        <time>2018-06-09T14:49:29Z</time>
      </trkpt>
      <trkpt lat="43.67566" lon="2.33588">
        <ele>226</ele>
        <time>2018-06-09T14:49:30Z</time>
      </trkpt>
      <trkpt lat="43.67559" lon="2.33564">
        <ele>225</ele>
        <time>2018-06-09T14:49:34Z</time>
      </trkpt>
      <trkpt lat="43.67549" lon="2.33537">
        <ele>225</ele>
        <time>2018-06-09T14:49:38Z</time>
      </trkpt>
      <trkpt lat="43.67541" lon="2.33511">
        <ele>225</ele>
        <time>2018-06-09T14:49:42Z</time>
      </trkpt>
      <trkpt lat="43.67534" lon="2.33485">
        <ele>226</ele>
        <time>2018-06-09T14:49:46Z</time>
      </trkpt>
      <trkpt lat="43.67528" lon="2.33466">
        <ele>225</ele>
        <time>2018-06-09T14:49:49Z</time>
      </trkpt>
      <trkpt lat="43.67527" lon="2.33461">
        <ele>224</ele>
        <time>2018-06-09T14:49:50Z</time>
      </trkpt>
      <trkpt lat="43.67522" lon="2.33437">
        <ele>225</ele>
        <time>2018-06-09T14:49:55Z</time>
      </trkpt>
      <trkpt lat="43.67518" lon="2.33406">
        <ele>224</ele>
        <time>2018-06-09T14:50:00Z</time>
      </trkpt>
      <trkpt lat="43.67514" lon="2.33378">
        <ele>225</ele>
        <time>2018-06-09T14:50:05Z</time>
      </trkpt>
      <trkpt lat="43.67511" lon="2.33366">
        <ele>224</ele>
        <time>2018-06-09T14:50:07Z</time>
      </trkpt>
      <trkpt lat="43.67508" lon="2.33354">
        <ele>225</ele>
        <time>2018-06-09T14:50:09Z</time>
      </trkpt>
      <trkpt lat="43.67507" lon="2.33347">
        <ele>225</ele>
        <time>2018-06-09T14:50:10Z</time>
      </trkpt>
      <trkpt lat="43.67503" lon="2.3333">
        <ele>224</ele>
        <time>2018-06-09T14:50:13Z</time>
      </trkpt>
      <trkpt lat="43.67501" lon="2.33324">
        <ele>223</ele>
        <time>2018-06-09T14:50:14Z</time>
      </trkpt>
      <trkpt lat="43.67498" lon="2.33307">
        <ele>223</ele>
        <time>2018-06-09T14:50:17Z</time>
      </trkpt>
      <trkpt lat="43.67493" lon="2.33288">
        <ele>223</ele>
        <time>2018-06-09T14:50:21Z</time>
      </trkpt>
      <trkpt lat="43.67489" lon="2.33264">
        <ele>225</ele>
        <time>2018-06-09T14:50:25Z</time>
      </trkpt>
      <trkpt lat="43.67488" lon="2.33257">
        <ele>225</ele>
        <time>2018-06-09T14:50:26Z</time>
      </trkpt>
      <trkpt lat="43.67484" lon="2.33239">
        <ele>224</ele>
        <time>2018-06-09T14:50:29Z</time>
      </trkpt>
      <trkpt lat="43.6748" lon="2.33217">
        <ele>224</ele>
        <time>2018-06-09T14:50:33Z</time>
      </trkpt>
      <trkpt lat="43.67479" lon="2.33212">
        <ele>224</ele>
        <time>2018-06-09T14:50:34Z</time>
      </trkpt>
      <trkpt lat="43.67478" lon="2.33207">
        <ele>224</ele>
        <time>2018-06-09T14:50:35Z</time>
      </trkpt>
      <trkpt lat="43.67478" lon="2.33201">
        <ele>224</ele>
        <time>2018-06-09T14:50:36Z</time>
      </trkpt>
      <trkpt lat="43.67477" lon="2.33185">
        <ele>224</ele>
        <time>2018-06-09T14:50:39Z</time>
      </trkpt>
      <trkpt lat="43.67476" lon="2.3318">
        <ele>223</ele>
        <time>2018-06-09T14:50:40Z</time>
      </trkpt>
      <trkpt lat="43.67473" lon="2.33148">
        <ele>225</ele>
        <time>2018-06-09T14:50:46Z</time>
      </trkpt>
      <trkpt lat="43.67472" lon="2.33123">
        <ele>223</ele>
        <time>2018-06-09T14:50:51Z</time>
      </trkpt>
      <trkpt lat="43.67471" lon="2.33095">
        <ele>223</ele>
        <time>2018-06-09T14:50:56Z</time>
      </trkpt>
      <trkpt lat="43.6747" lon="2.33089">
        <ele>223</ele>
        <time>2018-06-09T14:50:57Z</time>
      </trkpt>
      <trkpt lat="43.67469" lon="2.33085">
        <ele>223</ele>
        <time>2018-06-09T14:50:58Z</time>
      </trkpt>
      <trkpt lat="43.67467" lon="2.33076">
        <ele>223</ele>
        <time>2018-06-09T14:51:00Z</time>
      </trkpt>
      <trkpt lat="43.67466" lon="2.33054">
        <ele>224</ele>
        <time>2018-06-09T14:51:04Z</time>
      </trkpt>
      <trkpt lat="43.67465" lon="2.33029">
        <ele>223</ele>
        <time>2018-06-09T14:51:08Z</time>
      </trkpt>
      <trkpt lat="43.67463" lon="2.33013">
        <ele>223</ele>
        <time>2018-06-09T14:51:11Z</time>
      </trkpt>
      <trkpt lat="43.67463" lon="2.33003">
        <ele>223</ele>
        <time>2018-06-09T14:51:13Z</time>
      </trkpt>
      <trkpt lat="43.67462" lon="2.32983">
        <ele>223</ele>
        <time>2018-06-09T14:51:17Z</time>
      </trkpt>
      <trkpt lat="43.67458" lon="2.32956">
        <ele>223</ele>
        <time>2018-06-09T14:51:22Z</time>
      </trkpt>
      <trkpt lat="43.67458" lon="2.32946">
        <ele>223</ele>
        <time>2018-06-09T14:51:24Z</time>
      </trkpt>
      <trkpt lat="43.67457" lon="2.32926">
        <ele>224</ele>
        <time>2018-06-09T14:51:28Z</time>
      </trkpt>
      <trkpt lat="43.67457" lon="2.32915">
        <ele>224</ele>
        <time>2018-06-09T14:51:30Z</time>
      </trkpt>
      <trkpt lat="43.67456" lon="2.32906">
        <ele>223</ele>
        <time>2018-06-09T14:51:32Z</time>
      </trkpt>
      <trkpt lat="43.67457" lon="2.32886">
        <ele>223</ele>
        <time>2018-06-09T14:51:36Z</time>
      </trkpt>
      <trkpt lat="43.67461" lon="2.32859">
        <ele>224</ele>
        <time>2018-06-09T14:51:40Z</time>
      </trkpt>
      <trkpt lat="43.67465" lon="2.32831">
        <ele>223</ele>
        <time>2018-06-09T14:51:44Z</time>
      </trkpt>
      <trkpt lat="43.67466" lon="2.32823">
        <ele>224</ele>
        <time>2018-06-09T14:51:45Z</time>
      </trkpt>
      <trkpt lat="43.6747" lon="2.32804">
        <ele>224</ele>
        <time>2018-06-09T14:51:48Z</time>
      </trkpt>
      <trkpt lat="43.6747" lon="2.32793">
        <ele>225</ele>
        <time>2018-06-09T14:51:50Z</time>
      </trkpt>
      <trkpt lat="43.67468" lon="2.32781">
        <ele>225</ele>
        <time>2018-06-09T14:51:52Z</time>
      </trkpt>
      <trkpt lat="43.67471" lon="2.32768">
        <ele>225</ele>
        <time>2018-06-09T14:51:55Z</time>
      </trkpt>
      <trkpt lat="43.67471" lon="2.32762">
        <ele>225</ele>
        <time>2018-06-09T14:51:56Z</time>
      </trkpt>
      <trkpt lat="43.6747" lon="2.3275">
        <ele>225</ele>
        <time>2018-06-09T14:51:58Z</time>
      </trkpt>
      <trkpt lat="43.67471" lon="2.32738">
        <ele>225</ele>
        <time>2018-06-09T14:52:00Z</time>
      </trkpt>
      <trkpt lat="43.67472" lon="2.32728">
        <ele>225</ele>
        <time>2018-06-09T14:52:02Z</time>
      </trkpt>
      <trkpt lat="43.67474" lon="2.32719">
        <ele>224</ele>
        <time>2018-06-09T14:52:04Z</time>
      </trkpt>
      <trkpt lat="43.67474" lon="2.32715">
        <ele>225</ele>
        <time>2018-06-09T14:52:05Z</time>
      </trkpt>
      <trkpt lat="43.6748" lon="2.32689">
        <ele>225</ele>
        <time>2018-06-09T14:52:10Z</time>
      </trkpt>
      <trkpt lat="43.67481" lon="2.32684">
        <ele>226</ele>
        <time>2018-06-09T14:52:11Z</time>
      </trkpt>
      <trkpt lat="43.67487" lon="2.32658">
        <ele>226</ele>
        <time>2018-06-09T14:52:16Z</time>
      </trkpt>
      <trkpt lat="43.67491" lon="2.32645">
        <ele>227</ele>
        <time>2018-06-09T14:52:19Z</time>
      </trkpt>
      <trkpt lat="43.67493" lon="2.3264">
        <ele>228</ele>
        <time>2018-06-09T14:52:20Z</time>
      </trkpt>
      <trkpt lat="43.67498" lon="2.32621">
        <ele>227</ele>
        <time>2018-06-09T14:52:24Z</time>
      </trkpt>
      <trkpt lat="43.675" lon="2.32617">
        <ele>227</ele>
        <time>2018-06-09T14:52:25Z</time>
      </trkpt>
      <trkpt lat="43.67508" lon="2.32599">
        <ele>228</ele>
        <time>2018-06-09T14:52:29Z</time>
      </trkpt>
      <trkpt lat="43.67509" lon="2.32596">
        <ele>228</ele>
        <time>2018-06-09T14:52:30Z</time>
      </trkpt>
      <trkpt lat="43.67513" lon="2.32578">
        <ele>227</ele>
        <time>2018-06-09T14:52:34Z</time>
      </trkpt>
      <trkpt lat="43.67518" lon="2.32556">
        <ele>228</ele>
        <time>2018-06-09T14:52:38Z</time>
      </trkpt>
      <trkpt lat="43.6752" lon="2.32551">
        <ele>229</ele>
        <time>2018-06-09T14:52:39Z</time>
      </trkpt>
      <trkpt lat="43.67528" lon="2.32531">
        <ele>230</ele>
        <time>2018-06-09T14:52:43Z</time>
      </trkpt>
      <trkpt lat="43.67538" lon="2.325">
        <ele>230</ele>
        <time>2018-06-09T14:52:50Z</time>
      </trkpt>
      <trkpt lat="43.67548" lon="2.32489">
        <ele>230</ele>
        <time>2018-06-09T14:52:54Z</time>
      </trkpt>
      <trkpt lat="43.67564" lon="2.32474">
        <ele>231</ele>
        <time>2018-06-09T14:52:59Z</time>
      </trkpt>
      <trkpt lat="43.6757" lon="2.32468">
        <ele>230</ele>
        <time>2018-06-09T14:53:01Z</time>
      </trkpt>
      <trkpt lat="43.67576" lon="2.32462">
        <ele>231</ele>
        <time>2018-06-09T14:53:03Z</time>
      </trkpt>
      <trkpt lat="43.67592" lon="2.32452">
        <ele>230</ele>
        <time>2018-06-09T14:53:08Z</time>
      </trkpt>
      <trkpt lat="43.67612" lon="2.32443">
        <ele>231</ele>
        <time>2018-06-09T14:53:13Z</time>
      </trkpt>
      <trkpt lat="43.67632" lon="2.32438">
        <ele>231</ele>
        <time>2018-06-09T14:53:18Z</time>
      </trkpt>
      <trkpt lat="43.67649" lon="2.32433">
        <ele>230</ele>
        <time>2018-06-09T14:53:22Z</time>
      </trkpt>
      <trkpt lat="43.67669" lon="2.32434">
        <ele>231</ele>
        <time>2018-06-09T14:53:26Z</time>
      </trkpt>
      <trkpt lat="43.67688" lon="2.32437">
        <ele>231</ele>
        <time>2018-06-09T14:53:31Z</time>
      </trkpt>
      <trkpt lat="43.67702" lon="2.32442">
        <ele>231</ele>
        <time>2018-06-09T14:53:35Z</time>
      </trkpt>
      <trkpt lat="43.67724" lon="2.32452">
        <ele>231</ele>
        <time>2018-06-09T14:53:42Z</time>
      </trkpt>
      <trkpt lat="43.67727" lon="2.32454">
        <ele>231</ele>
        <time>2018-06-09T14:53:43Z</time>
      </trkpt>
      <trkpt lat="43.67735" lon="2.32459">
        <ele>231</ele>
        <time>2018-06-09T14:53:46Z</time>
      </trkpt>
      <trkpt lat="43.6774" lon="2.32463">
        <ele>231</ele>
        <time>2018-06-09T14:53:48Z</time>
      </trkpt>
      <trkpt lat="43.67741" lon="2.32464">
        <ele>231</ele>
        <time>2018-06-09T14:53:49Z</time>
      </trkpt>
      <trkpt lat="43.67743" lon="2.32464">
        <ele>232</ele>
        <time>2018-06-09T14:53:52Z</time>
      </trkpt>
      <trkpt lat="43.67743" lon="2.32471">
        <ele>231</ele>
        <time>2018-06-09T14:53:57Z</time>
      </trkpt>
      <trkpt lat="43.67747" lon="2.32482">
        <ele>230</ele>
        <time>2018-06-09T14:54:02Z</time>
      </trkpt>
      <trkpt lat="43.67748" lon="2.32488">
        <ele>228</ele>
        <time>2018-06-09T14:54:04Z</time>
      </trkpt>
      <trkpt lat="43.67748" lon="2.32495">
        <ele>227</ele>
        <time>2018-06-09T14:54:06Z</time>
      </trkpt>
      <trkpt lat="43.67748" lon="2.32501">
        <ele>225</ele>
        <time>2018-06-09T14:54:08Z</time>
      </trkpt>
      <trkpt lat="43.67749" lon="2.32505">
        <ele>225</ele>
        <time>2018-06-09T14:54:11Z</time>
      </trkpt>
      <trkpt lat="43.67751" lon="2.32511">
        <ele>226</ele>
        <time>2018-06-09T14:54:18Z</time>
      </trkpt>
      <trkpt lat="43.67751" lon="2.32511">
        <ele>226</ele>
        <time>2018-06-09T14:54:19Z</time>
      </trkpt>
      <trkpt lat="43.67753" lon="2.32515">
        <ele>226</ele>
        <time>2018-06-09T14:54:22Z</time>
      </trkpt>
      <trkpt lat="43.67755" lon="2.3252">
        <ele>227</ele>
        <time>2018-06-09T14:54:24Z</time>
      </trkpt>
      <trkpt lat="43.67761" lon="2.32526">
        <ele>227</ele>
        <time>2018-06-09T14:54:28Z</time>
      </trkpt>
      <trkpt lat="43.67763" lon="2.32526">
        <ele>228</ele>
        <time>2018-06-09T14:54:29Z</time>
      </trkpt>
      <trkpt lat="43.67771" lon="2.3253">
        <ele>229</ele>
        <time>2018-06-09T14:54:33Z</time>
      </trkpt>
      <trkpt lat="43.67772" lon="2.32531">
        <ele>229</ele>
        <time>2018-06-09T14:54:34Z</time>
      </trkpt>
      <trkpt lat="43.67781" lon="2.3254">
        <ele>229</ele>
        <time>2018-06-09T14:54:39Z</time>
      </trkpt>
      <trkpt lat="43.67785" lon="2.32545">
        <ele>230</ele>
        <time>2018-06-09T14:54:41Z</time>
      </trkpt>
      <trkpt lat="43.67793" lon="2.32553">
        <ele>231</ele>
        <time>2018-06-09T14:54:45Z</time>
      </trkpt>
      <trkpt lat="43.67795" lon="2.32554">
        <ele>231</ele>
        <time>2018-06-09T14:54:46Z</time>
      </trkpt>
      <trkpt lat="43.67797" lon="2.32556">
        <ele>231</ele>
        <time>2018-06-09T14:54:47Z</time>
      </trkpt>
      <trkpt lat="43.67801" lon="2.32561">
        <ele>231</ele>
        <time>2018-06-09T14:54:50Z</time>
      </trkpt>
      <trkpt lat="43.67804" lon="2.32565">
        <ele>232</ele>
        <time>2018-06-09T14:54:52Z</time>
      </trkpt>
      <trkpt lat="43.67805" lon="2.32567">
        <ele>232</ele>
        <time>2018-06-09T14:54:53Z</time>
      </trkpt>
      <trkpt lat="43.67806" lon="2.3257">
        <ele>232</ele>
        <time>2018-06-09T14:54:54Z</time>
      </trkpt>
      <trkpt lat="43.67807" lon="2.32572">
        <ele>232</ele>
        <time>2018-06-09T14:54:55Z</time>
      </trkpt>
      <trkpt lat="43.67814" lon="2.32579">
        <ele>232</ele>
        <time>2018-06-09T14:54:59Z</time>
      </trkpt>
      <trkpt lat="43.67816" lon="2.32582">
        <ele>232</ele>
        <time>2018-06-09T14:55:00Z</time>
      </trkpt>
      <trkpt lat="43.6782" lon="2.32586">
        <ele>233</ele>
        <time>2018-06-09T14:55:02Z</time>
      </trkpt>
      <trkpt lat="43.67826" lon="2.32591">
        <ele>233</ele>
        <time>2018-06-09T14:55:05Z</time>
      </trkpt>
      <trkpt lat="43.67828" lon="2.32594">
        <ele>234</ele>
        <time>2018-06-09T14:55:07Z</time>
      </trkpt>
      <trkpt lat="43.67832" lon="2.32597">
        <ele>234</ele>
        <time>2018-06-09T14:55:10Z</time>
      </trkpt>
      <trkpt lat="43.67838" lon="2.32606">
        <ele>235</ele>
        <time>2018-06-09T14:55:15Z</time>
      </trkpt>
      <trkpt lat="43.67839" lon="2.32607">
        <ele>235</ele>
        <time>2018-06-09T14:55:16Z</time>
      </trkpt>
      <trkpt lat="43.67842" lon="2.32611">
        <ele>236</ele>
        <time>2018-06-09T14:55:18Z</time>
      </trkpt>
      <trkpt lat="43.67847" lon="2.32622">
        <ele>237</ele>
        <time>2018-06-09T14:55:23Z</time>
      </trkpt>
      <trkpt lat="43.6785" lon="2.32626">
        <ele>237</ele>
        <time>2018-06-09T14:55:25Z</time>
      </trkpt>
      <trkpt lat="43.67853" lon="2.3263">
        <ele>238</ele>
        <time>2018-06-09T14:55:28Z</time>
      </trkpt>
      <trkpt lat="43.67855" lon="2.32633">
        <ele>239</ele>
        <time>2018-06-09T14:55:30Z</time>
      </trkpt>
      <trkpt lat="43.67859" lon="2.32639">
        <ele>240</ele>
        <time>2018-06-09T14:55:34Z</time>
      </trkpt>
      <trkpt lat="43.67861" lon="2.32641">
        <ele>240</ele>
        <time>2018-06-09T14:55:36Z</time>
      </trkpt>
      <trkpt lat="43.67864" lon="2.32648">
        <ele>241</ele>
        <time>2018-06-09T14:55:40Z</time>
      </trkpt>
      <trkpt lat="43.67865" lon="2.3265">
        <ele>241</ele>
        <time>2018-06-09T14:55:41Z</time>
      </trkpt>
      <trkpt lat="43.6787" lon="2.32659">
        <ele>242</ele>
        <time>2018-06-09T14:55:46Z</time>
      </trkpt>
      <trkpt lat="43.67872" lon="2.32662">
        <ele>243</ele>
        <time>2018-06-09T14:55:48Z</time>
      </trkpt>
      <trkpt lat="43.67874" lon="2.32666">
        <ele>243</ele>
        <time>2018-06-09T14:55:51Z</time>
      </trkpt>
      <trkpt lat="43.67877" lon="2.3267">
        <ele>243</ele>
        <time>2018-06-09T14:55:54Z</time>
      </trkpt>
      <trkpt lat="43.67879" lon="2.32674">
        <ele>243</ele>
        <time>2018-06-09T14:55:56Z</time>
      </trkpt>
      <trkpt lat="43.67881" lon="2.3268">
        <ele>243</ele>
        <time>2018-06-09T14:55:59Z</time>
      </trkpt>
      <trkpt lat="43.67886" lon="2.32692">
        <ele>244</ele>
        <time>2018-06-09T14:56:04Z</time>
      </trkpt>
      <trkpt lat="43.67888" lon="2.32698">
        <ele>244</ele>
        <time>2018-06-09T14:56:07Z</time>
      </trkpt>
      <trkpt lat="43.67889" lon="2.32701">
        <ele>244</ele>
        <time>2018-06-09T14:56:09Z</time>
      </trkpt>
      <trkpt lat="43.67891" lon="2.32707">
        <ele>244</ele>
        <time>2018-06-09T14:56:12Z</time>
      </trkpt>
      <trkpt lat="43.67894" lon="2.32713">
        <ele>244</ele>
        <time>2018-06-09T14:56:14Z</time>
      </trkpt>
      <trkpt lat="43.67902" lon="2.32722">
        <ele>245</ele>
        <time>2018-06-09T14:56:20Z</time>
      </trkpt>
      <trkpt lat="43.67905" lon="2.32727">
        <ele>247</ele>
        <time>2018-06-09T14:56:23Z</time>
      </trkpt>
      <trkpt lat="43.67909" lon="2.32733">
        <ele>248</ele>
        <time>2018-06-09T14:56:27Z</time>
      </trkpt>
      <trkpt lat="43.67913" lon="2.32736">
        <ele>248</ele>
        <time>2018-06-09T14:56:31Z</time>
      </trkpt>
      <trkpt lat="43.67913" lon="2.32736">
        <ele>248</ele>
        <time>2018-06-09T14:56:32Z</time>
      </trkpt>
      <trkpt lat="43.67913" lon="2.32731">
        <ele>249</ele>
        <time>2018-06-09T14:56:37Z</time>
      </trkpt>
      <trkpt lat="43.67912" lon="2.32728">
        <ele>249</ele>
        <time>2018-06-09T14:56:38Z</time>
      </trkpt>
      <trkpt lat="43.67908" lon="2.32717">
        <ele>250</ele>
        <time>2018-06-09T14:56:44Z</time>
      </trkpt>
      <trkpt lat="43.67907" lon="2.32716">
        <ele>250</ele>
        <time>2018-06-09T14:56:45Z</time>
      </trkpt>
      <trkpt lat="43.67908" lon="2.32708">
        <ele>251</ele>
        <time>2018-06-09T14:56:50Z</time>
      </trkpt>
      <trkpt lat="43.67908" lon="2.32706">
        <ele>251</ele>
        <time>2018-06-09T14:56:52Z</time>
      </trkpt>
      <trkpt lat="43.67909" lon="2.32702">
        <ele>252</ele>
        <time>2018-06-09T14:56:54Z</time>
      </trkpt>
      <trkpt lat="43.6791" lon="2.32695">
        <ele>253</ele>
        <time>2018-06-09T14:56:58Z</time>
      </trkpt>
      <trkpt lat="43.6791" lon="2.32694">
        <ele>253</ele>
        <time>2018-06-09T14:56:59Z</time>
      </trkpt>
      <trkpt lat="43.6791" lon="2.32692">
        <ele>253</ele>
        <time>2018-06-09T14:57:00Z</time>
      </trkpt>
      <trkpt lat="43.67908" lon="2.32686">
        <ele>254</ele>
        <time>2018-06-09T14:57:04Z</time>
      </trkpt>
      <trkpt lat="43.67908" lon="2.32682">
        <ele>255</ele>
        <time>2018-06-09T14:57:06Z</time>
      </trkpt>
      <trkpt lat="43.67907" lon="2.32678">
        <ele>255</ele>
        <time>2018-06-09T14:57:08Z</time>
      </trkpt>
      <trkpt lat="43.67906" lon="2.32676">
        <ele>255</ele>
        <time>2018-06-09T14:57:09Z</time>
      </trkpt>
      <trkpt lat="43.67905" lon="2.32672">
        <ele>256</ele>
        <time>2018-06-09T14:57:11Z</time>
      </trkpt>
      <trkpt lat="43.67905" lon="2.32669">
        <ele>256</ele>
        <time>2018-06-09T14:57:12Z</time>
      </trkpt>
      <trkpt lat="43.67904" lon="2.32662">
        <ele>256</ele>
        <time>2018-06-09T14:57:16Z</time>
      </trkpt>
      <trkpt lat="43.67903" lon="2.32651">
        <ele>257</ele>
        <time>2018-06-09T14:57:21Z</time>
      </trkpt>
      <trkpt lat="43.67903" lon="2.32649">
        <ele>257</ele>
        <time>2018-06-09T14:57:22Z</time>
      </trkpt>
      <trkpt lat="43.67902" lon="2.32643">
        <ele>258</ele>
        <time>2018-06-09T14:57:25Z</time>
      </trkpt>
      <trkpt lat="43.67899" lon="2.32637">
        <ele>258</ele>
        <time>2018-06-09T14:57:28Z</time>
      </trkpt>
      <trkpt lat="43.67891" lon="2.32622">
        <ele>260</ele>
        <time>2018-06-09T14:57:35Z</time>
      </trkpt>
      <trkpt lat="43.67887" lon="2.32615">
        <ele>261</ele>
        <time>2018-06-09T14:57:39Z</time>
      </trkpt>
      <trkpt lat="43.67884" lon="2.32608">
        <ele>261</ele>
        <time>2018-06-09T14:57:42Z</time>
      </trkpt>
      <trkpt lat="43.67882" lon="2.32604">
        <ele>262</ele>
        <time>2018-06-09T14:57:44Z</time>
      </trkpt>
      <trkpt lat="43.6788" lon="2.32595">
        <ele>263</ele>
        <time>2018-06-09T14:57:49Z</time>
      </trkpt>
      <trkpt lat="43.67878" lon="2.32586">
        <ele>263</ele>
        <time>2018-06-09T14:57:53Z</time>
      </trkpt>
      <trkpt lat="43.67877" lon="2.32584">
        <ele>264</ele>
        <time>2018-06-09T14:57:54Z</time>
      </trkpt>
      <trkpt lat="43.67877" lon="2.32582">
        <ele>264</ele>
        <time>2018-06-09T14:57:55Z</time>
      </trkpt>
      <trkpt lat="43.67875" lon="2.32573">
        <ele>265</ele>
        <time>2018-06-09T14:58:00Z</time>
      </trkpt>
      <trkpt lat="43.67875" lon="2.32571">
        <ele>265</ele>
        <time>2018-06-09T14:58:01Z</time>
      </trkpt>
      <trkpt lat="43.67874" lon="2.32567">
        <ele>266</ele>
        <time>2018-06-09T14:58:03Z</time>
      </trkpt>
      <trkpt lat="43.67873" lon="2.32562">
        <ele>267</ele>
        <time>2018-06-09T14:58:06Z</time>
      </trkpt>
      <trkpt lat="43.67874" lon="2.32557">
        <ele>268</ele>
        <time>2018-06-09T14:58:09Z</time>
      </trkpt>
      <trkpt lat="43.67874" lon="2.32554">
        <ele>268</ele>
        <time>2018-06-09T14:58:11Z</time>
      </trkpt>
      <trkpt lat="43.67874" lon="2.32548">
        <ele>269</ele>
        <time>2018-06-09T14:58:14Z</time>
      </trkpt>
      <trkpt lat="43.67873" lon="2.32546">
        <ele>269</ele>
        <time>2018-06-09T14:58:15Z</time>
      </trkpt>
      <trkpt lat="43.67873" lon="2.32545">
        <ele>269</ele>
        <time>2018-06-09T14:58:16Z</time>
      </trkpt>
      <trkpt lat="43.67874" lon="2.32534">
        <ele>270</ele>
        <time>2018-06-09T14:58:22Z</time>
      </trkpt>
      <trkpt lat="43.67873" lon="2.32529">
        <ele>270</ele>
        <time>2018-06-09T14:58:25Z</time>
      </trkpt>
      <trkpt lat="43.67873" lon="2.32527">
        <ele>271</ele>
        <time>2018-06-09T14:58:26Z</time>
      </trkpt>
      <trkpt lat="43.67873" lon="2.32526">
        <ele>271</ele>
        <time>2018-06-09T14:58:27Z</time>
      </trkpt>
      <trkpt lat="43.67872" lon="2.32523">
        <ele>272</ele>
        <time>2018-06-09T14:58:30Z</time>
      </trkpt>
      <trkpt lat="43.67871" lon="2.3252">
        <ele>272</ele>
        <time>2018-06-09T14:58:32Z</time>
      </trkpt>
      <trkpt lat="43.67871" lon="2.32515">
        <ele>273</ele>
        <time>2018-06-09T14:58:35Z</time>
      </trkpt>
      <trkpt lat="43.67871" lon="2.32513">
        <ele>273</ele>
        <time>2018-06-09T14:58:36Z</time>
      </trkpt>
      <trkpt lat="43.6787" lon="2.32504">
        <ele>274</ele>
        <time>2018-06-09T14:58:40Z</time>
      </trkpt>
      <trkpt lat="43.6787" lon="2.325">
        <ele>274</ele>
        <time>2018-06-09T14:58:42Z</time>
      </trkpt>
      <trkpt lat="43.6787" lon="2.32498">
        <ele>275</ele>
        <time>2018-06-09T14:58:43Z</time>
      </trkpt>
      <trkpt lat="43.67868" lon="2.3249">
        <ele>275</ele>
        <time>2018-06-09T14:58:47Z</time>
      </trkpt>
      <trkpt lat="43.67867" lon="2.32489">
        <ele>275</ele>
        <time>2018-06-09T14:58:48Z</time>
      </trkpt>
      <trkpt lat="43.67867" lon="2.32487">
        <ele>275</ele>
        <time>2018-06-09T14:58:49Z</time>
      </trkpt>
      <trkpt lat="43.67866" lon="2.32483">
        <ele>276</ele>
        <time>2018-06-09T14:58:52Z</time>
      </trkpt>
      <trkpt lat="43.67866" lon="2.32482">
        <ele>276</ele>
        <time>2018-06-09T14:58:53Z</time>
      </trkpt>
      <trkpt lat="43.67864" lon="2.32478">
        <ele>277</ele>
        <time>2018-06-09T14:58:56Z</time>
      </trkpt>
      <trkpt lat="43.67863" lon="2.32475">
        <ele>277</ele>
        <time>2018-06-09T14:58:58Z</time>
      </trkpt>
      <trkpt lat="43.67862" lon="2.32472">
        <ele>278</ele>
        <time>2018-06-09T14:59:00Z</time>
      </trkpt>
      <trkpt lat="43.67861" lon="2.3247">
        <ele>279</ele>
        <time>2018-06-09T14:59:02Z</time>
      </trkpt>
      <trkpt lat="43.6786" lon="2.32465">
        <ele>280</ele>
        <time>2018-06-09T14:59:06Z</time>
      </trkpt>
      <trkpt lat="43.67859" lon="2.32464">
        <ele>280</ele>
        <time>2018-06-09T14:59:07Z</time>
      </trkpt>
      <trkpt lat="43.67858" lon="2.32457">
        <ele>281</ele>
        <time>2018-06-09T14:59:13Z</time>
      </trkpt>
      <trkpt lat="43.67857" lon="2.32455">
        <ele>281</ele>
        <time>2018-06-09T14:59:14Z</time>
      </trkpt>
      <trkpt lat="43.67856" lon="2.32453">
        <ele>282</ele>
        <time>2018-06-09T14:59:16Z</time>
      </trkpt>
      <trkpt lat="43.67855" lon="2.3245">
        <ele>283</ele>
        <time>2018-06-09T14:59:18Z</time>
      </trkpt>
      <trkpt lat="43.67854" lon="2.32448">
        <ele>284</ele>
        <time>2018-06-09T14:59:20Z</time>
      </trkpt>
      <trkpt lat="43.67851" lon="2.3244">
        <ele>285</ele>
        <time>2018-06-09T14:59:27Z</time>
      </trkpt>
      <trkpt lat="43.67851" lon="2.32438">
        <ele>285</ele>
        <time>2018-06-09T14:59:28Z</time>
      </trkpt>
      <trkpt lat="43.67849" lon="2.32433">
        <ele>286</ele>
        <time>2018-06-09T14:59:31Z</time>
      </trkpt>
      <trkpt lat="43.67848" lon="2.32426">
        <ele>287</ele>
        <time>2018-06-09T14:59:35Z</time>
      </trkpt>
      <trkpt lat="43.67847" lon="2.32421">
        <ele>287</ele>
        <time>2018-06-09T14:59:39Z</time>
      </trkpt>
      <trkpt lat="43.67846" lon="2.32417">
        <ele>288</ele>
        <time>2018-06-09T14:59:42Z</time>
      </trkpt>
      <trkpt lat="43.67846" lon="2.32409">
        <ele>289</ele>
        <time>2018-06-09T14:59:47Z</time>
      </trkpt>
      <trkpt lat="43.67846" lon="2.324">
        <ele>290</ele>
        <time>2018-06-09T14:59:53Z</time>
      </trkpt>
      <trkpt lat="43.67846" lon="2.32397">
        <ele>290</ele>
        <time>2018-06-09T14:59:55Z</time>
      </trkpt>
      <trkpt lat="43.67846" lon="2.32396">
        <ele>290</ele>
        <time>2018-06-09T14:59:56Z</time>
      </trkpt>
      <trkpt lat="43.67846" lon="2.32394">
        <ele>291</ele>
        <time>2018-06-09T14:59:58Z</time>
      </trkpt>
      <trkpt lat="43.67846" lon="2.32389">
        <ele>291</ele>
        <time>2018-06-09T15:00:01Z</time>
      </trkpt>
      <trkpt lat="43.67846" lon="2.32383">
        <ele>292</ele>
        <time>2018-06-09T15:00:05Z</time>
      </trkpt>
      <trkpt lat="43.67846" lon="2.3238">
        <ele>292</ele>
        <time>2018-06-09T15:00:07Z</time>
      </trkpt>
      <trkpt lat="43.67846" lon="2.32376">
        <ele>293</ele>
        <time>2018-06-09T15:00:10Z</time>
      </trkpt>
      <trkpt lat="43.67847" lon="2.32372">
        <ele>294</ele>
        <time>2018-06-09T15:00:12Z</time>
      </trkpt>
      <trkpt lat="43.67847" lon="2.32371">
        <ele>294</ele>
        <time>2018-06-09T15:00:13Z</time>
      </trkpt>
      <trkpt lat="43.67847" lon="2.32367">
        <ele>294</ele>
        <time>2018-06-09T15:00:15Z</time>
      </trkpt>
      <trkpt lat="43.67847" lon="2.32366">
        <ele>294</ele>
        <time>2018-06-09T15:00:16Z</time>
      </trkpt>
      <trkpt lat="43.67846" lon="2.32362">
        <ele>295</ele>
        <time>2018-06-09T15:00:18Z</time>
      </trkpt>
      <trkpt lat="43.67846" lon="2.32352">
        <ele>295</ele>
        <time>2018-06-09T15:00:23Z</time>
      </trkpt>
      <trkpt lat="43.67846" lon="2.32349">
        <ele>296</ele>
        <time>2018-06-09T15:00:25Z</time>
      </trkpt>
      <trkpt lat="43.67846" lon="2.32338">
        <ele>296</ele>
        <time>2018-06-09T15:00:30Z</time>
      </trkpt>
      <trkpt lat="43.67846" lon="2.32332">
        <ele>297</ele>
        <time>2018-06-09T15:00:33Z</time>
      </trkpt>
      <trkpt lat="43.67846" lon="2.32327">
        <ele>297</ele>
        <time>2018-06-09T15:00:35Z</time>
      </trkpt>
      <trkpt lat="43.67846" lon="2.32323">
        <ele>298</ele>
        <time>2018-06-09T15:00:38Z</time>
      </trkpt>
      <trkpt lat="43.67846" lon="2.32318">
        <ele>298</ele>
        <time>2018-06-09T15:00:41Z</time>
      </trkpt>
      <trkpt lat="43.67846" lon="2.32316">
        <ele>298</ele>
        <time>2018-06-09T15:00:42Z</time>
      </trkpt>
      <trkpt lat="43.67846" lon="2.32304">
        <ele>298</ele>
        <time>2018-06-09T15:00:47Z</time>
      </trkpt>
      <trkpt lat="43.67846" lon="2.32302">
        <ele>298</ele>
        <time>2018-06-09T15:00:48Z</time>
      </trkpt>
      <trkpt lat="43.67845" lon="2.32285">
        <ele>299</ele>
        <time>2018-06-09T15:00:54Z</time>
      </trkpt>
      <trkpt lat="43.67845" lon="2.3228">
        <ele>299</ele>
        <time>2018-06-09T15:00:57Z</time>
      </trkpt>
      <trkpt lat="43.67844" lon="2.32275">
        <ele>299</ele>
        <time>2018-06-09T15:00:59Z</time>
      </trkpt>
      <trkpt lat="43.67844" lon="2.32261">
        <ele>300</ele>
        <time>2018-06-09T15:01:05Z</time>
      </trkpt>
      <trkpt lat="43.6784" lon="2.32246">
        <ele>300</ele>
        <time>2018-06-09T15:01:11Z</time>
      </trkpt>
      <trkpt lat="43.67836" lon="2.32233">
        <ele>300</ele>
        <time>2018-06-09T15:01:16Z</time>
      </trkpt>
      <trkpt lat="43.67834" lon="2.3222">
        <ele>300</ele>
        <time>2018-06-09T15:01:22Z</time>
      </trkpt>
      <trkpt lat="43.67832" lon="2.32219">
        <ele>301</ele>
        <time>2018-06-09T15:01:23Z</time>
      </trkpt>
      <trkpt lat="43.67827" lon="2.32216">
        <ele>301</ele>
        <time>2018-06-09T15:01:26Z</time>
      </trkpt>
      <trkpt lat="43.67827" lon="2.32219">
        <ele>302</ele>
        <time>2018-06-09T15:01:28Z</time>
      </trkpt>
      <trkpt lat="43.67827" lon="2.32223">
        <ele>302</ele>
        <time>2018-06-09T15:01:31Z</time>
      </trkpt>
      <trkpt lat="43.67827" lon="2.32228">
        <ele>302</ele>
        <time>2018-06-09T15:01:34Z</time>
      </trkpt>
      <trkpt lat="43.67828" lon="2.32233">
        <ele>303</ele>
        <time>2018-06-09T15:01:37Z</time>
      </trkpt>
      <trkpt lat="43.67828" lon="2.32237">
        <ele>303</ele>
        <time>2018-06-09T15:01:39Z</time>
      </trkpt>
      <trkpt lat="43.67828" lon="2.3224">
        <ele>304</ele>
        <time>2018-06-09T15:01:41Z</time>
      </trkpt>
      <trkpt lat="43.67829" lon="2.32242">
        <ele>304</ele>
        <time>2018-06-09T15:01:42Z</time>
      </trkpt>
      <trkpt lat="43.67829" lon="2.32247">
        <ele>305</ele>
        <time>2018-06-09T15:01:46Z</time>
      </trkpt>
      <trkpt lat="43.67829" lon="2.32249">
        <ele>306</ele>
        <time>2018-06-09T15:01:47Z</time>
      </trkpt>
      <trkpt lat="43.67829" lon="2.32255">
        <ele>307</ele>
        <time>2018-06-09T15:01:50Z</time>
      </trkpt>
      <trkpt lat="43.67829" lon="2.32261">
        <ele>308</ele>
        <time>2018-06-09T15:01:54Z</time>
      </trkpt>
      <trkpt lat="43.67829" lon="2.32261">
        <ele>308</ele>
        <time>2018-06-09T15:01:55Z</time>
      </trkpt>
      <trkpt lat="43.67828" lon="2.32268">
        <ele>309</ele>
        <time>2018-06-09T15:02:01Z</time>
      </trkpt>
      <trkpt lat="43.67827" lon="2.32272">
        <ele>310</ele>
        <time>2018-06-09T15:02:03Z</time>
      </trkpt>
      <trkpt lat="43.67827" lon="2.32276">
        <ele>310</ele>
        <time>2018-06-09T15:02:06Z</time>
      </trkpt>
      <trkpt lat="43.67826" lon="2.32277">
        <ele>310</ele>
        <time>2018-06-09T15:02:07Z</time>
      </trkpt>
      <trkpt lat="43.67825" lon="2.3228">
        <ele>311</ele>
        <time>2018-06-09T15:02:09Z</time>
      </trkpt>
      <trkpt lat="43.67825" lon="2.32283">
        <ele>311</ele>
        <time>2018-06-09T15:02:11Z</time>
      </trkpt>
      <trkpt lat="43.67824" lon="2.32285">
        <ele>312</ele>
        <time>2018-06-09T15:02:12Z</time>
      </trkpt>
      <trkpt lat="43.67822" lon="2.32291">
        <ele>313</ele>
        <time>2018-06-09T15:02:16Z</time>
      </trkpt>
      <trkpt lat="43.67819" lon="2.32303">
        <ele>314</ele>
        <time>2018-06-09T15:02:23Z</time>
      </trkpt>
      <trkpt lat="43.67818" lon="2.32304">
        <ele>314</ele>
        <time>2018-06-09T15:02:24Z</time>
      </trkpt>
      <trkpt lat="43.67816" lon="2.3231">
        <ele>315</ele>
        <time>2018-06-09T15:02:29Z</time>
      </trkpt>
      <trkpt lat="43.67815" lon="2.32311">
        <ele>315</ele>
        <time>2018-06-09T15:02:30Z</time>
      </trkpt>
      <trkpt lat="43.67815" lon="2.32313">
        <ele>315</ele>
        <time>2018-06-09T15:02:31Z</time>
      </trkpt>
      <trkpt lat="43.67813" lon="2.32318">
        <ele>316</ele>
        <time>2018-06-09T15:02:35Z</time>
      </trkpt>
      <trkpt lat="43.67812" lon="2.32321">
        <ele>316</ele>
        <time>2018-06-09T15:02:37Z</time>
      </trkpt>
      <trkpt lat="43.67811" lon="2.32322">
        <ele>316</ele>
        <time>2018-06-09T15:02:38Z</time>
      </trkpt>
      <trkpt lat="43.67807" lon="2.32324">
        <ele>317</ele>
        <time>2018-06-09T15:02:41Z</time>
      </trkpt>
      <trkpt lat="43.67806" lon="2.32323">
        <ele>317</ele>
        <time>2018-06-09T15:02:42Z</time>
      </trkpt>
      <trkpt lat="43.67799" lon="2.32321">
        <ele>319</ele>
        <time>2018-06-09T15:02:47Z</time>
      </trkpt>
      <trkpt lat="43.67798" lon="2.3232">
        <ele>319</ele>
        <time>2018-06-09T15:02:49Z</time>
      </trkpt>
      <trkpt lat="43.67795" lon="2.32317">
        <ele>320</ele>
        <time>2018-06-09T15:02:52Z</time>
      </trkpt>
      <trkpt lat="43.67791" lon="2.32314">
        <ele>320</ele>
        <time>2018-06-09T15:02:56Z</time>
      </trkpt>
      <trkpt lat="43.67788" lon="2.3231">
        <ele>321</ele>
        <time>2018-06-09T15:02:59Z</time>
      </trkpt>
      <trkpt lat="43.67783" lon="2.32306">
        <ele>322</ele>
        <time>2018-06-09T15:03:04Z</time>
      </trkpt>
      <trkpt lat="43.67781" lon="2.32304">
        <ele>322</ele>
        <time>2018-06-09T15:03:06Z</time>
      </trkpt>
      <trkpt lat="43.67779" lon="2.32303">
        <ele>322</ele>
        <time>2018-06-09T15:03:08Z</time>
      </trkpt>
      <trkpt lat="43.67776" lon="2.32301">
        <ele>323</ele>
        <time>2018-06-09T15:03:11Z</time>
      </trkpt>
      <trkpt lat="43.67771" lon="2.32297">
        <ele>323</ele>
        <time>2018-06-09T15:03:15Z</time>
      </trkpt>
      <trkpt lat="43.67765" lon="2.32295">
        <ele>324</ele>
        <time>2018-06-09T15:03:19Z</time>
      </trkpt>
      <trkpt lat="43.67761" lon="2.32293">
        <ele>324</ele>
        <time>2018-06-09T15:03:22Z</time>
      </trkpt>
      <trkpt lat="43.67755" lon="2.32286">
        <ele>325</ele>
        <time>2018-06-09T15:03:27Z</time>
      </trkpt>
      <trkpt lat="43.67758" lon="2.32281">
        <ele>325</ele>
        <time>2018-06-09T15:03:31Z</time>
      </trkpt>
      <trkpt lat="43.67762" lon="2.32281">
        <ele>325</ele>
        <time>2018-06-09T15:03:33Z</time>
      </trkpt>
      <trkpt lat="43.67763" lon="2.32282">
        <ele>326</ele>
        <time>2018-06-09T15:03:34Z</time>
      </trkpt>
      <trkpt lat="43.67769" lon="2.32284">
        <ele>326</ele>
        <time>2018-06-09T15:03:38Z</time>
      </trkpt>
      <trkpt lat="43.6778" lon="2.32288">
        <ele>327</ele>
        <time>2018-06-09T15:03:45Z</time>
      </trkpt>
      <trkpt lat="43.67784" lon="2.32287">
        <ele>327</ele>
        <time>2018-06-09T15:03:47Z</time>
      </trkpt>
      <trkpt lat="43.67792" lon="2.32286">
        <ele>328</ele>
        <time>2018-06-09T15:03:52Z</time>
      </trkpt>
      <trkpt lat="43.67794" lon="2.32284">
        <ele>328</ele>
        <time>2018-06-09T15:03:54Z</time>
      </trkpt>
      <trkpt lat="43.67796" lon="2.32278">
        <ele>329</ele>
        <time>2018-06-09T15:03:57Z</time>
      </trkpt>
      <trkpt lat="43.67795" lon="2.32274">
        <ele>329</ele>
        <time>2018-06-09T15:03:59Z</time>
      </trkpt>
      <trkpt lat="43.67795" lon="2.32272">
        <ele>330</ele>
        <time>2018-06-09T15:04:00Z</time>
      </trkpt>
      <trkpt lat="43.67792" lon="2.32265">
        <ele>331</ele>
        <time>2018-06-09T15:04:05Z</time>
      </trkpt>
      <trkpt lat="43.6779" lon="2.32262">
        <ele>331</ele>
        <time>2018-06-09T15:04:07Z</time>
      </trkpt>
      <trkpt lat="43.67788" lon="2.3226">
        <ele>332</ele>
        <time>2018-06-09T15:04:09Z</time>
      </trkpt>
      <trkpt lat="43.67787" lon="2.32259">
        <ele>332</ele>
        <time>2018-06-09T15:04:10Z</time>
      </trkpt>
      <trkpt lat="43.67781" lon="2.32254">
        <ele>333</ele>
        <time>2018-06-09T15:04:15Z</time>
      </trkpt>
      <trkpt lat="43.67772" lon="2.32248">
        <ele>334</ele>
        <time>2018-06-09T15:04:23Z</time>
      </trkpt>
      <trkpt lat="43.67768" lon="2.32244">
        <ele>335</ele>
        <time>2018-06-09T15:04:27Z</time>
      </trkpt>
      <trkpt lat="43.67767" lon="2.32243">
        <ele>335</ele>
        <time>2018-06-09T15:04:28Z</time>
      </trkpt>
      <trkpt lat="43.67763" lon="2.32238">
        <ele>336</ele>
        <time>2018-06-09T15:04:34Z</time>
      </trkpt>
      <trkpt lat="43.67762" lon="2.32237">
        <ele>336</ele>
        <time>2018-06-09T15:04:35Z</time>
      </trkpt>
      <trkpt lat="43.67761" lon="2.32235">
        <ele>336</ele>
        <time>2018-06-09T15:04:37Z</time>
      </trkpt>
      <trkpt lat="43.67758" lon="2.3223">
        <ele>337</ele>
        <time>2018-06-09T15:04:41Z</time>
      </trkpt>
      <trkpt lat="43.67757" lon="2.32229">
        <ele>337</ele>
        <time>2018-06-09T15:04:42Z</time>
      </trkpt>
      <trkpt lat="43.67755" lon="2.32219">
        <ele>338</ele>
        <time>2018-06-09T15:04:48Z</time>
      </trkpt>
      <trkpt lat="43.67753" lon="2.32209">
        <ele>340</ele>
        <time>2018-06-09T15:04:56Z</time>
      </trkpt>
      <trkpt lat="43.6775" lon="2.32201">
        <ele>341</ele>
        <time>2018-06-09T15:05:02Z</time>
      </trkpt>
      <trkpt lat="43.67748" lon="2.32198">
        <ele>341</ele>
        <time>2018-06-09T15:05:05Z</time>
      </trkpt>
      <trkpt lat="43.67748" lon="2.3219">
        <ele>342</ele>
        <time>2018-06-09T15:05:09Z</time>
      </trkpt>
      <trkpt lat="43.67746" lon="2.32184">
        <ele>342</ele>
        <time>2018-06-09T15:05:13Z</time>
      </trkpt>
      <trkpt lat="43.67743" lon="2.32179">
        <ele>343</ele>
        <time>2018-06-09T15:05:16Z</time>
      </trkpt>
      <trkpt lat="43.67739" lon="2.32173">
        <ele>344</ele>
        <time>2018-06-09T15:05:21Z</time>
      </trkpt>
      <trkpt lat="43.67738" lon="2.32172">
        <ele>344</ele>
        <time>2018-06-09T15:05:22Z</time>
      </trkpt>
      <trkpt lat="43.6773" lon="2.32163">
        <ele>345</ele>
        <time>2018-06-09T15:05:29Z</time>
      </trkpt>
      <trkpt lat="43.67728" lon="2.32161">
        <ele>345</ele>
        <time>2018-06-09T15:05:31Z</time>
      </trkpt>
      <trkpt lat="43.67721" lon="2.32154">
        <ele>346</ele>
        <time>2018-06-09T15:05:37Z</time>
      </trkpt>
      <trkpt lat="43.67717" lon="2.32149">
        <ele>347</ele>
        <time>2018-06-09T15:05:41Z</time>
      </trkpt>
      <trkpt lat="43.67714" lon="2.32146">
        <ele>347</ele>
        <time>2018-06-09T15:05:44Z</time>
      </trkpt>
      <trkpt lat="43.6771" lon="2.32141">
        <ele>348</ele>
        <time>2018-06-09T15:05:48Z</time>
      </trkpt>
      <trkpt lat="43.67704" lon="2.32132">
        <ele>349</ele>
        <time>2018-06-09T15:05:54Z</time>
      </trkpt>
      <trkpt lat="43.67702" lon="2.32129">
        <ele>349</ele>
        <time>2018-06-09T15:05:56Z</time>
      </trkpt>
      <trkpt lat="43.67698" lon="2.32123">
        <ele>350</ele>
        <time>2018-06-09T15:06:01Z</time>
      </trkpt>
      <trkpt lat="43.67692" lon="2.3211">
        <ele>351</ele>
        <time>2018-06-09T15:06:07Z</time>
      </trkpt>
      <trkpt lat="43.6769" lon="2.32108">
        <ele>351</ele>
        <time>2018-06-09T15:06:08Z</time>
      </trkpt>
      <trkpt lat="43.67688" lon="2.32109">
        <ele>351</ele>
        <time>2018-06-09T15:06:10Z</time>
      </trkpt>
      <trkpt lat="43.67685" lon="2.32109">
        <ele>352</ele>
        <time>2018-06-09T15:06:12Z</time>
      </trkpt>
      <trkpt lat="43.67684" lon="2.32113">
        <ele>352</ele>
        <time>2018-06-09T15:06:14Z</time>
      </trkpt>
      <trkpt lat="43.67684" lon="2.32116">
        <ele>353</ele>
        <time>2018-06-09T15:06:16Z</time>
      </trkpt>
      <trkpt lat="43.67684" lon="2.32117">
        <ele>353</ele>
        <time>2018-06-09T15:06:17Z</time>
      </trkpt>
      <trkpt lat="43.67685" lon="2.32119">
        <ele>353</ele>
        <time>2018-06-09T15:06:18Z</time>
      </trkpt>
      <trkpt lat="43.67686" lon="2.32122">
        <ele>353</ele>
        <time>2018-06-09T15:06:20Z</time>
      </trkpt>
      <trkpt lat="43.67687" lon="2.32124">
        <ele>353</ele>
        <time>2018-06-09T15:06:22Z</time>
      </trkpt>
      <trkpt lat="43.67692" lon="2.32132">
        <ele>354</ele>
        <time>2018-06-09T15:06:28Z</time>
      </trkpt>
      <trkpt lat="43.67696" lon="2.32146">
        <ele>355</ele>
        <time>2018-06-09T15:06:35Z</time>
      </trkpt>
      <trkpt lat="43.67697" lon="2.32147">
        <ele>355</ele>
        <time>2018-06-09T15:06:36Z</time>
      </trkpt>
      <trkpt lat="43.67699" lon="2.32155">
        <ele>355</ele>
        <time>2018-06-09T15:06:41Z</time>
      </trkpt>
      <trkpt lat="43.67697" lon="2.32163">
        <ele>356</ele>
        <time>2018-06-09T15:06:45Z</time>
      </trkpt>
      <trkpt lat="43.67696" lon="2.32164">
        <ele>356</ele>
        <time>2018-06-09T15:06:46Z</time>
      </trkpt>
      <trkpt lat="43.67689" lon="2.32171">
        <ele>357</ele>
        <time>2018-06-09T15:06:52Z</time>
      </trkpt>
      <trkpt lat="43.67688" lon="2.32171">
        <ele>357</ele>
        <time>2018-06-09T15:06:53Z</time>
      </trkpt>
      <trkpt lat="43.67682" lon="2.32167">
        <ele>359</ele>
        <time>2018-06-09T15:06:58Z</time>
      </trkpt>
      <trkpt lat="43.67676" lon="2.32163">
        <ele>359</ele>
        <time>2018-06-09T15:07:03Z</time>
      </trkpt>
      <trkpt lat="43.6767" lon="2.3216">
        <ele>360</ele>
        <time>2018-06-09T15:07:08Z</time>
      </trkpt>
      <trkpt lat="43.67667" lon="2.32158">
        <ele>360</ele>
        <time>2018-06-09T15:07:10Z</time>
      </trkpt>
      <trkpt lat="43.67662" lon="2.32152">
        <ele>360</ele>
        <time>2018-06-09T15:07:13Z</time>
      </trkpt>
      <trkpt lat="43.67653" lon="2.32139">
        <ele>360</ele>
        <time>2018-06-09T15:07:19Z</time>
      </trkpt>
      <trkpt lat="43.67646" lon="2.32129">
        <ele>361</ele>
        <time>2018-06-09T15:07:24Z</time>
      </trkpt>
      <trkpt lat="43.67642" lon="2.32121">
        <ele>361</ele>
        <time>2018-06-09T15:07:27Z</time>
      </trkpt>
      <trkpt lat="43.67641" lon="2.32119">
        <ele>361</ele>
        <time>2018-06-09T15:07:28Z</time>
      </trkpt>
      <trkpt lat="43.67634" lon="2.32109">
        <ele>361</ele>
        <time>2018-06-09T15:07:33Z</time>
      </trkpt>
      <trkpt lat="43.67632" lon="2.32107">
        <ele>361</ele>
        <time>2018-06-09T15:07:34Z</time>
      </trkpt>
      <trkpt lat="43.67626" lon="2.32096">
        <ele>362</ele>
        <time>2018-06-09T15:07:38Z</time>
      </trkpt>
      <trkpt lat="43.67624" lon="2.32094">
        <ele>362</ele>
        <time>2018-06-09T15:07:39Z</time>
      </trkpt>
      <trkpt lat="43.6762" lon="2.32089">
        <ele>362</ele>
        <time>2018-06-09T15:07:42Z</time>
      </trkpt>
      <trkpt lat="43.6761" lon="2.32076">
        <ele>363</ele>
        <time>2018-06-09T15:07:48Z</time>
      </trkpt>
      <trkpt lat="43.67606" lon="2.32073">
        <ele>363</ele>
        <time>2018-06-09T15:07:51Z</time>
      </trkpt>
      <trkpt lat="43.67606" lon="2.32073">
        <ele>363</ele>
        <time>2018-06-09T15:07:52Z</time>
      </trkpt>
      <trkpt lat="43.67598" lon="2.32063">
        <ele>364</ele>
        <time>2018-06-09T15:07:58Z</time>
      </trkpt>
      <trkpt lat="43.67595" lon="2.32059">
        <ele>364</ele>
        <time>2018-06-09T15:08:00Z</time>
      </trkpt>
      <trkpt lat="43.67591" lon="2.32055">
        <ele>365</ele>
        <time>2018-06-09T15:08:03Z</time>
      </trkpt>
      <trkpt lat="43.67591" lon="2.32052">
        <ele>366</ele>
        <time>2018-06-09T15:08:04Z</time>
      </trkpt>
      <trkpt lat="43.67586" lon="2.32049">
        <ele>366</ele>
        <time>2018-06-09T15:08:07Z</time>
      </trkpt>
      <trkpt lat="43.67585" lon="2.32047">
        <ele>367</ele>
        <time>2018-06-09T15:08:08Z</time>
      </trkpt>
      <trkpt lat="43.67585" lon="2.32045">
        <ele>367</ele>
        <time>2018-06-09T15:08:09Z</time>
      </trkpt>
      <trkpt lat="43.67582" lon="2.32042">
        <ele>368</ele>
        <time>2018-06-09T15:08:12Z</time>
      </trkpt>
      <trkpt lat="43.6758" lon="2.3204">
        <ele>369</ele>
        <time>2018-06-09T15:08:14Z</time>
      </trkpt>
      <trkpt lat="43.67579" lon="2.32035">
        <ele>369</ele>
        <time>2018-06-09T15:08:16Z</time>
      </trkpt>
      <trkpt lat="43.67573" lon="2.32023">
        <ele>370</ele>
        <time>2018-06-09T15:08:21Z</time>
      </trkpt>
      <trkpt lat="43.6757" lon="2.32019">
        <ele>372</ele>
        <time>2018-06-09T15:08:24Z</time>
      </trkpt>
      <trkpt lat="43.67568" lon="2.32017">
        <ele>372</ele>
        <time>2018-06-09T15:08:26Z</time>
      </trkpt>
      <trkpt lat="43.67561" lon="2.3201">
        <ele>373</ele>
        <time>2018-06-09T15:08:31Z</time>
      </trkpt>
      <trkpt lat="43.67558" lon="2.32006">
        <ele>373</ele>
        <time>2018-06-09T15:08:33Z</time>
      </trkpt>
      <trkpt lat="43.67557" lon="2.32005">
        <ele>374</ele>
        <time>2018-06-09T15:08:34Z</time>
      </trkpt>
      <trkpt lat="43.67553" lon="2.32002">
        <ele>374</ele>
        <time>2018-06-09T15:08:37Z</time>
      </trkpt>
      <trkpt lat="43.6755" lon="2.31997">
        <ele>375</ele>
        <time>2018-06-09T15:08:41Z</time>
      </trkpt>
      <trkpt lat="43.67545" lon="2.31992">
        <ele>376</ele>
        <time>2018-06-09T15:08:46Z</time>
      </trkpt>
      <trkpt lat="43.67541" lon="2.31987">
        <ele>377</ele>
        <time>2018-06-09T15:08:49Z</time>
      </trkpt>
      <trkpt lat="43.67537" lon="2.31985">
        <ele>377</ele>
        <time>2018-06-09T15:08:51Z</time>
      </trkpt>
      <trkpt lat="43.67534" lon="2.31983">
        <ele>377</ele>
        <time>2018-06-09T15:08:53Z</time>
      </trkpt>
      <trkpt lat="43.67532" lon="2.3198">
        <ele>378</ele>
        <time>2018-06-09T15:08:55Z</time>
      </trkpt>
      <trkpt lat="43.67527" lon="2.31976">
        <ele>379</ele>
        <time>2018-06-09T15:08:59Z</time>
      </trkpt>
      <trkpt lat="43.67526" lon="2.31974">
        <ele>379</ele>
        <time>2018-06-09T15:09:00Z</time>
      </trkpt>
      <trkpt lat="43.67518" lon="2.31968">
        <ele>380</ele>
        <time>2018-06-09T15:09:07Z</time>
      </trkpt>
      <trkpt lat="43.67517" lon="2.31966">
        <ele>380</ele>
        <time>2018-06-09T15:09:09Z</time>
      </trkpt>
      <trkpt lat="43.67512" lon="2.31959">
        <ele>381</ele>
        <time>2018-06-09T15:09:14Z</time>
      </trkpt>
      <trkpt lat="43.6751" lon="2.31953">
        <ele>382</ele>
        <time>2018-06-09T15:09:17Z</time>
      </trkpt>
      <trkpt lat="43.67505" lon="2.31946">
        <ele>382</ele>
        <time>2018-06-09T15:09:21Z</time>
      </trkpt>
      <trkpt lat="43.67502" lon="2.31944">
        <ele>382</ele>
        <time>2018-06-09T15:09:23Z</time>
      </trkpt>
      <trkpt lat="43.67501" lon="2.31943">
        <ele>383</ele>
        <time>2018-06-09T15:09:24Z</time>
      </trkpt>
      <trkpt lat="43.67494" lon="2.31936">
        <ele>384</ele>
        <time>2018-06-09T15:09:31Z</time>
      </trkpt>
      <trkpt lat="43.67488" lon="2.31929">
        <ele>385</ele>
        <time>2018-06-09T15:09:35Z</time>
      </trkpt>
      <trkpt lat="43.67486" lon="2.31926">
        <ele>385</ele>
        <time>2018-06-09T15:09:37Z</time>
      </trkpt>
      <trkpt lat="43.67481" lon="2.3192">
        <ele>385</ele>
        <time>2018-06-09T15:09:41Z</time>
      </trkpt>
      <trkpt lat="43.67477" lon="2.31915">
        <ele>385</ele>
        <time>2018-06-09T15:09:44Z</time>
      </trkpt>
      <trkpt lat="43.67472" lon="2.3191">
        <ele>386</ele>
        <time>2018-06-09T15:09:48Z</time>
      </trkpt>
      <trkpt lat="43.67469" lon="2.31908">
        <ele>386</ele>
        <time>2018-06-09T15:09:50Z</time>
      </trkpt>
      <trkpt lat="43.67464" lon="2.31906">
        <ele>387</ele>
        <time>2018-06-09T15:09:53Z</time>
      </trkpt>
      <trkpt lat="43.67461" lon="2.31903">
        <ele>387</ele>
        <time>2018-06-09T15:09:56Z</time>
      </trkpt>
      <trkpt lat="43.6746" lon="2.31902">
        <ele>387</ele>
        <time>2018-06-09T15:09:57Z</time>
      </trkpt>
      <trkpt lat="43.67451" lon="2.319">
        <ele>387</ele>
        <time>2018-06-09T15:10:03Z</time>
      </trkpt>
      <trkpt lat="43.67449" lon="2.31899">
        <ele>387</ele>
        <time>2018-06-09T15:10:05Z</time>
      </trkpt>
      <trkpt lat="43.67444" lon="2.31897">
        <ele>387</ele>
        <time>2018-06-09T15:10:11Z</time>
      </trkpt>
      <trkpt lat="43.67444" lon="2.31897">
        <ele>387</ele>
        <time>2018-06-09T15:10:18Z</time>
      </trkpt>
      <trkpt lat="43.67444" lon="2.31897">
        <ele>387</ele>
        <time>2018-06-09T15:10:23Z</time>
      </trkpt>
      <trkpt lat="43.67444" lon="2.31896">
        <ele>387</ele>
        <time>2018-06-09T15:10:26Z</time>
      </trkpt>
      <trkpt lat="43.67444" lon="2.31896">
        <ele>387</ele>
        <time>2018-06-09T15:10:32Z</time>
      </trkpt>
      <trkpt lat="43.67444" lon="2.31896">
        <ele>387</ele>
        <time>2018-06-09T15:10:42Z</time>
      </trkpt>
      <trkpt lat="43.67444" lon="2.31896">
        <ele>387</ele>
        <time>2018-06-09T15:11:08Z</time>
      </trkpt>
      <trkpt lat="43.67444" lon="2.31895">
        <ele>387</ele>
        <time>2018-06-09T15:11:24Z</time>
      </trkpt>
      <trkpt lat="43.67444" lon="2.31895">
        <ele>387</ele>
        <time>2018-06-09T15:11:28Z</time>
      </trkpt>
      <trkpt lat="43.67444" lon="2.31894">
        <ele>387</ele>
        <time>2018-06-09T15:11:45Z</time>
      </trkpt>
      <trkpt lat="43.67443" lon="2.31893">
        <ele>387</ele>
        <time>2018-06-09T15:11:54Z</time>
      </trkpt>
      <trkpt lat="43.67444" lon="2.31894">
        <ele>387</ele>
        <time>2018-06-09T15:12:01Z</time>
      </trkpt>
      <trkpt lat="43.67444" lon="2.31895">
        <ele>387</ele>
        <time>2018-06-09T15:12:06Z</time>
      </trkpt>
      <trkpt lat="43.67444" lon="2.31895">
        <ele>387</ele>
        <time>2018-06-09T15:12:07Z</time>
      </trkpt>
      <trkpt lat="43.67444" lon="2.31896">
        <ele>387</ele>
        <time>2018-06-09T15:12:15Z</time>
      </trkpt>
      <trkpt lat="43.67444" lon="2.31896">
        <ele>387</ele>
        <time>2018-06-09T15:12:22Z</time>
      </trkpt>
      <trkpt lat="43.67444" lon="2.31896">
        <ele>387</ele>
        <time>2018-06-09T15:12:42Z</time>
      </trkpt>
      <trkpt lat="43.67444" lon="2.31896">
        <ele>387</ele>
        <time>2018-06-09T15:13:02Z</time>
      </trkpt>
      <trkpt lat="43.67444" lon="2.31896">
        <ele>387</ele>
        <time>2018-06-09T15:13:08Z</time>
      </trkpt>
      <trkpt lat="43.67444" lon="2.31896">
        <ele>387</ele>
        <time>2018-06-09T15:13:25Z</time>
      </trkpt>
      <trkpt lat="43.67444" lon="2.31896">
        <ele>388</ele>
        <time>2018-06-09T15:13:33Z</time>
      </trkpt>
      <trkpt lat="43.67442" lon="2.31896">
        <ele>387</ele>
        <time>2018-06-09T15:13:38Z</time>
      </trkpt>
      <trkpt lat="43.67441" lon="2.31896">
        <ele>387</ele>
        <time>2018-06-09T15:13:39Z</time>
      </trkpt>
      <trkpt lat="43.67431" lon="2.3189">
        <ele>386</ele>
        <time>2018-06-09T15:13:42Z</time>
      </trkpt>
      <trkpt lat="43.6742" lon="2.31885">
        <ele>384</ele>
        <time>2018-06-09T15:13:44Z</time>
      </trkpt>
      <trkpt lat="43.67415" lon="2.31883">
        <ele>384</ele>
        <time>2018-06-09T15:13:45Z</time>
      </trkpt>
      <trkpt lat="43.6741" lon="2.31881">
        <ele>384</ele>
        <time>2018-06-09T15:13:46Z</time>
      </trkpt>
      <trkpt lat="43.67405" lon="2.3188">
        <ele>383</ele>
        <time>2018-06-09T15:13:47Z</time>
      </trkpt>
      <trkpt lat="43.67396" lon="2.31879">
        <ele>382</ele>
        <time>2018-06-09T15:13:49Z</time>
      </trkpt>
      <trkpt lat="43.67392" lon="2.31878">
        <ele>381</ele>
        <time>2018-06-09T15:13:50Z</time>
      </trkpt>
      <trkpt lat="43.67388" lon="2.31878">
        <ele>381</ele>
        <time>2018-06-09T15:13:51Z</time>
      </trkpt>
      <trkpt lat="43.67383" lon="2.31877">
        <ele>380</ele>
        <time>2018-06-09T15:13:52Z</time>
      </trkpt>
      <trkpt lat="43.67371" lon="2.31876">
        <ele>381</ele>
        <time>2018-06-09T15:13:55Z</time>
      </trkpt>
      <trkpt lat="43.67366" lon="2.31878">
        <ele>382</ele>
        <time>2018-06-09T15:13:56Z</time>
      </trkpt>
      <trkpt lat="43.67363" lon="2.3188">
        <ele>381</ele>
        <time>2018-06-09T15:13:57Z</time>
      </trkpt>
      <trkpt lat="43.67359" lon="2.31882">
        <ele>379</ele>
        <time>2018-06-09T15:13:58Z</time>
      </trkpt>
      <trkpt lat="43.67355" lon="2.31884">
        <ele>379</ele>
        <time>2018-06-09T15:13:59Z</time>
      </trkpt>
      <trkpt lat="43.67348" lon="2.31894">
        <ele>379</ele>
        <time>2018-06-09T15:14:03Z</time>
      </trkpt>
      <trkpt lat="43.67348" lon="2.31893">
        <ele>379</ele>
        <time>2018-06-09T15:14:08Z</time>
      </trkpt>
      <trkpt lat="43.67348" lon="2.31893">
        <ele>379</ele>
        <time>2018-06-09T15:14:17Z</time>
      </trkpt>
      <trkpt lat="43.67348" lon="2.31893">
        <ele>379</ele>
        <time>2018-06-09T15:14:19Z</time>
      </trkpt>
      <trkpt lat="43.67352" lon="2.31888">
        <ele>379</ele>
        <time>2018-06-09T15:14:26Z</time>
      </trkpt>
      <trkpt lat="43.67364" lon="2.31881">
        <ele>380</ele>
        <time>2018-06-09T15:14:33Z</time>
      </trkpt>
      <trkpt lat="43.67366" lon="2.31881">
        <ele>380</ele>
        <time>2018-06-09T15:14:34Z</time>
      </trkpt>
      <trkpt lat="43.67369" lon="2.3188">
        <ele>380</ele>
        <time>2018-06-09T15:14:36Z</time>
      </trkpt>
      <trkpt lat="43.67375" lon="2.3188">
        <ele>381</ele>
        <time>2018-06-09T15:14:40Z</time>
      </trkpt>
      <trkpt lat="43.67384" lon="2.31883">
        <ele>382</ele>
        <time>2018-06-09T15:14:46Z</time>
      </trkpt>
      <trkpt lat="43.6739" lon="2.31884">
        <ele>382</ele>
        <time>2018-06-09T15:14:51Z</time>
      </trkpt>
      <trkpt lat="43.67393" lon="2.31884">
        <ele>383</ele>
        <time>2018-06-09T15:14:53Z</time>
      </trkpt>
      <trkpt lat="43.67399" lon="2.31885">
        <ele>383</ele>
        <time>2018-06-09T15:14:57Z</time>
      </trkpt>
      <trkpt lat="43.67404" lon="2.31884">
        <ele>383</ele>
        <time>2018-06-09T15:15:00Z</time>
      </trkpt>
      <trkpt lat="43.6741" lon="2.31885">
        <ele>383</ele>
        <time>2018-06-09T15:15:04Z</time>
      </trkpt>
      <trkpt lat="43.67417" lon="2.31887">
        <ele>384</ele>
        <time>2018-06-09T15:15:09Z</time>
      </trkpt>
      <trkpt lat="43.67419" lon="2.31888">
        <ele>384</ele>
        <time>2018-06-09T15:15:10Z</time>
      </trkpt>
      <trkpt lat="43.67422" lon="2.3189">
        <ele>384</ele>
        <time>2018-06-09T15:15:12Z</time>
      </trkpt>
      <trkpt lat="43.67428" lon="2.31893">
        <ele>385</ele>
        <time>2018-06-09T15:15:16Z</time>
      </trkpt>
      <trkpt lat="43.67429" lon="2.31894">
        <ele>386</ele>
        <time>2018-06-09T15:15:17Z</time>
      </trkpt>
      <trkpt lat="43.67435" lon="2.31896">
        <ele>386</ele>
        <time>2018-06-09T15:15:21Z</time>
      </trkpt>
      <trkpt lat="43.67441" lon="2.319">
        <ele>387</ele>
        <time>2018-06-09T15:15:25Z</time>
      </trkpt>
      <trkpt lat="43.67443" lon="2.31903">
        <ele>387</ele>
        <time>2018-06-09T15:15:27Z</time>
      </trkpt>
      <trkpt lat="43.67444" lon="2.31907">
        <ele>387</ele>
        <time>2018-06-09T15:15:29Z</time>
      </trkpt>
      <trkpt lat="43.67444" lon="2.31909">
        <ele>388</ele>
        <time>2018-06-09T15:15:30Z</time>
      </trkpt>
      <trkpt lat="43.67438" lon="2.31913">
        <ele>388</ele>
        <time>2018-06-09T15:15:34Z</time>
      </trkpt>
      <trkpt lat="43.67437" lon="2.31914">
        <ele>388</ele>
        <time>2018-06-09T15:15:35Z</time>
      </trkpt>
      <trkpt lat="43.67431" lon="2.31916">
        <ele>388</ele>
        <time>2018-06-09T15:15:38Z</time>
      </trkpt>
      <trkpt lat="43.6743" lon="2.31916">
        <ele>388</ele>
        <time>2018-06-09T15:15:39Z</time>
      </trkpt>
      <trkpt lat="43.67416" lon="2.31921">
        <ele>389</ele>
        <time>2018-06-09T15:15:46Z</time>
      </trkpt>
      <trkpt lat="43.67414" lon="2.31922">
        <ele>389</ele>
        <time>2018-06-09T15:15:47Z</time>
      </trkpt>
      <trkpt lat="43.67399" lon="2.31928">
        <ele>390</ele>
        <time>2018-06-09T15:15:54Z</time>
      </trkpt>
      <trkpt lat="43.67394" lon="2.31931">
        <ele>391</ele>
        <time>2018-06-09T15:15:56Z</time>
      </trkpt>
      <trkpt lat="43.67379" lon="2.31942">
        <ele>391</ele>
        <time>2018-06-09T15:16:03Z</time>
      </trkpt>
      <trkpt lat="43.67362" lon="2.31962">
        <ele>392</ele>
        <time>2018-06-09T15:16:11Z</time>
      </trkpt>
      <trkpt lat="43.67345" lon="2.31996">
        <ele>392</ele>
        <time>2018-06-09T15:16:21Z</time>
      </trkpt>
      <trkpt lat="43.67335" lon="2.32021">
        <ele>392</ele>
        <time>2018-06-09T15:16:27Z</time>
      </trkpt>
      <trkpt lat="43.67333" lon="2.32026">
        <ele>393</ele>
        <time>2018-06-09T15:16:28Z</time>
      </trkpt>
      <trkpt lat="43.67321" lon="2.32059">
        <ele>393</ele>
        <time>2018-06-09T15:16:35Z</time>
      </trkpt>
      <trkpt lat="43.67306" lon="2.32106">
        <ele>394</ele>
        <time>2018-06-09T15:16:44Z</time>
      </trkpt>
      <trkpt lat="43.67304" lon="2.32111">
        <ele>394</ele>
        <time>2018-06-09T15:16:45Z</time>
      </trkpt>
      <trkpt lat="43.67294" lon="2.32154">
        <ele>394</ele>
        <time>2018-06-09T15:16:53Z</time>
      </trkpt>
      <trkpt lat="43.67292" lon="2.32159">
        <ele>394</ele>
        <time>2018-06-09T15:16:54Z</time>
      </trkpt>
      <trkpt lat="43.67286" lon="2.32181">
        <ele>394</ele>
        <time>2018-06-09T15:16:58Z</time>
      </trkpt>
      <trkpt lat="43.67284" lon="2.32186">
        <ele>394</ele>
        <time>2018-06-09T15:16:59Z</time>
      </trkpt>
      <trkpt lat="43.67275" lon="2.3222">
        <ele>394</ele>
        <time>2018-06-09T15:17:05Z</time>
      </trkpt>
      <trkpt lat="43.67273" lon="2.32231">
        <ele>395</ele>
        <time>2018-06-09T15:17:07Z</time>
      </trkpt>
      <trkpt lat="43.67267" lon="2.32264">
        <ele>395</ele>
        <time>2018-06-09T15:17:13Z</time>
      </trkpt>
      <trkpt lat="43.67263" lon="2.32304">
        <ele>396</ele>
        <time>2018-06-09T15:17:20Z</time>
      </trkpt>
      <trkpt lat="43.6726" lon="2.32328">
        <ele>395</ele>
        <time>2018-06-09T15:17:24Z</time>
      </trkpt>
      <trkpt lat="43.67258" lon="2.32351">
        <ele>396</ele>
        <time>2018-06-09T15:17:28Z</time>
      </trkpt>
      <trkpt lat="43.67253" lon="2.32398">
        <ele>396</ele>
        <time>2018-06-09T15:17:36Z</time>
      </trkpt>
      <trkpt lat="43.67252" lon="2.32402">
        <ele>396</ele>
        <time>2018-06-09T15:17:37Z</time>
      </trkpt>
      <trkpt lat="43.67242" lon="2.32441">
        <ele>396</ele>
        <time>2018-06-09T15:17:44Z</time>
      </trkpt>
      <trkpt lat="43.67224" lon="2.32482">
        <ele>397</ele>
        <time>2018-06-09T15:17:52Z</time>
      </trkpt>
      <trkpt lat="43.67216" lon="2.32495">
        <ele>398</ele>
        <time>2018-06-09T15:17:55Z</time>
      </trkpt>
      <trkpt lat="43.67212" lon="2.32499">
        <ele>398</ele>
        <time>2018-06-09T15:17:56Z</time>
      </trkpt>
      <trkpt lat="43.67203" lon="2.3251">
        <ele>398</ele>
        <time>2018-06-09T15:17:59Z</time>
      </trkpt>
      <trkpt lat="43.672" lon="2.32514">
        <ele>398</ele>
        <time>2018-06-09T15:18:00Z</time>
      </trkpt>
      <trkpt lat="43.67198" lon="2.32517">
        <ele>399</ele>
        <time>2018-06-09T15:18:01Z</time>
      </trkpt>
      <trkpt lat="43.67175" lon="2.32539">
        <ele>400</ele>
        <time>2018-06-09T15:18:08Z</time>
      </trkpt>
      <trkpt lat="43.6716" lon="2.32553">
        <ele>401</ele>
        <time>2018-06-09T15:18:13Z</time>
      </trkpt>
      <trkpt lat="43.6715" lon="2.32561">
        <ele>401</ele>
        <time>2018-06-09T15:18:16Z</time>
      </trkpt>
      <trkpt lat="43.67137" lon="2.32573">
        <ele>402</ele>
        <time>2018-06-09T15:18:20Z</time>
      </trkpt>
      <trkpt lat="43.67123" lon="2.32588">
        <ele>403</ele>
        <time>2018-06-09T15:18:25Z</time>
      </trkpt>
      <trkpt lat="43.671" lon="2.32616">
        <ele>403</ele>
        <time>2018-06-09T15:18:33Z</time>
      </trkpt>
      <trkpt lat="43.67097" lon="2.3262">
        <ele>403</ele>
        <time>2018-06-09T15:18:34Z</time>
      </trkpt>
      <trkpt lat="43.67076" lon="2.32649">
        <ele>404</ele>
        <time>2018-06-09T15:18:42Z</time>
      </trkpt>
      <trkpt lat="43.67072" lon="2.32657">
        <ele>404</ele>
        <time>2018-06-09T15:18:44Z</time>
      </trkpt>
      <trkpt lat="43.67055" lon="2.32689">
        <ele>405</ele>
        <time>2018-06-09T15:18:52Z</time>
      </trkpt>
      <trkpt lat="43.67053" lon="2.32693">
        <ele>405</ele>
        <time>2018-06-09T15:18:53Z</time>
      </trkpt>
      <trkpt lat="43.67038" lon="2.32727">
        <ele>406</ele>
        <time>2018-06-09T15:19:01Z</time>
      </trkpt>
      <trkpt lat="43.67026" lon="2.3274">
        <ele>407</ele>
        <time>2018-06-09T15:19:06Z</time>
      </trkpt>
      <trkpt lat="43.67022" lon="2.32743">
        <ele>408</ele>
        <time>2018-06-09T15:19:08Z</time>
      </trkpt>
      <trkpt lat="43.67016" lon="2.32749">
        <ele>408</ele>
        <time>2018-06-09T15:19:12Z</time>
      </trkpt>
      <trkpt lat="43.67009" lon="2.32768">
        <ele>407</ele>
        <time>2018-06-09T15:19:16Z</time>
      </trkpt>
      <trkpt lat="43.67007" lon="2.32774">
        <ele>406</ele>
        <time>2018-06-09T15:19:17Z</time>
      </trkpt>
      <trkpt lat="43.67" lon="2.32789">
        <ele>404</ele>
        <time>2018-06-09T15:19:19Z</time>
      </trkpt>
      <trkpt lat="43.66998" lon="2.32798">
        <ele>403</ele>
        <time>2018-06-09T15:19:20Z</time>
      </trkpt>
      <trkpt lat="43.66995" lon="2.32808">
        <ele>403</ele>
        <time>2018-06-09T15:19:21Z</time>
      </trkpt>
      <trkpt lat="43.66991" lon="2.32827">
        <ele>401</ele>
        <time>2018-06-09T15:19:23Z</time>
      </trkpt>
      <trkpt lat="43.66987" lon="2.32835">
        <ele>401</ele>
        <time>2018-06-09T15:19:24Z</time>
      </trkpt>
      <trkpt lat="43.66982" lon="2.32849">
        <ele>401</ele>
        <time>2018-06-09T15:19:27Z</time>
      </trkpt>
      <trkpt lat="43.66979" lon="2.32854">
        <ele>400</ele>
        <time>2018-06-09T15:19:29Z</time>
      </trkpt>
      <trkpt lat="43.66976" lon="2.32859">
        <ele>400</ele>
        <time>2018-06-09T15:19:31Z</time>
      </trkpt>
      <trkpt lat="43.6697" lon="2.32878">
        <ele>400</ele>
        <time>2018-06-09T15:19:36Z</time>
      </trkpt>
      <trkpt lat="43.66965" lon="2.32888">
        <ele>399</ele>
        <time>2018-06-09T15:19:38Z</time>
      </trkpt>
      <trkpt lat="43.66957" lon="2.32902">
        <ele>399</ele>
        <time>2018-06-09T15:19:41Z</time>
      </trkpt>
      <trkpt lat="43.66946" lon="2.32924">
        <ele>398</ele>
        <time>2018-06-09T15:19:45Z</time>
      </trkpt>
      <trkpt lat="43.66942" lon="2.3293">
        <ele>397</ele>
        <time>2018-06-09T15:19:46Z</time>
      </trkpt>
      <trkpt lat="43.66939" lon="2.32935">
        <ele>396</ele>
        <time>2018-06-09T15:19:47Z</time>
      </trkpt>
      <trkpt lat="43.66937" lon="2.32942">
        <ele>395</ele>
        <time>2018-06-09T15:19:48Z</time>
      </trkpt>
      <trkpt lat="43.66934" lon="2.32948">
        <ele>394</ele>
        <time>2018-06-09T15:19:49Z</time>
      </trkpt>
      <trkpt lat="43.66933" lon="2.32956">
        <ele>393</ele>
        <time>2018-06-09T15:19:50Z</time>
      </trkpt>
      <trkpt lat="43.6693" lon="2.32966">
        <ele>392</ele>
        <time>2018-06-09T15:19:51Z</time>
      </trkpt>
      <trkpt lat="43.66927" lon="2.32975">
        <ele>391</ele>
        <time>2018-06-09T15:19:52Z</time>
      </trkpt>
      <trkpt lat="43.66923" lon="2.32981">
        <ele>391</ele>
        <time>2018-06-09T15:19:53Z</time>
      </trkpt>
      <trkpt lat="43.66919" lon="2.32989">
        <ele>391</ele>
        <time>2018-06-09T15:19:54Z</time>
      </trkpt>
      <trkpt lat="43.66914" lon="2.32995">
        <ele>391</ele>
        <time>2018-06-09T15:19:55Z</time>
      </trkpt>
      <trkpt lat="43.66909" lon="2.33001">
        <ele>390</ele>
        <time>2018-06-09T15:19:56Z</time>
      </trkpt>
      <trkpt lat="43.66899" lon="2.33014">
        <ele>389</ele>
        <time>2018-06-09T15:19:58Z</time>
      </trkpt>
      <trkpt lat="43.66893" lon="2.3302">
        <ele>389</ele>
        <time>2018-06-09T15:19:59Z</time>
      </trkpt>
      <trkpt lat="43.66888" lon="2.33027">
        <ele>388</ele>
        <time>2018-06-09T15:20:00Z</time>
      </trkpt>
      <trkpt lat="43.66883" lon="2.33033">
        <ele>387</ele>
        <time>2018-06-09T15:20:01Z</time>
      </trkpt>
      <trkpt lat="43.66878" lon="2.33038">
        <ele>387</ele>
        <time>2018-06-09T15:20:02Z</time>
      </trkpt>
      <trkpt lat="43.66867" lon="2.33055">
        <ele>386</ele>
        <time>2018-06-09T15:20:05Z</time>
      </trkpt>
      <trkpt lat="43.66863" lon="2.33061">
        <ele>385</ele>
        <time>2018-06-09T15:20:06Z</time>
      </trkpt>
      <trkpt lat="43.66861" lon="2.33069">
        <ele>385</ele>
        <time>2018-06-09T15:20:07Z</time>
      </trkpt>
      <trkpt lat="43.66858" lon="2.33078">
        <ele>384</ele>
        <time>2018-06-09T15:20:08Z</time>
      </trkpt>
      <trkpt lat="43.66855" lon="2.33085">
        <ele>383</ele>
        <time>2018-06-09T15:20:09Z</time>
      </trkpt>
      <trkpt lat="43.6685" lon="2.33094">
        <ele>381</ele>
        <time>2018-06-09T15:20:10Z</time>
      </trkpt>
      <trkpt lat="43.66849" lon="2.33104">
        <ele>380</ele>
        <time>2018-06-09T15:20:11Z</time>
      </trkpt>
      <trkpt lat="43.66849" lon="2.33115">
        <ele>379</ele>
        <time>2018-06-09T15:20:12Z</time>
      </trkpt>
      <trkpt lat="43.66851" lon="2.33125">
        <ele>377</ele>
        <time>2018-06-09T15:20:13Z</time>
      </trkpt>
      <trkpt lat="43.66851" lon="2.33137">
        <ele>376</ele>
        <time>2018-06-09T15:20:14Z</time>
      </trkpt>
      <trkpt lat="43.66854" lon="2.33159">
        <ele>375</ele>
        <time>2018-06-09T15:20:16Z</time>
      </trkpt>
      <trkpt lat="43.66851" lon="2.33169">
        <ele>375</ele>
        <time>2018-06-09T15:20:17Z</time>
      </trkpt>
      <trkpt lat="43.66846" lon="2.3319">
        <ele>374</ele>
        <time>2018-06-09T15:20:20Z</time>
      </trkpt>
      <trkpt lat="43.6684" lon="2.33197">
        <ele>374</ele>
        <time>2018-06-09T15:20:22Z</time>
      </trkpt>
      <trkpt lat="43.66837" lon="2.33199">
        <ele>374</ele>
        <time>2018-06-09T15:20:23Z</time>
      </trkpt>
      <trkpt lat="43.66828" lon="2.33206">
        <ele>375</ele>
        <time>2018-06-09T15:20:28Z</time>
      </trkpt>
      <trkpt lat="43.66824" lon="2.33207">
        <ele>376</ele>
        <time>2018-06-09T15:20:30Z</time>
      </trkpt>
      <trkpt lat="43.6682" lon="2.33206">
        <ele>376</ele>
        <time>2018-06-09T15:20:33Z</time>
      </trkpt>
      <trkpt lat="43.66818" lon="2.33206">
        <ele>377</ele>
        <time>2018-06-09T15:20:35Z</time>
      </trkpt>
      <trkpt lat="43.66814" lon="2.33205">
        <ele>377</ele>
        <time>2018-06-09T15:20:38Z</time>
      </trkpt>
      <trkpt lat="43.6681" lon="2.33205">
        <ele>378</ele>
        <time>2018-06-09T15:20:42Z</time>
      </trkpt>
      <trkpt lat="43.66809" lon="2.33204">
        <ele>378</ele>
        <time>2018-06-09T15:20:43Z</time>
      </trkpt>
      <trkpt lat="43.66807" lon="2.33202">
        <ele>379</ele>
        <time>2018-06-09T15:20:48Z</time>
      </trkpt>
      <trkpt lat="43.66805" lon="2.33201">
        <ele>380</ele>
        <time>2018-06-09T15:20:50Z</time>
      </trkpt>
      <trkpt lat="43.66804" lon="2.332">
        <ele>380</ele>
        <time>2018-06-09T15:20:51Z</time>
      </trkpt>
      <trkpt lat="43.66802" lon="2.33198">
        <ele>380</ele>
        <time>2018-06-09T15:20:53Z</time>
      </trkpt>
      <trkpt lat="43.66799" lon="2.33196">
        <ele>381</ele>
        <time>2018-06-09T15:20:55Z</time>
      </trkpt>
      <trkpt lat="43.66796" lon="2.33192">
        <ele>381</ele>
        <time>2018-06-09T15:20:58Z</time>
      </trkpt>
      <trkpt lat="43.66794" lon="2.33189">
        <ele>382</ele>
        <time>2018-06-09T15:21:00Z</time>
      </trkpt>
      <trkpt lat="43.66793" lon="2.33186">
        <ele>383</ele>
        <time>2018-06-09T15:21:02Z</time>
      </trkpt>
      <trkpt lat="43.66789" lon="2.33182">
        <ele>384</ele>
        <time>2018-06-09T15:21:05Z</time>
      </trkpt>
      <trkpt lat="43.66787" lon="2.33178">
        <ele>384</ele>
        <time>2018-06-09T15:21:07Z</time>
      </trkpt>
      <trkpt lat="43.66785" lon="2.33175">
        <ele>385</ele>
        <time>2018-06-09T15:21:09Z</time>
      </trkpt>
      <trkpt lat="43.66782" lon="2.3317">
        <ele>385</ele>
        <time>2018-06-09T15:21:12Z</time>
      </trkpt>
      <trkpt lat="43.66779" lon="2.33165">
        <ele>386</ele>
        <time>2018-06-09T15:21:15Z</time>
      </trkpt>
      <trkpt lat="43.66774" lon="2.33162">
        <ele>386</ele>
        <time>2018-06-09T15:21:18Z</time>
      </trkpt>
      <trkpt lat="43.66768" lon="2.33155">
        <ele>388</ele>
        <time>2018-06-09T15:21:23Z</time>
      </trkpt>
      <trkpt lat="43.66768" lon="2.33153">
        <ele>388</ele>
        <time>2018-06-09T15:21:24Z</time>
      </trkpt>
      <trkpt lat="43.66764" lon="2.33146">
        <ele>389</ele>
        <time>2018-06-09T15:21:28Z</time>
      </trkpt>
      <trkpt lat="43.66761" lon="2.33143">
        <ele>389</ele>
        <time>2018-06-09T15:21:30Z</time>
      </trkpt>
      <trkpt lat="43.66761" lon="2.33142">
        <ele>389</ele>
        <time>2018-06-09T15:21:31Z</time>
      </trkpt>
      <trkpt lat="43.66759" lon="2.33138">
        <ele>390</ele>
        <time>2018-06-09T15:21:33Z</time>
      </trkpt>
      <trkpt lat="43.66755" lon="2.33134">
        <ele>390</ele>
        <time>2018-06-09T15:21:36Z</time>
      </trkpt>
      <trkpt lat="43.66753" lon="2.3313">
        <ele>391</ele>
        <time>2018-06-09T15:21:39Z</time>
      </trkpt>
      <trkpt lat="43.6675" lon="2.33123">
        <ele>392</ele>
        <time>2018-06-09T15:21:44Z</time>
      </trkpt>
      <trkpt lat="43.66746" lon="2.33114">
        <ele>394</ele>
        <time>2018-06-09T15:21:49Z</time>
      </trkpt>
      <trkpt lat="43.66743" lon="2.33107">
        <ele>394</ele>
        <time>2018-06-09T15:21:53Z</time>
      </trkpt>
      <trkpt lat="43.66742" lon="2.33104">
        <ele>395</ele>
        <time>2018-06-09T15:21:55Z</time>
      </trkpt>
      <trkpt lat="43.66739" lon="2.33092">
        <ele>396</ele>
        <time>2018-06-09T15:22:02Z</time>
      </trkpt>
      <trkpt lat="43.66736" lon="2.33083">
        <ele>397</ele>
        <time>2018-06-09T15:22:07Z</time>
      </trkpt>
      <trkpt lat="43.66735" lon="2.3308">
        <ele>397</ele>
        <time>2018-06-09T15:22:09Z</time>
      </trkpt>
      <trkpt lat="43.66733" lon="2.33078">
        <ele>398</ele>
        <time>2018-06-09T15:22:11Z</time>
      </trkpt>
      <trkpt lat="43.66732" lon="2.33077">
        <ele>398</ele>
        <time>2018-06-09T15:22:12Z</time>
      </trkpt>
      <trkpt lat="43.66729" lon="2.33075">
        <ele>398</ele>
        <time>2018-06-09T15:22:15Z</time>
      </trkpt>
      <trkpt lat="43.66727" lon="2.33076">
        <ele>399</ele>
        <time>2018-06-09T15:22:17Z</time>
      </trkpt>
      <trkpt lat="43.66726" lon="2.33077">
        <ele>399</ele>
        <time>2018-06-09T15:22:18Z</time>
      </trkpt>
      <trkpt lat="43.66725" lon="2.33082">
        <ele>400</ele>
        <time>2018-06-09T15:22:21Z</time>
      </trkpt>
      <trkpt lat="43.66724" lon="2.33084">
        <ele>400</ele>
        <time>2018-06-09T15:22:22Z</time>
      </trkpt>
      <trkpt lat="43.66724" lon="2.33085">
        <ele>400</ele>
        <time>2018-06-09T15:22:23Z</time>
      </trkpt>
      <trkpt lat="43.6672" lon="2.33095">
        <ele>400</ele>
        <time>2018-06-09T15:22:28Z</time>
      </trkpt>
      <trkpt lat="43.66715" lon="2.3311">
        <ele>401</ele>
        <time>2018-06-09T15:22:35Z</time>
      </trkpt>
      <trkpt lat="43.66712" lon="2.33129">
        <ele>401</ele>
        <time>2018-06-09T15:22:42Z</time>
      </trkpt>
      <trkpt lat="43.66711" lon="2.33131">
        <ele>402</ele>
        <time>2018-06-09T15:22:43Z</time>
      </trkpt>
      <trkpt lat="43.66708" lon="2.33152">
        <ele>402</ele>
        <time>2018-06-09T15:22:50Z</time>
      </trkpt>
      <trkpt lat="43.66706" lon="2.33178">
        <ele>402</ele>
        <time>2018-06-09T15:22:57Z</time>
      </trkpt>
      <trkpt lat="43.66703" lon="2.33193">
        <ele>401</ele>
        <time>2018-06-09T15:23:01Z</time>
      </trkpt>
      <trkpt lat="43.66702" lon="2.33203">
        <ele>402</ele>
        <time>2018-06-09T15:23:05Z</time>
      </trkpt>
      <trkpt lat="43.66702" lon="2.33206">
        <ele>402</ele>
        <time>2018-06-09T15:23:06Z</time>
      </trkpt>
      <trkpt lat="43.667" lon="2.33218">
        <ele>403</ele>
        <time>2018-06-09T15:23:10Z</time>
      </trkpt>
      <trkpt lat="43.667" lon="2.33246">
        <ele>404</ele>
        <time>2018-06-09T15:23:17Z</time>
      </trkpt>
      <trkpt lat="43.66702" lon="2.33273">
        <ele>404</ele>
        <time>2018-06-09T15:23:23Z</time>
      </trkpt>
      <trkpt lat="43.66702" lon="2.33276">
        <ele>404</ele>
        <time>2018-06-09T15:23:24Z</time>
      </trkpt>
      <trkpt lat="43.66703" lon="2.33285">
        <ele>406</ele>
        <time>2018-06-09T15:23:28Z</time>
      </trkpt>
      <trkpt lat="43.66703" lon="2.333">
        <ele>406</ele>
        <time>2018-06-09T15:23:33Z</time>
      </trkpt>
      <trkpt lat="43.66703" lon="2.33307">
        <ele>407</ele>
        <time>2018-06-09T15:23:35Z</time>
      </trkpt>
      <trkpt lat="43.66703" lon="2.33319">
        <ele>408</ele>
        <time>2018-06-09T15:23:39Z</time>
      </trkpt>
      <trkpt lat="43.66702" lon="2.33323">
        <ele>408</ele>
        <time>2018-06-09T15:23:40Z</time>
      </trkpt>
      <trkpt lat="43.66702" lon="2.33343">
        <ele>409</ele>
        <time>2018-06-09T15:23:45Z</time>
      </trkpt>
      <trkpt lat="43.66702" lon="2.33352">
        <ele>409</ele>
        <time>2018-06-09T15:23:47Z</time>
      </trkpt>
      <trkpt lat="43.66701" lon="2.33364">
        <ele>410</ele>
        <time>2018-06-09T15:23:50Z</time>
      </trkpt>
      <trkpt lat="43.66699" lon="2.33379">
        <ele>411</ele>
        <time>2018-06-09T15:23:54Z</time>
      </trkpt>
      <trkpt lat="43.66697" lon="2.33386">
        <ele>411</ele>
        <time>2018-06-09T15:23:56Z</time>
      </trkpt>
      <trkpt lat="43.66695" lon="2.33405">
        <ele>411</ele>
        <time>2018-06-09T15:24:02Z</time>
      </trkpt>
      <trkpt lat="43.66697" lon="2.33419">
        <ele>412</ele>
        <time>2018-06-09T15:24:07Z</time>
      </trkpt>
      <trkpt lat="43.66696" lon="2.33442">
        <ele>413</ele>
        <time>2018-06-09T15:24:14Z</time>
      </trkpt>
      <trkpt lat="43.66696" lon="2.33444">
        <ele>413</ele>
        <time>2018-06-09T15:24:15Z</time>
      </trkpt>
      <trkpt lat="43.66696" lon="2.33457">
        <ele>415</ele>
        <time>2018-06-09T15:24:20Z</time>
      </trkpt>
      <trkpt lat="43.66696" lon="2.33461">
        <ele>415</ele>
        <time>2018-06-09T15:24:21Z</time>
      </trkpt>
      <trkpt lat="43.66695" lon="2.33467">
        <ele>415</ele>
        <time>2018-06-09T15:24:23Z</time>
      </trkpt>
      <trkpt lat="43.66694" lon="2.33478">
        <ele>416</ele>
        <time>2018-06-09T15:24:26Z</time>
      </trkpt>
      <trkpt lat="43.66693" lon="2.33482">
        <ele>416</ele>
        <time>2018-06-09T15:24:27Z</time>
      </trkpt>
      <trkpt lat="43.66692" lon="2.33498">
        <ele>417</ele>
        <time>2018-06-09T15:24:31Z</time>
      </trkpt>
      <trkpt lat="43.66689" lon="2.33511">
        <ele>418</ele>
        <time>2018-06-09T15:24:35Z</time>
      </trkpt>
      <trkpt lat="43.66688" lon="2.33515">
        <ele>418</ele>
        <time>2018-06-09T15:24:36Z</time>
      </trkpt>
      <trkpt lat="43.66686" lon="2.3353">
        <ele>419</ele>
        <time>2018-06-09T15:24:41Z</time>
      </trkpt>
      <trkpt lat="43.66685" lon="2.33536">
        <ele>420</ele>
        <time>2018-06-09T15:24:43Z</time>
      </trkpt>
      <trkpt lat="43.66683" lon="2.33547">
        <ele>420</ele>
        <time>2018-06-09T15:24:47Z</time>
      </trkpt>
      <trkpt lat="43.66682" lon="2.33558">
        <ele>422</ele>
        <time>2018-06-09T15:24:51Z</time>
      </trkpt>
      <trkpt lat="43.66682" lon="2.33564">
        <ele>422</ele>
        <time>2018-06-09T15:24:53Z</time>
      </trkpt>
      <trkpt lat="43.6668" lon="2.33577">
        <ele>423</ele>
        <time>2018-06-09T15:24:58Z</time>
      </trkpt>
      <trkpt lat="43.66679" lon="2.33584">
        <ele>424</ele>
        <time>2018-06-09T15:25:01Z</time>
      </trkpt>
      <trkpt lat="43.66678" lon="2.33587">
        <ele>424</ele>
        <time>2018-06-09T15:25:02Z</time>
      </trkpt>
      <trkpt lat="43.66677" lon="2.33596">
        <ele>425</ele>
        <time>2018-06-09T15:25:06Z</time>
      </trkpt>
      <trkpt lat="43.66674" lon="2.33607">
        <ele>426</ele>
        <time>2018-06-09T15:25:11Z</time>
      </trkpt>
      <trkpt lat="43.66672" lon="2.33618">
        <ele>427</ele>
        <time>2018-06-09T15:25:16Z</time>
      </trkpt>
      <trkpt lat="43.66671" lon="2.33622">
        <ele>427</ele>
        <time>2018-06-09T15:25:18Z</time>
      </trkpt>
      <trkpt lat="43.6667" lon="2.33629">
        <ele>428</ele>
        <time>2018-06-09T15:25:21Z</time>
      </trkpt>
      <trkpt lat="43.66667" lon="2.33643">
        <ele>429</ele>
        <time>2018-06-09T15:25:27Z</time>
      </trkpt>
      <trkpt lat="43.66664" lon="2.33658">
        <ele>430</ele>
        <time>2018-06-09T15:25:33Z</time>
      </trkpt>
      <trkpt lat="43.66664" lon="2.33661">
        <ele>431</ele>
        <time>2018-06-09T15:25:34Z</time>
      </trkpt>
      <trkpt lat="43.66662" lon="2.33671">
        <ele>432</ele>
        <time>2018-06-09T15:25:38Z</time>
      </trkpt>
      <trkpt lat="43.66662" lon="2.33675">
        <ele>432</ele>
        <time>2018-06-09T15:25:40Z</time>
      </trkpt>
      <trkpt lat="43.66663" lon="2.3368">
        <ele>433</ele>
        <time>2018-06-09T15:25:43Z</time>
      </trkpt>
      <trkpt lat="43.66663" lon="2.33691">
        <ele>433</ele>
        <time>2018-06-09T15:25:48Z</time>
      </trkpt>
      <trkpt lat="43.66663" lon="2.33693">
        <ele>434</ele>
        <time>2018-06-09T15:25:49Z</time>
      </trkpt>
      <trkpt lat="43.66661" lon="2.33705">
        <ele>435</ele>
        <time>2018-06-09T15:25:54Z</time>
      </trkpt>
      <trkpt lat="43.66661" lon="2.33713">
        <ele>435</ele>
        <time>2018-06-09T15:25:57Z</time>
      </trkpt>
      <trkpt lat="43.66658" lon="2.3373">
        <ele>436</ele>
        <time>2018-06-09T15:26:03Z</time>
      </trkpt>
      <trkpt lat="43.66658" lon="2.33732">
        <ele>436</ele>
        <time>2018-06-09T15:26:04Z</time>
      </trkpt>
      <trkpt lat="43.66657" lon="2.33739">
        <ele>437</ele>
        <time>2018-06-09T15:26:07Z</time>
      </trkpt>
      <trkpt lat="43.66655" lon="2.33746">
        <ele>438</ele>
        <time>2018-06-09T15:26:10Z</time>
      </trkpt>
      <trkpt lat="43.66653" lon="2.33754">
        <ele>438</ele>
        <time>2018-06-09T15:26:13Z</time>
      </trkpt>
      <trkpt lat="43.6665" lon="2.33767">
        <ele>439</ele>
        <time>2018-06-09T15:26:18Z</time>
      </trkpt>
      <trkpt lat="43.66649" lon="2.33772">
        <ele>439</ele>
        <time>2018-06-09T15:26:20Z</time>
      </trkpt>
      <trkpt lat="43.66646" lon="2.33784">
        <ele>440</ele>
        <time>2018-06-09T15:26:25Z</time>
      </trkpt>
      <trkpt lat="43.66643" lon="2.33794">
        <ele>441</ele>
        <time>2018-06-09T15:26:29Z</time>
      </trkpt>
      <trkpt lat="43.66643" lon="2.33796">
        <ele>441</ele>
        <time>2018-06-09T15:26:30Z</time>
      </trkpt>
      <trkpt lat="43.66639" lon="2.3381">
        <ele>442</ele>
        <time>2018-06-09T15:26:36Z</time>
      </trkpt>
      <trkpt lat="43.66638" lon="2.33816">
        <ele>443</ele>
        <time>2018-06-09T15:26:39Z</time>
      </trkpt>
      <trkpt lat="43.66637" lon="2.33821">
        <ele>443</ele>
        <time>2018-06-09T15:26:41Z</time>
      </trkpt>
      <trkpt lat="43.66635" lon="2.3383">
        <ele>444</ele>
        <time>2018-06-09T15:26:45Z</time>
      </trkpt>
      <trkpt lat="43.66634" lon="2.33833">
        <ele>444</ele>
        <time>2018-06-09T15:26:46Z</time>
      </trkpt>
      <trkpt lat="43.66632" lon="2.33845">
        <ele>445</ele>
        <time>2018-06-09T15:26:51Z</time>
      </trkpt>
      <trkpt lat="43.66631" lon="2.33848">
        <ele>445</ele>
        <time>2018-06-09T15:26:52Z</time>
      </trkpt>
      <trkpt lat="43.6663" lon="2.33857">
        <ele>446</ele>
        <time>2018-06-09T15:26:55Z</time>
      </trkpt>
      <trkpt lat="43.66626" lon="2.33874">
        <ele>446</ele>
        <time>2018-06-09T15:27:01Z</time>
      </trkpt>
      <trkpt lat="43.66624" lon="2.33887">
        <ele>446</ele>
        <time>2018-06-09T15:27:05Z</time>
      </trkpt>
      <trkpt lat="43.6662" lon="2.33903">
        <ele>447</ele>
        <time>2018-06-09T15:27:10Z</time>
      </trkpt>
      <trkpt lat="43.66618" lon="2.33917">
        <ele>447</ele>
        <time>2018-06-09T15:27:14Z</time>
      </trkpt>
      <trkpt lat="43.66614" lon="2.33933">
        <ele>448</ele>
        <time>2018-06-09T15:27:19Z</time>
      </trkpt>
      <trkpt lat="43.66614" lon="2.33936">
        <ele>448</ele>
        <time>2018-06-09T15:27:20Z</time>
      </trkpt>
      <trkpt lat="43.66609" lon="2.33956">
        <ele>449</ele>
        <time>2018-06-09T15:27:26Z</time>
      </trkpt>
      <trkpt lat="43.66608" lon="2.33959">
        <ele>450</ele>
        <time>2018-06-09T15:27:27Z</time>
      </trkpt>
      <trkpt lat="43.66605" lon="2.33976">
        <ele>451</ele>
        <time>2018-06-09T15:27:32Z</time>
      </trkpt>
      <trkpt lat="43.66602" lon="2.3399">
        <ele>451</ele>
        <time>2018-06-09T15:27:36Z</time>
      </trkpt>
      <trkpt lat="43.666" lon="2.33997">
        <ele>452</ele>
        <time>2018-06-09T15:27:38Z</time>
      </trkpt>
      <trkpt lat="43.66595" lon="2.3402">
        <ele>452</ele>
        <time>2018-06-09T15:27:45Z</time>
      </trkpt>
      <trkpt lat="43.66591" lon="2.34029">
        <ele>453</ele>
        <time>2018-06-09T15:27:48Z</time>
      </trkpt>
      <trkpt lat="43.66585" lon="2.34048">
        <ele>453</ele>
        <time>2018-06-09T15:27:54Z</time>
      </trkpt>
      <trkpt lat="43.66583" lon="2.34054">
        <ele>454</ele>
        <time>2018-06-09T15:27:56Z</time>
      </trkpt>
      <trkpt lat="43.66577" lon="2.34069">
        <ele>454</ele>
        <time>2018-06-09T15:28:01Z</time>
      </trkpt>
      <trkpt lat="43.66574" lon="2.34075">
        <ele>455</ele>
        <time>2018-06-09T15:28:03Z</time>
      </trkpt>
      <trkpt lat="43.66566" lon="2.34092">
        <ele>456</ele>
        <time>2018-06-09T15:28:09Z</time>
      </trkpt>
      <trkpt lat="43.66565" lon="2.34095">
        <ele>456</ele>
        <time>2018-06-09T15:28:10Z</time>
      </trkpt>
      <trkpt lat="43.66562" lon="2.34101">
        <ele>456</ele>
        <time>2018-06-09T15:28:12Z</time>
      </trkpt>
      <trkpt lat="43.66554" lon="2.34119">
        <ele>457</ele>
        <time>2018-06-09T15:28:18Z</time>
      </trkpt>
      <trkpt lat="43.6655" lon="2.34128">
        <ele>457</ele>
        <time>2018-06-09T15:28:21Z</time>
      </trkpt>
      <trkpt lat="43.66539" lon="2.34155">
        <ele>458</ele>
        <time>2018-06-09T15:28:29Z</time>
      </trkpt>
      <trkpt lat="43.66527" lon="2.34186">
        <ele>458</ele>
        <time>2018-06-09T15:28:38Z</time>
      </trkpt>
      <trkpt lat="43.66514" lon="2.34223">
        <ele>458</ele>
        <time>2018-06-09T15:28:48Z</time>
      </trkpt>
      <trkpt lat="43.66502" lon="2.34258">
        <ele>459</ele>
        <time>2018-06-09T15:28:57Z</time>
      </trkpt>
      <trkpt lat="43.66501" lon="2.34263">
        <ele>459</ele>
        <time>2018-06-09T15:28:58Z</time>
      </trkpt>
      <trkpt lat="43.66495" lon="2.34288">
        <ele>460</ele>
        <time>2018-06-09T15:29:04Z</time>
      </trkpt>
      <trkpt lat="43.66493" lon="2.34299">
        <ele>460</ele>
        <time>2018-06-09T15:29:07Z</time>
      </trkpt>
      <trkpt lat="43.66489" lon="2.34318">
        <ele>461</ele>
        <time>2018-06-09T15:29:12Z</time>
      </trkpt>
      <trkpt lat="43.66486" lon="2.34329">
        <ele>461</ele>
        <time>2018-06-09T15:29:15Z</time>
      </trkpt>
      <trkpt lat="43.66482" lon="2.34347">
        <ele>461</ele>
        <time>2018-06-09T15:29:20Z</time>
      </trkpt>
      <trkpt lat="43.6648" lon="2.34355">
        <ele>462</ele>
        <time>2018-06-09T15:29:22Z</time>
      </trkpt>
      <trkpt lat="43.66476" lon="2.34372">
        <ele>463</ele>
        <time>2018-06-09T15:29:27Z</time>
      </trkpt>
      <trkpt lat="43.66473" lon="2.34384">
        <ele>463</ele>
        <time>2018-06-09T15:29:30Z</time>
      </trkpt>
      <trkpt lat="43.66467" lon="2.34406">
        <ele>464</ele>
        <time>2018-06-09T15:29:36Z</time>
      </trkpt>
      <trkpt lat="43.66466" lon="2.34409">
        <ele>464</ele>
        <time>2018-06-09T15:29:37Z</time>
      </trkpt>
      <trkpt lat="43.66463" lon="2.34424">
        <ele>465</ele>
        <time>2018-06-09T15:29:41Z</time>
      </trkpt>
      <trkpt lat="43.66458" lon="2.34439">
        <ele>466</ele>
        <time>2018-06-09T15:29:45Z</time>
      </trkpt>
      <trkpt lat="43.66456" lon="2.34446">
        <ele>466</ele>
        <time>2018-06-09T15:29:47Z</time>
      </trkpt>
      <trkpt lat="43.6645" lon="2.34467">
        <ele>467</ele>
        <time>2018-06-09T15:29:53Z</time>
      </trkpt>
      <trkpt lat="43.66448" lon="2.34474">
        <ele>468</ele>
        <time>2018-06-09T15:29:55Z</time>
      </trkpt>
      <trkpt lat="43.66444" lon="2.34493">
        <ele>468</ele>
        <time>2018-06-09T15:30:00Z</time>
      </trkpt>
      <trkpt lat="43.66439" lon="2.34509">
        <ele>468</ele>
        <time>2018-06-09T15:30:04Z</time>
      </trkpt>
      <trkpt lat="43.66429" lon="2.34544">
        <ele>469</ele>
        <time>2018-06-09T15:30:13Z</time>
      </trkpt>
      <trkpt lat="43.66424" lon="2.34561">
        <ele>469</ele>
        <time>2018-06-09T15:30:17Z</time>
      </trkpt>
      <trkpt lat="43.66418" lon="2.34584">
        <ele>469</ele>
        <time>2018-06-09T15:30:22Z</time>
      </trkpt>
      <trkpt lat="43.66409" lon="2.34619">
        <ele>469</ele>
        <time>2018-06-09T15:30:29Z</time>
      </trkpt>
      <trkpt lat="43.664" lon="2.34654">
        <ele>469</ele>
        <time>2018-06-09T15:30:36Z</time>
      </trkpt>
      <trkpt lat="43.664" lon="2.34658">
        <ele>469</ele>
        <time>2018-06-09T15:30:37Z</time>
      </trkpt>
      <trkpt lat="43.66395" lon="2.34692">
        <ele>469</ele>
        <time>2018-06-09T15:30:44Z</time>
      </trkpt>
      <trkpt lat="43.66391" lon="2.34712">
        <ele>469</ele>
        <time>2018-06-09T15:30:48Z</time>
      </trkpt>
      <trkpt lat="43.66388" lon="2.34719">
        <ele>469</ele>
        <time>2018-06-09T15:30:50Z</time>
      </trkpt>
      <trkpt lat="43.66388" lon="2.3472">
        <ele>469</ele>
        <time>2018-06-09T15:30:53Z</time>
      </trkpt>
      <trkpt lat="43.66388" lon="2.3472">
        <ele>469</ele>
        <time>2018-06-09T15:31:05Z</time>
      </trkpt>
      <trkpt lat="43.66387" lon="2.34723">
        <ele>469</ele>
        <time>2018-06-09T15:31:08Z</time>
      </trkpt>
      <trkpt lat="43.66384" lon="2.34725">
        <ele>469</ele>
        <time>2018-06-09T15:31:11Z</time>
      </trkpt>
      <trkpt lat="43.6637" lon="2.34724">
        <ele>469</ele>
        <time>2018-06-09T15:31:17Z</time>
      </trkpt>
      <trkpt lat="43.66367" lon="2.34725">
        <ele>469</ele>
        <time>2018-06-09T15:31:18Z</time>
      </trkpt>
      <trkpt lat="43.66357" lon="2.34724">
        <ele>468</ele>
        <time>2018-06-09T15:31:21Z</time>
      </trkpt>
      <trkpt lat="43.6635" lon="2.34723">
        <ele>468</ele>
        <time>2018-06-09T15:31:23Z</time>
      </trkpt>
      <trkpt lat="43.66345" lon="2.34721">
        <ele>468</ele>
        <time>2018-06-09T15:31:24Z</time>
      </trkpt>
      <trkpt lat="43.66341" lon="2.34719">
        <ele>468</ele>
        <time>2018-06-09T15:31:25Z</time>
      </trkpt>
      <trkpt lat="43.66331" lon="2.34714">
        <ele>467</ele>
        <time>2018-06-09T15:31:27Z</time>
      </trkpt>
      <trkpt lat="43.66319" lon="2.34708">
        <ele>465</ele>
        <time>2018-06-09T15:31:29Z</time>
      </trkpt>
      <trkpt lat="43.66312" lon="2.34704">
        <ele>464</ele>
        <time>2018-06-09T15:31:30Z</time>
      </trkpt>
      <trkpt lat="43.66299" lon="2.34698">
        <ele>463</ele>
        <time>2018-06-09T15:31:32Z</time>
      </trkpt>
      <trkpt lat="43.66287" lon="2.34692">
        <ele>462</ele>
        <time>2018-06-09T15:31:34Z</time>
      </trkpt>
      <trkpt lat="43.66281" lon="2.34691">
        <ele>461</ele>
        <time>2018-06-09T15:31:35Z</time>
      </trkpt>
      <trkpt lat="43.66276" lon="2.34694">
        <ele>461</ele>
        <time>2018-06-09T15:31:36Z</time>
      </trkpt>
      <trkpt lat="43.66271" lon="2.34711">
        <ele>462</ele>
        <time>2018-06-09T15:31:39Z</time>
      </trkpt>
      <trkpt lat="43.66272" lon="2.34733">
        <ele>462</ele>
        <time>2018-06-09T15:31:43Z</time>
      </trkpt>
      <trkpt lat="43.66272" lon="2.34737">
        <ele>462</ele>
        <time>2018-06-09T15:31:44Z</time>
      </trkpt>
      <trkpt lat="43.66273" lon="2.34763">
        <ele>462</ele>
        <time>2018-06-09T15:31:50Z</time>
      </trkpt>
      <trkpt lat="43.66273" lon="2.34778">
        <ele>462</ele>
        <time>2018-06-09T15:31:55Z</time>
      </trkpt>
      <trkpt lat="43.66272" lon="2.34803">
        <ele>462</ele>
        <time>2018-06-09T15:32:02Z</time>
      </trkpt>
      <trkpt lat="43.66269" lon="2.34814">
        <ele>463</ele>
        <time>2018-06-09T15:32:05Z</time>
      </trkpt>
      <trkpt lat="43.66269" lon="2.34824">
        <ele>463</ele>
        <time>2018-06-09T15:32:08Z</time>
      </trkpt>
      <trkpt lat="43.66269" lon="2.34832">
        <ele>463</ele>
        <time>2018-06-09T15:32:11Z</time>
      </trkpt>
      <trkpt lat="43.66268" lon="2.34838">
        <ele>463</ele>
        <time>2018-06-09T15:32:13Z</time>
      </trkpt>
      <trkpt lat="43.66266" lon="2.34856">
        <ele>464</ele>
        <time>2018-06-09T15:32:17Z</time>
      </trkpt>
      <trkpt lat="43.66255" lon="2.34886">
        <ele>465</ele>
        <time>2018-06-09T15:32:25Z</time>
      </trkpt>
      <trkpt lat="43.66246" lon="2.349">
        <ele>465</ele>
        <time>2018-06-09T15:32:30Z</time>
      </trkpt>
      <trkpt lat="43.66243" lon="2.34905">
        <ele>465</ele>
        <time>2018-06-09T15:32:32Z</time>
      </trkpt>
      <trkpt lat="43.66238" lon="2.34911">
        <ele>465</ele>
        <time>2018-06-09T15:32:35Z</time>
      </trkpt>
      <trkpt lat="43.66233" lon="2.34911">
        <ele>465</ele>
        <time>2018-06-09T15:32:37Z</time>
      </trkpt>
      <trkpt lat="43.66227" lon="2.34911">
        <ele>465</ele>
        <time>2018-06-09T15:32:40Z</time>
      </trkpt>
      <trkpt lat="43.66219" lon="2.34916">
        <ele>466</ele>
        <time>2018-06-09T15:32:44Z</time>
      </trkpt>
      <trkpt lat="43.66217" lon="2.34924">
        <ele>466</ele>
        <time>2018-06-09T15:32:46Z</time>
      </trkpt>
      <trkpt lat="43.66215" lon="2.34935">
        <ele>466</ele>
        <time>2018-06-09T15:32:49Z</time>
      </trkpt>
      <trkpt lat="43.66213" lon="2.34942">
        <ele>466</ele>
        <time>2018-06-09T15:32:51Z</time>
      </trkpt>
      <trkpt lat="43.66211" lon="2.34951">
        <ele>466</ele>
        <time>2018-06-09T15:32:54Z</time>
      </trkpt>
      <trkpt lat="43.6621" lon="2.34976">
        <ele>466</ele>
        <time>2018-06-09T15:33:00Z</time>
      </trkpt>
      <trkpt lat="43.66204" lon="2.34985">
        <ele>465</ele>
        <time>2018-06-09T15:33:04Z</time>
      </trkpt>
      <trkpt lat="43.66204" lon="2.34985">
        <ele>465</ele>
        <time>2018-06-09T15:33:05Z</time>
      </trkpt>
      <trkpt lat="43.66204" lon="2.34986">
        <ele>465</ele>
        <time>2018-06-09T15:33:08Z</time>
      </trkpt>
      <trkpt lat="43.66204" lon="2.34985">
        <ele>464</ele>
        <time>2018-06-09T15:33:15Z</time>
      </trkpt>
      <trkpt lat="43.66204" lon="2.34985">
        <ele>465</ele>
        <time>2018-06-09T15:33:22Z</time>
      </trkpt>
      <trkpt lat="43.66204" lon="2.34985">
        <ele>465</ele>
        <time>2018-06-09T15:33:38Z</time>
      </trkpt>
      <trkpt lat="43.66204" lon="2.34985">
        <ele>465</ele>
        <time>2018-06-09T15:34:20Z</time>
      </trkpt>
      <trkpt lat="43.66204" lon="2.34985">
        <ele>465</ele>
        <time>2018-06-09T15:35:09Z</time>
      </trkpt>
      <trkpt lat="43.66204" lon="2.34985">
        <ele>465</ele>
        <time>2018-06-09T15:35:34Z</time>
      </trkpt>
      <trkpt lat="43.66204" lon="2.34985">
        <ele>465</ele>
        <time>2018-06-09T15:36:52Z</time>
      </trkpt>
      <trkpt lat="43.66204" lon="2.34985">
        <ele>465</ele>
        <time>2018-06-09T15:36:57Z</time>
      </trkpt>
      <trkpt lat="43.66205" lon="2.34985">
        <ele>465</ele>
        <time>2018-06-09T15:37:06Z</time>
      </trkpt>
      <trkpt lat="43.66205" lon="2.34985">
        <ele>465</ele>
        <time>2018-06-09T15:37:13Z</time>
      </trkpt>
      <trkpt lat="43.66205" lon="2.34985">
        <ele>465</ele>
        <time>2018-06-09T15:37:16Z</time>
      </trkpt>
      <trkpt lat="43.66205" lon="2.34985">
        <ele>465</ele>
        <time>2018-06-09T15:37:27Z</time>
      </trkpt>
      <trkpt lat="43.66205" lon="2.34985">
        <ele>465</ele>
        <time>2018-06-09T15:37:33Z</time>
      </trkpt>
      <trkpt lat="43.66205" lon="2.34985">
        <ele>465</ele>
        <time>2018-06-09T15:37:40Z</time>
      </trkpt>
      <trkpt lat="43.66205" lon="2.34982">
        <ele>465</ele>
        <time>2018-06-09T15:37:47Z</time>
      </trkpt>
      <trkpt lat="43.66206" lon="2.3498">
        <ele>465</ele>
        <time>2018-06-09T15:37:48Z</time>
      </trkpt>
      <trkpt lat="43.66208" lon="2.34975">
        <ele>465</ele>
        <time>2018-06-09T15:37:51Z</time>
      </trkpt>
      <trkpt lat="43.66208" lon="2.34971">
        <ele>466</ele>
        <time>2018-06-09T15:37:53Z</time>
      </trkpt>
      <trkpt lat="43.66207" lon="2.34969">
        <ele>466</ele>
        <time>2018-06-09T15:37:55Z</time>
      </trkpt>
      <trkpt lat="43.66206" lon="2.34966">
        <ele>466</ele>
        <time>2018-06-09T15:37:57Z</time>
      </trkpt>
      <trkpt lat="43.66203" lon="2.34958">
        <ele>466</ele>
        <time>2018-06-09T15:38:01Z</time>
      </trkpt>
      <trkpt lat="43.66198" lon="2.34949">
        <ele>466</ele>
        <time>2018-06-09T15:38:05Z</time>
      </trkpt>
      <trkpt lat="43.66197" lon="2.34943">
        <ele>467</ele>
        <time>2018-06-09T15:38:07Z</time>
      </trkpt>
      <trkpt lat="43.66197" lon="2.3493">
        <ele>468</ele>
        <time>2018-06-09T15:38:11Z</time>
      </trkpt>
      <trkpt lat="43.66197" lon="2.34927">
        <ele>468</ele>
        <time>2018-06-09T15:38:12Z</time>
      </trkpt>
      <trkpt lat="43.66197" lon="2.34914">
        <ele>469</ele>
        <time>2018-06-09T15:38:16Z</time>
      </trkpt>
      <trkpt lat="43.66197" lon="2.34912">
        <ele>469</ele>
        <time>2018-06-09T15:38:17Z</time>
      </trkpt>
      <trkpt lat="43.66197" lon="2.34905">
        <ele>469</ele>
        <time>2018-06-09T15:38:20Z</time>
      </trkpt>
      <trkpt lat="43.66196" lon="2.34897">
        <ele>470</ele>
        <time>2018-06-09T15:38:23Z</time>
      </trkpt>
      <trkpt lat="43.66195" lon="2.34895">
        <ele>470</ele>
        <time>2018-06-09T15:38:24Z</time>
      </trkpt>
      <trkpt lat="43.66192" lon="2.34882">
        <ele>471</ele>
        <time>2018-06-09T15:38:29Z</time>
      </trkpt>
      <trkpt lat="43.6619" lon="2.34877">
        <ele>472</ele>
        <time>2018-06-09T15:38:31Z</time>
      </trkpt>
      <trkpt lat="43.66188" lon="2.34873">
        <ele>472</ele>
        <time>2018-06-09T15:38:33Z</time>
      </trkpt>
      <trkpt lat="43.66185" lon="2.34864">
        <ele>473</ele>
        <time>2018-06-09T15:38:37Z</time>
      </trkpt>
      <trkpt lat="43.66184" lon="2.3486">
        <ele>473</ele>
        <time>2018-06-09T15:38:39Z</time>
      </trkpt>
      <trkpt lat="43.66179" lon="2.34845">
        <ele>474</ele>
        <time>2018-06-09T15:38:44Z</time>
      </trkpt>
      <trkpt lat="43.66174" lon="2.34832">
        <ele>476</ele>
        <time>2018-06-09T15:38:49Z</time>
      </trkpt>
      <trkpt lat="43.66173" lon="2.34825">
        <ele>476</ele>
        <time>2018-06-09T15:38:51Z</time>
      </trkpt>
      <trkpt lat="43.66169" lon="2.34818">
        <ele>477</ele>
        <time>2018-06-09T15:38:55Z</time>
      </trkpt>
      <trkpt lat="43.66167" lon="2.34815">
        <ele>477</ele>
        <time>2018-06-09T15:38:57Z</time>
      </trkpt>
      <trkpt lat="43.66164" lon="2.34808">
        <ele>478</ele>
        <time>2018-06-09T15:39:00Z</time>
      </trkpt>
      <trkpt lat="43.66159" lon="2.348">
        <ele>479</ele>
        <time>2018-06-09T15:39:03Z</time>
      </trkpt>
      <trkpt lat="43.6616" lon="2.34796">
        <ele>479</ele>
        <time>2018-06-09T15:39:04Z</time>
      </trkpt>
      <trkpt lat="43.66156" lon="2.34786">
        <ele>480</ele>
        <time>2018-06-09T15:39:08Z</time>
      </trkpt>
      <trkpt lat="43.66155" lon="2.34784">
        <ele>480</ele>
        <time>2018-06-09T15:39:09Z</time>
      </trkpt>
      <trkpt lat="43.66153" lon="2.3478">
        <ele>481</ele>
        <time>2018-06-09T15:39:11Z</time>
      </trkpt>
      <trkpt lat="43.66147" lon="2.34767">
        <ele>481</ele>
        <time>2018-06-09T15:39:16Z</time>
      </trkpt>
      <trkpt lat="43.66143" lon="2.34761">
        <ele>482</ele>
        <time>2018-06-09T15:39:19Z</time>
      </trkpt>
      <trkpt lat="43.66136" lon="2.34753">
        <ele>483</ele>
        <time>2018-06-09T15:39:23Z</time>
      </trkpt>
      <trkpt lat="43.66131" lon="2.34747">
        <ele>484</ele>
        <time>2018-06-09T15:39:26Z</time>
      </trkpt>
      <trkpt lat="43.66124" lon="2.3474">
        <ele>484</ele>
        <time>2018-06-09T15:39:30Z</time>
      </trkpt>
      <trkpt lat="43.66117" lon="2.34733">
        <ele>485</ele>
        <time>2018-06-09T15:39:34Z</time>
      </trkpt>
      <trkpt lat="43.66112" lon="2.34729">
        <ele>485</ele>
        <time>2018-06-09T15:39:37Z</time>
      </trkpt>
      <trkpt lat="43.66105" lon="2.34728">
        <ele>486</ele>
        <time>2018-06-09T15:39:40Z</time>
      </trkpt>
      <trkpt lat="43.66095" lon="2.34731">
        <ele>486</ele>
        <time>2018-06-09T15:39:44Z</time>
      </trkpt>
      <trkpt lat="43.66084" lon="2.34743">
        <ele>486</ele>
        <time>2018-06-09T15:39:50Z</time>
      </trkpt>
      <trkpt lat="43.6608" lon="2.34751">
        <ele>487</ele>
        <time>2018-06-09T15:39:53Z</time>
      </trkpt>
      <trkpt lat="43.6607" lon="2.34769">
        <ele>488</ele>
        <time>2018-06-09T15:40:00Z</time>
      </trkpt>
      <trkpt lat="43.66068" lon="2.34772">
        <ele>488</ele>
        <time>2018-06-09T15:40:01Z</time>
      </trkpt>
      <trkpt lat="43.66056" lon="2.34795">
        <ele>489</ele>
        <time>2018-06-09T15:40:09Z</time>
      </trkpt>
      <trkpt lat="43.66055" lon="2.34798">
        <ele>489</ele>
        <time>2018-06-09T15:40:10Z</time>
      </trkpt>
      <trkpt lat="43.66048" lon="2.34812">
        <ele>490</ele>
        <time>2018-06-09T15:40:15Z</time>
      </trkpt>
      <trkpt lat="43.66042" lon="2.34822">
        <ele>491</ele>
        <time>2018-06-09T15:40:19Z</time>
      </trkpt>
      <trkpt lat="43.66038" lon="2.3483">
        <ele>491</ele>
        <time>2018-06-09T15:40:22Z</time>
      </trkpt>
      <trkpt lat="43.66028" lon="2.34837">
        <ele>492</ele>
        <time>2018-06-09T15:40:27Z</time>
      </trkpt>
      <trkpt lat="43.66026" lon="2.34838">
        <ele>492</ele>
        <time>2018-06-09T15:40:28Z</time>
      </trkpt>
      <trkpt lat="43.66016" lon="2.34838">
        <ele>492</ele>
        <time>2018-06-09T15:40:33Z</time>
      </trkpt>
      <trkpt lat="43.66" lon="2.34837">
        <ele>492</ele>
        <time>2018-06-09T15:40:39Z</time>
      </trkpt>
      <trkpt lat="43.65974" lon="2.34838">
        <ele>492</ele>
        <time>2018-06-09T15:40:46Z</time>
      </trkpt>
      <trkpt lat="43.65945" lon="2.34833">
        <ele>492</ele>
        <time>2018-06-09T15:40:54Z</time>
      </trkpt>
      <trkpt lat="43.65925" lon="2.34817">
        <ele>493</ele>
        <time>2018-06-09T15:41:01Z</time>
      </trkpt>
      <trkpt lat="43.65912" lon="2.34803">
        <ele>493</ele>
        <time>2018-06-09T15:41:06Z</time>
      </trkpt>
      <trkpt lat="43.65902" lon="2.34792">
        <ele>493</ele>
        <time>2018-06-09T15:41:10Z</time>
      </trkpt>
      <trkpt lat="43.65887" lon="2.34775">
        <ele>494</ele>
        <time>2018-06-09T15:41:16Z</time>
      </trkpt>
      <trkpt lat="43.65885" lon="2.34772">
        <ele>494</ele>
        <time>2018-06-09T15:41:17Z</time>
      </trkpt>
      <trkpt lat="43.65883" lon="2.34769">
        <ele>495</ele>
        <time>2018-06-09T15:41:18Z</time>
      </trkpt>
      <trkpt lat="43.65872" lon="2.34755">
        <ele>496</ele>
        <time>2018-06-09T15:41:23Z</time>
      </trkpt>
      <trkpt lat="43.65864" lon="2.34743">
        <ele>496</ele>
        <time>2018-06-09T15:41:27Z</time>
      </trkpt>
      <trkpt lat="43.65856" lon="2.34731">
        <ele>497</ele>
        <time>2018-06-09T15:41:31Z</time>
      </trkpt>
      <trkpt lat="43.65854" lon="2.34727">
        <ele>497</ele>
        <time>2018-06-09T15:41:32Z</time>
      </trkpt>
      <trkpt lat="43.65839" lon="2.34699">
        <ele>496</ele>
        <time>2018-06-09T15:41:39Z</time>
      </trkpt>
      <trkpt lat="43.65818" lon="2.34662">
        <ele>496</ele>
        <time>2018-06-09T15:41:46Z</time>
      </trkpt>
      <trkpt lat="43.65809" lon="2.34648">
        <ele>496</ele>
        <time>2018-06-09T15:41:49Z</time>
      </trkpt>
      <trkpt lat="43.65799" lon="2.34633">
        <ele>496</ele>
        <time>2018-06-09T15:41:52Z</time>
      </trkpt>
      <trkpt lat="43.65781" lon="2.34603">
        <ele>496</ele>
        <time>2018-06-09T15:41:59Z</time>
      </trkpt>
      <trkpt lat="43.65779" lon="2.34599">
        <ele>496</ele>
        <time>2018-06-09T15:42:00Z</time>
      </trkpt>
      <trkpt lat="43.65764" lon="2.34579">
        <ele>497</ele>
        <time>2018-06-09T15:42:05Z</time>
      </trkpt>
      <trkpt lat="43.65754" lon="2.3457">
        <ele>497</ele>
        <time>2018-06-09T15:42:08Z</time>
      </trkpt>
      <trkpt lat="43.6575" lon="2.34567">
        <ele>497</ele>
        <time>2018-06-09T15:42:09Z</time>
      </trkpt>
      <trkpt lat="43.65737" lon="2.34565">
        <ele>496</ele>
        <time>2018-06-09T15:42:12Z</time>
      </trkpt>
      <trkpt lat="43.65723" lon="2.34573">
        <ele>497</ele>
        <time>2018-06-09T15:42:16Z</time>
      </trkpt>
      <trkpt lat="43.6572" lon="2.34576">
        <ele>498</ele>
        <time>2018-06-09T15:42:17Z</time>
      </trkpt>
      <trkpt lat="43.65713" lon="2.34582">
        <ele>499</ele>
        <time>2018-06-09T15:42:20Z</time>
      </trkpt>
      <trkpt lat="43.65705" lon="2.34589">
        <ele>500</ele>
        <time>2018-06-09T15:42:23Z</time>
      </trkpt>
      <trkpt lat="43.65702" lon="2.34591">
        <ele>500</ele>
        <time>2018-06-09T15:42:24Z</time>
      </trkpt>
      <trkpt lat="43.65678" lon="2.34613">
        <ele>501</ele>
        <time>2018-06-09T15:42:33Z</time>
      </trkpt>
      <trkpt lat="43.65661" lon="2.3463">
        <ele>501</ele>
        <time>2018-06-09T15:42:40Z</time>
      </trkpt>
      <trkpt lat="43.65655" lon="2.34634">
        <ele>501</ele>
        <time>2018-06-09T15:42:42Z</time>
      </trkpt>
      <trkpt lat="43.65639" lon="2.34649">
        <ele>501</ele>
        <time>2018-06-09T15:42:49Z</time>
      </trkpt>
      <trkpt lat="43.65636" lon="2.3465">
        <ele>500</ele>
        <time>2018-06-09T15:42:50Z</time>
      </trkpt>
      <trkpt lat="43.65629" lon="2.34654">
        <ele>500</ele>
        <time>2018-06-09T15:42:53Z</time>
      </trkpt>
      <trkpt lat="43.65626" lon="2.34655">
        <ele>500</ele>
        <time>2018-06-09T15:42:55Z</time>
      </trkpt>
      <trkpt lat="43.65621" lon="2.34657">
        <ele>499</ele>
        <time>2018-06-09T15:42:58Z</time>
      </trkpt>
      <trkpt lat="43.65614" lon="2.34658">
        <ele>499</ele>
        <time>2018-06-09T15:43:02Z</time>
      </trkpt>
      <trkpt lat="43.65612" lon="2.34659">
        <ele>498</ele>
        <time>2018-06-09T15:43:03Z</time>
      </trkpt>
      <trkpt lat="43.65611" lon="2.34661">
        <ele>498</ele>
        <time>2018-06-09T15:43:04Z</time>
      </trkpt>
      <trkpt lat="43.65607" lon="2.34665">
        <ele>498</ele>
        <time>2018-06-09T15:43:07Z</time>
      </trkpt>
      <trkpt lat="43.65599" lon="2.34671">
        <ele>497</ele>
        <time>2018-06-09T15:43:11Z</time>
      </trkpt>
      <trkpt lat="43.65597" lon="2.34672">
        <ele>497</ele>
        <time>2018-06-09T15:43:12Z</time>
      </trkpt>
      <trkpt lat="43.65594" lon="2.34675">
        <ele>496</ele>
        <time>2018-06-09T15:43:13Z</time>
      </trkpt>
      <trkpt lat="43.65584" lon="2.34683">
        <ele>495</ele>
        <time>2018-06-09T15:43:18Z</time>
      </trkpt>
      <trkpt lat="43.65581" lon="2.34686">
        <ele>494</ele>
        <time>2018-06-09T15:43:19Z</time>
      </trkpt>
      <trkpt lat="43.65579" lon="2.34691">
        <ele>494</ele>
        <time>2018-06-09T15:43:20Z</time>
      </trkpt>
      <trkpt lat="43.65572" lon="2.34703">
        <ele>493</ele>
        <time>2018-06-09T15:43:23Z</time>
      </trkpt>
      <trkpt lat="43.6557" lon="2.34706">
        <ele>492</ele>
        <time>2018-06-09T15:43:24Z</time>
      </trkpt>
      <trkpt lat="43.65563" lon="2.34715">
        <ele>492</ele>
        <time>2018-06-09T15:43:27Z</time>
      </trkpt>
      <trkpt lat="43.65561" lon="2.34719">
        <ele>491</ele>
        <time>2018-06-09T15:43:29Z</time>
      </trkpt>
      <trkpt lat="43.65559" lon="2.34726">
        <ele>491</ele>
        <time>2018-06-09T15:43:32Z</time>
      </trkpt>
      <trkpt lat="43.6556" lon="2.3473">
        <ele>491</ele>
        <time>2018-06-09T15:43:34Z</time>
      </trkpt>
      <trkpt lat="43.65559" lon="2.34734">
        <ele>492</ele>
        <time>2018-06-09T15:43:37Z</time>
      </trkpt>
      <trkpt lat="43.65558" lon="2.34738">
        <ele>491</ele>
        <time>2018-06-09T15:43:39Z</time>
      </trkpt>
      <trkpt lat="43.65557" lon="2.34744">
        <ele>491</ele>
        <time>2018-06-09T15:43:41Z</time>
      </trkpt>
      <trkpt lat="43.65555" lon="2.34752">
        <ele>490</ele>
        <time>2018-06-09T15:43:44Z</time>
      </trkpt>
      <trkpt lat="43.65555" lon="2.34754">
        <ele>490</ele>
        <time>2018-06-09T15:43:45Z</time>
      </trkpt>
      <trkpt lat="43.65553" lon="2.34762">
        <ele>489</ele>
        <time>2018-06-09T15:43:48Z</time>
      </trkpt>
      <trkpt lat="43.65553" lon="2.34765">
        <ele>489</ele>
        <time>2018-06-09T15:43:49Z</time>
      </trkpt>
      <trkpt lat="43.65552" lon="2.34768">
        <ele>488</ele>
        <time>2018-06-09T15:43:50Z</time>
      </trkpt>
      <trkpt lat="43.65551" lon="2.34774">
        <ele>488</ele>
        <time>2018-06-09T15:43:52Z</time>
      </trkpt>
      <trkpt lat="43.65548" lon="2.34781">
        <ele>487</ele>
        <time>2018-06-09T15:43:55Z</time>
      </trkpt>
      <trkpt lat="43.65548" lon="2.34785">
        <ele>486</ele>
        <time>2018-06-09T15:43:56Z</time>
      </trkpt>
      <trkpt lat="43.65546" lon="2.34791">
        <ele>485</ele>
        <time>2018-06-09T15:43:58Z</time>
      </trkpt>
      <trkpt lat="43.65543" lon="2.34799">
        <ele>484</ele>
        <time>2018-06-09T15:44:01Z</time>
      </trkpt>
      <trkpt lat="43.65542" lon="2.34802">
        <ele>484</ele>
        <time>2018-06-09T15:44:02Z</time>
      </trkpt>
      <trkpt lat="43.65538" lon="2.34813">
        <ele>482</ele>
        <time>2018-06-09T15:44:05Z</time>
      </trkpt>
      <trkpt lat="43.65537" lon="2.3482">
        <ele>481</ele>
        <time>2018-06-09T15:44:07Z</time>
      </trkpt>
      <trkpt lat="43.65533" lon="2.34832">
        <ele>479</ele>
        <time>2018-06-09T15:44:10Z</time>
      </trkpt>
      <trkpt lat="43.6553" lon="2.34839">
        <ele>478</ele>
        <time>2018-06-09T15:44:12Z</time>
      </trkpt>
      <trkpt lat="43.65528" lon="2.34846">
        <ele>476</ele>
        <time>2018-06-09T15:44:14Z</time>
      </trkpt>
      <trkpt lat="43.65527" lon="2.34849">
        <ele>475</ele>
        <time>2018-06-09T15:44:15Z</time>
      </trkpt>
      <trkpt lat="43.65526" lon="2.3485">
        <ele>474</ele>
        <time>2018-06-09T15:44:16Z</time>
      </trkpt>
      <trkpt lat="43.65524" lon="2.34852">
        <ele>474</ele>
        <time>2018-06-09T15:44:17Z</time>
      </trkpt>
      <trkpt lat="43.65523" lon="2.34855">
        <ele>473</ele>
        <time>2018-06-09T15:44:19Z</time>
      </trkpt>
      <trkpt lat="43.65522" lon="2.34858">
        <ele>473</ele>
        <time>2018-06-09T15:44:21Z</time>
      </trkpt>
      <trkpt lat="43.65519" lon="2.34864">
        <ele>473</ele>
        <time>2018-06-09T15:44:26Z</time>
      </trkpt>
      <trkpt lat="43.65518" lon="2.34865">
        <ele>472</ele>
        <time>2018-06-09T15:44:27Z</time>
      </trkpt>
      <trkpt lat="43.65515" lon="2.3487">
        <ele>472</ele>
        <time>2018-06-09T15:44:31Z</time>
      </trkpt>
      <trkpt lat="43.65512" lon="2.34876">
        <ele>471</ele>
        <time>2018-06-09T15:44:35Z</time>
      </trkpt>
      <trkpt lat="43.65512" lon="2.34879">
        <ele>471</ele>
        <time>2018-06-09T15:44:36Z</time>
      </trkpt>
      <trkpt lat="43.65509" lon="2.34887">
        <ele>469</ele>
        <time>2018-06-09T15:44:40Z</time>
      </trkpt>
      <trkpt lat="43.65508" lon="2.3489">
        <ele>469</ele>
        <time>2018-06-09T15:44:41Z</time>
      </trkpt>
      <trkpt lat="43.65504" lon="2.34896">
        <ele>468</ele>
        <time>2018-06-09T15:44:43Z</time>
      </trkpt>
      <trkpt lat="43.655" lon="2.34904">
        <ele>467</ele>
        <time>2018-06-09T15:44:45Z</time>
      </trkpt>
      <trkpt lat="43.65498" lon="2.34908">
        <ele>467</ele>
        <time>2018-06-09T15:44:46Z</time>
      </trkpt>
      <trkpt lat="43.6549" lon="2.34914">
        <ele>465</ele>
        <time>2018-06-09T15:44:49Z</time>
      </trkpt>
      <trkpt lat="43.65487" lon="2.34912">
        <ele>465</ele>
        <time>2018-06-09T15:44:50Z</time>
      </trkpt>
      <trkpt lat="43.65484" lon="2.34905">
        <ele>464</ele>
        <time>2018-06-09T15:44:52Z</time>
      </trkpt>
      <trkpt lat="43.65481" lon="2.34902">
        <ele>464</ele>
        <time>2018-06-09T15:44:53Z</time>
      </trkpt>
      <trkpt lat="43.65479" lon="2.34902">
        <ele>464</ele>
        <time>2018-06-09T15:44:54Z</time>
      </trkpt>
      <trkpt lat="43.65474" lon="2.34906">
        <ele>464</ele>
        <time>2018-06-09T15:44:56Z</time>
      </trkpt>
      <trkpt lat="43.65471" lon="2.3491">
        <ele>464</ele>
        <time>2018-06-09T15:44:58Z</time>
      </trkpt>
      <trkpt lat="43.65465" lon="2.34917">
        <ele>465</ele>
        <time>2018-06-09T15:45:02Z</time>
      </trkpt>
      <trkpt lat="43.65453" lon="2.34936">
        <ele>465</ele>
        <time>2018-06-09T15:45:09Z</time>
      </trkpt>
      <trkpt lat="43.65436" lon="2.34949">
        <ele>465</ele>
        <time>2018-06-09T15:45:16Z</time>
      </trkpt>
      <trkpt lat="43.6542" lon="2.34944">
        <ele>464</ele>
        <time>2018-06-09T15:45:22Z</time>
      </trkpt>
      <trkpt lat="43.65412" lon="2.3494">
        <ele>463</ele>
        <time>2018-06-09T15:45:24Z</time>
      </trkpt>
      <trkpt lat="43.65405" lon="2.34936">
        <ele>463</ele>
        <time>2018-06-09T15:45:26Z</time>
      </trkpt>
      <trkpt lat="43.65398" lon="2.3493">
        <ele>463</ele>
        <time>2018-06-09T15:45:28Z</time>
      </trkpt>
      <trkpt lat="43.65395" lon="2.34917">
        <ele>464</ele>
        <time>2018-06-09T15:45:31Z</time>
      </trkpt>
      <trkpt lat="43.65401" lon="2.34904">
        <ele>464</ele>
        <time>2018-06-09T15:45:35Z</time>
      </trkpt>
      <trkpt lat="43.65408" lon="2.34886">
        <ele>464</ele>
        <time>2018-06-09T15:45:40Z</time>
      </trkpt>
      <trkpt lat="43.65404" lon="2.3487">
        <ele>465</ele>
        <time>2018-06-09T15:45:44Z</time>
      </trkpt>
      <trkpt lat="43.6539" lon="2.34862">
        <ele>465</ele>
        <time>2018-06-09T15:45:49Z</time>
      </trkpt>
      <trkpt lat="43.65385" lon="2.34861">
        <ele>466</ele>
        <time>2018-06-09T15:45:51Z</time>
      </trkpt>
      <trkpt lat="43.65375" lon="2.34862">
        <ele>467</ele>
        <time>2018-06-09T15:45:56Z</time>
      </trkpt>
      <trkpt lat="43.6537" lon="2.34863">
        <ele>468</ele>
        <time>2018-06-09T15:45:59Z</time>
      </trkpt>
      <trkpt lat="43.6536" lon="2.34865">
        <ele>469</ele>
        <time>2018-06-09T15:46:04Z</time>
      </trkpt>
      <trkpt lat="43.65359" lon="2.34865">
        <ele>469</ele>
        <time>2018-06-09T15:46:05Z</time>
      </trkpt>
      <trkpt lat="43.65352" lon="2.34866">
        <ele>470</ele>
        <time>2018-06-09T15:46:09Z</time>
      </trkpt>
      <trkpt lat="43.65349" lon="2.34866">
        <ele>470</ele>
        <time>2018-06-09T15:46:10Z</time>
      </trkpt>
      <trkpt lat="43.65341" lon="2.34867">
        <ele>471</ele>
        <time>2018-06-09T15:46:14Z</time>
      </trkpt>
      <trkpt lat="43.65338" lon="2.34868">
        <ele>472</ele>
        <time>2018-06-09T15:46:16Z</time>
      </trkpt>
      <trkpt lat="43.65334" lon="2.34868">
        <ele>472</ele>
        <time>2018-06-09T15:46:18Z</time>
      </trkpt>
      <trkpt lat="43.6533" lon="2.34868">
        <ele>474</ele>
        <time>2018-06-09T15:46:21Z</time>
      </trkpt>
      <trkpt lat="43.65328" lon="2.34865">
        <ele>474</ele>
        <time>2018-06-09T15:46:23Z</time>
      </trkpt>
      <trkpt lat="43.65325" lon="2.34858">
        <ele>475</ele>
        <time>2018-06-09T15:46:27Z</time>
      </trkpt>
      <trkpt lat="43.65324" lon="2.34856">
        <ele>475</ele>
        <time>2018-06-09T15:46:28Z</time>
      </trkpt>
      <trkpt lat="43.65324" lon="2.34853">
        <ele>475</ele>
        <time>2018-06-09T15:46:29Z</time>
      </trkpt>
      <trkpt lat="43.65322" lon="2.34843">
        <ele>476</ele>
        <time>2018-06-09T15:46:33Z</time>
      </trkpt>
      <trkpt lat="43.65322" lon="2.34841">
        <ele>476</ele>
        <time>2018-06-09T15:46:34Z</time>
      </trkpt>
      <trkpt lat="43.65321" lon="2.34833">
        <ele>476</ele>
        <time>2018-06-09T15:46:38Z</time>
      </trkpt>
      <trkpt lat="43.65322" lon="2.34829">
        <ele>477</ele>
        <time>2018-06-09T15:46:40Z</time>
      </trkpt>
      <trkpt lat="43.65324" lon="2.34821">
        <ele>478</ele>
        <time>2018-06-09T15:46:44Z</time>
      </trkpt>
      <trkpt lat="43.65326" lon="2.34815">
        <ele>478</ele>
        <time>2018-06-09T15:46:46Z</time>
      </trkpt>
      <trkpt lat="43.65326" lon="2.34796">
        <ele>478</ele>
        <time>2018-06-09T15:46:51Z</time>
      </trkpt>
      <trkpt lat="43.65326" lon="2.34782">
        <ele>479</ele>
        <time>2018-06-09T15:46:56Z</time>
      </trkpt>
      <trkpt lat="43.65326" lon="2.34779">
        <ele>479</ele>
        <time>2018-06-09T15:46:57Z</time>
      </trkpt>
      <trkpt lat="43.65327" lon="2.34771">
        <ele>479</ele>
        <time>2018-06-09T15:47:00Z</time>
      </trkpt>
      <trkpt lat="43.65328" lon="2.34766">
        <ele>480</ele>
        <time>2018-06-09T15:47:02Z</time>
      </trkpt>
      <trkpt lat="43.65328" lon="2.3476">
        <ele>480</ele>
        <time>2018-06-09T15:47:04Z</time>
      </trkpt>
      <trkpt lat="43.6533" lon="2.3475">
        <ele>480</ele>
        <time>2018-06-09T15:47:07Z</time>
      </trkpt>
      <trkpt lat="43.65331" lon="2.34746">
        <ele>480</ele>
        <time>2018-06-09T15:47:08Z</time>
      </trkpt>
      <trkpt lat="43.65333" lon="2.34731">
        <ele>480</ele>
        <time>2018-06-09T15:47:12Z</time>
      </trkpt>
      <trkpt lat="43.65333" lon="2.34727">
        <ele>480</ele>
        <time>2018-06-09T15:47:13Z</time>
      </trkpt>
      <trkpt lat="43.65333" lon="2.34707">
        <ele>480</ele>
        <time>2018-06-09T15:47:16Z</time>
      </trkpt>
      <trkpt lat="43.65335" lon="2.34693">
        <ele>479</ele>
        <time>2018-06-09T15:47:18Z</time>
      </trkpt>
      <trkpt lat="43.65335" lon="2.34686">
        <ele>478</ele>
        <time>2018-06-09T15:47:19Z</time>
      </trkpt>
      <trkpt lat="43.65336" lon="2.3468">
        <ele>478</ele>
        <time>2018-06-09T15:47:20Z</time>
      </trkpt>
      <trkpt lat="43.65334" lon="2.34664">
        <ele>479</ele>
        <time>2018-06-09T15:47:24Z</time>
      </trkpt>
      <trkpt lat="43.65333" lon="2.34659">
        <ele>480</ele>
        <time>2018-06-09T15:47:26Z</time>
      </trkpt>
      <trkpt lat="43.65332" lon="2.3465">
        <ele>481</ele>
        <time>2018-06-09T15:47:29Z</time>
      </trkpt>
      <trkpt lat="43.65332" lon="2.34648">
        <ele>481</ele>
        <time>2018-06-09T15:47:30Z</time>
      </trkpt>
      <trkpt lat="43.6533" lon="2.34643">
        <ele>482</ele>
        <time>2018-06-09T15:47:32Z</time>
      </trkpt>
      <trkpt lat="43.65329" lon="2.3464">
        <ele>482</ele>
        <time>2018-06-09T15:47:33Z</time>
      </trkpt>
      <trkpt lat="43.65328" lon="2.34638">
        <ele>483</ele>
        <time>2018-06-09T15:47:34Z</time>
      </trkpt>
      <trkpt lat="43.65325" lon="2.34635">
        <ele>483</ele>
        <time>2018-06-09T15:47:36Z</time>
      </trkpt>
      <trkpt lat="43.65323" lon="2.34635">
        <ele>483</ele>
        <time>2018-06-09T15:47:37Z</time>
      </trkpt>
      <trkpt lat="43.65321" lon="2.34635">
        <ele>484</ele>
        <time>2018-06-09T15:47:39Z</time>
      </trkpt>
      <trkpt lat="43.65317" lon="2.34634">
        <ele>485</ele>
        <time>2018-06-09T15:47:43Z</time>
      </trkpt>
      <trkpt lat="43.65315" lon="2.34636">
        <ele>485</ele>
        <time>2018-06-09T15:47:44Z</time>
      </trkpt>
      <trkpt lat="43.65314" lon="2.34637">
        <ele>485</ele>
        <time>2018-06-09T15:47:45Z</time>
      </trkpt>
      <trkpt lat="43.65312" lon="2.34637">
        <ele>485</ele>
        <time>2018-06-09T15:47:47Z</time>
      </trkpt>
      <trkpt lat="43.65308" lon="2.34637">
        <ele>486</ele>
        <time>2018-06-09T15:47:50Z</time>
      </trkpt>
      <trkpt lat="43.65302" lon="2.34637">
        <ele>487</ele>
        <time>2018-06-09T15:47:55Z</time>
      </trkpt>
      <trkpt lat="43.653" lon="2.34637">
        <ele>487</ele>
        <time>2018-06-09T15:47:56Z</time>
      </trkpt>
      <trkpt lat="43.65296" lon="2.34638">
        <ele>488</ele>
        <time>2018-06-09T15:47:59Z</time>
      </trkpt>
      <trkpt lat="43.65293" lon="2.3464">
        <ele>489</ele>
        <time>2018-06-09T15:48:02Z</time>
      </trkpt>
      <trkpt lat="43.65291" lon="2.3464">
        <ele>489</ele>
        <time>2018-06-09T15:48:03Z</time>
      </trkpt>
      <trkpt lat="43.65284" lon="2.34641">
        <ele>490</ele>
        <time>2018-06-09T15:48:08Z</time>
      </trkpt>
      <trkpt lat="43.65283" lon="2.34642">
        <ele>490</ele>
        <time>2018-06-09T15:48:09Z</time>
      </trkpt>
      <trkpt lat="43.65277" lon="2.34647">
        <ele>491</ele>
        <time>2018-06-09T15:48:13Z</time>
      </trkpt>
      <trkpt lat="43.6527" lon="2.34652">
        <ele>492</ele>
        <time>2018-06-09T15:48:17Z</time>
      </trkpt>
      <trkpt lat="43.65261" lon="2.34659">
        <ele>494</ele>
        <time>2018-06-09T15:48:23Z</time>
      </trkpt>
      <trkpt lat="43.65252" lon="2.34664">
        <ele>494</ele>
        <time>2018-06-09T15:48:29Z</time>
      </trkpt>
      <trkpt lat="43.6525" lon="2.34665">
        <ele>495</ele>
        <time>2018-06-09T15:48:30Z</time>
      </trkpt>
      <trkpt lat="43.65239" lon="2.34668">
        <ele>496</ele>
        <time>2018-06-09T15:48:36Z</time>
      </trkpt>
      <trkpt lat="43.6523" lon="2.34672">
        <ele>496</ele>
        <time>2018-06-09T15:48:41Z</time>
      </trkpt>
      <trkpt lat="43.65228" lon="2.34673">
        <ele>496</ele>
        <time>2018-06-09T15:48:42Z</time>
      </trkpt>
      <trkpt lat="43.65225" lon="2.34674">
        <ele>496</ele>
        <time>2018-06-09T15:48:44Z</time>
      </trkpt>
      <trkpt lat="43.65221" lon="2.34675">
        <ele>497</ele>
        <time>2018-06-09T15:48:47Z</time>
      </trkpt>
      <trkpt lat="43.6522" lon="2.34675">
        <ele>497</ele>
        <time>2018-06-09T15:48:48Z</time>
      </trkpt>
      <trkpt lat="43.65212" lon="2.34679">
        <ele>498</ele>
        <time>2018-06-09T15:48:53Z</time>
      </trkpt>
      <trkpt lat="43.65211" lon="2.34679">
        <ele>498</ele>
        <time>2018-06-09T15:48:54Z</time>
      </trkpt>
      <trkpt lat="43.65203" lon="2.34682">
        <ele>499</ele>
        <time>2018-06-09T15:48:59Z</time>
      </trkpt>
      <trkpt lat="43.65197" lon="2.34683">
        <ele>499</ele>
        <time>2018-06-09T15:49:02Z</time>
      </trkpt>
      <trkpt lat="43.65196" lon="2.34684">
        <ele>499</ele>
        <time>2018-06-09T15:49:03Z</time>
      </trkpt>
      <trkpt lat="43.6519" lon="2.34684">
        <ele>499</ele>
        <time>2018-06-09T15:49:06Z</time>
      </trkpt>
      <trkpt lat="43.65188" lon="2.34685">
        <ele>499</ele>
        <time>2018-06-09T15:49:07Z</time>
      </trkpt>
      <trkpt lat="43.65179" lon="2.34686">
        <ele>499</ele>
        <time>2018-06-09T15:49:10Z</time>
      </trkpt>
      <trkpt lat="43.65171" lon="2.34688">
        <ele>498</ele>
        <time>2018-06-09T15:49:13Z</time>
      </trkpt>
      <trkpt lat="43.65155" lon="2.34692">
        <ele>499</ele>
        <time>2018-06-09T15:49:19Z</time>
      </trkpt>
      <trkpt lat="43.65143" lon="2.34696">
        <ele>499</ele>
        <time>2018-06-09T15:49:23Z</time>
      </trkpt>
      <trkpt lat="43.6513" lon="2.34695">
        <ele>498</ele>
        <time>2018-06-09T15:49:26Z</time>
      </trkpt>
      <trkpt lat="43.65126" lon="2.34695">
        <ele>497</ele>
        <time>2018-06-09T15:49:27Z</time>
      </trkpt>
      <trkpt lat="43.65121" lon="2.34696">
        <ele>496</ele>
        <time>2018-06-09T15:49:28Z</time>
      </trkpt>
      <trkpt lat="43.65113" lon="2.34698">
        <ele>497</ele>
        <time>2018-06-09T15:49:30Z</time>
      </trkpt>
      <trkpt lat="43.65108" lon="2.34701">
        <ele>497</ele>
        <time>2018-06-09T15:49:32Z</time>
      </trkpt>
      <trkpt lat="43.65105" lon="2.34701">
        <ele>497</ele>
        <time>2018-06-09T15:49:33Z</time>
      </trkpt>
      <trkpt lat="43.65097" lon="2.34704">
        <ele>497</ele>
        <time>2018-06-09T15:49:35Z</time>
      </trkpt>
      <trkpt lat="43.65094" lon="2.34704">
        <ele>496</ele>
        <time>2018-06-09T15:49:36Z</time>
      </trkpt>
      <trkpt lat="43.65085" lon="2.34705">
        <ele>496</ele>
        <time>2018-06-09T15:49:38Z</time>
      </trkpt>
      <trkpt lat="43.6508" lon="2.34704">
        <ele>496</ele>
        <time>2018-06-09T15:49:39Z</time>
      </trkpt>
      <trkpt lat="43.65074" lon="2.34703">
        <ele>496</ele>
        <time>2018-06-09T15:49:40Z</time>
      </trkpt>
      <trkpt lat="43.65068" lon="2.34702">
        <ele>495</ele>
        <time>2018-06-09T15:49:41Z</time>
      </trkpt>
      <trkpt lat="43.65055" lon="2.34702">
        <ele>494</ele>
        <time>2018-06-09T15:49:43Z</time>
      </trkpt>
      <trkpt lat="43.65043" lon="2.34699">
        <ele>492</ele>
        <time>2018-06-09T15:49:45Z</time>
      </trkpt>
      <trkpt lat="43.65035" lon="2.34702">
        <ele>492</ele>
        <time>2018-06-09T15:49:47Z</time>
      </trkpt>
      <trkpt lat="43.65031" lon="2.34704">
        <ele>492</ele>
        <time>2018-06-09T15:49:48Z</time>
      </trkpt>
      <trkpt lat="43.65021" lon="2.34711">
        <ele>491</ele>
        <time>2018-06-09T15:49:51Z</time>
      </trkpt>
      <trkpt lat="43.65007" lon="2.3472">
        <ele>492</ele>
        <time>2018-06-09T15:49:55Z</time>
      </trkpt>
      <trkpt lat="43.64999" lon="2.34725">
        <ele>493</ele>
        <time>2018-06-09T15:49:57Z</time>
      </trkpt>
      <trkpt lat="43.64996" lon="2.3473">
        <ele>495</ele>
        <time>2018-06-09T15:49:59Z</time>
      </trkpt>
      <trkpt lat="43.64996" lon="2.34731">
        <ele>495</ele>
        <time>2018-06-09T15:50:00Z</time>
      </trkpt>
      <trkpt lat="43.64992" lon="2.34735">
        <ele>496</ele>
        <time>2018-06-09T15:50:02Z</time>
      </trkpt>
      <trkpt lat="43.64991" lon="2.34737">
        <ele>496</ele>
        <time>2018-06-09T15:50:03Z</time>
      </trkpt>
      <trkpt lat="43.64984" lon="2.34745">
        <ele>497</ele>
        <time>2018-06-09T15:50:06Z</time>
      </trkpt>
      <trkpt lat="43.64982" lon="2.34746">
        <ele>497</ele>
        <time>2018-06-09T15:50:07Z</time>
      </trkpt>
      <trkpt lat="43.64978" lon="2.3475">
        <ele>498</ele>
        <time>2018-06-09T15:50:09Z</time>
      </trkpt>
      <trkpt lat="43.64976" lon="2.34753">
        <ele>498</ele>
        <time>2018-06-09T15:50:10Z</time>
      </trkpt>
      <trkpt lat="43.64975" lon="2.34754">
        <ele>498</ele>
        <time>2018-06-09T15:50:11Z</time>
      </trkpt>
      <trkpt lat="43.64972" lon="2.34759">
        <ele>499</ele>
        <time>2018-06-09T15:50:13Z</time>
      </trkpt>
      <trkpt lat="43.64969" lon="2.34763">
        <ele>499</ele>
        <time>2018-06-09T15:50:15Z</time>
      </trkpt>
      <trkpt lat="43.64968" lon="2.34766">
        <ele>499</ele>
        <time>2018-06-09T15:50:16Z</time>
      </trkpt>
      <trkpt lat="43.64964" lon="2.34772">
        <ele>500</ele>
        <time>2018-06-09T15:50:19Z</time>
      </trkpt>
      <trkpt lat="43.6496" lon="2.34785">
        <ele>501</ele>
        <time>2018-06-09T15:50:24Z</time>
      </trkpt>
      <trkpt lat="43.64959" lon="2.34787">
        <ele>501</ele>
        <time>2018-06-09T15:50:25Z</time>
      </trkpt>
      <trkpt lat="43.64956" lon="2.348">
        <ele>502</ele>
        <time>2018-06-09T15:50:31Z</time>
      </trkpt>
      <trkpt lat="43.64954" lon="2.34804">
        <ele>502</ele>
        <time>2018-06-09T15:50:33Z</time>
      </trkpt>
      <trkpt lat="43.64954" lon="2.34806">
        <ele>503</ele>
        <time>2018-06-09T15:50:34Z</time>
      </trkpt>
      <trkpt lat="43.64953" lon="2.34808">
        <ele>503</ele>
        <time>2018-06-09T15:50:35Z</time>
      </trkpt>
      <trkpt lat="43.64948" lon="2.34817">
        <ele>504</ele>
        <time>2018-06-09T15:50:40Z</time>
      </trkpt>
      <trkpt lat="43.64947" lon="2.34821">
        <ele>504</ele>
        <time>2018-06-09T15:50:41Z</time>
      </trkpt>
      <trkpt lat="43.64946" lon="2.34823">
        <ele>504</ele>
        <time>2018-06-09T15:50:42Z</time>
      </trkpt>
      <trkpt lat="43.64944" lon="2.34832">
        <ele>505</ele>
        <time>2018-06-09T15:50:46Z</time>
      </trkpt>
      <trkpt lat="43.64944" lon="2.34839">
        <ele>505</ele>
        <time>2018-06-09T15:50:49Z</time>
      </trkpt>
      <trkpt lat="43.64943" lon="2.34852">
        <ele>505</ele>
        <time>2018-06-09T15:50:56Z</time>
      </trkpt>
      <trkpt lat="43.64942" lon="2.34865">
        <ele>506</ele>
        <time>2018-06-09T15:51:01Z</time>
      </trkpt>
      <trkpt lat="43.64941" lon="2.34872">
        <ele>507</ele>
        <time>2018-06-09T15:51:05Z</time>
      </trkpt>
      <trkpt lat="43.64941" lon="2.34874">
        <ele>507</ele>
        <time>2018-06-09T15:51:06Z</time>
      </trkpt>
      <trkpt lat="43.64939" lon="2.34879">
        <ele>508</ele>
        <time>2018-06-09T15:51:08Z</time>
      </trkpt>
      <trkpt lat="43.64936" lon="2.34881">
        <ele>508</ele>
        <time>2018-06-09T15:51:10Z</time>
      </trkpt>
      <trkpt lat="43.64933" lon="2.34882">
        <ele>508</ele>
        <time>2018-06-09T15:51:12Z</time>
      </trkpt>
      <trkpt lat="43.64922" lon="2.34882">
        <ele>508</ele>
        <time>2018-06-09T15:51:17Z</time>
      </trkpt>
      <trkpt lat="43.6492" lon="2.34883">
        <ele>508</ele>
        <time>2018-06-09T15:51:18Z</time>
      </trkpt>
      <trkpt lat="43.64912" lon="2.34887">
        <ele>509</ele>
        <time>2018-06-09T15:51:24Z</time>
      </trkpt>
      <trkpt lat="43.64909" lon="2.34889">
        <ele>511</ele>
        <time>2018-06-09T15:51:27Z</time>
      </trkpt>
      <trkpt lat="43.64904" lon="2.34893">
        <ele>511</ele>
        <time>2018-06-09T15:51:31Z</time>
      </trkpt>
      <trkpt lat="43.64902" lon="2.34893">
        <ele>512</ele>
        <time>2018-06-09T15:51:32Z</time>
      </trkpt>
      <trkpt lat="43.64899" lon="2.34897">
        <ele>513</ele>
        <time>2018-06-09T15:51:35Z</time>
      </trkpt>
      <trkpt lat="43.64897" lon="2.34897">
        <ele>513</ele>
        <time>2018-06-09T15:51:36Z</time>
      </trkpt>
      <trkpt lat="43.64895" lon="2.34898">
        <ele>513</ele>
        <time>2018-06-09T15:51:37Z</time>
      </trkpt>
      <trkpt lat="43.64891" lon="2.349">
        <ele>514</ele>
        <time>2018-06-09T15:51:41Z</time>
      </trkpt>
      <trkpt lat="43.64888" lon="2.34901">
        <ele>514</ele>
        <time>2018-06-09T15:51:44Z</time>
      </trkpt>
      <trkpt lat="43.64878" lon="2.34909">
        <ele>514</ele>
        <time>2018-06-09T15:51:52Z</time>
      </trkpt>
      <trkpt lat="43.6487" lon="2.34919">
        <ele>515</ele>
        <time>2018-06-09T15:51:59Z</time>
      </trkpt>
      <trkpt lat="43.64867" lon="2.34921">
        <ele>515</ele>
        <time>2018-06-09T15:52:01Z</time>
      </trkpt>
      <trkpt lat="43.64862" lon="2.34926">
        <ele>515</ele>
        <time>2018-06-09T15:52:04Z</time>
      </trkpt>
      <trkpt lat="43.64852" lon="2.3494">
        <ele>516</ele>
        <time>2018-06-09T15:52:10Z</time>
      </trkpt>
      <trkpt lat="43.64848" lon="2.34947">
        <ele>516</ele>
        <time>2018-06-09T15:52:13Z</time>
      </trkpt>
      <trkpt lat="43.64843" lon="2.34954">
        <ele>516</ele>
        <time>2018-06-09T15:52:15Z</time>
      </trkpt>
      <trkpt lat="43.6483" lon="2.3497">
        <ele>516</ele>
        <time>2018-06-09T15:52:21Z</time>
      </trkpt>
      <trkpt lat="43.64813" lon="2.34986">
        <ele>516</ele>
        <time>2018-06-09T15:52:27Z</time>
      </trkpt>
      <trkpt lat="43.64797" lon="2.35001">
        <ele>516</ele>
        <time>2018-06-09T15:52:33Z</time>
      </trkpt>
      <trkpt lat="43.64781" lon="2.35012">
        <ele>517</ele>
        <time>2018-06-09T15:52:39Z</time>
      </trkpt>
      <trkpt lat="43.64776" lon="2.35016">
        <ele>517</ele>
        <time>2018-06-09T15:52:41Z</time>
      </trkpt>
      <trkpt lat="43.64763" lon="2.35031">
        <ele>517</ele>
        <time>2018-06-09T15:52:46Z</time>
      </trkpt>
      <trkpt lat="43.64748" lon="2.3506">
        <ele>517</ele>
        <time>2018-06-09T15:52:53Z</time>
      </trkpt>
      <trkpt lat="43.64732" lon="2.35095">
        <ele>518</ele>
        <time>2018-06-09T15:53:01Z</time>
      </trkpt>
      <trkpt lat="43.64719" lon="2.35123">
        <ele>518</ele>
        <time>2018-06-09T15:53:08Z</time>
      </trkpt>
      <trkpt lat="43.64717" lon="2.35126">
        <ele>518</ele>
        <time>2018-06-09T15:53:09Z</time>
      </trkpt>
      <trkpt lat="43.64707" lon="2.35152">
        <ele>518</ele>
        <time>2018-06-09T15:53:15Z</time>
      </trkpt>
      <trkpt lat="43.64698" lon="2.35179">
        <ele>519</ele>
        <time>2018-06-09T15:53:21Z</time>
      </trkpt>
      <trkpt lat="43.64695" lon="2.35187">
        <ele>519</ele>
        <time>2018-06-09T15:53:23Z</time>
      </trkpt>
      <trkpt lat="43.6469" lon="2.35205">
        <ele>520</ele>
        <time>2018-06-09T15:53:27Z</time>
      </trkpt>
      <trkpt lat="43.64686" lon="2.35224">
        <ele>521</ele>
        <time>2018-06-09T15:53:32Z</time>
      </trkpt>
      <trkpt lat="43.64683" lon="2.3523">
        <ele>521</ele>
        <time>2018-06-09T15:53:34Z</time>
      </trkpt>
      <trkpt lat="43.6468" lon="2.35236">
        <ele>522</ele>
        <time>2018-06-09T15:53:36Z</time>
      </trkpt>
      <trkpt lat="43.64677" lon="2.35244">
        <ele>522</ele>
        <time>2018-06-09T15:53:38Z</time>
      </trkpt>
      <trkpt lat="43.64668" lon="2.35259">
        <ele>523</ele>
        <time>2018-06-09T15:53:43Z</time>
      </trkpt>
      <trkpt lat="43.64666" lon="2.3526">
        <ele>523</ele>
        <time>2018-06-09T15:53:44Z</time>
      </trkpt>
      <trkpt lat="43.64652" lon="2.35265">
        <ele>524</ele>
        <time>2018-06-09T15:53:49Z</time>
      </trkpt>
      <trkpt lat="43.64635" lon="2.3527">
        <ele>523</ele>
        <time>2018-06-09T15:53:54Z</time>
      </trkpt>
      <trkpt lat="43.64621" lon="2.3528">
        <ele>523</ele>
        <time>2018-06-09T15:53:58Z</time>
      </trkpt>
      <trkpt lat="43.64604" lon="2.35302">
        <ele>524</ele>
        <time>2018-06-09T15:54:04Z</time>
      </trkpt>
      <trkpt lat="43.64593" lon="2.35321">
        <ele>524</ele>
        <time>2018-06-09T15:54:09Z</time>
      </trkpt>
      <trkpt lat="43.64589" lon="2.35328">
        <ele>525</ele>
        <time>2018-06-09T15:54:11Z</time>
      </trkpt>
      <trkpt lat="43.64582" lon="2.35338">
        <ele>526</ele>
        <time>2018-06-09T15:54:14Z</time>
      </trkpt>
      <trkpt lat="43.64576" lon="2.35348">
        <ele>526</ele>
        <time>2018-06-09T15:54:17Z</time>
      </trkpt>
      <trkpt lat="43.64567" lon="2.35361">
        <ele>527</ele>
        <time>2018-06-09T15:54:21Z</time>
      </trkpt>
      <trkpt lat="43.64563" lon="2.35369">
        <ele>527</ele>
        <time>2018-06-09T15:54:23Z</time>
      </trkpt>
      <trkpt lat="43.64558" lon="2.35377">
        <ele>528</ele>
        <time>2018-06-09T15:54:26Z</time>
      </trkpt>
      <trkpt lat="43.64555" lon="2.35383">
        <ele>529</ele>
        <time>2018-06-09T15:54:28Z</time>
      </trkpt>
      <trkpt lat="43.6455" lon="2.35395">
        <ele>529</ele>
        <time>2018-06-09T15:54:32Z</time>
      </trkpt>
      <trkpt lat="43.64548" lon="2.35409">
        <ele>530</ele>
        <time>2018-06-09T15:54:36Z</time>
      </trkpt>
      <trkpt lat="43.64548" lon="2.35413">
        <ele>530</ele>
        <time>2018-06-09T15:54:37Z</time>
      </trkpt>
      <trkpt lat="43.64546" lon="2.35428">
        <ele>531</ele>
        <time>2018-06-09T15:54:41Z</time>
      </trkpt>
      <trkpt lat="43.64542" lon="2.35437">
        <ele>532</ele>
        <time>2018-06-09T15:54:44Z</time>
      </trkpt>
      <trkpt lat="43.64541" lon="2.35448">
        <ele>532</ele>
        <time>2018-06-09T15:54:47Z</time>
      </trkpt>
      <trkpt lat="43.6454" lon="2.35451">
        <ele>532</ele>
        <time>2018-06-09T15:54:48Z</time>
      </trkpt>
      <trkpt lat="43.64534" lon="2.35467">
        <ele>533</ele>
        <time>2018-06-09T15:54:53Z</time>
      </trkpt>
      <trkpt lat="43.6453" lon="2.35477">
        <ele>533</ele>
        <time>2018-06-09T15:54:56Z</time>
      </trkpt>
      <trkpt lat="43.64516" lon="2.355">
        <ele>534</ele>
        <time>2018-06-09T15:55:03Z</time>
      </trkpt>
      <trkpt lat="43.64512" lon="2.35506">
        <ele>535</ele>
        <time>2018-06-09T15:55:05Z</time>
      </trkpt>
      <trkpt lat="43.64505" lon="2.35519">
        <ele>535</ele>
        <time>2018-06-09T15:55:09Z</time>
      </trkpt>
      <trkpt lat="43.645" lon="2.35528">
        <ele>536</ele>
        <time>2018-06-09T15:55:12Z</time>
      </trkpt>
      <trkpt lat="43.64497" lon="2.35535">
        <ele>536</ele>
        <time>2018-06-09T15:55:14Z</time>
      </trkpt>
      <trkpt lat="43.64489" lon="2.35554">
        <ele>536</ele>
        <time>2018-06-09T15:55:20Z</time>
      </trkpt>
      <trkpt lat="43.64486" lon="2.3556">
        <ele>537</ele>
        <time>2018-06-09T15:55:22Z</time>
      </trkpt>
      <trkpt lat="43.64483" lon="2.35566">
        <ele>537</ele>
        <time>2018-06-09T15:55:24Z</time>
      </trkpt>
      <trkpt lat="43.64481" lon="2.35569">
        <ele>538</ele>
        <time>2018-06-09T15:55:25Z</time>
      </trkpt>
      <trkpt lat="43.64477" lon="2.35579">
        <ele>538</ele>
        <time>2018-06-09T15:55:28Z</time>
      </trkpt>
      <trkpt lat="43.64474" lon="2.35585">
        <ele>538</ele>
        <time>2018-06-09T15:55:30Z</time>
      </trkpt>
      <trkpt lat="43.64466" lon="2.35597">
        <ele>539</ele>
        <time>2018-06-09T15:55:34Z</time>
      </trkpt>
      <trkpt lat="43.64464" lon="2.35599">
        <ele>539</ele>
        <time>2018-06-09T15:55:35Z</time>
      </trkpt>
      <trkpt lat="43.64453" lon="2.35612">
        <ele>540</ele>
        <time>2018-06-09T15:55:40Z</time>
      </trkpt>
      <trkpt lat="43.64437" lon="2.35621">
        <ele>540</ele>
        <time>2018-06-09T15:55:46Z</time>
      </trkpt>
      <trkpt lat="43.64421" lon="2.35621">
        <ele>541</ele>
        <time>2018-06-09T15:55:51Z</time>
      </trkpt>
      <trkpt lat="43.64418" lon="2.35621">
        <ele>541</ele>
        <time>2018-06-09T15:55:52Z</time>
      </trkpt>
      <trkpt lat="43.6441" lon="2.35618">
        <ele>542</ele>
        <time>2018-06-09T15:55:55Z</time>
      </trkpt>
      <trkpt lat="43.64407" lon="2.35616">
        <ele>542</ele>
        <time>2018-06-09T15:55:56Z</time>
      </trkpt>
      <trkpt lat="43.64391" lon="2.35608">
        <ele>542</ele>
        <time>2018-06-09T15:56:02Z</time>
      </trkpt>
      <trkpt lat="43.64377" lon="2.356">
        <ele>543</ele>
        <time>2018-06-09T15:56:08Z</time>
      </trkpt>
      <trkpt lat="43.64375" lon="2.35599">
        <ele>543</ele>
        <time>2018-06-09T15:56:09Z</time>
      </trkpt>
      <trkpt lat="43.64374" lon="2.35599">
        <ele>543</ele>
        <time>2018-06-09T15:56:13Z</time>
      </trkpt>
      <trkpt lat="43.64374" lon="2.35599">
        <ele>543</ele>
        <time>2018-06-09T15:56:22Z</time>
      </trkpt>
      <trkpt lat="43.64374" lon="2.35599">
        <ele>543</ele>
        <time>2018-06-09T15:56:23Z</time>
      </trkpt>
      <trkpt lat="43.64374" lon="2.35599">
        <ele>543</ele>
        <time>2018-06-09T15:56:40Z</time>
      </trkpt>
      <trkpt lat="43.64374" lon="2.35599">
        <ele>543</ele>
        <time>2018-06-09T15:56:46Z</time>
      </trkpt>
      <trkpt lat="43.64374" lon="2.35599">
        <ele>543</ele>
        <time>2018-06-09T15:56:52Z</time>
      </trkpt>
      <trkpt lat="43.64374" lon="2.35599">
        <ele>543</ele>
        <time>2018-06-09T15:56:57Z</time>
      </trkpt>
      <trkpt lat="43.64374" lon="2.35599">
        <ele>543</ele>
        <time>2018-06-09T15:57:02Z</time>
      </trkpt>
      <trkpt lat="43.64374" lon="2.35599">
        <ele>543</ele>
        <time>2018-06-09T15:57:13Z</time>
      </trkpt>
      <trkpt lat="43.64374" lon="2.35599">
        <ele>543</ele>
        <time>2018-06-09T15:57:23Z</time>
      </trkpt>
      <trkpt lat="43.64374" lon="2.35599">
        <ele>543</ele>
        <time>2018-06-09T15:57:25Z</time>
      </trkpt>
      <trkpt lat="43.64369" lon="2.35597">
        <ele>543</ele>
        <time>2018-06-09T15:57:45Z</time>
      </trkpt>
      <trkpt lat="43.64364" lon="2.35592">
        <ele>544</ele>
        <time>2018-06-09T15:57:48Z</time>
      </trkpt>
      <trkpt lat="43.64359" lon="2.35582">
        <ele>544</ele>
        <time>2018-06-09T15:57:52Z</time>
      </trkpt>
      <trkpt lat="43.64357" lon="2.35569">
        <ele>544</ele>
        <time>2018-06-09T15:57:56Z</time>
      </trkpt>
      <trkpt lat="43.64357" lon="2.35566">
        <ele>544</ele>
        <time>2018-06-09T15:57:57Z</time>
      </trkpt>
      <trkpt lat="43.64357" lon="2.35555">
        <ele>544</ele>
        <time>2018-06-09T15:58:00Z</time>
      </trkpt>
      <trkpt lat="43.64358" lon="2.35552">
        <ele>544</ele>
        <time>2018-06-09T15:58:01Z</time>
      </trkpt>
      <trkpt lat="43.64358" lon="2.35545">
        <ele>545</ele>
        <time>2018-06-09T15:58:03Z</time>
      </trkpt>
      <trkpt lat="43.64357" lon="2.35539">
        <ele>545</ele>
        <time>2018-06-09T15:58:05Z</time>
      </trkpt>
      <trkpt lat="43.64357" lon="2.35537">
        <ele>545</ele>
        <time>2018-06-09T15:58:06Z</time>
      </trkpt>
      <trkpt lat="43.64357" lon="2.35535">
        <ele>546</ele>
        <time>2018-06-09T15:58:07Z</time>
      </trkpt>
      <trkpt lat="43.64356" lon="2.35531">
        <ele>546</ele>
        <time>2018-06-09T15:58:09Z</time>
      </trkpt>
      <trkpt lat="43.64354" lon="2.35527">
        <ele>547</ele>
        <time>2018-06-09T15:58:11Z</time>
      </trkpt>
      <trkpt lat="43.64353" lon="2.35524">
        <ele>547</ele>
        <time>2018-06-09T15:58:13Z</time>
      </trkpt>
      <trkpt lat="43.64351" lon="2.35517">
        <ele>548</ele>
        <time>2018-06-09T15:58:16Z</time>
      </trkpt>
      <trkpt lat="43.6435" lon="2.35515">
        <ele>548</ele>
        <time>2018-06-09T15:58:17Z</time>
      </trkpt>
      <trkpt lat="43.64343" lon="2.3551">
        <ele>548</ele>
        <time>2018-06-09T15:58:20Z</time>
      </trkpt>
      <trkpt lat="43.64341" lon="2.35508">
        <ele>548</ele>
        <time>2018-06-09T15:58:21Z</time>
      </trkpt>
      <trkpt lat="43.64339" lon="2.35506">
        <ele>548</ele>
        <time>2018-06-09T15:58:22Z</time>
      </trkpt>
      <trkpt lat="43.64338" lon="2.35502">
        <ele>548</ele>
        <time>2018-06-09T15:58:24Z</time>
      </trkpt>
      <trkpt lat="43.64339" lon="2.355">
        <ele>548</ele>
        <time>2018-06-09T15:58:25Z</time>
      </trkpt>
      <trkpt lat="43.64349" lon="2.35485">
        <ele>547</ele>
        <time>2018-06-09T15:58:29Z</time>
      </trkpt>
      <trkpt lat="43.64353" lon="2.35481">
        <ele>546</ele>
        <time>2018-06-09T15:58:30Z</time>
      </trkpt>
      <trkpt lat="43.64361" lon="2.35471">
        <ele>546</ele>
        <time>2018-06-09T15:58:32Z</time>
      </trkpt>
      <trkpt lat="43.64364" lon="2.35465">
        <ele>545</ele>
        <time>2018-06-09T15:58:33Z</time>
      </trkpt>
      <trkpt lat="43.64371" lon="2.35461">
        <ele>544</ele>
        <time>2018-06-09T15:58:34Z</time>
      </trkpt>
      <trkpt lat="43.64372" lon="2.35453">
        <ele>543</ele>
        <time>2018-06-09T15:58:35Z</time>
      </trkpt>
      <trkpt lat="43.64375" lon="2.35446">
        <ele>543</ele>
        <time>2018-06-09T15:58:36Z</time>
      </trkpt>
      <trkpt lat="43.64369" lon="2.3543">
        <ele>542</ele>
        <time>2018-06-09T15:58:38Z</time>
      </trkpt>
      <trkpt lat="43.64372" lon="2.35414">
        <ele>541</ele>
        <time>2018-06-09T15:58:40Z</time>
      </trkpt>
      <trkpt lat="43.64372" lon="2.35402">
        <ele>541</ele>
        <time>2018-06-09T15:58:41Z</time>
      </trkpt>
      <trkpt lat="43.64373" lon="2.35392">
        <ele>540</ele>
        <time>2018-06-09T15:58:42Z</time>
      </trkpt>
      <trkpt lat="43.64387" lon="2.35348">
        <ele>541</ele>
        <time>2018-06-09T15:58:47Z</time>
      </trkpt>
      <trkpt lat="43.64391" lon="2.35342">
        <ele>541</ele>
        <time>2018-06-09T15:58:48Z</time>
      </trkpt>
      <trkpt lat="43.64398" lon="2.35329">
        <ele>540</ele>
        <time>2018-06-09T15:58:50Z</time>
      </trkpt>
      <trkpt lat="43.64403" lon="2.35313">
        <ele>539</ele>
        <time>2018-06-09T15:58:52Z</time>
      </trkpt>
      <trkpt lat="43.64407" lon="2.35297">
        <ele>539</ele>
        <time>2018-06-09T15:58:54Z</time>
      </trkpt>
      <trkpt lat="43.64406" lon="2.35282">
        <ele>539</ele>
        <time>2018-06-09T15:58:56Z</time>
      </trkpt>
      <trkpt lat="43.64403" lon="2.35275">
        <ele>539</ele>
        <time>2018-06-09T15:58:57Z</time>
      </trkpt>
      <trkpt lat="43.64391" lon="2.35262">
        <ele>539</ele>
        <time>2018-06-09T15:59:00Z</time>
      </trkpt>
      <trkpt lat="43.64368" lon="2.3524">
        <ele>539</ele>
        <time>2018-06-09T15:59:06Z</time>
      </trkpt>
      <trkpt lat="43.64362" lon="2.35234">
        <ele>539</ele>
        <time>2018-06-09T15:59:08Z</time>
      </trkpt>
      <trkpt lat="43.64354" lon="2.35226">
        <ele>540</ele>
        <time>2018-06-09T15:59:11Z</time>
      </trkpt>
      <trkpt lat="43.64349" lon="2.3522">
        <ele>540</ele>
        <time>2018-06-09T15:59:13Z</time>
      </trkpt>
      <trkpt lat="43.64345" lon="2.35214">
        <ele>541</ele>
        <time>2018-06-09T15:59:15Z</time>
      </trkpt>
      <trkpt lat="43.64343" lon="2.35207">
        <ele>541</ele>
        <time>2018-06-09T15:59:18Z</time>
      </trkpt>
      <trkpt lat="43.64344" lon="2.35204">
        <ele>542</ele>
        <time>2018-06-09T15:59:19Z</time>
      </trkpt>
      <trkpt lat="43.64346" lon="2.35198">
        <ele>541</ele>
        <time>2018-06-09T15:59:21Z</time>
      </trkpt>
      <trkpt lat="43.64351" lon="2.3518">
        <ele>541</ele>
        <time>2018-06-09T15:59:25Z</time>
      </trkpt>
      <trkpt lat="43.64359" lon="2.35159">
        <ele>540</ele>
        <time>2018-06-09T15:59:29Z</time>
      </trkpt>
      <trkpt lat="43.64361" lon="2.35152">
        <ele>540</ele>
        <time>2018-06-09T15:59:31Z</time>
      </trkpt>
      <trkpt lat="43.64366" lon="2.35134">
        <ele>540</ele>
        <time>2018-06-09T15:59:34Z</time>
      </trkpt>
      <trkpt lat="43.64368" lon="2.35128">
        <ele>540</ele>
        <time>2018-06-09T15:59:35Z</time>
      </trkpt>
      <trkpt lat="43.64371" lon="2.35102">
        <ele>540</ele>
        <time>2018-06-09T15:59:39Z</time>
      </trkpt>
      <trkpt lat="43.64375" lon="2.35083">
        <ele>540</ele>
        <time>2018-06-09T15:59:42Z</time>
      </trkpt>
      <trkpt lat="43.6438" lon="2.35074">
        <ele>539</ele>
        <time>2018-06-09T15:59:44Z</time>
      </trkpt>
      <trkpt lat="43.64388" lon="2.35064">
        <ele>539</ele>
        <time>2018-06-09T15:59:47Z</time>
      </trkpt>
      <trkpt lat="43.64394" lon="2.35057">
        <ele>540</ele>
        <time>2018-06-09T15:59:49Z</time>
      </trkpt>
      <trkpt lat="43.6441" lon="2.35045">
        <ele>538</ele>
        <time>2018-06-09T15:59:53Z</time>
      </trkpt>
      <trkpt lat="43.64413" lon="2.35039">
        <ele>538</ele>
        <time>2018-06-09T15:59:54Z</time>
      </trkpt>
      <trkpt lat="43.6442" lon="2.35016">
        <ele>538</ele>
        <time>2018-06-09T15:59:57Z</time>
      </trkpt>
      <trkpt lat="43.64424" lon="2.34993">
        <ele>539</ele>
        <time>2018-06-09T16:00:00Z</time>
      </trkpt>
      <trkpt lat="43.64425" lon="2.34979">
        <ele>538</ele>
        <time>2018-06-09T16:00:02Z</time>
      </trkpt>
      <trkpt lat="43.64423" lon="2.34965">
        <ele>537</ele>
        <time>2018-06-09T16:00:04Z</time>
      </trkpt>
      <trkpt lat="43.64419" lon="2.34944">
        <ele>535</ele>
        <time>2018-06-09T16:00:06Z</time>
      </trkpt>
      <trkpt lat="43.64423" lon="2.34939">
        <ele>535</ele>
        <time>2018-06-09T16:00:07Z</time>
      </trkpt>
      <trkpt lat="43.64426" lon="2.34934">
        <ele>534</ele>
        <time>2018-06-09T16:00:08Z</time>
      </trkpt>
      <trkpt lat="43.64434" lon="2.34926">
        <ele>533</ele>
        <time>2018-06-09T16:00:11Z</time>
      </trkpt>
      <trkpt lat="43.64436" lon="2.34923">
        <ele>533</ele>
        <time>2018-06-09T16:00:12Z</time>
      </trkpt>
      <trkpt lat="43.64438" lon="2.34918">
        <ele>534</ele>
        <time>2018-06-09T16:00:16Z</time>
      </trkpt>
      <trkpt lat="43.64441" lon="2.34913">
        <ele>533</ele>
        <time>2018-06-09T16:00:24Z</time>
      </trkpt>
      <trkpt lat="43.64443" lon="2.34914">
        <ele>533</ele>
        <time>2018-06-09T16:00:38Z</time>
      </trkpt>
      <trkpt lat="43.64443" lon="2.34914">
        <ele>533</ele>
        <time>2018-06-09T16:00:39Z</time>
      </trkpt>
      <trkpt lat="43.64444" lon="2.34913">
        <ele>534</ele>
        <time>2018-06-09T16:00:54Z</time>
      </trkpt>
      <trkpt lat="43.64444" lon="2.34912">
        <ele>533</ele>
        <time>2018-06-09T16:01:04Z</time>
      </trkpt>
      <trkpt lat="43.64444" lon="2.34912">
        <ele>534</ele>
        <time>2018-06-09T16:01:08Z</time>
      </trkpt>
      <trkpt lat="43.64445" lon="2.3491">
        <ele>533</ele>
        <time>2018-06-09T16:01:15Z</time>
      </trkpt>
      <trkpt lat="43.64446" lon="2.34909">
        <ele>533</ele>
        <time>2018-06-09T16:01:16Z</time>
      </trkpt>
      <trkpt lat="43.64447" lon="2.34908">
        <ele>533</ele>
        <time>2018-06-09T16:01:17Z</time>
      </trkpt>
      <trkpt lat="43.64452" lon="2.34895">
        <ele>533</ele>
        <time>2018-06-09T16:01:21Z</time>
      </trkpt>
      <trkpt lat="43.64454" lon="2.34881">
        <ele>532</ele>
        <time>2018-06-09T16:01:25Z</time>
      </trkpt>
      <trkpt lat="43.64455" lon="2.34878">
        <ele>532</ele>
        <time>2018-06-09T16:01:26Z</time>
      </trkpt>
      <trkpt lat="43.6446" lon="2.3486">
        <ele>532</ele>
        <time>2018-06-09T16:01:31Z</time>
      </trkpt>
      <trkpt lat="43.64462" lon="2.34851">
        <ele>531</ele>
        <time>2018-06-09T16:01:33Z</time>
      </trkpt>
      <trkpt lat="43.64467" lon="2.34843">
        <ele>531</ele>
        <time>2018-06-09T16:01:35Z</time>
      </trkpt>
      <trkpt lat="43.64477" lon="2.34833">
        <ele>531</ele>
        <time>2018-06-09T16:01:38Z</time>
      </trkpt>
      <trkpt lat="43.6448" lon="2.34828">
        <ele>531</ele>
        <time>2018-06-09T16:01:39Z</time>
      </trkpt>
      <trkpt lat="43.6448" lon="2.3482">
        <ele>530</ele>
        <time>2018-06-09T16:01:40Z</time>
      </trkpt>
      <trkpt lat="43.64477" lon="2.34809">
        <ele>530</ele>
        <time>2018-06-09T16:01:42Z</time>
      </trkpt>
      <trkpt lat="43.6447" lon="2.34793">
        <ele>530</ele>
        <time>2018-06-09T16:01:45Z</time>
      </trkpt>
      <trkpt lat="43.64469" lon="2.34786">
        <ele>529</ele>
        <time>2018-06-09T16:01:46Z</time>
      </trkpt>
      <trkpt lat="43.64468" lon="2.34773">
        <ele>528</ele>
        <time>2018-06-09T16:01:48Z</time>
      </trkpt>
      <trkpt lat="43.64468" lon="2.34768">
        <ele>528</ele>
        <time>2018-06-09T16:01:49Z</time>
      </trkpt>
      <trkpt lat="43.64468" lon="2.34761">
        <ele>528</ele>
        <time>2018-06-09T16:01:50Z</time>
      </trkpt>
      <trkpt lat="43.64469" lon="2.34745">
        <ele>528</ele>
        <time>2018-06-09T16:01:53Z</time>
      </trkpt>
      <trkpt lat="43.64469" lon="2.3474">
        <ele>528</ele>
        <time>2018-06-09T16:01:54Z</time>
      </trkpt>
      <trkpt lat="43.64472" lon="2.3472">
        <ele>528</ele>
        <time>2018-06-09T16:01:58Z</time>
      </trkpt>
      <trkpt lat="43.6448" lon="2.34705">
        <ele>528</ele>
        <time>2018-06-09T16:02:02Z</time>
      </trkpt>
      <trkpt lat="43.64481" lon="2.34696">
        <ele>527</ele>
        <time>2018-06-09T16:02:04Z</time>
      </trkpt>
      <trkpt lat="43.64481" lon="2.34682">
        <ele>527</ele>
        <time>2018-06-09T16:02:06Z</time>
      </trkpt>
      <trkpt lat="43.64481" lon="2.34667">
        <ele>527</ele>
        <time>2018-06-09T16:02:08Z</time>
      </trkpt>
      <trkpt lat="43.64482" lon="2.3466">
        <ele>528</ele>
        <time>2018-06-09T16:02:09Z</time>
      </trkpt>
      <trkpt lat="43.64485" lon="2.34655">
        <ele>527</ele>
        <time>2018-06-09T16:02:10Z</time>
      </trkpt>
      <trkpt lat="43.64487" lon="2.34649">
        <ele>527</ele>
        <time>2018-06-09T16:02:11Z</time>
      </trkpt>
      <trkpt lat="43.64488" lon="2.34642">
        <ele>527</ele>
        <time>2018-06-09T16:02:12Z</time>
      </trkpt>
      <trkpt lat="43.64491" lon="2.34631">
        <ele>526</ele>
        <time>2018-06-09T16:02:14Z</time>
      </trkpt>
      <trkpt lat="43.64495" lon="2.34611">
        <ele>525</ele>
        <time>2018-06-09T16:02:17Z</time>
      </trkpt>
      <trkpt lat="43.64495" lon="2.34605">
        <ele>525</ele>
        <time>2018-06-09T16:02:18Z</time>
      </trkpt>
      <trkpt lat="43.645" lon="2.34593">
        <ele>524</ele>
        <time>2018-06-09T16:02:20Z</time>
      </trkpt>
      <trkpt lat="43.64502" lon="2.34588">
        <ele>524</ele>
        <time>2018-06-09T16:02:21Z</time>
      </trkpt>
      <trkpt lat="43.6451" lon="2.34563">
        <ele>523</ele>
        <time>2018-06-09T16:02:25Z</time>
      </trkpt>
      <trkpt lat="43.64519" lon="2.3454">
        <ele>524</ele>
        <time>2018-06-09T16:02:29Z</time>
      </trkpt>
      <trkpt lat="43.64522" lon="2.34534">
        <ele>524</ele>
        <time>2018-06-09T16:02:30Z</time>
      </trkpt>
      <trkpt lat="43.6453" lon="2.34518">
        <ele>523</ele>
        <time>2018-06-09T16:02:33Z</time>
      </trkpt>
      <trkpt lat="43.64533" lon="2.34512">
        <ele>523</ele>
        <time>2018-06-09T16:02:34Z</time>
      </trkpt>
      <trkpt lat="43.64536" lon="2.34502">
        <ele>522</ele>
        <time>2018-06-09T16:02:36Z</time>
      </trkpt>
      <trkpt lat="43.64542" lon="2.34492">
        <ele>522</ele>
        <time>2018-06-09T16:02:38Z</time>
      </trkpt>
      <trkpt lat="43.64549" lon="2.34482">
        <ele>521</ele>
        <time>2018-06-09T16:02:40Z</time>
      </trkpt>
      <trkpt lat="43.64561" lon="2.34466">
        <ele>521</ele>
        <time>2018-06-09T16:02:43Z</time>
      </trkpt>
      <trkpt lat="43.64564" lon="2.34459">
        <ele>521</ele>
        <time>2018-06-09T16:02:44Z</time>
      </trkpt>
      <trkpt lat="43.64566" lon="2.34454">
        <ele>520</ele>
        <time>2018-06-09T16:02:45Z</time>
      </trkpt>
      <trkpt lat="43.64568" lon="2.34447">
        <ele>520</ele>
        <time>2018-06-09T16:02:46Z</time>
      </trkpt>
      <trkpt lat="43.64573" lon="2.34442">
        <ele>519</ele>
        <time>2018-06-09T16:02:47Z</time>
      </trkpt>
      <trkpt lat="43.64577" lon="2.34437">
        <ele>519</ele>
        <time>2018-06-09T16:02:48Z</time>
      </trkpt>
      <trkpt lat="43.64581" lon="2.34432">
        <ele>519</ele>
        <time>2018-06-09T16:02:49Z</time>
      </trkpt>
      <trkpt lat="43.64586" lon="2.34425">
        <ele>518</ele>
        <time>2018-06-09T16:02:50Z</time>
      </trkpt>
      <trkpt lat="43.64595" lon="2.34414">
        <ele>519</ele>
        <time>2018-06-09T16:02:52Z</time>
      </trkpt>
      <trkpt lat="43.64605" lon="2.34403">
        <ele>517</ele>
        <time>2018-06-09T16:02:54Z</time>
      </trkpt>
      <trkpt lat="43.64609" lon="2.34398">
        <ele>517</ele>
        <time>2018-06-09T16:02:55Z</time>
      </trkpt>
      <trkpt lat="43.64614" lon="2.34394">
        <ele>516</ele>
        <time>2018-06-09T16:02:56Z</time>
      </trkpt>
      <trkpt lat="43.64619" lon="2.34382">
        <ele>516</ele>
        <time>2018-06-09T16:02:58Z</time>
      </trkpt>
      <trkpt lat="43.64624" lon="2.34376">
        <ele>516</ele>
        <time>2018-06-09T16:02:59Z</time>
      </trkpt>
      <trkpt lat="43.64637" lon="2.34365">
        <ele>516</ele>
        <time>2018-06-09T16:03:01Z</time>
      </trkpt>
      <trkpt lat="43.64641" lon="2.3436">
        <ele>515</ele>
        <time>2018-06-09T16:03:02Z</time>
      </trkpt>
      <trkpt lat="43.64645" lon="2.34356">
        <ele>514</ele>
        <time>2018-06-09T16:03:03Z</time>
      </trkpt>
      <trkpt lat="43.64655" lon="2.34346">
        <ele>513</ele>
        <time>2018-06-09T16:03:05Z</time>
      </trkpt>
      <trkpt lat="43.6466" lon="2.34343">
        <ele>511</ele>
        <time>2018-06-09T16:03:06Z</time>
      </trkpt>
      <trkpt lat="43.64664" lon="2.34339">
        <ele>510</ele>
        <time>2018-06-09T16:03:07Z</time>
      </trkpt>
      <trkpt lat="43.64669" lon="2.34326">
        <ele>510</ele>
        <time>2018-06-09T16:03:09Z</time>
      </trkpt>
      <trkpt lat="43.64676" lon="2.34314">
        <ele>510</ele>
        <time>2018-06-09T16:03:11Z</time>
      </trkpt>
      <trkpt lat="43.64679" lon="2.34311">
        <ele>509</ele>
        <time>2018-06-09T16:03:12Z</time>
      </trkpt>
      <trkpt lat="43.64683" lon="2.3431">
        <ele>508</ele>
        <time>2018-06-09T16:03:13Z</time>
      </trkpt>
      <trkpt lat="43.64689" lon="2.34311">
        <ele>507</ele>
        <time>2018-06-09T16:03:14Z</time>
      </trkpt>
      <trkpt lat="43.64698" lon="2.34312">
        <ele>507</ele>
        <time>2018-06-09T16:03:16Z</time>
      </trkpt>
      <trkpt lat="43.64702" lon="2.34311">
        <ele>506</ele>
        <time>2018-06-09T16:03:17Z</time>
      </trkpt>
      <trkpt lat="43.64706" lon="2.34308">
        <ele>505</ele>
        <time>2018-06-09T16:03:18Z</time>
      </trkpt>
      <trkpt lat="43.64708" lon="2.34302">
        <ele>504</ele>
        <time>2018-06-09T16:03:19Z</time>
      </trkpt>
      <trkpt lat="43.64709" lon="2.34295">
        <ele>503</ele>
        <time>2018-06-09T16:03:20Z</time>
      </trkpt>
      <trkpt lat="43.6471" lon="2.34282">
        <ele>501</ele>
        <time>2018-06-09T16:03:22Z</time>
      </trkpt>
      <trkpt lat="43.6471" lon="2.34274">
        <ele>501</ele>
        <time>2018-06-09T16:03:23Z</time>
      </trkpt>
      <trkpt lat="43.64711" lon="2.34266">
        <ele>500</ele>
        <time>2018-06-09T16:03:24Z</time>
      </trkpt>
      <trkpt lat="43.64713" lon="2.34251">
        <ele>499</ele>
        <time>2018-06-09T16:03:26Z</time>
      </trkpt>
      <trkpt lat="43.64713" lon="2.34246">
        <ele>499</ele>
        <time>2018-06-09T16:03:27Z</time>
      </trkpt>
      <trkpt lat="43.64717" lon="2.34239">
        <ele>498</ele>
        <time>2018-06-09T16:03:29Z</time>
      </trkpt>
      <trkpt lat="43.64719" lon="2.34238">
        <ele>498</ele>
        <time>2018-06-09T16:03:30Z</time>
      </trkpt>
      <trkpt lat="43.64721" lon="2.34238">
        <ele>497</ele>
        <time>2018-06-09T16:03:31Z</time>
      </trkpt>
      <trkpt lat="43.64727" lon="2.34242">
        <ele>495</ele>
        <time>2018-06-09T16:03:34Z</time>
      </trkpt>
      <trkpt lat="43.64734" lon="2.34242">
        <ele>494</ele>
        <time>2018-06-09T16:03:36Z</time>
      </trkpt>
      <trkpt lat="43.64738" lon="2.34242">
        <ele>493</ele>
        <time>2018-06-09T16:03:37Z</time>
      </trkpt>
      <trkpt lat="43.64741" lon="2.34242">
        <ele>493</ele>
        <time>2018-06-09T16:03:38Z</time>
      </trkpt>
      <trkpt lat="43.64748" lon="2.34244">
        <ele>491</ele>
        <time>2018-06-09T16:03:40Z</time>
      </trkpt>
      <trkpt lat="43.6475" lon="2.34244">
        <ele>490</ele>
        <time>2018-06-09T16:03:41Z</time>
      </trkpt>
      <trkpt lat="43.64753" lon="2.34243">
        <ele>490</ele>
        <time>2018-06-09T16:03:42Z</time>
      </trkpt>
      <trkpt lat="43.64759" lon="2.34236">
        <ele>488</ele>
        <time>2018-06-09T16:03:44Z</time>
      </trkpt>
      <trkpt lat="43.64761" lon="2.34234">
        <ele>488</ele>
        <time>2018-06-09T16:03:45Z</time>
      </trkpt>
      <trkpt lat="43.64766" lon="2.34225">
        <ele>487</ele>
        <time>2018-06-09T16:03:47Z</time>
      </trkpt>
      <trkpt lat="43.64766" lon="2.34221">
        <ele>486</ele>
        <time>2018-06-09T16:03:48Z</time>
      </trkpt>
      <trkpt lat="43.64766" lon="2.34218">
        <ele>486</ele>
        <time>2018-06-09T16:03:49Z</time>
      </trkpt>
      <trkpt lat="43.64765" lon="2.3421">
        <ele>485</ele>
        <time>2018-06-09T16:03:51Z</time>
      </trkpt>
      <trkpt lat="43.64765" lon="2.342">
        <ele>483</ele>
        <time>2018-06-09T16:03:53Z</time>
      </trkpt>
      <trkpt lat="43.64765" lon="2.34191">
        <ele>481</ele>
        <time>2018-06-09T16:03:55Z</time>
      </trkpt>
      <trkpt lat="43.64765" lon="2.34184">
        <ele>480</ele>
        <time>2018-06-09T16:03:57Z</time>
      </trkpt>
      <trkpt lat="43.64768" lon="2.3418">
        <ele>479</ele>
        <time>2018-06-09T16:03:59Z</time>
      </trkpt>
      <trkpt lat="43.64769" lon="2.3418">
        <ele>478</ele>
        <time>2018-06-09T16:04:00Z</time>
      </trkpt>
      <trkpt lat="43.64771" lon="2.34181">
        <ele>478</ele>
        <time>2018-06-09T16:04:01Z</time>
      </trkpt>
      <trkpt lat="43.64774" lon="2.34184">
        <ele>477</ele>
        <time>2018-06-09T16:04:02Z</time>
      </trkpt>
      <trkpt lat="43.64777" lon="2.34184">
        <ele>476</ele>
        <time>2018-06-09T16:04:03Z</time>
      </trkpt>
      <trkpt lat="43.64782" lon="2.34185">
        <ele>475</ele>
        <time>2018-06-09T16:04:05Z</time>
      </trkpt>
      <trkpt lat="43.64789" lon="2.34184">
        <ele>475</ele>
        <time>2018-06-09T16:04:07Z</time>
      </trkpt>
      <trkpt lat="43.64789" lon="2.34177">
        <ele>474</ele>
        <time>2018-06-09T16:04:09Z</time>
      </trkpt>
      <trkpt lat="43.6479" lon="2.34172">
        <ele>474</ele>
        <time>2018-06-09T16:04:10Z</time>
      </trkpt>
      <trkpt lat="43.64788" lon="2.34164">
        <ele>473</ele>
        <time>2018-06-09T16:04:12Z</time>
      </trkpt>
      <trkpt lat="43.64787" lon="2.3416">
        <ele>473</ele>
        <time>2018-06-09T16:04:13Z</time>
      </trkpt>
      <trkpt lat="43.64787" lon="2.34158">
        <ele>472</ele>
        <time>2018-06-09T16:04:14Z</time>
      </trkpt>
      <trkpt lat="43.64787" lon="2.34155">
        <ele>471</ele>
        <time>2018-06-09T16:04:15Z</time>
      </trkpt>
      <trkpt lat="43.64785" lon="2.34147">
        <ele>470</ele>
        <time>2018-06-09T16:04:17Z</time>
      </trkpt>
      <trkpt lat="43.64786" lon="2.34145">
        <ele>470</ele>
        <time>2018-06-09T16:04:18Z</time>
      </trkpt>
      <trkpt lat="43.64788" lon="2.3414">
        <ele>469</ele>
        <time>2018-06-09T16:04:20Z</time>
      </trkpt>
      <trkpt lat="43.64792" lon="2.34136">
        <ele>468</ele>
        <time>2018-06-09T16:04:22Z</time>
      </trkpt>
      <trkpt lat="43.64797" lon="2.34132">
        <ele>465</ele>
        <time>2018-06-09T16:04:24Z</time>
      </trkpt>
      <trkpt lat="43.64806" lon="2.34132">
        <ele>464</ele>
        <time>2018-06-09T16:04:26Z</time>
      </trkpt>
      <trkpt lat="43.64813" lon="2.34126">
        <ele>462</ele>
        <time>2018-06-09T16:04:28Z</time>
      </trkpt>
      <trkpt lat="43.64817" lon="2.34125">
        <ele>462</ele>
        <time>2018-06-09T16:04:29Z</time>
      </trkpt>
      <trkpt lat="43.64824" lon="2.34125">
        <ele>461</ele>
        <time>2018-06-09T16:04:31Z</time>
      </trkpt>
      <trkpt lat="43.64828" lon="2.34125">
        <ele>461</ele>
        <time>2018-06-09T16:04:32Z</time>
      </trkpt>
      <trkpt lat="43.64831" lon="2.34125">
        <ele>460</ele>
        <time>2018-06-09T16:04:33Z</time>
      </trkpt>
      <trkpt lat="43.64835" lon="2.34128">
        <ele>459</ele>
        <time>2018-06-09T16:04:35Z</time>
      </trkpt>
      <trkpt lat="43.64836" lon="2.3413">
        <ele>458</ele>
        <time>2018-06-09T16:04:36Z</time>
      </trkpt>
      <trkpt lat="43.64844" lon="2.34131">
        <ele>458</ele>
        <time>2018-06-09T16:04:39Z</time>
      </trkpt>
      <trkpt lat="43.64847" lon="2.34129">
        <ele>457</ele>
        <time>2018-06-09T16:04:40Z</time>
      </trkpt>
      <trkpt lat="43.64856" lon="2.34124">
        <ele>456</ele>
        <time>2018-06-09T16:04:43Z</time>
      </trkpt>
      <trkpt lat="43.64858" lon="2.34122">
        <ele>456</ele>
        <time>2018-06-09T16:04:44Z</time>
      </trkpt>
      <trkpt lat="43.6486" lon="2.34121">
        <ele>455</ele>
        <time>2018-06-09T16:04:45Z</time>
      </trkpt>
      <trkpt lat="43.64861" lon="2.34118">
        <ele>455</ele>
        <time>2018-06-09T16:04:46Z</time>
      </trkpt>
      <trkpt lat="43.64862" lon="2.34113">
        <ele>455</ele>
        <time>2018-06-09T16:04:48Z</time>
      </trkpt>
      <trkpt lat="43.64866" lon="2.34105">
        <ele>454</ele>
        <time>2018-06-09T16:04:50Z</time>
      </trkpt>
      <trkpt lat="43.6487" lon="2.34099">
        <ele>454</ele>
        <time>2018-06-09T16:04:52Z</time>
      </trkpt>
      <trkpt lat="43.64875" lon="2.34096">
        <ele>454</ele>
        <time>2018-06-09T16:04:54Z</time>
      </trkpt>
      <trkpt lat="43.64881" lon="2.34093">
        <ele>453</ele>
        <time>2018-06-09T16:04:59Z</time>
      </trkpt>
      <trkpt lat="43.64884" lon="2.3409">
        <ele>453</ele>
        <time>2018-06-09T16:05:02Z</time>
      </trkpt>
      <trkpt lat="43.64887" lon="2.34087">
        <ele>452</ele>
        <time>2018-06-09T16:05:05Z</time>
      </trkpt>
      <trkpt lat="43.64888" lon="2.34082">
        <ele>452</ele>
        <time>2018-06-09T16:05:07Z</time>
      </trkpt>
      <trkpt lat="43.64893" lon="2.34076">
        <ele>451</ele>
        <time>2018-06-09T16:05:09Z</time>
      </trkpt>
      <trkpt lat="43.64895" lon="2.34074">
        <ele>450</ele>
        <time>2018-06-09T16:05:10Z</time>
      </trkpt>
      <trkpt lat="43.64899" lon="2.34069">
        <ele>450</ele>
        <time>2018-06-09T16:05:12Z</time>
      </trkpt>
      <trkpt lat="43.64903" lon="2.34064">
        <ele>449</ele>
        <time>2018-06-09T16:05:14Z</time>
      </trkpt>
      <trkpt lat="43.64904" lon="2.34062">
        <ele>448</ele>
        <time>2018-06-09T16:05:15Z</time>
      </trkpt>
      <trkpt lat="43.64906" lon="2.34057">
        <ele>447</ele>
        <time>2018-06-09T16:05:17Z</time>
      </trkpt>
      <trkpt lat="43.64909" lon="2.34056">
        <ele>447</ele>
        <time>2018-06-09T16:05:18Z</time>
      </trkpt>
      <trkpt lat="43.6491" lon="2.34056">
        <ele>447</ele>
        <time>2018-06-09T16:05:19Z</time>
      </trkpt>
      <trkpt lat="43.64912" lon="2.34056">
        <ele>446</ele>
        <time>2018-06-09T16:05:20Z</time>
      </trkpt>
      <trkpt lat="43.64917" lon="2.34052">
        <ele>445</ele>
        <time>2018-06-09T16:05:22Z</time>
      </trkpt>
      <trkpt lat="43.64917" lon="2.3405">
        <ele>445</ele>
        <time>2018-06-09T16:05:23Z</time>
      </trkpt>
      <trkpt lat="43.64918" lon="2.34048">
        <ele>444</ele>
        <time>2018-06-09T16:05:24Z</time>
      </trkpt>
      <trkpt lat="43.6492" lon="2.34045">
        <ele>443</ele>
        <time>2018-06-09T16:05:26Z</time>
      </trkpt>
      <trkpt lat="43.64922" lon="2.34043">
        <ele>443</ele>
        <time>2018-06-09T16:05:27Z</time>
      </trkpt>
      <trkpt lat="43.64924" lon="2.3404">
        <ele>442</ele>
        <time>2018-06-09T16:05:28Z</time>
      </trkpt>
      <trkpt lat="43.64927" lon="2.34039">
        <ele>441</ele>
        <time>2018-06-09T16:05:29Z</time>
      </trkpt>
      <trkpt lat="43.6493" lon="2.34038">
        <ele>440</ele>
        <time>2018-06-09T16:05:31Z</time>
      </trkpt>
      <trkpt lat="43.64934" lon="2.34037">
        <ele>440</ele>
        <time>2018-06-09T16:05:32Z</time>
      </trkpt>
      <trkpt lat="43.64939" lon="2.34033">
        <ele>437</ele>
        <time>2018-06-09T16:05:34Z</time>
      </trkpt>
      <trkpt lat="43.64942" lon="2.34032">
        <ele>437</ele>
        <time>2018-06-09T16:05:35Z</time>
      </trkpt>
      <trkpt lat="43.64947" lon="2.34027">
        <ele>436</ele>
        <time>2018-06-09T16:05:37Z</time>
      </trkpt>
      <trkpt lat="43.64953" lon="2.34022">
        <ele>435</ele>
        <time>2018-06-09T16:05:39Z</time>
      </trkpt>
      <trkpt lat="43.64958" lon="2.34016">
        <ele>433</ele>
        <time>2018-06-09T16:05:41Z</time>
      </trkpt>
      <trkpt lat="43.64963" lon="2.34011">
        <ele>432</ele>
        <time>2018-06-09T16:05:43Z</time>
      </trkpt>
      <trkpt lat="43.64968" lon="2.34006">
        <ele>432</ele>
        <time>2018-06-09T16:05:45Z</time>
      </trkpt>
      <trkpt lat="43.64969" lon="2.34004">
        <ele>431</ele>
        <time>2018-06-09T16:05:46Z</time>
      </trkpt>
      <trkpt lat="43.6497" lon="2.34">
        <ele>430</ele>
        <time>2018-06-09T16:05:47Z</time>
      </trkpt>
      <trkpt lat="43.64972" lon="2.33991">
        <ele>429</ele>
        <time>2018-06-09T16:05:49Z</time>
      </trkpt>
      <trkpt lat="43.64974" lon="2.33987">
        <ele>428</ele>
        <time>2018-06-09T16:05:50Z</time>
      </trkpt>
      <trkpt lat="43.64976" lon="2.33982">
        <ele>428</ele>
        <time>2018-06-09T16:05:51Z</time>
      </trkpt>
      <trkpt lat="43.64982" lon="2.33973">
        <ele>427</ele>
        <time>2018-06-09T16:05:54Z</time>
      </trkpt>
      <trkpt lat="43.64985" lon="2.33966">
        <ele>426</ele>
        <time>2018-06-09T16:05:56Z</time>
      </trkpt>
      <trkpt lat="43.64983" lon="2.33962">
        <ele>424</ele>
        <time>2018-06-09T16:05:58Z</time>
      </trkpt>
      <trkpt lat="43.64982" lon="2.33961">
        <ele>424</ele>
        <time>2018-06-09T16:05:59Z</time>
      </trkpt>
      <trkpt lat="43.6498" lon="2.33955">
        <ele>424</ele>
        <time>2018-06-09T16:06:05Z</time>
      </trkpt>
      <trkpt lat="43.64979" lon="2.33952">
        <ele>424</ele>
        <time>2018-06-09T16:06:10Z</time>
      </trkpt>
      <trkpt lat="43.64976" lon="2.3395">
        <ele>424</ele>
        <time>2018-06-09T16:06:12Z</time>
      </trkpt>
      <trkpt lat="43.6497" lon="2.33945">
        <ele>423</ele>
        <time>2018-06-09T16:06:15Z</time>
      </trkpt>
      <trkpt lat="43.64967" lon="2.33945">
        <ele>422</ele>
        <time>2018-06-09T16:06:16Z</time>
      </trkpt>
      <trkpt lat="43.64964" lon="2.33946">
        <ele>422</ele>
        <time>2018-06-09T16:06:18Z</time>
      </trkpt>
      <trkpt lat="43.64955" lon="2.3395">
        <ele>421</ele>
        <time>2018-06-09T16:06:21Z</time>
      </trkpt>
      <trkpt lat="43.64952" lon="2.3395">
        <ele>420</ele>
        <time>2018-06-09T16:06:22Z</time>
      </trkpt>
      <trkpt lat="43.64949" lon="2.3395">
        <ele>420</ele>
        <time>2018-06-09T16:06:23Z</time>
      </trkpt>
      <trkpt lat="43.64941" lon="2.33951">
        <ele>419</ele>
        <time>2018-06-09T16:06:25Z</time>
      </trkpt>
      <trkpt lat="43.64923" lon="2.33953">
        <ele>418</ele>
        <time>2018-06-09T16:06:29Z</time>
      </trkpt>
      <trkpt lat="43.64919" lon="2.33955">
        <ele>417</ele>
        <time>2018-06-09T16:06:30Z</time>
      </trkpt>
      <trkpt lat="43.64911" lon="2.33955">
        <ele>417</ele>
        <time>2018-06-09T16:06:33Z</time>
      </trkpt>
      <trkpt lat="43.64909" lon="2.33956">
        <ele>416</ele>
        <time>2018-06-09T16:06:34Z</time>
      </trkpt>
      <trkpt lat="43.64903" lon="2.33956">
        <ele>415</ele>
        <time>2018-06-09T16:06:36Z</time>
      </trkpt>
      <trkpt lat="43.64896" lon="2.33955">
        <ele>413</ele>
        <time>2018-06-09T16:06:38Z</time>
      </trkpt>
      <trkpt lat="43.64891" lon="2.33957">
        <ele>413</ele>
        <time>2018-06-09T16:06:39Z</time>
      </trkpt>
      <trkpt lat="43.64887" lon="2.33959">
        <ele>412</ele>
        <time>2018-06-09T16:06:40Z</time>
      </trkpt>
      <trkpt lat="43.64884" lon="2.33963">
        <ele>413</ele>
        <time>2018-06-09T16:06:42Z</time>
      </trkpt>
      <trkpt lat="43.64882" lon="2.33964">
        <ele>414</ele>
        <time>2018-06-09T16:06:43Z</time>
      </trkpt>
      <trkpt lat="43.64876" lon="2.33967">
        <ele>414</ele>
        <time>2018-06-09T16:06:46Z</time>
      </trkpt>
      <trkpt lat="43.64872" lon="2.33968">
        <ele>415</ele>
        <time>2018-06-09T16:06:47Z</time>
      </trkpt>
      <trkpt lat="43.64863" lon="2.33968">
        <ele>415</ele>
        <time>2018-06-09T16:06:50Z</time>
      </trkpt>
      <trkpt lat="43.64859" lon="2.3397">
        <ele>415</ele>
        <time>2018-06-09T16:06:51Z</time>
      </trkpt>
      <trkpt lat="43.6485" lon="2.33972">
        <ele>415</ele>
        <time>2018-06-09T16:06:54Z</time>
      </trkpt>
      <trkpt lat="43.64845" lon="2.33972">
        <ele>416</ele>
        <time>2018-06-09T16:06:56Z</time>
      </trkpt>
      <trkpt lat="43.64828" lon="2.33967">
        <ele>414</ele>
        <time>2018-06-09T16:07:00Z</time>
      </trkpt>
      <trkpt lat="43.64812" lon="2.33958">
        <ele>413</ele>
        <time>2018-06-09T16:07:04Z</time>
      </trkpt>
      <trkpt lat="43.64809" lon="2.33955">
        <ele>412</ele>
        <time>2018-06-09T16:07:05Z</time>
      </trkpt>
      <trkpt lat="43.64806" lon="2.3395">
        <ele>412</ele>
        <time>2018-06-09T16:07:06Z</time>
      </trkpt>
      <trkpt lat="43.64799" lon="2.33946">
        <ele>410</ele>
        <time>2018-06-09T16:07:08Z</time>
      </trkpt>
      <trkpt lat="43.64796" lon="2.33945">
        <ele>409</ele>
        <time>2018-06-09T16:07:09Z</time>
      </trkpt>
      <trkpt lat="43.64791" lon="2.33942">
        <ele>408</ele>
        <time>2018-06-09T16:07:11Z</time>
      </trkpt>
      <trkpt lat="43.64786" lon="2.33939">
        <ele>406</ele>
        <time>2018-06-09T16:07:14Z</time>
      </trkpt>
      <trkpt lat="43.64782" lon="2.33938">
        <ele>406</ele>
        <time>2018-06-09T16:07:18Z</time>
      </trkpt>
      <trkpt lat="43.64779" lon="2.33936">
        <ele>406</ele>
        <time>2018-06-09T16:07:21Z</time>
      </trkpt>
      <trkpt lat="43.64774" lon="2.33935">
        <ele>405</ele>
        <time>2018-06-09T16:07:25Z</time>
      </trkpt>
      <trkpt lat="43.64774" lon="2.33936">
        <ele>405</ele>
        <time>2018-06-09T16:07:26Z</time>
      </trkpt>
      <trkpt lat="43.64771" lon="2.33935">
        <ele>403</ele>
        <time>2018-06-09T16:07:30Z</time>
      </trkpt>
      <trkpt lat="43.64769" lon="2.33933">
        <ele>403</ele>
        <time>2018-06-09T16:07:33Z</time>
      </trkpt>
      <trkpt lat="43.64768" lon="2.33933">
        <ele>402</ele>
        <time>2018-06-09T16:07:34Z</time>
      </trkpt>
      <trkpt lat="43.64766" lon="2.33932">
        <ele>401</ele>
        <time>2018-06-09T16:07:36Z</time>
      </trkpt>
      <trkpt lat="43.64763" lon="2.3393">
        <ele>400</ele>
        <time>2018-06-09T16:07:41Z</time>
      </trkpt>
      <trkpt lat="43.64761" lon="2.3393">
        <ele>400</ele>
        <time>2018-06-09T16:07:44Z</time>
      </trkpt>
      <trkpt lat="43.64755" lon="2.33925">
        <ele>399</ele>
        <time>2018-06-09T16:07:46Z</time>
      </trkpt>
      <trkpt lat="43.64753" lon="2.33925">
        <ele>398</ele>
        <time>2018-06-09T16:07:47Z</time>
      </trkpt>
      <trkpt lat="43.64751" lon="2.33925">
        <ele>398</ele>
        <time>2018-06-09T16:07:48Z</time>
      </trkpt>
      <trkpt lat="43.6475" lon="2.33926">
        <ele>400</ele>
        <time>2018-06-09T16:07:52Z</time>
      </trkpt>
      <trkpt lat="43.64742" lon="2.33924">
        <ele>398</ele>
        <time>2018-06-09T16:08:00Z</time>
      </trkpt>
      <trkpt lat="43.64741" lon="2.33923">
        <ele>398</ele>
        <time>2018-06-09T16:08:02Z</time>
      </trkpt>
      <trkpt lat="43.64739" lon="2.33917">
        <ele>396</ele>
        <time>2018-06-09T16:08:07Z</time>
      </trkpt>
      <trkpt lat="43.64739" lon="2.33915">
        <ele>395</ele>
        <time>2018-06-09T16:08:09Z</time>
      </trkpt>
      <trkpt lat="43.6474" lon="2.33914">
        <ele>395</ele>
        <time>2018-06-09T16:08:10Z</time>
      </trkpt>
      <trkpt lat="43.6474" lon="2.33911">
        <ele>394</ele>
        <time>2018-06-09T16:08:13Z</time>
      </trkpt>
      <trkpt lat="43.64738" lon="2.33908">
        <ele>394</ele>
        <time>2018-06-09T16:08:18Z</time>
      </trkpt>
      <trkpt lat="43.64737" lon="2.33905">
        <ele>393</ele>
        <time>2018-06-09T16:08:20Z</time>
      </trkpt>
      <trkpt lat="43.64734" lon="2.33902">
        <ele>392</ele>
        <time>2018-06-09T16:08:22Z</time>
      </trkpt>
      <trkpt lat="43.64731" lon="2.33897">
        <ele>391</ele>
        <time>2018-06-09T16:08:27Z</time>
      </trkpt>
      <trkpt lat="43.6473" lon="2.33895">
        <ele>391</ele>
        <time>2018-06-09T16:08:29Z</time>
      </trkpt>
      <trkpt lat="43.64728" lon="2.33893">
        <ele>389</ele>
        <time>2018-06-09T16:08:33Z</time>
      </trkpt>
      <trkpt lat="43.64727" lon="2.33887">
        <ele>388</ele>
        <time>2018-06-09T16:08:38Z</time>
      </trkpt>
      <trkpt lat="43.64727" lon="2.33884">
        <ele>388</ele>
        <time>2018-06-09T16:08:41Z</time>
      </trkpt>
      <trkpt lat="43.64726" lon="2.33883">
        <ele>387</ele>
        <time>2018-06-09T16:08:42Z</time>
      </trkpt>
      <trkpt lat="43.64723" lon="2.33878">
        <ele>386</ele>
        <time>2018-06-09T16:08:48Z</time>
      </trkpt>
      <trkpt lat="43.64722" lon="2.33876">
        <ele>386</ele>
        <time>2018-06-09T16:08:50Z</time>
      </trkpt>
      <trkpt lat="43.6472" lon="2.33873">
        <ele>385</ele>
        <time>2018-06-09T16:08:53Z</time>
      </trkpt>
      <trkpt lat="43.64718" lon="2.33869">
        <ele>384</ele>
        <time>2018-06-09T16:08:55Z</time>
      </trkpt>
      <trkpt lat="43.64718" lon="2.33867">
        <ele>383</ele>
        <time>2018-06-09T16:08:56Z</time>
      </trkpt>
      <trkpt lat="43.64718" lon="2.33865">
        <ele>383</ele>
        <time>2018-06-09T16:08:58Z</time>
      </trkpt>
      <trkpt lat="43.64722" lon="2.33866">
        <ele>382</ele>
        <time>2018-06-09T16:09:04Z</time>
      </trkpt>
      <trkpt lat="43.64722" lon="2.33866">
        <ele>382</ele>
        <time>2018-06-09T16:09:05Z</time>
      </trkpt>
      <trkpt lat="43.64726" lon="2.33866">
        <ele>381</ele>
        <time>2018-06-09T16:09:10Z</time>
      </trkpt>
      <trkpt lat="43.64726" lon="2.33862">
        <ele>380</ele>
        <time>2018-06-09T16:09:14Z</time>
      </trkpt>
      <trkpt lat="43.64725" lon="2.33858">
        <ele>379</ele>
        <time>2018-06-09T16:09:18Z</time>
      </trkpt>
      <trkpt lat="43.64724" lon="2.33856">
        <ele>378</ele>
        <time>2018-06-09T16:09:20Z</time>
      </trkpt>
      <trkpt lat="43.64722" lon="2.33852">
        <ele>377</ele>
        <time>2018-06-09T16:09:22Z</time>
      </trkpt>
      <trkpt lat="43.64722" lon="2.33852">
        <ele>377</ele>
        <time>2018-06-09T16:09:23Z</time>
      </trkpt>
      <trkpt lat="43.6472" lon="2.3385">
        <ele>377</ele>
        <time>2018-06-09T16:09:27Z</time>
      </trkpt>
      <trkpt lat="43.64717" lon="2.33848">
        <ele>376</ele>
        <time>2018-06-09T16:09:29Z</time>
      </trkpt>
      <trkpt lat="43.64715" lon="2.33845">
        <ele>376</ele>
        <time>2018-06-09T16:09:30Z</time>
      </trkpt>
      <trkpt lat="43.64711" lon="2.33838">
        <ele>375</ele>
        <time>2018-06-09T16:09:32Z</time>
      </trkpt>
      <trkpt lat="43.64708" lon="2.33836">
        <ele>374</ele>
        <time>2018-06-09T16:09:33Z</time>
      </trkpt>
      <trkpt lat="43.64702" lon="2.33829">
        <ele>373</ele>
        <time>2018-06-09T16:09:36Z</time>
      </trkpt>
      <trkpt lat="43.64699" lon="2.33827">
        <ele>371</ele>
        <time>2018-06-09T16:09:38Z</time>
      </trkpt>
      <trkpt lat="43.64697" lon="2.33824">
        <ele>371</ele>
        <time>2018-06-09T16:09:40Z</time>
      </trkpt>
      <trkpt lat="43.64696" lon="2.33823">
        <ele>371</ele>
        <time>2018-06-09T16:09:41Z</time>
      </trkpt>
      <trkpt lat="43.64694" lon="2.33821">
        <ele>370</ele>
        <time>2018-06-09T16:09:42Z</time>
      </trkpt>
      <trkpt lat="43.64692" lon="2.33821">
        <ele>370</ele>
        <time>2018-06-09T16:09:43Z</time>
      </trkpt>
      <trkpt lat="43.64691" lon="2.33821">
        <ele>369</ele>
        <time>2018-06-09T16:09:45Z</time>
      </trkpt>
      <trkpt lat="43.64687" lon="2.33819">
        <ele>369</ele>
        <time>2018-06-09T16:09:50Z</time>
      </trkpt>
      <trkpt lat="43.64684" lon="2.33816">
        <ele>368</ele>
        <time>2018-06-09T16:09:53Z</time>
      </trkpt>
      <trkpt lat="43.64681" lon="2.33812">
        <ele>367</ele>
        <time>2018-06-09T16:09:59Z</time>
      </trkpt>
      <trkpt lat="43.6468" lon="2.3381">
        <ele>366</ele>
        <time>2018-06-09T16:10:02Z</time>
      </trkpt>
      <trkpt lat="43.64678" lon="2.33807">
        <ele>365</ele>
        <time>2018-06-09T16:10:04Z</time>
      </trkpt>
      <trkpt lat="43.64676" lon="2.33806">
        <ele>364</ele>
        <time>2018-06-09T16:10:07Z</time>
      </trkpt>
      <trkpt lat="43.64675" lon="2.33806">
        <ele>364</ele>
        <time>2018-06-09T16:10:08Z</time>
      </trkpt>
      <trkpt lat="43.64672" lon="2.33802">
        <ele>363</ele>
        <time>2018-06-09T16:10:14Z</time>
      </trkpt>
      <trkpt lat="43.64671" lon="2.33801">
        <ele>362</ele>
        <time>2018-06-09T16:10:16Z</time>
      </trkpt>
      <trkpt lat="43.64669" lon="2.33798">
        <ele>361</ele>
        <time>2018-06-09T16:10:20Z</time>
      </trkpt>
      <trkpt lat="43.64667" lon="2.33793">
        <ele>360</ele>
        <time>2018-06-09T16:10:27Z</time>
      </trkpt>
      <trkpt lat="43.64666" lon="2.33792">
        <ele>360</ele>
        <time>2018-06-09T16:10:28Z</time>
      </trkpt>
      <trkpt lat="43.64666" lon="2.33793">
        <ele>360</ele>
        <time>2018-06-09T16:10:35Z</time>
      </trkpt>
      <trkpt lat="43.64665" lon="2.3379">
        <ele>359</ele>
        <time>2018-06-09T16:10:47Z</time>
      </trkpt>
      <trkpt lat="43.64665" lon="2.33789">
        <ele>359</ele>
        <time>2018-06-09T16:10:48Z</time>
      </trkpt>
      <trkpt lat="43.64659" lon="2.33787">
        <ele>357</ele>
        <time>2018-06-09T16:10:54Z</time>
      </trkpt>
      <trkpt lat="43.64657" lon="2.33787">
        <ele>357</ele>
        <time>2018-06-09T16:10:55Z</time>
      </trkpt>
      <trkpt lat="43.64655" lon="2.33787">
        <ele>356</ele>
        <time>2018-06-09T16:10:58Z</time>
      </trkpt>
      <trkpt lat="43.6465" lon="2.33784">
        <ele>355</ele>
        <time>2018-06-09T16:11:01Z</time>
      </trkpt>
      <trkpt lat="43.64647" lon="2.33782">
        <ele>354</ele>
        <time>2018-06-09T16:11:02Z</time>
      </trkpt>
      <trkpt lat="43.6464" lon="2.33779">
        <ele>353</ele>
        <time>2018-06-09T16:11:04Z</time>
      </trkpt>
      <trkpt lat="43.64634" lon="2.33773">
        <ele>351</ele>
        <time>2018-06-09T16:11:06Z</time>
      </trkpt>
      <trkpt lat="43.64631" lon="2.33771">
        <ele>350</ele>
        <time>2018-06-09T16:11:07Z</time>
      </trkpt>
      <trkpt lat="43.6463" lon="2.33768">
        <ele>350</ele>
        <time>2018-06-09T16:11:08Z</time>
      </trkpt>
      <trkpt lat="43.64626" lon="2.33768">
        <ele>349</ele>
        <time>2018-06-09T16:11:10Z</time>
      </trkpt>
      <trkpt lat="43.64624" lon="2.33767">
        <ele>349</ele>
        <time>2018-06-09T16:11:11Z</time>
      </trkpt>
      <trkpt lat="43.6462" lon="2.33765">
        <ele>348</ele>
        <time>2018-06-09T16:11:13Z</time>
      </trkpt>
      <trkpt lat="43.6462" lon="2.33764">
        <ele>348</ele>
        <time>2018-06-09T16:11:14Z</time>
      </trkpt>
      <trkpt lat="43.64613" lon="2.33764">
        <ele>347</ele>
        <time>2018-06-09T16:11:22Z</time>
      </trkpt>
      <trkpt lat="43.64613" lon="2.33764">
        <ele>347</ele>
        <time>2018-06-09T16:11:24Z</time>
      </trkpt>
      <trkpt lat="43.64608" lon="2.33762">
        <ele>346</ele>
        <time>2018-06-09T16:11:31Z</time>
      </trkpt>
      <trkpt lat="43.64605" lon="2.3376">
        <ele>345</ele>
        <time>2018-06-09T16:11:36Z</time>
      </trkpt>
      <trkpt lat="43.64604" lon="2.3376">
        <ele>345</ele>
        <time>2018-06-09T16:11:40Z</time>
      </trkpt>
      <trkpt lat="43.646" lon="2.33758">
        <ele>345</ele>
        <time>2018-06-09T16:11:43Z</time>
      </trkpt>
      <trkpt lat="43.64596" lon="2.33755">
        <ele>344</ele>
        <time>2018-06-09T16:11:46Z</time>
      </trkpt>
      <trkpt lat="43.64596" lon="2.33755">
        <ele>344</ele>
        <time>2018-06-09T16:11:54Z</time>
      </trkpt>
      <trkpt lat="43.64596" lon="2.33756">
        <ele>344</ele>
        <time>2018-06-09T16:11:56Z</time>
      </trkpt>
      <trkpt lat="43.64596" lon="2.33756">
        <ele>344</ele>
        <time>2018-06-09T16:12:05Z</time>
      </trkpt>
      <trkpt lat="43.64596" lon="2.33756">
        <ele>344</ele>
        <time>2018-06-09T16:12:10Z</time>
      </trkpt>
      <trkpt lat="43.64596" lon="2.33757">
        <ele>344</ele>
        <time>2018-06-09T16:12:21Z</time>
      </trkpt>
      <trkpt lat="43.64596" lon="2.33757">
        <ele>344</ele>
        <time>2018-06-09T16:12:23Z</time>
      </trkpt>
      <trkpt lat="43.64596" lon="2.33758">
        <ele>344</ele>
        <time>2018-06-09T16:12:36Z</time>
      </trkpt>
      <trkpt lat="43.64591" lon="2.33756">
        <ele>343</ele>
        <time>2018-06-09T16:12:45Z</time>
      </trkpt>
      <trkpt lat="43.64589" lon="2.33753">
        <ele>342</ele>
        <time>2018-06-09T16:12:47Z</time>
      </trkpt>
      <trkpt lat="43.64587" lon="2.3375">
        <ele>342</ele>
        <time>2018-06-09T16:12:48Z</time>
      </trkpt>
      <trkpt lat="43.64579" lon="2.33745">
        <ele>340</ele>
        <time>2018-06-09T16:12:50Z</time>
      </trkpt>
      <trkpt lat="43.6457" lon="2.33738">
        <ele>339</ele>
        <time>2018-06-09T16:12:53Z</time>
      </trkpt>
      <trkpt lat="43.64568" lon="2.33735">
        <ele>338</ele>
        <time>2018-06-09T16:12:54Z</time>
      </trkpt>
      <trkpt lat="43.64563" lon="2.33728">
        <ele>337</ele>
        <time>2018-06-09T16:12:56Z</time>
      </trkpt>
      <trkpt lat="43.64561" lon="2.33726">
        <ele>336</ele>
        <time>2018-06-09T16:12:57Z</time>
      </trkpt>
      <trkpt lat="43.64557" lon="2.33721">
        <ele>335</ele>
        <time>2018-06-09T16:12:59Z</time>
      </trkpt>
      <trkpt lat="43.64555" lon="2.33719">
        <ele>335</ele>
        <time>2018-06-09T16:13:00Z</time>
      </trkpt>
      <trkpt lat="43.64551" lon="2.33716">
        <ele>333</ele>
        <time>2018-06-09T16:13:03Z</time>
      </trkpt>
      <trkpt lat="43.6455" lon="2.33714">
        <ele>332</ele>
        <time>2018-06-09T16:13:04Z</time>
      </trkpt>
      <trkpt lat="43.64549" lon="2.33713">
        <ele>331</ele>
        <time>2018-06-09T16:13:05Z</time>
      </trkpt>
      <trkpt lat="43.64547" lon="2.33711">
        <ele>331</ele>
        <time>2018-06-09T16:13:06Z</time>
      </trkpt>
      <trkpt lat="43.64546" lon="2.33706">
        <ele>330</ele>
        <time>2018-06-09T16:13:09Z</time>
      </trkpt>
      <trkpt lat="43.64547" lon="2.33698">
        <ele>329</ele>
        <time>2018-06-09T16:13:11Z</time>
      </trkpt>
      <trkpt lat="43.64548" lon="2.33692">
        <ele>327</ele>
        <time>2018-06-09T16:13:13Z</time>
      </trkpt>
      <trkpt lat="43.64548" lon="2.33689">
        <ele>327</ele>
        <time>2018-06-09T16:13:14Z</time>
      </trkpt>
      <trkpt lat="43.64548" lon="2.33686">
        <ele>326</ele>
        <time>2018-06-09T16:13:15Z</time>
      </trkpt>
      <trkpt lat="43.64547" lon="2.33681">
        <ele>324</ele>
        <time>2018-06-09T16:13:17Z</time>
      </trkpt>
      <trkpt lat="43.64546" lon="2.33677">
        <ele>323</ele>
        <time>2018-06-09T16:13:19Z</time>
      </trkpt>
      <trkpt lat="43.64545" lon="2.33673">
        <ele>323</ele>
        <time>2018-06-09T16:13:20Z</time>
      </trkpt>
      <trkpt lat="43.64544" lon="2.33672">
        <ele>323</ele>
        <time>2018-06-09T16:13:21Z</time>
      </trkpt>
      <trkpt lat="43.64543" lon="2.33669">
        <ele>322</ele>
        <time>2018-06-09T16:13:23Z</time>
      </trkpt>
      <trkpt lat="43.64544" lon="2.33669">
        <ele>321</ele>
        <time>2018-06-09T16:13:24Z</time>
      </trkpt>
      <trkpt lat="43.64541" lon="2.33669">
        <ele>321</ele>
        <time>2018-06-09T16:13:25Z</time>
      </trkpt>
      <trkpt lat="43.64537" lon="2.33666">
        <ele>321</ele>
        <time>2018-06-09T16:13:27Z</time>
      </trkpt>
      <trkpt lat="43.64527" lon="2.33657">
        <ele>321</ele>
        <time>2018-06-09T16:13:32Z</time>
      </trkpt>
      <trkpt lat="43.64525" lon="2.33655">
        <ele>321</ele>
        <time>2018-06-09T16:13:34Z</time>
      </trkpt>
      <trkpt lat="43.64518" lon="2.33649">
        <ele>320</ele>
        <time>2018-06-09T16:13:38Z</time>
      </trkpt>
      <trkpt lat="43.64514" lon="2.33643">
        <ele>319</ele>
        <time>2018-06-09T16:13:40Z</time>
      </trkpt>
      <trkpt lat="43.6451" lon="2.33636">
        <ele>319</ele>
        <time>2018-06-09T16:13:42Z</time>
      </trkpt>
      <trkpt lat="43.64503" lon="2.33624">
        <ele>320</ele>
        <time>2018-06-09T16:13:46Z</time>
      </trkpt>
      <trkpt lat="43.64501" lon="2.3362">
        <ele>321</ele>
        <time>2018-06-09T16:13:47Z</time>
      </trkpt>
      <trkpt lat="43.64491" lon="2.33605">
        <ele>322</ele>
        <time>2018-06-09T16:13:52Z</time>
      </trkpt>
      <trkpt lat="43.64485" lon="2.3359">
        <ele>322</ele>
        <time>2018-06-09T16:13:56Z</time>
      </trkpt>
      <trkpt lat="43.64474" lon="2.33574">
        <ele>322</ele>
        <time>2018-06-09T16:14:01Z</time>
      </trkpt>
      <trkpt lat="43.64466" lon="2.33559">
        <ele>322</ele>
        <time>2018-06-09T16:14:05Z</time>
      </trkpt>
      <trkpt lat="43.64461" lon="2.33555">
        <ele>321</ele>
        <time>2018-06-09T16:14:06Z</time>
      </trkpt>
      <trkpt lat="43.64456" lon="2.33551">
        <ele>321</ele>
        <time>2018-06-09T16:14:07Z</time>
      </trkpt>
      <trkpt lat="43.64452" lon="2.33548">
        <ele>321</ele>
        <time>2018-06-09T16:14:08Z</time>
      </trkpt>
      <trkpt lat="43.6444" lon="2.3354">
        <ele>321</ele>
        <time>2018-06-09T16:14:12Z</time>
      </trkpt>
      <trkpt lat="43.64438" lon="2.33539">
        <ele>322</ele>
        <time>2018-06-09T16:14:13Z</time>
      </trkpt>
      <trkpt lat="43.64434" lon="2.33534">
        <ele>322</ele>
        <time>2018-06-09T16:14:16Z</time>
      </trkpt>
      <trkpt lat="43.64425" lon="2.33524">
        <ele>322</ele>
        <time>2018-06-09T16:14:20Z</time>
      </trkpt>
      <trkpt lat="43.64417" lon="2.33504">
        <ele>321</ele>
        <time>2018-06-09T16:14:24Z</time>
      </trkpt>
      <trkpt lat="43.64414" lon="2.33499">
        <ele>321</ele>
        <time>2018-06-09T16:14:25Z</time>
      </trkpt>
      <trkpt lat="43.64406" lon="2.33481">
        <ele>321</ele>
        <time>2018-06-09T16:14:29Z</time>
      </trkpt>
      <trkpt lat="43.64397" lon="2.33469">
        <ele>323</ele>
        <time>2018-06-09T16:14:34Z</time>
      </trkpt>
      <trkpt lat="43.64381" lon="2.33459">
        <ele>322</ele>
        <time>2018-06-09T16:14:39Z</time>
      </trkpt>
      <trkpt lat="43.64377" lon="2.33456">
        <ele>321</ele>
        <time>2018-06-09T16:14:40Z</time>
      </trkpt>
      <trkpt lat="43.64373" lon="2.33454">
        <ele>321</ele>
        <time>2018-06-09T16:14:41Z</time>
      </trkpt>
      <trkpt lat="43.6436" lon="2.33444">
        <ele>322</ele>
        <time>2018-06-09T16:14:45Z</time>
      </trkpt>
      <trkpt lat="43.64355" lon="2.33442">
        <ele>322</ele>
        <time>2018-06-09T16:14:47Z</time>
      </trkpt>
      <trkpt lat="43.64349" lon="2.33445">
        <ele>323</ele>
        <time>2018-06-09T16:14:49Z</time>
      </trkpt>
      <trkpt lat="43.64339" lon="2.3345">
        <ele>323</ele>
        <time>2018-06-09T16:14:52Z</time>
      </trkpt>
      <trkpt lat="43.64329" lon="2.33453">
        <ele>323</ele>
        <time>2018-06-09T16:14:55Z</time>
      </trkpt>
      <trkpt lat="43.64314" lon="2.33458">
        <ele>323</ele>
        <time>2018-06-09T16:15:00Z</time>
      </trkpt>
      <trkpt lat="43.64305" lon="2.3345">
        <ele>322</ele>
        <time>2018-06-09T16:15:04Z</time>
      </trkpt>
      <trkpt lat="43.64303" lon="2.33444">
        <ele>321</ele>
        <time>2018-06-09T16:15:06Z</time>
      </trkpt>
      <trkpt lat="43.64299" lon="2.33434">
        <ele>321</ele>
        <time>2018-06-09T16:15:08Z</time>
      </trkpt>
      <trkpt lat="43.64298" lon="2.33429">
        <ele>320</ele>
        <time>2018-06-09T16:15:09Z</time>
      </trkpt>
      <trkpt lat="43.64293" lon="2.33416">
        <ele>319</ele>
        <time>2018-06-09T16:15:11Z</time>
      </trkpt>
      <trkpt lat="43.6429" lon="2.33408">
        <ele>319</ele>
        <time>2018-06-09T16:15:12Z</time>
      </trkpt>
      <trkpt lat="43.64289" lon="2.334">
        <ele>319</ele>
        <time>2018-06-09T16:15:13Z</time>
      </trkpt>
      <trkpt lat="43.64287" lon="2.33388">
        <ele>318</ele>
        <time>2018-06-09T16:15:15Z</time>
      </trkpt>
      <trkpt lat="43.64284" lon="2.33383">
        <ele>317</ele>
        <time>2018-06-09T16:15:16Z</time>
      </trkpt>
      <trkpt lat="43.64281" lon="2.33372">
        <ele>317</ele>
        <time>2018-06-09T16:15:18Z</time>
      </trkpt>
      <trkpt lat="43.64278" lon="2.33366">
        <ele>316</ele>
        <time>2018-06-09T16:15:19Z</time>
      </trkpt>
      <trkpt lat="43.64274" lon="2.33347">
        <ele>315</ele>
        <time>2018-06-09T16:15:22Z</time>
      </trkpt>
      <trkpt lat="43.64272" lon="2.3334">
        <ele>315</ele>
        <time>2018-06-09T16:15:23Z</time>
      </trkpt>
      <trkpt lat="43.64267" lon="2.33311">
        <ele>314</ele>
        <time>2018-06-09T16:15:27Z</time>
      </trkpt>
      <trkpt lat="43.64262" lon="2.33291">
        <ele>314</ele>
        <time>2018-06-09T16:15:30Z</time>
      </trkpt>
      <trkpt lat="43.64261" lon="2.33284">
        <ele>314</ele>
        <time>2018-06-09T16:15:31Z</time>
      </trkpt>
      <trkpt lat="43.64252" lon="2.33255">
        <ele>313</ele>
        <time>2018-06-09T16:15:35Z</time>
      </trkpt>
      <trkpt lat="43.64245" lon="2.3324">
        <ele>313</ele>
        <time>2018-06-09T16:15:38Z</time>
      </trkpt>
      <trkpt lat="43.64237" lon="2.3323">
        <ele>314</ele>
        <time>2018-06-09T16:15:41Z</time>
      </trkpt>
      <trkpt lat="43.64233" lon="2.33224">
        <ele>316</ele>
        <time>2018-06-09T16:15:43Z</time>
      </trkpt>
      <trkpt lat="43.64229" lon="2.33209">
        <ele>316</ele>
        <time>2018-06-09T16:15:48Z</time>
      </trkpt>
      <trkpt lat="43.64226" lon="2.33198">
        <ele>316</ele>
        <time>2018-06-09T16:15:50Z</time>
      </trkpt>
      <trkpt lat="43.64224" lon="2.33191">
        <ele>315</ele>
        <time>2018-06-09T16:15:51Z</time>
      </trkpt>
      <trkpt lat="43.64221" lon="2.33183">
        <ele>314</ele>
        <time>2018-06-09T16:15:52Z</time>
      </trkpt>
      <trkpt lat="43.6422" lon="2.33174">
        <ele>313</ele>
        <time>2018-06-09T16:15:53Z</time>
      </trkpt>
      <trkpt lat="43.64218" lon="2.33166">
        <ele>313</ele>
        <time>2018-06-09T16:15:54Z</time>
      </trkpt>
      <trkpt lat="43.64215" lon="2.33158">
        <ele>312</ele>
        <time>2018-06-09T16:15:55Z</time>
      </trkpt>
      <trkpt lat="43.64206" lon="2.33142">
        <ele>311</ele>
        <time>2018-06-09T16:15:57Z</time>
      </trkpt>
      <trkpt lat="43.64203" lon="2.33134">
        <ele>310</ele>
        <time>2018-06-09T16:15:58Z</time>
      </trkpt>
      <trkpt lat="43.64197" lon="2.33117">
        <ele>308</ele>
        <time>2018-06-09T16:16:00Z</time>
      </trkpt>
      <trkpt lat="43.64195" lon="2.33108">
        <ele>308</ele>
        <time>2018-06-09T16:16:01Z</time>
      </trkpt>
      <trkpt lat="43.64192" lon="2.33101">
        <ele>308</ele>
        <time>2018-06-09T16:16:02Z</time>
      </trkpt>
      <trkpt lat="43.64187" lon="2.33095">
        <ele>306</ele>
        <time>2018-06-09T16:16:03Z</time>
      </trkpt>
      <trkpt lat="43.64181" lon="2.33087">
        <ele>306</ele>
        <time>2018-06-09T16:16:04Z</time>
      </trkpt>
      <trkpt lat="43.64177" lon="2.33079">
        <ele>305</ele>
        <time>2018-06-09T16:16:05Z</time>
      </trkpt>
      <trkpt lat="43.64174" lon="2.33071">
        <ele>305</ele>
        <time>2018-06-09T16:16:06Z</time>
      </trkpt>
      <trkpt lat="43.64168" lon="2.33057">
        <ele>305</ele>
        <time>2018-06-09T16:16:08Z</time>
      </trkpt>
      <trkpt lat="43.64161" lon="2.33041">
        <ele>307</ele>
        <time>2018-06-09T16:16:11Z</time>
      </trkpt>
      <trkpt lat="43.64159" lon="2.33036">
        <ele>306</ele>
        <time>2018-06-09T16:16:12Z</time>
      </trkpt>
      <trkpt lat="43.64151" lon="2.33027">
        <ele>305</ele>
        <time>2018-06-09T16:16:14Z</time>
      </trkpt>
      <trkpt lat="43.6414" lon="2.33016">
        <ele>303</ele>
        <time>2018-06-09T16:16:16Z</time>
      </trkpt>
      <trkpt lat="43.64134" lon="2.3301">
        <ele>302</ele>
        <time>2018-06-09T16:16:17Z</time>
      </trkpt>
      <trkpt lat="43.64115" lon="2.3299">
        <ele>303</ele>
        <time>2018-06-09T16:16:21Z</time>
      </trkpt>
      <trkpt lat="43.64107" lon="2.3298">
        <ele>303</ele>
        <time>2018-06-09T16:16:23Z</time>
      </trkpt>
      <trkpt lat="43.64104" lon="2.32975">
        <ele>304</ele>
        <time>2018-06-09T16:16:24Z</time>
      </trkpt>
      <trkpt lat="43.64103" lon="2.3297">
        <ele>304</ele>
        <time>2018-06-09T16:16:25Z</time>
      </trkpt>
      <trkpt lat="43.64103" lon="2.32947">
        <ele>305</ele>
        <time>2018-06-09T16:16:29Z</time>
      </trkpt>
      <trkpt lat="43.641" lon="2.32941">
        <ele>305</ele>
        <time>2018-06-09T16:16:30Z</time>
      </trkpt>
      <trkpt lat="43.64103" lon="2.32933">
        <ele>305</ele>
        <time>2018-06-09T16:16:32Z</time>
      </trkpt>
      <trkpt lat="43.64098" lon="2.32919">
        <ele>306</ele>
        <time>2018-06-09T16:16:36Z</time>
      </trkpt>
      <trkpt lat="43.64088" lon="2.32916">
        <ele>308</ele>
        <time>2018-06-09T16:16:39Z</time>
      </trkpt>
      <trkpt lat="43.64083" lon="2.32916">
        <ele>309</ele>
        <time>2018-06-09T16:16:41Z</time>
      </trkpt>
      <trkpt lat="43.64079" lon="2.32916">
        <ele>309</ele>
        <time>2018-06-09T16:16:43Z</time>
      </trkpt>
      <trkpt lat="43.64072" lon="2.32914">
        <ele>310</ele>
        <time>2018-06-09T16:16:46Z</time>
      </trkpt>
      <trkpt lat="43.64065" lon="2.32909">
        <ele>310</ele>
        <time>2018-06-09T16:16:48Z</time>
      </trkpt>
      <trkpt lat="43.64054" lon="2.32897">
        <ele>311</ele>
        <time>2018-06-09T16:16:53Z</time>
      </trkpt>
      <trkpt lat="43.64052" lon="2.32893">
        <ele>311</ele>
        <time>2018-06-09T16:16:54Z</time>
      </trkpt>
      <trkpt lat="43.64051" lon="2.32887">
        <ele>312</ele>
        <time>2018-06-09T16:16:57Z</time>
      </trkpt>
      <trkpt lat="43.64048" lon="2.32876">
        <ele>312</ele>
        <time>2018-06-09T16:17:00Z</time>
      </trkpt>
      <trkpt lat="43.64047" lon="2.32874">
        <ele>312</ele>
        <time>2018-06-09T16:17:01Z</time>
      </trkpt>
      <trkpt lat="43.64045" lon="2.32863">
        <ele>313</ele>
        <time>2018-06-09T16:17:04Z</time>
      </trkpt>
      <trkpt lat="43.64045" lon="2.3286">
        <ele>313</ele>
        <time>2018-06-09T16:17:05Z</time>
      </trkpt>
      <trkpt lat="43.64042" lon="2.32857">
        <ele>313</ele>
        <time>2018-06-09T16:17:06Z</time>
      </trkpt>
      <trkpt lat="43.64042" lon="2.32851">
        <ele>313</ele>
        <time>2018-06-09T16:17:08Z</time>
      </trkpt>
      <trkpt lat="43.64036" lon="2.32837">
        <ele>314</ele>
        <time>2018-06-09T16:17:12Z</time>
      </trkpt>
      <trkpt lat="43.64032" lon="2.3283">
        <ele>313</ele>
        <time>2018-06-09T16:17:14Z</time>
      </trkpt>
      <trkpt lat="43.64028" lon="2.32823">
        <ele>313</ele>
        <time>2018-06-09T16:17:16Z</time>
      </trkpt>
      <trkpt lat="43.64011" lon="2.32809">
        <ele>313</ele>
        <time>2018-06-09T16:17:21Z</time>
      </trkpt>
      <trkpt lat="43.63992" lon="2.32806">
        <ele>313</ele>
        <time>2018-06-09T16:17:26Z</time>
      </trkpt>
      <trkpt lat="43.63975" lon="2.32809">
        <ele>313</ele>
        <time>2018-06-09T16:17:31Z</time>
      </trkpt>
      <trkpt lat="43.63959" lon="2.32814">
        <ele>314</ele>
        <time>2018-06-09T16:17:36Z</time>
      </trkpt>
      <trkpt lat="43.63953" lon="2.32814">
        <ele>315</ele>
        <time>2018-06-09T16:17:38Z</time>
      </trkpt>
      <trkpt lat="43.63947" lon="2.32814">
        <ele>315</ele>
        <time>2018-06-09T16:17:40Z</time>
      </trkpt>
      <trkpt lat="43.63941" lon="2.32813">
        <ele>315</ele>
        <time>2018-06-09T16:17:41Z</time>
      </trkpt>
      <trkpt lat="43.6393" lon="2.3281">
        <ele>315</ele>
        <time>2018-06-09T16:17:44Z</time>
      </trkpt>
      <trkpt lat="43.63915" lon="2.32807">
        <ele>315</ele>
        <time>2018-06-09T16:17:47Z</time>
      </trkpt>
      <trkpt lat="43.63909" lon="2.32805">
        <ele>313</ele>
        <time>2018-06-09T16:17:48Z</time>
      </trkpt>
      <trkpt lat="43.63888" lon="2.32796">
        <ele>313</ele>
        <time>2018-06-09T16:17:52Z</time>
      </trkpt>
      <trkpt lat="43.63882" lon="2.32793">
        <ele>312</ele>
        <time>2018-06-09T16:17:53Z</time>
      </trkpt>
      <trkpt lat="43.63865" lon="2.32791">
        <ele>312</ele>
        <time>2018-06-09T16:17:56Z</time>
      </trkpt>
      <trkpt lat="43.63846" lon="2.32786">
        <ele>313</ele>
        <time>2018-06-09T16:18:01Z</time>
      </trkpt>
      <trkpt lat="43.63839" lon="2.32785">
        <ele>314</ele>
        <time>2018-06-09T16:18:03Z</time>
      </trkpt>
      <trkpt lat="43.63835" lon="2.32782">
        <ele>314</ele>
        <time>2018-06-09T16:18:05Z</time>
      </trkpt>
      <trkpt lat="43.63834" lon="2.32781">
        <ele>315</ele>
        <time>2018-06-09T16:18:06Z</time>
      </trkpt>
      <trkpt lat="43.63829" lon="2.32774">
        <ele>314</ele>
        <time>2018-06-09T16:18:09Z</time>
      </trkpt>
      <trkpt lat="43.63824" lon="2.32766">
        <ele>315</ele>
        <time>2018-06-09T16:18:12Z</time>
      </trkpt>
      <trkpt lat="43.63816" lon="2.3275">
        <ele>314</ele>
        <time>2018-06-09T16:18:17Z</time>
      </trkpt>
      <trkpt lat="43.63812" lon="2.32735">
        <ele>314</ele>
        <time>2018-06-09T16:18:20Z</time>
      </trkpt>
      <trkpt lat="43.63811" lon="2.32729">
        <ele>314</ele>
        <time>2018-06-09T16:18:21Z</time>
      </trkpt>
      <trkpt lat="43.6381" lon="2.32722">
        <ele>314</ele>
        <time>2018-06-09T16:18:22Z</time>
      </trkpt>
      <trkpt lat="43.63808" lon="2.3271">
        <ele>314</ele>
        <time>2018-06-09T16:18:24Z</time>
      </trkpt>
      <trkpt lat="43.63808" lon="2.32706">
        <ele>313</ele>
        <time>2018-06-09T16:18:25Z</time>
      </trkpt>
      <trkpt lat="43.63805" lon="2.32698">
        <ele>313</ele>
        <time>2018-06-09T16:18:26Z</time>
      </trkpt>
      <trkpt lat="43.63801" lon="2.32687">
        <ele>313</ele>
        <time>2018-06-09T16:18:28Z</time>
      </trkpt>
      <trkpt lat="43.63799" lon="2.3268">
        <ele>313</ele>
        <time>2018-06-09T16:18:29Z</time>
      </trkpt>
      <trkpt lat="43.63799" lon="2.32663">
        <ele>312</ele>
        <time>2018-06-09T16:18:32Z</time>
      </trkpt>
      <trkpt lat="43.63801" lon="2.32657">
        <ele>312</ele>
        <time>2018-06-09T16:18:33Z</time>
      </trkpt>
      <trkpt lat="43.63812" lon="2.32644">
        <ele>312</ele>
        <time>2018-06-09T16:18:36Z</time>
      </trkpt>
      <trkpt lat="43.63822" lon="2.32628">
        <ele>312</ele>
        <time>2018-06-09T16:18:39Z</time>
      </trkpt>
      <trkpt lat="43.63825" lon="2.32624">
        <ele>312</ele>
        <time>2018-06-09T16:18:40Z</time>
      </trkpt>
      <trkpt lat="43.63827" lon="2.32619">
        <ele>313</ele>
        <time>2018-06-09T16:18:41Z</time>
      </trkpt>
      <trkpt lat="43.63826" lon="2.32614">
        <ele>313</ele>
        <time>2018-06-09T16:18:42Z</time>
      </trkpt>
      <trkpt lat="43.63828" lon="2.32609">
        <ele>313</ele>
        <time>2018-06-09T16:18:43Z</time>
      </trkpt>
      <trkpt lat="43.63827" lon="2.32603">
        <ele>314</ele>
        <time>2018-06-09T16:18:45Z</time>
      </trkpt>
      <trkpt lat="43.63826" lon="2.32599">
        <ele>314</ele>
        <time>2018-06-09T16:18:46Z</time>
      </trkpt>
      <trkpt lat="43.63831" lon="2.32593">
        <ele>314</ele>
        <time>2018-06-09T16:18:48Z</time>
      </trkpt>
      <trkpt lat="43.63831" lon="2.32589">
        <ele>314</ele>
        <time>2018-06-09T16:18:49Z</time>
      </trkpt>
      <trkpt lat="43.63839" lon="2.32577">
        <ele>314</ele>
        <time>2018-06-09T16:18:52Z</time>
      </trkpt>
      <trkpt lat="43.63842" lon="2.32573">
        <ele>312</ele>
        <time>2018-06-09T16:18:53Z</time>
      </trkpt>
      <trkpt lat="43.63852" lon="2.32568">
        <ele>310</ele>
        <time>2018-06-09T16:18:54Z</time>
      </trkpt>
      <trkpt lat="43.63861" lon="2.32563">
        <ele>309</ele>
        <time>2018-06-09T16:18:55Z</time>
      </trkpt>
      <trkpt lat="43.6387" lon="2.32559">
        <ele>308</ele>
        <time>2018-06-09T16:18:56Z</time>
      </trkpt>
      <trkpt lat="43.63877" lon="2.32553">
        <ele>307</ele>
        <time>2018-06-09T16:18:57Z</time>
      </trkpt>
      <trkpt lat="43.63885" lon="2.32549">
        <ele>306</ele>
        <time>2018-06-09T16:18:58Z</time>
      </trkpt>
      <trkpt lat="43.63892" lon="2.32543">
        <ele>306</ele>
        <time>2018-06-09T16:18:59Z</time>
      </trkpt>
      <trkpt lat="43.63907" lon="2.32535">
        <ele>306</ele>
        <time>2018-06-09T16:19:01Z</time>
      </trkpt>
      <trkpt lat="43.63919" lon="2.32527">
        <ele>306</ele>
        <time>2018-06-09T16:19:03Z</time>
      </trkpt>
      <trkpt lat="43.63932" lon="2.32521">
        <ele>305</ele>
        <time>2018-06-09T16:19:05Z</time>
      </trkpt>
      <trkpt lat="43.63942" lon="2.32515">
        <ele>307</ele>
        <time>2018-06-09T16:19:07Z</time>
      </trkpt>
      <trkpt lat="43.6395" lon="2.32511">
        <ele>307</ele>
        <time>2018-06-09T16:19:09Z</time>
      </trkpt>
      <trkpt lat="43.63958" lon="2.32507">
        <ele>307</ele>
        <time>2018-06-09T16:19:11Z</time>
      </trkpt>
      <trkpt lat="43.63968" lon="2.32501">
        <ele>306</ele>
        <time>2018-06-09T16:19:14Z</time>
      </trkpt>
      <trkpt lat="43.63971" lon="2.32498">
        <ele>305</ele>
        <time>2018-06-09T16:19:15Z</time>
      </trkpt>
      <trkpt lat="43.63973" lon="2.32495">
        <ele>304</ele>
        <time>2018-06-09T16:19:16Z</time>
      </trkpt>
      <trkpt lat="43.63978" lon="2.32489">
        <ele>302</ele>
        <time>2018-06-09T16:19:18Z</time>
      </trkpt>
      <trkpt lat="43.63981" lon="2.32484">
        <ele>302</ele>
        <time>2018-06-09T16:19:19Z</time>
      </trkpt>
      <trkpt lat="43.63987" lon="2.32475">
        <ele>301</ele>
        <time>2018-06-09T16:19:21Z</time>
      </trkpt>
      <trkpt lat="43.6399" lon="2.32472">
        <ele>300</ele>
        <time>2018-06-09T16:19:22Z</time>
      </trkpt>
      <trkpt lat="43.63993" lon="2.32463">
        <ele>299</ele>
        <time>2018-06-09T16:19:24Z</time>
      </trkpt>
      <trkpt lat="43.63998" lon="2.32454">
        <ele>299</ele>
        <time>2018-06-09T16:19:26Z</time>
      </trkpt>
      <trkpt lat="43.63999" lon="2.3245">
        <ele>297</ele>
        <time>2018-06-09T16:19:27Z</time>
      </trkpt>
      <trkpt lat="43.63999" lon="2.32441">
        <ele>296</ele>
        <time>2018-06-09T16:19:29Z</time>
      </trkpt>
      <trkpt lat="43.64" lon="2.32437">
        <ele>295</ele>
        <time>2018-06-09T16:19:30Z</time>
      </trkpt>
      <trkpt lat="43.64001" lon="2.32433">
        <ele>294</ele>
        <time>2018-06-09T16:19:31Z</time>
      </trkpt>
      <trkpt lat="43.64003" lon="2.32427">
        <ele>293</ele>
        <time>2018-06-09T16:19:33Z</time>
      </trkpt>
      <trkpt lat="43.64003" lon="2.32422">
        <ele>292</ele>
        <time>2018-06-09T16:19:34Z</time>
      </trkpt>
      <trkpt lat="43.64003" lon="2.32419">
        <ele>291</ele>
        <time>2018-06-09T16:19:35Z</time>
      </trkpt>
      <trkpt lat="43.64002" lon="2.32414">
        <ele>290</ele>
        <time>2018-06-09T16:19:36Z</time>
      </trkpt>
      <trkpt lat="43.64002" lon="2.32409">
        <ele>289</ele>
        <time>2018-06-09T16:19:37Z</time>
      </trkpt>
      <trkpt lat="43.64003" lon="2.324">
        <ele>288</ele>
        <time>2018-06-09T16:19:38Z</time>
      </trkpt>
      <trkpt lat="43.64004" lon="2.32395">
        <ele>287</ele>
        <time>2018-06-09T16:19:39Z</time>
      </trkpt>
      <trkpt lat="43.64006" lon="2.32387">
        <ele>286</ele>
        <time>2018-06-09T16:19:40Z</time>
      </trkpt>
      <trkpt lat="43.64005" lon="2.32378">
        <ele>286</ele>
        <time>2018-06-09T16:19:41Z</time>
      </trkpt>
      <trkpt lat="43.64003" lon="2.32371">
        <ele>284</ele>
        <time>2018-06-09T16:19:42Z</time>
      </trkpt>
      <trkpt lat="43.64" lon="2.32363">
        <ele>283</ele>
        <time>2018-06-09T16:19:43Z</time>
      </trkpt>
      <trkpt lat="43.63992" lon="2.32347">
        <ele>282</ele>
        <time>2018-06-09T16:19:45Z</time>
      </trkpt>
      <trkpt lat="43.63988" lon="2.32331">
        <ele>281</ele>
        <time>2018-06-09T16:19:48Z</time>
      </trkpt>
      <trkpt lat="43.63993" lon="2.32323">
        <ele>281</ele>
        <time>2018-06-09T16:19:50Z</time>
      </trkpt>
      <trkpt lat="43.63995" lon="2.3232">
        <ele>280</ele>
        <time>2018-06-09T16:19:51Z</time>
      </trkpt>
      <trkpt lat="43.63995" lon="2.32317">
        <ele>280</ele>
        <time>2018-06-09T16:19:52Z</time>
      </trkpt>
      <trkpt lat="43.63992" lon="2.32312">
        <ele>278</ele>
        <time>2018-06-09T16:19:54Z</time>
      </trkpt>
      <trkpt lat="43.63992" lon="2.32311">
        <ele>277</ele>
        <time>2018-06-09T16:19:55Z</time>
      </trkpt>
      <trkpt lat="43.6399" lon="2.32309">
        <ele>277</ele>
        <time>2018-06-09T16:19:56Z</time>
      </trkpt>
      <trkpt lat="43.63987" lon="2.32304">
        <ele>275</ele>
        <time>2018-06-09T16:19:58Z</time>
      </trkpt>
      <trkpt lat="43.63983" lon="2.32296">
        <ele>274</ele>
        <time>2018-06-09T16:20:00Z</time>
      </trkpt>
      <trkpt lat="43.63979" lon="2.32292">
        <ele>271</ele>
        <time>2018-06-09T16:20:01Z</time>
      </trkpt>
      <trkpt lat="43.63977" lon="2.32288">
        <ele>270</ele>
        <time>2018-06-09T16:20:02Z</time>
      </trkpt>
      <trkpt lat="43.63971" lon="2.32283">
        <ele>270</ele>
        <time>2018-06-09T16:20:04Z</time>
      </trkpt>
      <trkpt lat="43.63966" lon="2.32276">
        <ele>269</ele>
        <time>2018-06-09T16:20:06Z</time>
      </trkpt>
      <trkpt lat="43.63961" lon="2.32271">
        <ele>268</ele>
        <time>2018-06-09T16:20:08Z</time>
      </trkpt>
      <trkpt lat="43.63959" lon="2.32266">
        <ele>266</ele>
        <time>2018-06-09T16:20:09Z</time>
      </trkpt>
      <trkpt lat="43.63954" lon="2.32259">
        <ele>265</ele>
        <time>2018-06-09T16:20:11Z</time>
      </trkpt>
      <trkpt lat="43.63952" lon="2.32257">
        <ele>264</ele>
        <time>2018-06-09T16:20:12Z</time>
      </trkpt>
      <trkpt lat="43.63945" lon="2.32252">
        <ele>263</ele>
        <time>2018-06-09T16:20:14Z</time>
      </trkpt>
      <trkpt lat="43.63943" lon="2.32249">
        <ele>262</ele>
        <time>2018-06-09T16:20:15Z</time>
      </trkpt>
      <trkpt lat="43.63942" lon="2.32246">
        <ele>261</ele>
        <time>2018-06-09T16:20:16Z</time>
      </trkpt>
      <trkpt lat="43.63941" lon="2.32245">
        <ele>260</ele>
        <time>2018-06-09T16:20:17Z</time>
      </trkpt>
      <trkpt lat="43.63937" lon="2.3224">
        <ele>259</ele>
        <time>2018-06-09T16:20:19Z</time>
      </trkpt>
      <trkpt lat="43.63935" lon="2.32236">
        <ele>258</ele>
        <time>2018-06-09T16:20:20Z</time>
      </trkpt>
      <trkpt lat="43.63932" lon="2.32233">
        <ele>257</ele>
        <time>2018-06-09T16:20:21Z</time>
      </trkpt>
      <trkpt lat="43.63927" lon="2.32225">
        <ele>256</ele>
        <time>2018-06-09T16:20:23Z</time>
      </trkpt>
      <trkpt lat="43.63924" lon="2.32219">
        <ele>255</ele>
        <time>2018-06-09T16:20:25Z</time>
      </trkpt>
      <trkpt lat="43.63926" lon="2.32216">
        <ele>254</ele>
        <time>2018-06-09T16:20:26Z</time>
      </trkpt>
      <trkpt lat="43.63924" lon="2.32206">
        <ele>253</ele>
        <time>2018-06-09T16:20:28Z</time>
      </trkpt>
      <trkpt lat="43.63923" lon="2.32197">
        <ele>251</ele>
        <time>2018-06-09T16:20:30Z</time>
      </trkpt>
      <trkpt lat="43.63921" lon="2.32187">
        <ele>250</ele>
        <time>2018-06-09T16:20:32Z</time>
      </trkpt>
      <trkpt lat="43.63921" lon="2.32185">
        <ele>249</ele>
        <time>2018-06-09T16:20:33Z</time>
      </trkpt>
      <trkpt lat="43.63919" lon="2.32183">
        <ele>248</ele>
        <time>2018-06-09T16:20:34Z</time>
      </trkpt>
      <trkpt lat="43.63916" lon="2.32178">
        <ele>247</ele>
        <time>2018-06-09T16:20:35Z</time>
      </trkpt>
      <trkpt lat="43.63915" lon="2.32174">
        <ele>247</ele>
        <time>2018-06-09T16:20:36Z</time>
      </trkpt>
      <trkpt lat="43.63913" lon="2.32169">
        <ele>246</ele>
        <time>2018-06-09T16:20:38Z</time>
      </trkpt>
      <trkpt lat="43.63913" lon="2.32168">
        <ele>246</ele>
        <time>2018-06-09T16:20:40Z</time>
      </trkpt>
      <trkpt lat="43.63912" lon="2.32159">
        <ele>246</ele>
        <time>2018-06-09T16:20:52Z</time>
      </trkpt>
      <trkpt lat="43.6391" lon="2.32154">
        <ele>246</ele>
        <time>2018-06-09T16:20:56Z</time>
      </trkpt>
      <trkpt lat="43.63908" lon="2.32153">
        <ele>245</ele>
        <time>2018-06-09T16:20:57Z</time>
      </trkpt>
      <trkpt lat="43.63905" lon="2.3215">
        <ele>244</ele>
        <time>2018-06-09T16:20:58Z</time>
      </trkpt>
      <trkpt lat="43.63901" lon="2.32149">
        <ele>244</ele>
        <time>2018-06-09T16:20:59Z</time>
      </trkpt>
      <trkpt lat="43.63895" lon="2.32148">
        <ele>243</ele>
        <time>2018-06-09T16:21:01Z</time>
      </trkpt>
      <trkpt lat="43.63892" lon="2.32146">
        <ele>243</ele>
        <time>2018-06-09T16:21:02Z</time>
      </trkpt>
      <trkpt lat="43.63889" lon="2.32145">
        <ele>243</ele>
        <time>2018-06-09T16:21:03Z</time>
      </trkpt>
      <trkpt lat="43.63885" lon="2.32144">
        <ele>242</ele>
        <time>2018-06-09T16:21:04Z</time>
      </trkpt>
      <trkpt lat="43.63877" lon="2.3214">
        <ele>241</ele>
        <time>2018-06-09T16:21:06Z</time>
      </trkpt>
      <trkpt lat="43.63871" lon="2.32136">
        <ele>240</ele>
        <time>2018-06-09T16:21:07Z</time>
      </trkpt>
      <trkpt lat="43.63866" lon="2.32135">
        <ele>240</ele>
        <time>2018-06-09T16:21:08Z</time>
      </trkpt>
      <trkpt lat="43.63856" lon="2.32128">
        <ele>238</ele>
        <time>2018-06-09T16:21:10Z</time>
      </trkpt>
      <trkpt lat="43.63851" lon="2.32123">
        <ele>237</ele>
        <time>2018-06-09T16:21:11Z</time>
      </trkpt>
      <trkpt lat="43.63841" lon="2.32115">
        <ele>237</ele>
        <time>2018-06-09T16:21:13Z</time>
      </trkpt>
      <trkpt lat="43.63833" lon="2.32109">
        <ele>236</ele>
        <time>2018-06-09T16:21:15Z</time>
      </trkpt>
      <trkpt lat="43.63829" lon="2.3211">
        <ele>236</ele>
        <time>2018-06-09T16:21:16Z</time>
      </trkpt>
      <trkpt lat="43.63821" lon="2.32113">
        <ele>236</ele>
        <time>2018-06-09T16:21:18Z</time>
      </trkpt>
      <trkpt lat="43.63808" lon="2.3212">
        <ele>235</ele>
        <time>2018-06-09T16:21:21Z</time>
      </trkpt>
      <trkpt lat="43.638" lon="2.32125">
        <ele>235</ele>
        <time>2018-06-09T16:21:23Z</time>
      </trkpt>
      <trkpt lat="43.63788" lon="2.32129">
        <ele>234</ele>
        <time>2018-06-09T16:21:27Z</time>
      </trkpt>
      <trkpt lat="43.63784" lon="2.3213">
        <ele>233</ele>
        <time>2018-06-09T16:21:28Z</time>
      </trkpt>
      <trkpt lat="43.6378" lon="2.3213">
        <ele>232</ele>
        <time>2018-06-09T16:21:29Z</time>
      </trkpt>
      <trkpt lat="43.63771" lon="2.32129">
        <ele>231</ele>
        <time>2018-06-09T16:21:31Z</time>
      </trkpt>
      <trkpt lat="43.63767" lon="2.32128">
        <ele>231</ele>
        <time>2018-06-09T16:21:32Z</time>
      </trkpt>
      <trkpt lat="43.6376" lon="2.32119">
        <ele>232</ele>
        <time>2018-06-09T16:21:35Z</time>
      </trkpt>
      <trkpt lat="43.63758" lon="2.32118">
        <ele>232</ele>
        <time>2018-06-09T16:21:36Z</time>
      </trkpt>
      <trkpt lat="43.63756" lon="2.32115">
        <ele>232</ele>
        <time>2018-06-09T16:21:37Z</time>
      </trkpt>
      <trkpt lat="43.6375" lon="2.32111">
        <ele>232</ele>
        <time>2018-06-09T16:21:39Z</time>
      </trkpt>
      <trkpt lat="43.63746" lon="2.32107">
        <ele>231</ele>
        <time>2018-06-09T16:21:41Z</time>
      </trkpt>
      <trkpt lat="43.63735" lon="2.32101">
        <ele>230</ele>
        <time>2018-06-09T16:21:45Z</time>
      </trkpt>
      <trkpt lat="43.63729" lon="2.32098">
        <ele>228</ele>
        <time>2018-06-09T16:21:48Z</time>
      </trkpt>
      <trkpt lat="43.63727" lon="2.32097">
        <ele>228</ele>
        <time>2018-06-09T16:21:49Z</time>
      </trkpt>
      <trkpt lat="43.63724" lon="2.32095">
        <ele>227</ele>
        <time>2018-06-09T16:21:50Z</time>
      </trkpt>
      <trkpt lat="43.63717" lon="2.3209">
        <ele>225</ele>
        <time>2018-06-09T16:21:53Z</time>
      </trkpt>
      <trkpt lat="43.63714" lon="2.32086">
        <ele>224</ele>
        <time>2018-06-09T16:21:54Z</time>
      </trkpt>
      <trkpt lat="43.63711" lon="2.32083">
        <ele>223</ele>
        <time>2018-06-09T16:21:55Z</time>
      </trkpt>
      <trkpt lat="43.63702" lon="2.32081">
        <ele>222</ele>
        <time>2018-06-09T16:21:58Z</time>
      </trkpt>
      <trkpt lat="43.637" lon="2.32081">
        <ele>222</ele>
        <time>2018-06-09T16:21:59Z</time>
      </trkpt>
      <trkpt lat="43.63699" lon="2.32082">
        <ele>222</ele>
        <time>2018-06-09T16:22:03Z</time>
      </trkpt>
      <trkpt lat="43.63698" lon="2.32082">
        <ele>222</ele>
        <time>2018-06-09T16:22:07Z</time>
      </trkpt>
      <trkpt lat="43.63698" lon="2.32082">
        <ele>222</ele>
        <time>2018-06-09T16:22:14Z</time>
      </trkpt>
      <trkpt lat="43.63698" lon="2.32082">
        <ele>222</ele>
        <time>2018-06-09T16:22:25Z</time>
      </trkpt>
      <trkpt lat="43.63698" lon="2.32082">
        <ele>222</ele>
        <time>2018-06-09T16:22:33Z</time>
      </trkpt>
      <trkpt lat="43.63695" lon="2.32081">
        <ele>222</ele>
        <time>2018-06-09T16:22:48Z</time>
      </trkpt>
      <trkpt lat="43.63691" lon="2.32079">
        <ele>222</ele>
        <time>2018-06-09T16:22:50Z</time>
      </trkpt>
      <trkpt lat="43.63687" lon="2.32077">
        <ele>221</ele>
        <time>2018-06-09T16:22:51Z</time>
      </trkpt>
      <trkpt lat="43.63683" lon="2.32076">
        <ele>221</ele>
        <time>2018-06-09T16:22:52Z</time>
      </trkpt>
      <trkpt lat="43.63678" lon="2.32072">
        <ele>221</ele>
        <time>2018-06-09T16:22:54Z</time>
      </trkpt>
      <trkpt lat="43.63672" lon="2.32068">
        <ele>220</ele>
        <time>2018-06-09T16:22:56Z</time>
      </trkpt>
      <trkpt lat="43.6367" lon="2.32065">
        <ele>220</ele>
        <time>2018-06-09T16:22:57Z</time>
      </trkpt>
      <trkpt lat="43.63662" lon="2.3206">
        <ele>219</ele>
        <time>2018-06-09T16:23:01Z</time>
      </trkpt>
      <trkpt lat="43.63648" lon="2.3205">
        <ele>219</ele>
        <time>2018-06-09T16:23:06Z</time>
      </trkpt>
      <trkpt lat="43.63641" lon="2.32044">
        <ele>218</ele>
        <time>2018-06-09T16:23:09Z</time>
      </trkpt>
      <trkpt lat="43.6364" lon="2.32041">
        <ele>217</ele>
        <time>2018-06-09T16:23:10Z</time>
      </trkpt>
      <trkpt lat="43.63638" lon="2.32039">
        <ele>216</ele>
        <time>2018-06-09T16:23:11Z</time>
      </trkpt>
      <trkpt lat="43.63632" lon="2.32035">
        <ele>215</ele>
        <time>2018-06-09T16:23:13Z</time>
      </trkpt>
      <trkpt lat="43.63629" lon="2.32032">
        <ele>214</ele>
        <time>2018-06-09T16:23:14Z</time>
      </trkpt>
      <trkpt lat="43.63627" lon="2.32029">
        <ele>213</ele>
        <time>2018-06-09T16:23:15Z</time>
      </trkpt>
      <trkpt lat="43.63624" lon="2.32027">
        <ele>212</ele>
        <time>2018-06-09T16:23:16Z</time>
      </trkpt>
      <trkpt lat="43.63615" lon="2.32019">
        <ele>211</ele>
        <time>2018-06-09T16:23:19Z</time>
      </trkpt>
      <trkpt lat="43.63612" lon="2.32017">
        <ele>210</ele>
        <time>2018-06-09T16:23:20Z</time>
      </trkpt>
      <trkpt lat="43.6361" lon="2.32016">
        <ele>209</ele>
        <time>2018-06-09T16:23:21Z</time>
      </trkpt>
      <trkpt lat="43.63605" lon="2.32011">
        <ele>208</ele>
        <time>2018-06-09T16:23:23Z</time>
      </trkpt>
      <trkpt lat="43.636" lon="2.32008">
        <ele>207</ele>
        <time>2018-06-09T16:23:25Z</time>
      </trkpt>
      <trkpt lat="43.63594" lon="2.32003">
        <ele>206</ele>
        <time>2018-06-09T16:23:27Z</time>
      </trkpt>
      <trkpt lat="43.63592" lon="2.32">
        <ele>205</ele>
        <time>2018-06-09T16:23:29Z</time>
      </trkpt>
      <trkpt lat="43.63587" lon="2.31995">
        <ele>205</ele>
        <time>2018-06-09T16:23:32Z</time>
      </trkpt>
      <trkpt lat="43.63585" lon="2.31995">
        <ele>204</ele>
        <time>2018-06-09T16:23:33Z</time>
      </trkpt>
      <trkpt lat="43.63585" lon="2.31995">
        <ele>204</ele>
        <time>2018-06-09T16:23:34Z</time>
      </trkpt>
      <trkpt lat="43.63584" lon="2.31991">
        <ele>204</ele>
        <time>2018-06-09T16:23:41Z</time>
      </trkpt>
      <trkpt lat="43.63584" lon="2.3199">
        <ele>204</ele>
        <time>2018-06-09T16:23:45Z</time>
      </trkpt>
      <trkpt lat="43.63583" lon="2.3199">
        <ele>203</ele>
        <time>2018-06-09T16:23:46Z</time>
      </trkpt>
      <trkpt lat="43.63582" lon="2.31988">
        <ele>203</ele>
        <time>2018-06-09T16:23:52Z</time>
      </trkpt>
      <trkpt lat="43.63594" lon="2.31989">
        <ele>203</ele>
        <time>2018-06-09T16:24:05Z</time>
      </trkpt>
      <trkpt lat="43.63596" lon="2.3199">
        <ele>204</ele>
        <time>2018-06-09T16:24:10Z</time>
      </trkpt>
      <trkpt lat="43.63596" lon="2.3199">
        <ele>203</ele>
        <time>2018-06-09T16:24:13Z</time>
      </trkpt>
      <trkpt lat="43.63595" lon="2.3199">
        <ele>203</ele>
        <time>2018-06-09T16:24:17Z</time>
      </trkpt>
      <trkpt lat="43.63595" lon="2.3199">
        <ele>203</ele>
        <time>2018-06-09T16:24:20Z</time>
      </trkpt>
      <trkpt lat="43.63595" lon="2.3199">
        <ele>204</ele>
        <time>2018-06-09T16:24:25Z</time>
      </trkpt>
      <trkpt lat="43.63594" lon="2.3199">
        <ele>203</ele>
        <time>2018-06-09T16:24:36Z</time>
      </trkpt>
      <trkpt lat="43.63594" lon="2.31991">
        <ele>203</ele>
        <time>2018-06-09T16:24:48Z</time>
      </trkpt>
      <trkpt lat="43.63594" lon="2.31991">
        <ele>204</ele>
        <time>2018-06-09T16:24:50Z</time>
      </trkpt>
      <trkpt lat="43.63593" lon="2.31991">
        <ele>204</ele>
        <time>2018-06-09T16:25:05Z</time>
      </trkpt>
      <trkpt lat="43.63592" lon="2.31988">
        <ele>204</ele>
        <time>2018-06-09T16:25:21Z</time>
      </trkpt>
      <trkpt lat="43.63592" lon="2.31988">
        <ele>204</ele>
        <time>2018-06-09T16:25:22Z</time>
      </trkpt>
      <trkpt lat="43.63591" lon="2.31988">
        <ele>204</ele>
        <time>2018-06-09T16:25:23Z</time>
      </trkpt>
      <trkpt lat="43.6359" lon="2.31988">
        <ele>204</ele>
        <time>2018-06-09T16:25:24Z</time>
      </trkpt>
      <trkpt lat="43.63585" lon="2.31984">
        <ele>203</ele>
        <time>2018-06-09T16:25:32Z</time>
      </trkpt>
      <trkpt lat="43.63584" lon="2.31984">
        <ele>203</ele>
        <time>2018-06-09T16:25:33Z</time>
      </trkpt>
      <trkpt lat="43.63584" lon="2.31983">
        <ele>203</ele>
        <time>2018-06-09T16:25:36Z</time>
      </trkpt>
      <trkpt lat="43.63583" lon="2.31978">
        <ele>202</ele>
        <time>2018-06-09T16:25:39Z</time>
      </trkpt>
      <trkpt lat="43.63582" lon="2.31976">
        <ele>201</ele>
        <time>2018-06-09T16:25:41Z</time>
      </trkpt>
      <trkpt lat="43.63581" lon="2.31973">
        <ele>201</ele>
        <time>2018-06-09T16:25:43Z</time>
      </trkpt>
      <trkpt lat="43.6358" lon="2.31971">
        <ele>200</ele>
        <time>2018-06-09T16:25:45Z</time>
      </trkpt>
      <trkpt lat="43.63578" lon="2.31968">
        <ele>199</ele>
        <time>2018-06-09T16:25:48Z</time>
      </trkpt>
      <trkpt lat="43.63577" lon="2.31965">
        <ele>199</ele>
        <time>2018-06-09T16:25:51Z</time>
      </trkpt>
      <trkpt lat="43.63575" lon="2.31962">
        <ele>198</ele>
        <time>2018-06-09T16:25:53Z</time>
      </trkpt>
      <trkpt lat="43.63573" lon="2.31959">
        <ele>197</ele>
        <time>2018-06-09T16:25:55Z</time>
      </trkpt>
      <trkpt lat="43.63569" lon="2.31951">
        <ele>196</ele>
        <time>2018-06-09T16:26:00Z</time>
      </trkpt>
      <trkpt lat="43.63568" lon="2.31948">
        <ele>196</ele>
        <time>2018-06-09T16:26:02Z</time>
      </trkpt>
      <trkpt lat="43.63568" lon="2.31947">
        <ele>195</ele>
        <time>2018-06-09T16:26:05Z</time>
      </trkpt>
      <trkpt lat="43.63567" lon="2.31946">
        <ele>195</ele>
        <time>2018-06-09T16:26:06Z</time>
      </trkpt>
      <trkpt lat="43.63566" lon="2.31942">
        <ele>194</ele>
        <time>2018-06-09T16:26:09Z</time>
      </trkpt>
      <trkpt lat="43.63567" lon="2.31941">
        <ele>194</ele>
        <time>2018-06-09T16:26:10Z</time>
      </trkpt>
      <trkpt lat="43.63567" lon="2.3194">
        <ele>193</ele>
        <time>2018-06-09T16:26:12Z</time>
      </trkpt>
      <trkpt lat="43.63569" lon="2.31942">
        <ele>193</ele>
        <time>2018-06-09T16:26:15Z</time>
      </trkpt>
      <trkpt lat="43.63576" lon="2.31945">
        <ele>192</ele>
        <time>2018-06-09T16:26:18Z</time>
      </trkpt>
      <trkpt lat="43.63579" lon="2.31947">
        <ele>191</ele>
        <time>2018-06-09T16:26:19Z</time>
      </trkpt>
      <trkpt lat="43.63581" lon="2.31947">
        <ele>190</ele>
        <time>2018-06-09T16:26:23Z</time>
      </trkpt>
      <trkpt lat="43.63582" lon="2.31947">
        <ele>190</ele>
        <time>2018-06-09T16:26:27Z</time>
      </trkpt>
      <trkpt lat="43.63582" lon="2.31945">
        <ele>190</ele>
        <time>2018-06-09T16:26:28Z</time>
      </trkpt>
      <trkpt lat="43.63579" lon="2.3194">
        <ele>190</ele>
        <time>2018-06-09T16:26:33Z</time>
      </trkpt>
      <trkpt lat="43.63567" lon="2.3193">
        <ele>189</ele>
        <time>2018-06-09T16:26:38Z</time>
      </trkpt>
      <trkpt lat="43.63545" lon="2.31917">
        <ele>190</ele>
        <time>2018-06-09T16:26:46Z</time>
      </trkpt>
      <trkpt lat="43.63522" lon="2.31906">
        <ele>189</ele>
        <time>2018-06-09T16:26:52Z</time>
      </trkpt>
      <trkpt lat="43.63512" lon="2.31898">
        <ele>189</ele>
        <time>2018-06-09T16:26:54Z</time>
      </trkpt>
      <trkpt lat="43.63507" lon="2.31891">
        <ele>188</ele>
        <time>2018-06-09T16:26:55Z</time>
      </trkpt>
      <trkpt lat="43.63503" lon="2.31885">
        <ele>187</ele>
        <time>2018-06-09T16:26:56Z</time>
      </trkpt>
      <trkpt lat="43.63491" lon="2.31871">
        <ele>186</ele>
        <time>2018-06-09T16:26:58Z</time>
      </trkpt>
      <trkpt lat="43.63485" lon="2.31864">
        <ele>185</ele>
        <time>2018-06-09T16:26:59Z</time>
      </trkpt>
      <trkpt lat="43.63479" lon="2.31857">
        <ele>184</ele>
        <time>2018-06-09T16:27:00Z</time>
      </trkpt>
      <trkpt lat="43.63472" lon="2.31853">
        <ele>184</ele>
        <time>2018-06-09T16:27:01Z</time>
      </trkpt>
      <trkpt lat="43.63453" lon="2.3184">
        <ele>185</ele>
        <time>2018-06-09T16:27:04Z</time>
      </trkpt>
      <trkpt lat="43.63442" lon="2.31831">
        <ele>185</ele>
        <time>2018-06-09T16:27:06Z</time>
      </trkpt>
      <trkpt lat="43.63432" lon="2.31823">
        <ele>186</ele>
        <time>2018-06-09T16:27:08Z</time>
      </trkpt>
      <trkpt lat="43.63427" lon="2.3182">
        <ele>186</ele>
        <time>2018-06-09T16:27:09Z</time>
      </trkpt>
      <trkpt lat="43.63423" lon="2.31818">
        <ele>186</ele>
        <time>2018-06-09T16:27:10Z</time>
      </trkpt>
      <trkpt lat="43.63419" lon="2.31816">
        <ele>186</ele>
        <time>2018-06-09T16:27:11Z</time>
      </trkpt>
      <trkpt lat="43.63416" lon="2.31813">
        <ele>186</ele>
        <time>2018-06-09T16:27:12Z</time>
      </trkpt>
      <trkpt lat="43.63409" lon="2.31809">
        <ele>187</ele>
        <time>2018-06-09T16:27:14Z</time>
      </trkpt>
      <trkpt lat="43.63399" lon="2.318">
        <ele>187</ele>
        <time>2018-06-09T16:27:17Z</time>
      </trkpt>
      <trkpt lat="43.63395" lon="2.31798">
        <ele>187</ele>
        <time>2018-06-09T16:27:18Z</time>
      </trkpt>
      <trkpt lat="43.63379" lon="2.31787">
        <ele>189</ele>
        <time>2018-06-09T16:27:23Z</time>
      </trkpt>
      <trkpt lat="43.63372" lon="2.31779">
        <ele>190</ele>
        <time>2018-06-09T16:27:26Z</time>
      </trkpt>
      <trkpt lat="43.63368" lon="2.31773">
        <ele>191</ele>
        <time>2018-06-09T16:27:28Z</time>
      </trkpt>
      <trkpt lat="43.63358" lon="2.31751">
        <ele>190</ele>
        <time>2018-06-09T16:27:32Z</time>
      </trkpt>
      <trkpt lat="43.63353" lon="2.31738">
        <ele>189</ele>
        <time>2018-06-09T16:27:34Z</time>
      </trkpt>
      <trkpt lat="43.63341" lon="2.31704">
        <ele>189</ele>
        <time>2018-06-09T16:27:39Z</time>
      </trkpt>
      <trkpt lat="43.63331" lon="2.31672">
        <ele>189</ele>
        <time>2018-06-09T16:27:44Z</time>
      </trkpt>
      <trkpt lat="43.63326" lon="2.3166">
        <ele>189</ele>
        <time>2018-06-09T16:27:46Z</time>
      </trkpt>
      <trkpt lat="43.63314" lon="2.31628">
        <ele>189</ele>
        <time>2018-06-09T16:27:51Z</time>
      </trkpt>
      <trkpt lat="43.63309" lon="2.31622">
        <ele>189</ele>
        <time>2018-06-09T16:27:52Z</time>
      </trkpt>
      <trkpt lat="43.63304" lon="2.31602">
        <ele>189</ele>
        <time>2018-06-09T16:27:55Z</time>
      </trkpt>
      <trkpt lat="43.63301" lon="2.31572">
        <ele>189</ele>
        <time>2018-06-09T16:28:00Z</time>
      </trkpt>
      <trkpt lat="43.63297" lon="2.31551">
        <ele>188</ele>
        <time>2018-06-09T16:28:03Z</time>
      </trkpt>
      <trkpt lat="43.63295" lon="2.31544">
        <ele>188</ele>
        <time>2018-06-09T16:28:04Z</time>
      </trkpt>
      <trkpt lat="43.63293" lon="2.31528">
        <ele>188</ele>
        <time>2018-06-09T16:28:06Z</time>
      </trkpt>
      <trkpt lat="43.63291" lon="2.3152">
        <ele>188</ele>
        <time>2018-06-09T16:28:07Z</time>
      </trkpt>
      <trkpt lat="43.63288" lon="2.31512">
        <ele>188</ele>
        <time>2018-06-09T16:28:08Z</time>
      </trkpt>
      <trkpt lat="43.63283" lon="2.3149">
        <ele>188</ele>
        <time>2018-06-09T16:28:11Z</time>
      </trkpt>
      <trkpt lat="43.63278" lon="2.31468">
        <ele>188</ele>
        <time>2018-06-09T16:28:14Z</time>
      </trkpt>
      <trkpt lat="43.63274" lon="2.31455">
        <ele>188</ele>
        <time>2018-06-09T16:28:16Z</time>
      </trkpt>
      <trkpt lat="43.63272" lon="2.31448">
        <ele>188</ele>
        <time>2018-06-09T16:28:17Z</time>
      </trkpt>
      <trkpt lat="43.63269" lon="2.31426">
        <ele>188</ele>
        <time>2018-06-09T16:28:20Z</time>
      </trkpt>
      <trkpt lat="43.63266" lon="2.31413">
        <ele>188</ele>
        <time>2018-06-09T16:28:22Z</time>
      </trkpt>
      <trkpt lat="43.63265" lon="2.31392">
        <ele>188</ele>
        <time>2018-06-09T16:28:25Z</time>
      </trkpt>
      <trkpt lat="43.63264" lon="2.31381">
        <ele>188</ele>
        <time>2018-06-09T16:28:27Z</time>
      </trkpt>
      <trkpt lat="43.63264" lon="2.31376">
        <ele>188</ele>
        <time>2018-06-09T16:28:28Z</time>
      </trkpt>
      <trkpt lat="43.63259" lon="2.31361">
        <ele>188</ele>
        <time>2018-06-09T16:28:30Z</time>
      </trkpt>
      <trkpt lat="43.63257" lon="2.31354">
        <ele>188</ele>
        <time>2018-06-09T16:28:31Z</time>
      </trkpt>
      <trkpt lat="43.63253" lon="2.31332">
        <ele>188</ele>
        <time>2018-06-09T16:28:34Z</time>
      </trkpt>
      <trkpt lat="43.6325" lon="2.31321">
        <ele>188</ele>
        <time>2018-06-09T16:28:36Z</time>
      </trkpt>
      <trkpt lat="43.63246" lon="2.31306">
        <ele>188</ele>
        <time>2018-06-09T16:28:38Z</time>
      </trkpt>
      <trkpt lat="43.63243" lon="2.31299">
        <ele>188</ele>
        <time>2018-06-09T16:28:39Z</time>
      </trkpt>
      <trkpt lat="43.63233" lon="2.31271">
        <ele>188</ele>
        <time>2018-06-09T16:28:43Z</time>
      </trkpt>
      <trkpt lat="43.63227" lon="2.31253">
        <ele>188</ele>
        <time>2018-06-09T16:28:46Z</time>
      </trkpt>
      <trkpt lat="43.63226" lon="2.3124">
        <ele>188</ele>
        <time>2018-06-09T16:28:48Z</time>
      </trkpt>
      <trkpt lat="43.63223" lon="2.31229">
        <ele>188</ele>
        <time>2018-06-09T16:28:50Z</time>
      </trkpt>
      <trkpt lat="43.63221" lon="2.31223">
        <ele>188</ele>
        <time>2018-06-09T16:28:51Z</time>
      </trkpt>
      <trkpt lat="43.63218" lon="2.31208">
        <ele>188</ele>
        <time>2018-06-09T16:28:53Z</time>
      </trkpt>
      <trkpt lat="43.63218" lon="2.31201">
        <ele>188</ele>
        <time>2018-06-09T16:28:54Z</time>
      </trkpt>
      <trkpt lat="43.63221" lon="2.31181">
        <ele>188</ele>
        <time>2018-06-09T16:28:57Z</time>
      </trkpt>
      <trkpt lat="43.63224" lon="2.31167">
        <ele>188</ele>
        <time>2018-06-09T16:28:59Z</time>
      </trkpt>
      <trkpt lat="43.63229" lon="2.3115">
        <ele>188</ele>
        <time>2018-06-09T16:29:01Z</time>
      </trkpt>
      <trkpt lat="43.63235" lon="2.31118">
        <ele>187</ele>
        <time>2018-06-09T16:29:05Z</time>
      </trkpt>
      <trkpt lat="43.63232" lon="2.31096">
        <ele>188</ele>
        <time>2018-06-09T16:29:08Z</time>
      </trkpt>
      <trkpt lat="43.63227" lon="2.31083">
        <ele>188</ele>
        <time>2018-06-09T16:29:10Z</time>
      </trkpt>
      <trkpt lat="43.63227" lon="2.31076">
        <ele>188</ele>
        <time>2018-06-09T16:29:11Z</time>
      </trkpt>
      <trkpt lat="43.63225" lon="2.3107">
        <ele>188</ele>
        <time>2018-06-09T16:29:12Z</time>
      </trkpt>
      <trkpt lat="43.63216" lon="2.31048">
        <ele>188</ele>
        <time>2018-06-09T16:29:15Z</time>
      </trkpt>
      <trkpt lat="43.6321" lon="2.31026">
        <ele>188</ele>
        <time>2018-06-09T16:29:18Z</time>
      </trkpt>
      <trkpt lat="43.63199" lon="2.30999">
        <ele>188</ele>
        <time>2018-06-09T16:29:22Z</time>
      </trkpt>
      <trkpt lat="43.63198" lon="2.30994">
        <ele>188</ele>
        <time>2018-06-09T16:29:23Z</time>
      </trkpt>
      <trkpt lat="43.63195" lon="2.30972">
        <ele>188</ele>
        <time>2018-06-09T16:29:26Z</time>
      </trkpt>
      <trkpt lat="43.63194" lon="2.30964">
        <ele>188</ele>
        <time>2018-06-09T16:29:27Z</time>
      </trkpt>
      <trkpt lat="43.63195" lon="2.30958">
        <ele>188</ele>
        <time>2018-06-09T16:29:28Z</time>
      </trkpt>
      <trkpt lat="43.63195" lon="2.30942">
        <ele>188</ele>
        <time>2018-06-09T16:29:30Z</time>
      </trkpt>
      <trkpt lat="43.6319" lon="2.30915">
        <ele>188</ele>
        <time>2018-06-09T16:29:33Z</time>
      </trkpt>
      <trkpt lat="43.63192" lon="2.30891">
        <ele>187</ele>
        <time>2018-06-09T16:29:36Z</time>
      </trkpt>
      <trkpt lat="43.63193" lon="2.30864">
        <ele>188</ele>
        <time>2018-06-09T16:29:39Z</time>
      </trkpt>
      <trkpt lat="43.63193" lon="2.30854">
        <ele>188</ele>
        <time>2018-06-09T16:29:40Z</time>
      </trkpt>
      <trkpt lat="43.63193" lon="2.3083">
        <ele>188</ele>
        <time>2018-06-09T16:29:43Z</time>
      </trkpt>
      <trkpt lat="43.63192" lon="2.30823">
        <ele>188</ele>
        <time>2018-06-09T16:29:44Z</time>
      </trkpt>
      <trkpt lat="43.63194" lon="2.30807">
        <ele>188</ele>
        <time>2018-06-09T16:29:46Z</time>
      </trkpt>
      <trkpt lat="43.63194" lon="2.30799">
        <ele>188</ele>
        <time>2018-06-09T16:29:47Z</time>
      </trkpt>
      <trkpt lat="43.63196" lon="2.30772">
        <ele>188</ele>
        <time>2018-06-09T16:29:50Z</time>
      </trkpt>
      <trkpt lat="43.63197" lon="2.30763">
        <ele>188</ele>
        <time>2018-06-09T16:29:51Z</time>
      </trkpt>
      <trkpt lat="43.63197" lon="2.30754">
        <ele>188</ele>
        <time>2018-06-09T16:29:52Z</time>
      </trkpt>
      <trkpt lat="43.63202" lon="2.30729">
        <ele>188</ele>
        <time>2018-06-09T16:29:55Z</time>
      </trkpt>
      <trkpt lat="43.63207" lon="2.30715">
        <ele>189</ele>
        <time>2018-06-09T16:29:57Z</time>
      </trkpt>
      <trkpt lat="43.63209" lon="2.30707">
        <ele>189</ele>
        <time>2018-06-09T16:29:58Z</time>
      </trkpt>
      <trkpt lat="43.63215" lon="2.30663">
        <ele>188</ele>
        <time>2018-06-09T16:30:03Z</time>
      </trkpt>
      <trkpt lat="43.63218" lon="2.30641">
        <ele>188</ele>
        <time>2018-06-09T16:30:06Z</time>
      </trkpt>
      <trkpt lat="43.63218" lon="2.30634">
        <ele>188</ele>
        <time>2018-06-09T16:30:07Z</time>
      </trkpt>
      <trkpt lat="43.63226" lon="2.30601">
        <ele>188</ele>
        <time>2018-06-09T16:30:11Z</time>
      </trkpt>
      <trkpt lat="43.63229" lon="2.30575">
        <ele>188</ele>
        <time>2018-06-09T16:30:14Z</time>
      </trkpt>
      <trkpt lat="43.6323" lon="2.30567">
        <ele>188</ele>
        <time>2018-06-09T16:30:15Z</time>
      </trkpt>
      <trkpt lat="43.63233" lon="2.3056">
        <ele>188</ele>
        <time>2018-06-09T16:30:16Z</time>
      </trkpt>
      <trkpt lat="43.63236" lon="2.30544">
        <ele>189</ele>
        <time>2018-06-09T16:30:18Z</time>
      </trkpt>
      <trkpt lat="43.63242" lon="2.30516">
        <ele>188</ele>
        <time>2018-06-09T16:30:22Z</time>
      </trkpt>
      <trkpt lat="43.63244" lon="2.30508">
        <ele>188</ele>
        <time>2018-06-09T16:30:23Z</time>
      </trkpt>
      <trkpt lat="43.63246" lon="2.30487">
        <ele>188</ele>
        <time>2018-06-09T16:30:26Z</time>
      </trkpt>
      <trkpt lat="43.63249" lon="2.3048">
        <ele>189</ele>
        <time>2018-06-09T16:30:27Z</time>
      </trkpt>
      <trkpt lat="43.63251" lon="2.30458">
        <ele>188</ele>
        <time>2018-06-09T16:30:30Z</time>
      </trkpt>
      <trkpt lat="43.63244" lon="2.30418">
        <ele>188</ele>
        <time>2018-06-09T16:30:35Z</time>
      </trkpt>
      <trkpt lat="43.63241" lon="2.3041">
        <ele>189</ele>
        <time>2018-06-09T16:30:36Z</time>
      </trkpt>
      <trkpt lat="43.63233" lon="2.30394">
        <ele>189</ele>
        <time>2018-06-09T16:30:39Z</time>
      </trkpt>
      <trkpt lat="43.63232" lon="2.3039">
        <ele>189</ele>
        <time>2018-06-09T16:30:40Z</time>
      </trkpt>
      <trkpt lat="43.63227" lon="2.30368">
        <ele>189</ele>
        <time>2018-06-09T16:30:44Z</time>
      </trkpt>
      <trkpt lat="43.63217" lon="2.30342">
        <ele>189</ele>
        <time>2018-06-09T16:30:48Z</time>
      </trkpt>
      <trkpt lat="43.63216" lon="2.30335">
        <ele>189</ele>
        <time>2018-06-09T16:30:49Z</time>
      </trkpt>
      <trkpt lat="43.6321" lon="2.30307">
        <ele>189</ele>
        <time>2018-06-09T16:30:53Z</time>
      </trkpt>
      <trkpt lat="43.63202" lon="2.30286">
        <ele>189</ele>
        <time>2018-06-09T16:30:56Z</time>
      </trkpt>
      <trkpt lat="43.63196" lon="2.30273">
        <ele>190</ele>
        <time>2018-06-09T16:30:58Z</time>
      </trkpt>
      <trkpt lat="43.63191" lon="2.3026">
        <ele>190</ele>
        <time>2018-06-09T16:31:00Z</time>
      </trkpt>
      <trkpt lat="43.6318" lon="2.30234">
        <ele>189</ele>
        <time>2018-06-09T16:31:04Z</time>
      </trkpt>
      <trkpt lat="43.6317" lon="2.30207">
        <ele>189</ele>
        <time>2018-06-09T16:31:08Z</time>
      </trkpt>
      <trkpt lat="43.63159" lon="2.30173">
        <ele>189</ele>
        <time>2018-06-09T16:31:13Z</time>
      </trkpt>
      <trkpt lat="43.63154" lon="2.30159">
        <ele>188</ele>
        <time>2018-06-09T16:31:15Z</time>
      </trkpt>
      <trkpt lat="43.63153" lon="2.30143">
        <ele>188</ele>
        <time>2018-06-09T16:31:17Z</time>
      </trkpt>
      <trkpt lat="43.63159" lon="2.30114">
        <ele>189</ele>
        <time>2018-06-09T16:31:21Z</time>
      </trkpt>
      <trkpt lat="43.63163" lon="2.30094">
        <ele>189</ele>
        <time>2018-06-09T16:31:24Z</time>
      </trkpt>
      <trkpt lat="43.63166" lon="2.30087">
        <ele>189</ele>
        <time>2018-06-09T16:31:25Z</time>
      </trkpt>
      <trkpt lat="43.63168" lon="2.30071">
        <ele>189</ele>
        <time>2018-06-09T16:31:27Z</time>
      </trkpt>
      <trkpt lat="43.63167" lon="2.30057">
        <ele>189</ele>
        <time>2018-06-09T16:31:29Z</time>
      </trkpt>
      <trkpt lat="43.63169" lon="2.30037">
        <ele>188</ele>
        <time>2018-06-09T16:31:32Z</time>
      </trkpt>
      <trkpt lat="43.63165" lon="2.30023">
        <ele>189</ele>
        <time>2018-06-09T16:31:34Z</time>
      </trkpt>
      <trkpt lat="43.63159" lon="2.30003">
        <ele>189</ele>
        <time>2018-06-09T16:31:37Z</time>
      </trkpt>
      <trkpt lat="43.63151" lon="2.29977">
        <ele>189</ele>
        <time>2018-06-09T16:31:42Z</time>
      </trkpt>
      <trkpt lat="43.63146" lon="2.29965">
        <ele>189</ele>
        <time>2018-06-09T16:31:44Z</time>
      </trkpt>
      <trkpt lat="43.63141" lon="2.29952">
        <ele>189</ele>
        <time>2018-06-09T16:31:46Z</time>
      </trkpt>
      <trkpt lat="43.63134" lon="2.29939">
        <ele>190</ele>
        <time>2018-06-09T16:31:48Z</time>
      </trkpt>
      <trkpt lat="43.63129" lon="2.29926">
        <ele>189</ele>
        <time>2018-06-09T16:31:50Z</time>
      </trkpt>
      <trkpt lat="43.63127" lon="2.29921">
        <ele>189</ele>
        <time>2018-06-09T16:31:51Z</time>
      </trkpt>
      <trkpt lat="43.6312" lon="2.29894">
        <ele>189</ele>
        <time>2018-06-09T16:31:56Z</time>
      </trkpt>
      <trkpt lat="43.63119" lon="2.29872">
        <ele>189</ele>
        <time>2018-06-09T16:31:59Z</time>
      </trkpt>
      <trkpt lat="43.63118" lon="2.29864">
        <ele>189</ele>
        <time>2018-06-09T16:32:00Z</time>
      </trkpt>
      <trkpt lat="43.63115" lon="2.29841">
        <ele>189</ele>
        <time>2018-06-09T16:32:03Z</time>
      </trkpt>
      <trkpt lat="43.63116" lon="2.29828">
        <ele>189</ele>
        <time>2018-06-09T16:32:05Z</time>
      </trkpt>
      <trkpt lat="43.63115" lon="2.29815">
        <ele>189</ele>
        <time>2018-06-09T16:32:07Z</time>
      </trkpt>
      <trkpt lat="43.63112" lon="2.29799">
        <ele>189</ele>
        <time>2018-06-09T16:32:09Z</time>
      </trkpt>
      <trkpt lat="43.63108" lon="2.29786">
        <ele>189</ele>
        <time>2018-06-09T16:32:11Z</time>
      </trkpt>
      <trkpt lat="43.63105" lon="2.29773">
        <ele>189</ele>
        <time>2018-06-09T16:32:13Z</time>
      </trkpt>
      <trkpt lat="43.63103" lon="2.29749">
        <ele>189</ele>
        <time>2018-06-09T16:32:16Z</time>
      </trkpt>
      <trkpt lat="43.631" lon="2.29737">
        <ele>189</ele>
        <time>2018-06-09T16:32:18Z</time>
      </trkpt>
      <trkpt lat="43.631" lon="2.2973">
        <ele>189</ele>
        <time>2018-06-09T16:32:19Z</time>
      </trkpt>
      <trkpt lat="43.63095" lon="2.29711">
        <ele>189</ele>
        <time>2018-06-09T16:32:22Z</time>
      </trkpt>
      <trkpt lat="43.63095" lon="2.29691">
        <ele>189</ele>
        <time>2018-06-09T16:32:25Z</time>
      </trkpt>
      <trkpt lat="43.63093" lon="2.29684">
        <ele>189</ele>
        <time>2018-06-09T16:32:26Z</time>
      </trkpt>
      <trkpt lat="43.63099" lon="2.29667">
        <ele>189</ele>
        <time>2018-06-09T16:32:29Z</time>
      </trkpt>
      <trkpt lat="43.63102" lon="2.2966">
        <ele>189</ele>
        <time>2018-06-09T16:32:31Z</time>
      </trkpt>
      <trkpt lat="43.63108" lon="2.29642">
        <ele>189</ele>
        <time>2018-06-09T16:32:33Z</time>
      </trkpt>
      <trkpt lat="43.63114" lon="2.29607">
        <ele>189</ele>
        <time>2018-06-09T16:32:37Z</time>
      </trkpt>
      <trkpt lat="43.63115" lon="2.29599">
        <ele>189</ele>
        <time>2018-06-09T16:32:38Z</time>
      </trkpt>
      <trkpt lat="43.63115" lon="2.29586">
        <ele>189</ele>
        <time>2018-06-09T16:32:39Z</time>
      </trkpt>
      <trkpt lat="43.63118" lon="2.29569">
        <ele>189</ele>
        <time>2018-06-09T16:32:41Z</time>
      </trkpt>
      <trkpt lat="43.63119" lon="2.2956">
        <ele>188</ele>
        <time>2018-06-09T16:32:42Z</time>
      </trkpt>
      <trkpt lat="43.63115" lon="2.29536">
        <ele>189</ele>
        <time>2018-06-09T16:32:45Z</time>
      </trkpt>
      <trkpt lat="43.63109" lon="2.29515">
        <ele>188</ele>
        <time>2018-06-09T16:32:48Z</time>
      </trkpt>
      <trkpt lat="43.63106" lon="2.29507">
        <ele>188</ele>
        <time>2018-06-09T16:32:49Z</time>
      </trkpt>
      <trkpt lat="43.63101" lon="2.29493">
        <ele>188</ele>
        <time>2018-06-09T16:32:51Z</time>
      </trkpt>
      <trkpt lat="43.63096" lon="2.29472">
        <ele>188</ele>
        <time>2018-06-09T16:32:54Z</time>
      </trkpt>
      <trkpt lat="43.63092" lon="2.29448">
        <ele>188</ele>
        <time>2018-06-09T16:32:57Z</time>
      </trkpt>
      <trkpt lat="43.63089" lon="2.29439">
        <ele>188</ele>
        <time>2018-06-09T16:32:58Z</time>
      </trkpt>
      <trkpt lat="43.63084" lon="2.29419">
        <ele>188</ele>
        <time>2018-06-09T16:33:01Z</time>
      </trkpt>
      <trkpt lat="43.63082" lon="2.29412">
        <ele>188</ele>
        <time>2018-06-09T16:33:02Z</time>
      </trkpt>
      <trkpt lat="43.63077" lon="2.29397">
        <ele>188</ele>
        <time>2018-06-09T16:33:04Z</time>
      </trkpt>
      <trkpt lat="43.63069" lon="2.29372">
        <ele>188</ele>
        <time>2018-06-09T16:33:07Z</time>
      </trkpt>
      <trkpt lat="43.63067" lon="2.29366">
        <ele>188</ele>
        <time>2018-06-09T16:33:08Z</time>
      </trkpt>
      <trkpt lat="43.63063" lon="2.29359">
        <ele>188</ele>
        <time>2018-06-09T16:33:09Z</time>
      </trkpt>
      <trkpt lat="43.63057" lon="2.29346">
        <ele>188</ele>
        <time>2018-06-09T16:33:11Z</time>
      </trkpt>
      <trkpt lat="43.63049" lon="2.29332">
        <ele>188</ele>
        <time>2018-06-09T16:33:13Z</time>
      </trkpt>
      <trkpt lat="43.63044" lon="2.29318">
        <ele>188</ele>
        <time>2018-06-09T16:33:15Z</time>
      </trkpt>
      <trkpt lat="43.63041" lon="2.29312">
        <ele>188</ele>
        <time>2018-06-09T16:33:16Z</time>
      </trkpt>
      <trkpt lat="43.63032" lon="2.2929">
        <ele>188</ele>
        <time>2018-06-09T16:33:19Z</time>
      </trkpt>
      <trkpt lat="43.63026" lon="2.29275">
        <ele>189</ele>
        <time>2018-06-09T16:33:22Z</time>
      </trkpt>
      <trkpt lat="43.63023" lon="2.29252">
        <ele>189</ele>
        <time>2018-06-09T16:33:26Z</time>
      </trkpt>
      <trkpt lat="43.63017" lon="2.29227">
        <ele>188</ele>
        <time>2018-06-09T16:33:29Z</time>
      </trkpt>
      <trkpt lat="43.63015" lon="2.29219">
        <ele>188</ele>
        <time>2018-06-09T16:33:30Z</time>
      </trkpt>
      <trkpt lat="43.63009" lon="2.29205">
        <ele>188</ele>
        <time>2018-06-09T16:33:32Z</time>
      </trkpt>
      <trkpt lat="43.63002" lon="2.29194">
        <ele>188</ele>
        <time>2018-06-09T16:33:34Z</time>
      </trkpt>
      <trkpt lat="43.62986" lon="2.29162">
        <ele>188</ele>
        <time>2018-06-09T16:33:39Z</time>
      </trkpt>
      <trkpt lat="43.62977" lon="2.29131">
        <ele>188</ele>
        <time>2018-06-09T16:33:44Z</time>
      </trkpt>
      <trkpt lat="43.62971" lon="2.2911">
        <ele>189</ele>
        <time>2018-06-09T16:33:48Z</time>
      </trkpt>
      <trkpt lat="43.6297" lon="2.29086">
        <ele>189</ele>
        <time>2018-06-09T16:33:52Z</time>
      </trkpt>
      <trkpt lat="43.62973" lon="2.29062">
        <ele>189</ele>
        <time>2018-06-09T16:33:56Z</time>
      </trkpt>
      <trkpt lat="43.62981" lon="2.29045">
        <ele>189</ele>
        <time>2018-06-09T16:33:59Z</time>
      </trkpt>
      <trkpt lat="43.62988" lon="2.2902">
        <ele>189</ele>
        <time>2018-06-09T16:34:03Z</time>
      </trkpt>
      <trkpt lat="43.62999" lon="2.28992">
        <ele>189</ele>
        <time>2018-06-09T16:34:07Z</time>
      </trkpt>
      <trkpt lat="43.63002" lon="2.28985">
        <ele>189</ele>
        <time>2018-06-09T16:34:08Z</time>
      </trkpt>
      <trkpt lat="43.63008" lon="2.28972">
        <ele>188</ele>
        <time>2018-06-09T16:34:10Z</time>
      </trkpt>
      <trkpt lat="43.63017" lon="2.28942">
        <ele>188</ele>
        <time>2018-06-09T16:34:14Z</time>
      </trkpt>
      <trkpt lat="43.63018" lon="2.28935">
        <ele>188</ele>
        <time>2018-06-09T16:34:15Z</time>
      </trkpt>
      <trkpt lat="43.63022" lon="2.28921">
        <ele>188</ele>
        <time>2018-06-09T16:34:17Z</time>
      </trkpt>
      <trkpt lat="43.63027" lon="2.28895">
        <ele>188</ele>
        <time>2018-06-09T16:34:21Z</time>
      </trkpt>
      <trkpt lat="43.63019" lon="2.28875">
        <ele>188</ele>
        <time>2018-06-09T16:34:24Z</time>
      </trkpt>
      <trkpt lat="43.63018" lon="2.28867">
        <ele>188</ele>
        <time>2018-06-09T16:34:25Z</time>
      </trkpt>
      <trkpt lat="43.6302" lon="2.28851">
        <ele>188</ele>
        <time>2018-06-09T16:34:27Z</time>
      </trkpt>
      <trkpt lat="43.63019" lon="2.28831">
        <ele>188</ele>
        <time>2018-06-09T16:34:30Z</time>
      </trkpt>
      <trkpt lat="43.63017" lon="2.28823">
        <ele>188</ele>
        <time>2018-06-09T16:34:31Z</time>
      </trkpt>
      <trkpt lat="43.63012" lon="2.28802">
        <ele>188</ele>
        <time>2018-06-09T16:34:34Z</time>
      </trkpt>
      <trkpt lat="43.6301" lon="2.2878">
        <ele>188</ele>
        <time>2018-06-09T16:34:37Z</time>
      </trkpt>
      <trkpt lat="43.63008" lon="2.28758">
        <ele>187</ele>
        <time>2018-06-09T16:34:40Z</time>
      </trkpt>
      <trkpt lat="43.63005" lon="2.28739">
        <ele>187</ele>
        <time>2018-06-09T16:34:42Z</time>
      </trkpt>
      <trkpt lat="43.63003" lon="2.28706">
        <ele>187</ele>
        <time>2018-06-09T16:34:46Z</time>
      </trkpt>
      <trkpt lat="43.63002" lon="2.2869">
        <ele>187</ele>
        <time>2018-06-09T16:34:48Z</time>
      </trkpt>
      <trkpt lat="43.63001" lon="2.28667">
        <ele>187</ele>
        <time>2018-06-09T16:34:51Z</time>
      </trkpt>
      <trkpt lat="43.63001" lon="2.2866">
        <ele>187</ele>
        <time>2018-06-09T16:34:52Z</time>
      </trkpt>
      <trkpt lat="43.62999" lon="2.28651">
        <ele>187</ele>
        <time>2018-06-09T16:34:53Z</time>
      </trkpt>
      <trkpt lat="43.62999" lon="2.28639">
        <ele>187</ele>
        <time>2018-06-09T16:34:55Z</time>
      </trkpt>
      <trkpt lat="43.62998" lon="2.28624">
        <ele>188</ele>
        <time>2018-06-09T16:34:57Z</time>
      </trkpt>
      <trkpt lat="43.62996" lon="2.28606">
        <ele>187</ele>
        <time>2018-06-09T16:34:59Z</time>
      </trkpt>
      <trkpt lat="43.62999" lon="2.28583">
        <ele>187</ele>
        <time>2018-06-09T16:35:02Z</time>
      </trkpt>
      <trkpt lat="43.62995" lon="2.28567">
        <ele>188</ele>
        <time>2018-06-09T16:35:04Z</time>
      </trkpt>
      <trkpt lat="43.62994" lon="2.2856">
        <ele>188</ele>
        <time>2018-06-09T16:35:05Z</time>
      </trkpt>
      <trkpt lat="43.62991" lon="2.28544">
        <ele>188</ele>
        <time>2018-06-09T16:35:08Z</time>
      </trkpt>
      <trkpt lat="43.62996" lon="2.28525">
        <ele>188</ele>
        <time>2018-06-09T16:35:11Z</time>
      </trkpt>
      <trkpt lat="43.62999" lon="2.28495">
        <ele>188</ele>
        <time>2018-06-09T16:35:15Z</time>
      </trkpt>
      <trkpt lat="43.62999" lon="2.28487">
        <ele>188</ele>
        <time>2018-06-09T16:35:16Z</time>
      </trkpt>
      <trkpt lat="43.62998" lon="2.2848">
        <ele>188</ele>
        <time>2018-06-09T16:35:17Z</time>
      </trkpt>
      <trkpt lat="43.62995" lon="2.28463">
        <ele>188</ele>
        <time>2018-06-09T16:35:19Z</time>
      </trkpt>
      <trkpt lat="43.62992" lon="2.28438">
        <ele>188</ele>
        <time>2018-06-09T16:35:22Z</time>
      </trkpt>
      <trkpt lat="43.62992" lon="2.28431">
        <ele>188</ele>
        <time>2018-06-09T16:35:23Z</time>
      </trkpt>
      <trkpt lat="43.62994" lon="2.28401">
        <ele>187</ele>
        <time>2018-06-09T16:35:27Z</time>
      </trkpt>
      <trkpt lat="43.62995" lon="2.28393">
        <ele>187</ele>
        <time>2018-06-09T16:35:28Z</time>
      </trkpt>
      <trkpt lat="43.63" lon="2.28365">
        <ele>188</ele>
        <time>2018-06-09T16:35:32Z</time>
      </trkpt>
      <trkpt lat="43.63003" lon="2.28352">
        <ele>188</ele>
        <time>2018-06-09T16:35:34Z</time>
      </trkpt>
      <trkpt lat="43.63006" lon="2.2834">
        <ele>188</ele>
        <time>2018-06-09T16:35:36Z</time>
      </trkpt>
      <trkpt lat="43.6301" lon="2.28322">
        <ele>187</ele>
        <time>2018-06-09T16:35:39Z</time>
      </trkpt>
      <trkpt lat="43.63017" lon="2.28305">
        <ele>188</ele>
        <time>2018-06-09T16:35:42Z</time>
      </trkpt>
      <trkpt lat="43.63019" lon="2.28292">
        <ele>188</ele>
        <time>2018-06-09T16:35:44Z</time>
      </trkpt>
      <trkpt lat="43.6302" lon="2.28285">
        <ele>188</ele>
        <time>2018-06-09T16:35:45Z</time>
      </trkpt>
      <trkpt lat="43.63017" lon="2.28257">
        <ele>188</ele>
        <time>2018-06-09T16:35:49Z</time>
      </trkpt>
      <trkpt lat="43.6301" lon="2.28233">
        <ele>187</ele>
        <time>2018-06-09T16:35:52Z</time>
      </trkpt>
      <trkpt lat="43.63008" lon="2.28225">
        <ele>187</ele>
        <time>2018-06-09T16:35:53Z</time>
      </trkpt>
      <trkpt lat="43.6301" lon="2.28202">
        <ele>187</ele>
        <time>2018-06-09T16:35:56Z</time>
      </trkpt>
      <trkpt lat="43.63012" lon="2.28195">
        <ele>187</ele>
        <time>2018-06-09T16:35:57Z</time>
      </trkpt>
      <trkpt lat="43.63018" lon="2.28179">
        <ele>188</ele>
        <time>2018-06-09T16:36:00Z</time>
      </trkpt>
      <trkpt lat="43.63019" lon="2.28161">
        <ele>189</ele>
        <time>2018-06-09T16:36:03Z</time>
      </trkpt>
      <trkpt lat="43.63021" lon="2.28156">
        <ele>188</ele>
        <time>2018-06-09T16:36:04Z</time>
      </trkpt>
      <trkpt lat="43.63023" lon="2.28132">
        <ele>188</ele>
        <time>2018-06-09T16:36:08Z</time>
      </trkpt>
      <trkpt lat="43.63026" lon="2.28103">
        <ele>188</ele>
        <time>2018-06-09T16:36:12Z</time>
      </trkpt>
      <trkpt lat="43.63027" lon="2.28095">
        <ele>188</ele>
        <time>2018-06-09T16:36:13Z</time>
      </trkpt>
      <trkpt lat="43.63027" lon="2.2807">
        <ele>189</ele>
        <time>2018-06-09T16:36:16Z</time>
      </trkpt>
      <trkpt lat="43.63027" lon="2.28064">
        <ele>189</ele>
        <time>2018-06-09T16:36:17Z</time>
      </trkpt>
      <trkpt lat="43.63027" lon="2.28055">
        <ele>189</ele>
        <time>2018-06-09T16:36:19Z</time>
      </trkpt>
      <trkpt lat="43.63026" lon="2.28046">
        <ele>189</ele>
        <time>2018-06-09T16:36:21Z</time>
      </trkpt>
      <trkpt lat="43.63023" lon="2.28023">
        <ele>190</ele>
        <time>2018-06-09T16:36:25Z</time>
      </trkpt>
      <trkpt lat="43.6302" lon="2.28018">
        <ele>190</ele>
        <time>2018-06-09T16:36:26Z</time>
      </trkpt>
      <trkpt lat="43.6302" lon="2.28012">
        <ele>190</ele>
        <time>2018-06-09T16:36:28Z</time>
      </trkpt>
      <trkpt lat="43.63017" lon="2.28">
        <ele>190</ele>
        <time>2018-06-09T16:36:37Z</time>
      </trkpt>
      <trkpt lat="43.63015" lon="2.27994">
        <ele>190</ele>
        <time>2018-06-09T16:36:50Z</time>
      </trkpt>
      <trkpt lat="43.63015" lon="2.27994">
        <ele>190</ele>
        <time>2018-06-09T16:36:52Z</time>
      </trkpt>
      <trkpt lat="43.63015" lon="2.27993">
        <ele>190</ele>
        <time>2018-06-09T16:36:57Z</time>
      </trkpt>
      <trkpt lat="43.63014" lon="2.27992">
        <ele>190</ele>
        <time>2018-06-09T16:37:05Z</time>
      </trkpt>
      <trkpt lat="43.63013" lon="2.27991">
        <ele>190</ele>
        <time>2018-06-09T16:37:19Z</time>
      </trkpt>
      <trkpt lat="43.63013" lon="2.27991">
        <ele>190</ele>
        <time>2018-06-09T16:37:22Z</time>
      </trkpt>
      <trkpt lat="43.63012" lon="2.27991">
        <ele>190</ele>
        <time>2018-06-09T16:37:24Z</time>
      </trkpt>
      <trkpt lat="43.63013" lon="2.27988">
        <ele>190</ele>
        <time>2018-06-09T16:37:31Z</time>
      </trkpt>
      <trkpt lat="43.63013" lon="2.27987">
        <ele>190</ele>
        <time>2018-06-09T16:37:34Z</time>
      </trkpt>
      <trkpt lat="43.63012" lon="2.27983">
        <ele>190</ele>
        <time>2018-06-09T16:37:37Z</time>
      </trkpt>
      <trkpt lat="43.63011" lon="2.27982">
        <ele>190</ele>
        <time>2018-06-09T16:37:39Z</time>
      </trkpt>
      <trkpt lat="43.63011" lon="2.27982">
        <ele>190</ele>
        <time>2018-06-09T16:37:41Z</time>
      </trkpt>
      <trkpt lat="43.63011" lon="2.27982">
        <ele>190</ele>
        <time>2018-06-09T16:37:43Z</time>
      </trkpt>
      <trkpt lat="43.6301" lon="2.27982">
        <ele>190</ele>
        <time>2018-06-09T16:37:48Z</time>
      </trkpt>
      <trkpt lat="43.6301" lon="2.27982">
        <ele>190</ele>
        <time>2018-06-09T16:37:51Z</time>
      </trkpt>
      <trkpt lat="43.6301" lon="2.27982">
        <ele>190</ele>
        <time>2018-06-09T16:37:58Z</time>
      </trkpt>
      <trkpt lat="43.6301" lon="2.27982">
        <ele>190</ele>
        <time>2018-06-09T16:38:01Z</time>
      </trkpt>
      <trkpt lat="43.6301" lon="2.27982">
        <ele>190</ele>
        <time>2018-06-09T16:38:08Z</time>
      </trkpt>
      <trkpt lat="43.6301" lon="2.27982">
        <ele>190</ele>
        <time>2018-06-09T16:38:14Z</time>
      </trkpt>
      <trkpt lat="43.6301" lon="2.27982">
        <ele>190</ele>
        <time>2018-06-09T16:38:32Z</time>
      </trkpt>
      <trkpt lat="43.6301" lon="2.27981">
        <ele>190</ele>
        <time>2018-06-09T16:38:40Z</time>
      </trkpt>
      <trkpt lat="43.63009" lon="2.27981">
        <ele>190</ele>
        <time>2018-06-09T16:39:03Z</time>
      </trkpt>
      <trkpt lat="43.63009" lon="2.2798">
        <ele>190</ele>
        <time>2018-06-09T16:39:11Z</time>
      </trkpt>
      <trkpt lat="43.63009" lon="2.27979">
        <ele>190</ele>
        <time>2018-06-09T16:39:12Z</time>
      </trkpt>
      <trkpt lat="43.63009" lon="2.27979">
        <ele>190</ele>
        <time>2018-06-09T16:39:34Z</time>
      </trkpt>
      <trkpt lat="43.63009" lon="2.27979">
        <ele>190</ele>
        <time>2018-06-09T16:39:40Z</time>
      </trkpt>
      <trkpt lat="43.63009" lon="2.27979">
        <ele>190</ele>
        <time>2018-06-09T16:39:52Z</time>
      </trkpt>
      <trkpt lat="43.63008" lon="2.27979">
        <ele>190</ele>
        <time>2018-06-09T16:40:03Z</time>
      </trkpt>
      <trkpt lat="43.63008" lon="2.27979">
        <ele>190</ele>
        <time>2018-06-09T16:40:07Z</time>
      </trkpt>
      <trkpt lat="43.63008" lon="2.2798">
        <ele>190</ele>
        <time>2018-06-09T16:40:28Z</time>
      </trkpt>
      <trkpt lat="43.63008" lon="2.2798">
        <ele>190</ele>
        <time>2018-06-09T16:40:35Z</time>
      </trkpt>
      <trkpt lat="43.63008" lon="2.2798">
        <ele>190</ele>
        <time>2018-06-09T16:40:38Z</time>
      </trkpt>
      <trkpt lat="43.63008" lon="2.2798">
        <ele>189</ele>
        <time>2018-06-09T16:40:41Z</time>
      </trkpt>
      <trkpt lat="43.63008" lon="2.2798">
        <ele>190</ele>
        <time>2018-06-09T16:41:01Z</time>
      </trkpt>
      <trkpt lat="43.63008" lon="2.2798">
        <ele>190</ele>
        <time>2018-06-09T16:41:20Z</time>
      </trkpt>
      <trkpt lat="43.63007" lon="2.2798">
        <ele>189</ele>
        <time>2018-06-09T16:41:43Z</time>
      </trkpt>
      <trkpt lat="43.63007" lon="2.2798">
        <ele>190</ele>
        <time>2018-06-09T16:41:57Z</time>
      </trkpt>
      <trkpt lat="43.63007" lon="2.2798">
        <ele>190</ele>
        <time>2018-06-09T16:42:00Z</time>
      </trkpt>
      <trkpt lat="43.63007" lon="2.2798">
        <ele>190</ele>
        <time>2018-06-09T16:42:02Z</time>
      </trkpt>
      <trkpt lat="43.63007" lon="2.2798">
        <ele>190</ele>
        <time>2018-06-09T16:42:30Z</time>
      </trkpt>
      <trkpt lat="43.63007" lon="2.2798">
        <ele>190</ele>
        <time>2018-06-09T16:42:36Z</time>
      </trkpt>
      <trkpt lat="43.63007" lon="2.2798">
        <ele>190</ele>
        <time>2018-06-09T16:42:40Z</time>
      </trkpt>
      <trkpt lat="43.63007" lon="2.2798">
        <ele>190</ele>
        <time>2018-06-09T16:42:43Z</time>
      </trkpt>
      <trkpt lat="43.63007" lon="2.2798">
        <ele>190</ele>
        <time>2018-06-09T16:42:46Z</time>
      </trkpt>
      <trkpt lat="43.63007" lon="2.2798">
        <ele>191</ele>
        <time>2018-06-09T16:43:04Z</time>
      </trkpt>
      <trkpt lat="43.63007" lon="2.2798">
        <ele>191</ele>
        <time>2018-06-09T16:43:06Z</time>
      </trkpt>
      <trkpt lat="43.63007" lon="2.2798">
        <ele>191</ele>
        <time>2018-06-09T16:43:08Z</time>
      </trkpt>
      <trkpt lat="43.63007" lon="2.2798">
        <ele>191</ele>
        <time>2018-06-09T16:43:22Z</time>
      </trkpt>
      <trkpt lat="43.63007" lon="2.2798">
        <ele>190</ele>
        <time>2018-06-09T16:43:24Z</time>
      </trkpt>
      <trkpt lat="43.63007" lon="2.2798">
        <ele>190</ele>
        <time>2018-06-09T16:43:30Z</time>
      </trkpt>
      <trkpt lat="43.63007" lon="2.2798">
        <ele>190</ele>
        <time>2018-06-09T16:43:32Z</time>
      </trkpt>
      <trkpt lat="43.63007" lon="2.2798">
        <ele>190</ele>
        <time>2018-06-09T16:43:35Z</time>
      </trkpt>
      <trkpt lat="43.63007" lon="2.2798">
        <ele>190</ele>
        <time>2018-06-09T16:43:42Z</time>
      </trkpt>
      <trkpt lat="43.63007" lon="2.2798">
        <ele>191</ele>
        <time>2018-06-09T16:43:45Z</time>
      </trkpt>
      <trkpt lat="43.63007" lon="2.27983">
        <ele>190</ele>
        <time>2018-06-09T16:44:11Z</time>
      </trkpt>
      <trkpt lat="43.63007" lon="2.27983">
        <ele>190</ele>
        <time>2018-06-09T16:44:38Z</time>
      </trkpt>
      <trkpt lat="43.63007" lon="2.27983">
        <ele>190</ele>
        <time>2018-06-09T16:44:45Z</time>
      </trkpt>
      <trkpt lat="43.63007" lon="2.27984">
        <ele>190</ele>
        <time>2018-06-09T16:44:58Z</time>
      </trkpt>
      <trkpt lat="43.63007" lon="2.27984">
        <ele>190</ele>
        <time>2018-06-09T16:45:05Z</time>
      </trkpt>
    </trkseg>
  </trk>
</gpx>